<?xml version="1.0" encoding="UTF-8" standalone="no" ?>
<gpx xmlns="http://www.topografix.com/GPX/1/1" xmlns:xsi="http://www.w3.org/2001/XMLSchema-instance" xsi:schemaLocation="http://www.topografix.com/GPX/1/1 http://www.topografix.com/GPX/1/1/gpx.xsd" version="1.1" creator="VisuGPX - https://www.visugpx.com">
  <metadata>
    <name>Crete de Combeloup</name>
    <desc><![CDATA[Crete de Combeloup / Le Chapon / Pereree-Murianette]]></desc>
  </metadata>
  <trk>
    <name><![CDATA[20171025 (norm)]]></name>
    <trkseg>
      <trkpt lat="45.22543" lon="5.8029">
        <ele>290</ele>
        <time>2017-10-25T11:33:50Z</time>
      </trkpt>
      <trkpt lat="45.22429" lon="5.80243">
        <ele>264</ele>
        <time>2017-10-25T11:33:55Z</time>
      </trkpt>
      <trkpt lat="45.22429" lon="5.80229">
        <ele>265</ele>
        <time>2017-10-25T11:34:00Z</time>
      </trkpt>
      <trkpt lat="45.22424" lon="5.8023">
        <ele>264</ele>
        <time>2017-10-25T11:34:04Z</time>
      </trkpt>
      <trkpt lat="45.22421" lon="5.80235">
        <ele>262</ele>
        <time>2017-10-25T11:34:11Z</time>
      </trkpt>
      <trkpt lat="45.22426" lon="5.80231">
        <ele>264</ele>
        <time>2017-10-25T11:34:19Z</time>
      </trkpt>
      <trkpt lat="45.22426" lon="5.80224">
        <ele>265</ele>
        <time>2017-10-25T11:34:21Z</time>
      </trkpt>
      <trkpt lat="45.22425" lon="5.80231">
        <ele>264</ele>
        <time>2017-10-25T11:34:24Z</time>
      </trkpt>
      <trkpt lat="45.22426" lon="5.8024">
        <ele>263</ele>
        <time>2017-10-25T11:34:27Z</time>
      </trkpt>
      <trkpt lat="45.22426" lon="5.80246">
        <ele>263</ele>
        <time>2017-10-25T11:34:29Z</time>
      </trkpt>
      <trkpt lat="45.22429" lon="5.80258">
        <ele>263</ele>
        <time>2017-10-25T11:34:31Z</time>
      </trkpt>
      <trkpt lat="45.2243" lon="5.80265">
        <ele>262</ele>
        <time>2017-10-25T11:34:33Z</time>
      </trkpt>
      <trkpt lat="45.22431" lon="5.80274">
        <ele>262</ele>
        <time>2017-10-25T11:34:36Z</time>
      </trkpt>
      <trkpt lat="45.22429" lon="5.80281">
        <ele>260</ele>
        <time>2017-10-25T11:34:38Z</time>
      </trkpt>
      <trkpt lat="45.22422" lon="5.80282">
        <ele>259</ele>
        <time>2017-10-25T11:34:40Z</time>
      </trkpt>
      <trkpt lat="45.22415" lon="5.80288">
        <ele>257</ele>
        <time>2017-10-25T11:34:42Z</time>
      </trkpt>
      <trkpt lat="45.22409" lon="5.80294">
        <ele>255</ele>
        <time>2017-10-25T11:34:43Z</time>
      </trkpt>
      <trkpt lat="45.22397" lon="5.80315">
        <ele>251</ele>
        <time>2017-10-25T11:34:44Z</time>
      </trkpt>
      <trkpt lat="45.22376" lon="5.80329">
        <ele>248</ele>
        <time>2017-10-25T11:34:46Z</time>
      </trkpt>
      <trkpt lat="45.22366" lon="5.80334">
        <ele>247</ele>
        <time>2017-10-25T11:34:47Z</time>
      </trkpt>
      <trkpt lat="45.22352" lon="5.80345">
        <ele>245</ele>
        <time>2017-10-25T11:34:49Z</time>
      </trkpt>
      <trkpt lat="45.22342" lon="5.80356">
        <ele>244</ele>
        <time>2017-10-25T11:34:50Z</time>
      </trkpt>
      <trkpt lat="45.22336" lon="5.80362">
        <ele>244</ele>
        <time>2017-10-25T11:34:51Z</time>
      </trkpt>
      <trkpt lat="45.22329" lon="5.80357">
        <ele>243</ele>
        <time>2017-10-25T11:34:52Z</time>
      </trkpt>
      <trkpt lat="45.22323" lon="5.8035">
        <ele>243</ele>
        <time>2017-10-25T11:34:53Z</time>
      </trkpt>
      <trkpt lat="45.22319" lon="5.80359">
        <ele>243</ele>
        <time>2017-10-25T11:34:55Z</time>
      </trkpt>
      <trkpt lat="45.22317" lon="5.80347">
        <ele>243</ele>
        <time>2017-10-25T11:34:58Z</time>
      </trkpt>
      <trkpt lat="45.22315" lon="5.80337">
        <ele>243</ele>
        <time>2017-10-25T11:35:01Z</time>
      </trkpt>
      <trkpt lat="45.22316" lon="5.80344">
        <ele>243</ele>
        <time>2017-10-25T11:35:04Z</time>
      </trkpt>
      <trkpt lat="45.22314" lon="5.80351">
        <ele>243</ele>
        <time>2017-10-25T11:35:06Z</time>
      </trkpt>
      <trkpt lat="45.22313" lon="5.80359">
        <ele>242</ele>
        <time>2017-10-25T11:35:09Z</time>
      </trkpt>
      <trkpt lat="45.22308" lon="5.80365">
        <ele>242</ele>
        <time>2017-10-25T11:35:12Z</time>
      </trkpt>
      <trkpt lat="45.22306" lon="5.80373">
        <ele>242</ele>
        <time>2017-10-25T11:35:15Z</time>
      </trkpt>
      <trkpt lat="45.223" lon="5.80384">
        <ele>241</ele>
        <time>2017-10-25T11:35:17Z</time>
      </trkpt>
      <trkpt lat="45.22295" lon="5.80391">
        <ele>241</ele>
        <time>2017-10-25T11:35:18Z</time>
      </trkpt>
      <trkpt lat="45.22291" lon="5.80398">
        <ele>241</ele>
        <time>2017-10-25T11:35:19Z</time>
      </trkpt>
      <trkpt lat="45.22282" lon="5.80402">
        <ele>241</ele>
        <time>2017-10-25T11:35:21Z</time>
      </trkpt>
      <trkpt lat="45.22278" lon="5.80404">
        <ele>240</ele>
        <time>2017-10-25T11:35:22Z</time>
      </trkpt>
      <trkpt lat="45.22269" lon="5.80407">
        <ele>240</ele>
        <time>2017-10-25T11:35:24Z</time>
      </trkpt>
      <trkpt lat="45.2226" lon="5.80408">
        <ele>240</ele>
        <time>2017-10-25T11:35:26Z</time>
      </trkpt>
      <trkpt lat="45.22252" lon="5.80407">
        <ele>240</ele>
        <time>2017-10-25T11:35:28Z</time>
      </trkpt>
      <trkpt lat="45.22244" lon="5.80409">
        <ele>240</ele>
        <time>2017-10-25T11:35:30Z</time>
      </trkpt>
      <trkpt lat="45.22237" lon="5.80415">
        <ele>240</ele>
        <time>2017-10-25T11:35:32Z</time>
      </trkpt>
      <trkpt lat="45.2223" lon="5.8042">
        <ele>240</ele>
        <time>2017-10-25T11:35:34Z</time>
      </trkpt>
      <trkpt lat="45.22223" lon="5.80427">
        <ele>239</ele>
        <time>2017-10-25T11:35:36Z</time>
      </trkpt>
      <trkpt lat="45.22216" lon="5.8043">
        <ele>239</ele>
        <time>2017-10-25T11:35:38Z</time>
      </trkpt>
      <trkpt lat="45.22211" lon="5.80436">
        <ele>239</ele>
        <time>2017-10-25T11:35:40Z</time>
      </trkpt>
      <trkpt lat="45.22213" lon="5.80447">
        <ele>239</ele>
        <time>2017-10-25T11:35:42Z</time>
      </trkpt>
      <trkpt lat="45.22219" lon="5.80455">
        <ele>239</ele>
        <time>2017-10-25T11:35:44Z</time>
      </trkpt>
      <trkpt lat="45.22224" lon="5.80465">
        <ele>239</ele>
        <time>2017-10-25T11:35:46Z</time>
      </trkpt>
      <trkpt lat="45.22229" lon="5.80474">
        <ele>239</ele>
        <time>2017-10-25T11:35:48Z</time>
      </trkpt>
      <trkpt lat="45.22234" lon="5.80486">
        <ele>239</ele>
        <time>2017-10-25T11:35:50Z</time>
      </trkpt>
      <trkpt lat="45.22236" lon="5.80492">
        <ele>238</ele>
        <time>2017-10-25T11:35:51Z</time>
      </trkpt>
      <trkpt lat="45.22241" lon="5.80499">
        <ele>238</ele>
        <time>2017-10-25T11:35:53Z</time>
      </trkpt>
      <trkpt lat="45.22244" lon="5.80505">
        <ele>238</ele>
        <time>2017-10-25T11:35:56Z</time>
      </trkpt>
      <trkpt lat="45.22242" lon="5.80515">
        <ele>238</ele>
        <time>2017-10-25T11:35:59Z</time>
      </trkpt>
      <trkpt lat="45.22238" lon="5.80525">
        <ele>238</ele>
        <time>2017-10-25T11:36:01Z</time>
      </trkpt>
      <trkpt lat="45.22235" lon="5.80531">
        <ele>238</ele>
        <time>2017-10-25T11:36:02Z</time>
      </trkpt>
      <trkpt lat="45.22232" lon="5.80538">
        <ele>238</ele>
        <time>2017-10-25T11:36:03Z</time>
      </trkpt>
      <trkpt lat="45.22228" lon="5.80543">
        <ele>238</ele>
        <time>2017-10-25T11:36:04Z</time>
      </trkpt>
      <trkpt lat="45.22221" lon="5.80552">
        <ele>238</ele>
        <time>2017-10-25T11:36:06Z</time>
      </trkpt>
      <trkpt lat="45.22213" lon="5.80562">
        <ele>238</ele>
        <time>2017-10-25T11:36:08Z</time>
      </trkpt>
      <trkpt lat="45.22209" lon="5.80573">
        <ele>238</ele>
        <time>2017-10-25T11:36:09Z</time>
      </trkpt>
      <trkpt lat="45.22203" lon="5.80581">
        <ele>238</ele>
        <time>2017-10-25T11:36:11Z</time>
      </trkpt>
      <trkpt lat="45.22194" lon="5.8059">
        <ele>238</ele>
        <time>2017-10-25T11:36:13Z</time>
      </trkpt>
      <trkpt lat="45.22186" lon="5.80599">
        <ele>238</ele>
        <time>2017-10-25T11:36:15Z</time>
      </trkpt>
      <trkpt lat="45.22181" lon="5.80609">
        <ele>238</ele>
        <time>2017-10-25T11:36:17Z</time>
      </trkpt>
      <trkpt lat="45.22177" lon="5.80617">
        <ele>237</ele>
        <time>2017-10-25T11:36:19Z</time>
      </trkpt>
      <trkpt lat="45.22171" lon="5.80627">
        <ele>237</ele>
        <time>2017-10-25T11:36:21Z</time>
      </trkpt>
      <trkpt lat="45.22165" lon="5.80637">
        <ele>237</ele>
        <time>2017-10-25T11:36:23Z</time>
      </trkpt>
      <trkpt lat="45.22158" lon="5.8064">
        <ele>237</ele>
        <time>2017-10-25T11:36:25Z</time>
      </trkpt>
      <trkpt lat="45.2215" lon="5.8065">
        <ele>236</ele>
        <time>2017-10-25T11:36:27Z</time>
      </trkpt>
      <trkpt lat="45.22143" lon="5.80656">
        <ele>236</ele>
        <time>2017-10-25T11:36:29Z</time>
      </trkpt>
      <trkpt lat="45.2214" lon="5.80662">
        <ele>236</ele>
        <time>2017-10-25T11:36:30Z</time>
      </trkpt>
      <trkpt lat="45.22134" lon="5.8067">
        <ele>235</ele>
        <time>2017-10-25T11:36:31Z</time>
      </trkpt>
      <trkpt lat="45.22126" lon="5.80687">
        <ele>235</ele>
        <time>2017-10-25T11:36:32Z</time>
      </trkpt>
      <trkpt lat="45.22123" lon="5.80701">
        <ele>235</ele>
        <time>2017-10-25T11:36:33Z</time>
      </trkpt>
      <trkpt lat="45.22118" lon="5.80702">
        <ele>235</ele>
        <time>2017-10-25T11:36:35Z</time>
      </trkpt>
      <trkpt lat="45.22111" lon="5.80712">
        <ele>234</ele>
        <time>2017-10-25T11:36:38Z</time>
      </trkpt>
      <trkpt lat="45.22103" lon="5.8072">
        <ele>234</ele>
        <time>2017-10-25T11:36:40Z</time>
      </trkpt>
      <trkpt lat="45.22094" lon="5.80731">
        <ele>234</ele>
        <time>2017-10-25T11:36:41Z</time>
      </trkpt>
      <trkpt lat="45.22087" lon="5.80735">
        <ele>234</ele>
        <time>2017-10-25T11:36:43Z</time>
      </trkpt>
      <trkpt lat="45.22081" lon="5.80746">
        <ele>233</ele>
        <time>2017-10-25T11:36:45Z</time>
      </trkpt>
      <trkpt lat="45.2207" lon="5.80752">
        <ele>233</ele>
        <time>2017-10-25T11:36:47Z</time>
      </trkpt>
      <trkpt lat="45.22067" lon="5.80757">
        <ele>233</ele>
        <time>2017-10-25T11:36:48Z</time>
      </trkpt>
      <trkpt lat="45.22062" lon="5.80755">
        <ele>233</ele>
        <time>2017-10-25T11:36:49Z</time>
      </trkpt>
      <trkpt lat="45.22054" lon="5.80757">
        <ele>233</ele>
        <time>2017-10-25T11:36:51Z</time>
      </trkpt>
      <trkpt lat="45.22053" lon="5.80766">
        <ele>233</ele>
        <time>2017-10-25T11:36:52Z</time>
      </trkpt>
      <trkpt lat="45.22047" lon="5.80775">
        <ele>232</ele>
        <time>2017-10-25T11:36:54Z</time>
      </trkpt>
      <trkpt lat="45.22043" lon="5.80781">
        <ele>232</ele>
        <time>2017-10-25T11:36:56Z</time>
      </trkpt>
      <trkpt lat="45.22034" lon="5.80777">
        <ele>232</ele>
        <time>2017-10-25T11:36:57Z</time>
      </trkpt>
      <trkpt lat="45.22026" lon="5.80779">
        <ele>232</ele>
        <time>2017-10-25T11:37:00Z</time>
      </trkpt>
      <trkpt lat="45.22022" lon="5.80783">
        <ele>231</ele>
        <time>2017-10-25T11:37:01Z</time>
      </trkpt>
      <trkpt lat="45.22014" lon="5.80794">
        <ele>231</ele>
        <time>2017-10-25T11:37:03Z</time>
      </trkpt>
      <trkpt lat="45.22008" lon="5.80799">
        <ele>231</ele>
        <time>2017-10-25T11:37:04Z</time>
      </trkpt>
      <trkpt lat="45.22002" lon="5.80804">
        <ele>230</ele>
        <time>2017-10-25T11:37:05Z</time>
      </trkpt>
      <trkpt lat="45.21997" lon="5.80812">
        <ele>230</ele>
        <time>2017-10-25T11:37:06Z</time>
      </trkpt>
      <trkpt lat="45.21986" lon="5.8082">
        <ele>229</ele>
        <time>2017-10-25T11:37:08Z</time>
      </trkpt>
      <trkpt lat="45.21982" lon="5.80825">
        <ele>229</ele>
        <time>2017-10-25T11:37:09Z</time>
      </trkpt>
      <trkpt lat="45.21975" lon="5.80833">
        <ele>229</ele>
        <time>2017-10-25T11:37:11Z</time>
      </trkpt>
      <trkpt lat="45.2197" lon="5.80839">
        <ele>228</ele>
        <time>2017-10-25T11:37:12Z</time>
      </trkpt>
      <trkpt lat="45.21969" lon="5.80849">
        <ele>228</ele>
        <time>2017-10-25T11:37:13Z</time>
      </trkpt>
      <trkpt lat="45.21963" lon="5.80852">
        <ele>228</ele>
        <time>2017-10-25T11:37:14Z</time>
      </trkpt>
      <trkpt lat="45.21957" lon="5.80861">
        <ele>228</ele>
        <time>2017-10-25T11:37:15Z</time>
      </trkpt>
      <trkpt lat="45.21946" lon="5.80868">
        <ele>227</ele>
        <time>2017-10-25T11:37:17Z</time>
      </trkpt>
      <trkpt lat="45.21941" lon="5.80864">
        <ele>227</ele>
        <time>2017-10-25T11:37:18Z</time>
      </trkpt>
      <trkpt lat="45.21928" lon="5.80862">
        <ele>227</ele>
        <time>2017-10-25T11:37:20Z</time>
      </trkpt>
      <trkpt lat="45.21925" lon="5.8087">
        <ele>227</ele>
        <time>2017-10-25T11:37:21Z</time>
      </trkpt>
      <trkpt lat="45.21918" lon="5.80876">
        <ele>226</ele>
        <time>2017-10-25T11:37:22Z</time>
      </trkpt>
      <trkpt lat="45.21911" lon="5.80883">
        <ele>226</ele>
        <time>2017-10-25T11:37:24Z</time>
      </trkpt>
      <trkpt lat="45.21902" lon="5.80891">
        <ele>226</ele>
        <time>2017-10-25T11:37:26Z</time>
      </trkpt>
      <trkpt lat="45.21898" lon="5.80895">
        <ele>225</ele>
        <time>2017-10-25T11:37:27Z</time>
      </trkpt>
      <trkpt lat="45.21896" lon="5.80915">
        <ele>225</ele>
        <time>2017-10-25T11:37:29Z</time>
      </trkpt>
      <trkpt lat="45.2189" lon="5.80917">
        <ele>224</ele>
        <time>2017-10-25T11:37:30Z</time>
      </trkpt>
      <trkpt lat="45.21882" lon="5.80924">
        <ele>224</ele>
        <time>2017-10-25T11:37:32Z</time>
      </trkpt>
      <trkpt lat="45.21877" lon="5.80922">
        <ele>224</ele>
        <time>2017-10-25T11:37:35Z</time>
      </trkpt>
      <trkpt lat="45.21873" lon="5.8093">
        <ele>224</ele>
        <time>2017-10-25T11:37:40Z</time>
      </trkpt>
      <trkpt lat="45.21874" lon="5.80944">
        <ele>223</ele>
        <time>2017-10-25T11:37:46Z</time>
      </trkpt>
      <trkpt lat="45.21879" lon="5.80953">
        <ele>223</ele>
        <time>2017-10-25T11:37:48Z</time>
      </trkpt>
      <trkpt lat="45.21882" lon="5.8096">
        <ele>223</ele>
        <time>2017-10-25T11:37:49Z</time>
      </trkpt>
      <trkpt lat="45.21888" lon="5.80972">
        <ele>223</ele>
        <time>2017-10-25T11:37:51Z</time>
      </trkpt>
      <trkpt lat="45.21895" lon="5.80965">
        <ele>223</ele>
        <time>2017-10-25T11:37:54Z</time>
      </trkpt>
      <trkpt lat="45.21899" lon="5.80979">
        <ele>223</ele>
        <time>2017-10-25T11:37:56Z</time>
      </trkpt>
      <trkpt lat="45.21907" lon="5.80987">
        <ele>224</ele>
        <time>2017-10-25T11:37:58Z</time>
      </trkpt>
      <trkpt lat="45.21916" lon="5.81">
        <ele>224</ele>
        <time>2017-10-25T11:38:00Z</time>
      </trkpt>
      <trkpt lat="45.21918" lon="5.81008">
        <ele>224</ele>
        <time>2017-10-25T11:38:01Z</time>
      </trkpt>
      <trkpt lat="45.2192" lon="5.81014">
        <ele>224</ele>
        <time>2017-10-25T11:38:02Z</time>
      </trkpt>
      <trkpt lat="45.21923" lon="5.8102">
        <ele>224</ele>
        <time>2017-10-25T11:38:03Z</time>
      </trkpt>
      <trkpt lat="45.21927" lon="5.81029">
        <ele>224</ele>
        <time>2017-10-25T11:38:05Z</time>
      </trkpt>
      <trkpt lat="45.21932" lon="5.81036">
        <ele>224</ele>
        <time>2017-10-25T11:38:07Z</time>
      </trkpt>
      <trkpt lat="45.21938" lon="5.81045">
        <ele>224</ele>
        <time>2017-10-25T11:38:09Z</time>
      </trkpt>
      <trkpt lat="45.21944" lon="5.81054">
        <ele>224</ele>
        <time>2017-10-25T11:38:11Z</time>
      </trkpt>
      <trkpt lat="45.21951" lon="5.81063">
        <ele>225</ele>
        <time>2017-10-25T11:38:13Z</time>
      </trkpt>
      <trkpt lat="45.21956" lon="5.81074">
        <ele>225</ele>
        <time>2017-10-25T11:38:15Z</time>
      </trkpt>
      <trkpt lat="45.21962" lon="5.81083">
        <ele>225</ele>
        <time>2017-10-25T11:38:17Z</time>
      </trkpt>
      <trkpt lat="45.21965" lon="5.81089">
        <ele>225</ele>
        <time>2017-10-25T11:38:18Z</time>
      </trkpt>
      <trkpt lat="45.21972" lon="5.81098">
        <ele>225</ele>
        <time>2017-10-25T11:38:20Z</time>
      </trkpt>
      <trkpt lat="45.21975" lon="5.81103">
        <ele>225</ele>
        <time>2017-10-25T11:38:21Z</time>
      </trkpt>
      <trkpt lat="45.21979" lon="5.81113">
        <ele>225</ele>
        <time>2017-10-25T11:38:22Z</time>
      </trkpt>
      <trkpt lat="45.21981" lon="5.81119">
        <ele>225</ele>
        <time>2017-10-25T11:38:23Z</time>
      </trkpt>
      <trkpt lat="45.21985" lon="5.81124">
        <ele>225</ele>
        <time>2017-10-25T11:38:24Z</time>
      </trkpt>
      <trkpt lat="45.21988" lon="5.8113">
        <ele>225</ele>
        <time>2017-10-25T11:38:25Z</time>
      </trkpt>
      <trkpt lat="45.21996" lon="5.81133">
        <ele>225</ele>
        <time>2017-10-25T11:38:27Z</time>
      </trkpt>
      <trkpt lat="45.22001" lon="5.81139">
        <ele>225</ele>
        <time>2017-10-25T11:38:32Z</time>
      </trkpt>
      <trkpt lat="45.21997" lon="5.81143">
        <ele>225</ele>
        <time>2017-10-25T11:38:34Z</time>
      </trkpt>
      <trkpt lat="45.21998" lon="5.8115">
        <ele>225</ele>
        <time>2017-10-25T11:38:35Z</time>
      </trkpt>
      <trkpt lat="45.21996" lon="5.81158">
        <ele>224</ele>
        <time>2017-10-25T11:38:37Z</time>
      </trkpt>
      <trkpt lat="45.21992" lon="5.81163">
        <ele>224</ele>
        <time>2017-10-25T11:38:38Z</time>
      </trkpt>
      <trkpt lat="45.21988" lon="5.81168">
        <ele>224</ele>
        <time>2017-10-25T11:38:39Z</time>
      </trkpt>
      <trkpt lat="45.21986" lon="5.81178">
        <ele>224</ele>
        <time>2017-10-25T11:38:40Z</time>
      </trkpt>
      <trkpt lat="45.21977" lon="5.81193">
        <ele>223</ele>
        <time>2017-10-25T11:38:42Z</time>
      </trkpt>
      <trkpt lat="45.2197" lon="5.81203">
        <ele>223</ele>
        <time>2017-10-25T11:38:44Z</time>
      </trkpt>
      <trkpt lat="45.21967" lon="5.81209">
        <ele>223</ele>
        <time>2017-10-25T11:38:45Z</time>
      </trkpt>
      <trkpt lat="45.21962" lon="5.81222">
        <ele>223</ele>
        <time>2017-10-25T11:38:47Z</time>
      </trkpt>
      <trkpt lat="45.21957" lon="5.81231">
        <ele>222</ele>
        <time>2017-10-25T11:38:49Z</time>
      </trkpt>
      <trkpt lat="45.21956" lon="5.81239">
        <ele>222</ele>
        <time>2017-10-25T11:38:50Z</time>
      </trkpt>
      <trkpt lat="45.21954" lon="5.81247">
        <ele>222</ele>
        <time>2017-10-25T11:38:51Z</time>
      </trkpt>
      <trkpt lat="45.21958" lon="5.81261">
        <ele>222</ele>
        <time>2017-10-25T11:38:52Z</time>
      </trkpt>
      <trkpt lat="45.21958" lon="5.81269">
        <ele>222</ele>
        <time>2017-10-25T11:38:53Z</time>
      </trkpt>
      <trkpt lat="45.21957" lon="5.81279">
        <ele>222</ele>
        <time>2017-10-25T11:38:54Z</time>
      </trkpt>
      <trkpt lat="45.21959" lon="5.81291">
        <ele>222</ele>
        <time>2017-10-25T11:38:56Z</time>
      </trkpt>
      <trkpt lat="45.21959" lon="5.81298">
        <ele>222</ele>
        <time>2017-10-25T11:38:57Z</time>
      </trkpt>
      <trkpt lat="45.21959" lon="5.81316">
        <ele>222</ele>
        <time>2017-10-25T11:38:58Z</time>
      </trkpt>
      <trkpt lat="45.21957" lon="5.81332">
        <ele>222</ele>
        <time>2017-10-25T11:38:59Z</time>
      </trkpt>
      <trkpt lat="45.21956" lon="5.81342">
        <ele>222</ele>
        <time>2017-10-25T11:39:00Z</time>
      </trkpt>
      <trkpt lat="45.21959" lon="5.81353">
        <ele>222</ele>
        <time>2017-10-25T11:39:01Z</time>
      </trkpt>
      <trkpt lat="45.21958" lon="5.81362">
        <ele>222</ele>
        <time>2017-10-25T11:39:02Z</time>
      </trkpt>
      <trkpt lat="45.21964" lon="5.8138">
        <ele>221</ele>
        <time>2017-10-25T11:39:04Z</time>
      </trkpt>
      <trkpt lat="45.21963" lon="5.81389">
        <ele>221</ele>
        <time>2017-10-25T11:39:05Z</time>
      </trkpt>
      <trkpt lat="45.21959" lon="5.81386">
        <ele>221</ele>
        <time>2017-10-25T11:39:06Z</time>
      </trkpt>
      <trkpt lat="45.21954" lon="5.81375">
        <ele>221</ele>
        <time>2017-10-25T11:39:08Z</time>
      </trkpt>
      <trkpt lat="45.21948" lon="5.81394">
        <ele>221</ele>
        <time>2017-10-25T11:39:10Z</time>
      </trkpt>
      <trkpt lat="45.21944" lon="5.81401">
        <ele>221</ele>
        <time>2017-10-25T11:39:11Z</time>
      </trkpt>
      <trkpt lat="45.21935" lon="5.81404">
        <ele>221</ele>
        <time>2017-10-25T11:39:13Z</time>
      </trkpt>
      <trkpt lat="45.21932" lon="5.81412">
        <ele>220</ele>
        <time>2017-10-25T11:39:14Z</time>
      </trkpt>
      <trkpt lat="45.21927" lon="5.8142">
        <ele>220</ele>
        <time>2017-10-25T11:39:15Z</time>
      </trkpt>
      <trkpt lat="45.21922" lon="5.81428">
        <ele>220</ele>
        <time>2017-10-25T11:39:16Z</time>
      </trkpt>
      <trkpt lat="45.21913" lon="5.81426">
        <ele>220</ele>
        <time>2017-10-25T11:39:18Z</time>
      </trkpt>
      <trkpt lat="45.21904" lon="5.81439">
        <ele>220</ele>
        <time>2017-10-25T11:39:20Z</time>
      </trkpt>
      <trkpt lat="45.21899" lon="5.81445">
        <ele>220</ele>
        <time>2017-10-25T11:39:21Z</time>
      </trkpt>
      <trkpt lat="45.21896" lon="5.8145">
        <ele>220</ele>
        <time>2017-10-25T11:39:22Z</time>
      </trkpt>
      <trkpt lat="45.21886" lon="5.81456">
        <ele>220</ele>
        <time>2017-10-25T11:39:24Z</time>
      </trkpt>
      <trkpt lat="45.21883" lon="5.81464">
        <ele>220</ele>
        <time>2017-10-25T11:39:25Z</time>
      </trkpt>
      <trkpt lat="45.21878" lon="5.81467">
        <ele>220</ele>
        <time>2017-10-25T11:39:26Z</time>
      </trkpt>
      <trkpt lat="45.2187" lon="5.81476">
        <ele>220</ele>
        <time>2017-10-25T11:39:28Z</time>
      </trkpt>
      <trkpt lat="45.21862" lon="5.81481">
        <ele>220</ele>
        <time>2017-10-25T11:39:30Z</time>
      </trkpt>
      <trkpt lat="45.21855" lon="5.81488">
        <ele>220</ele>
        <time>2017-10-25T11:39:32Z</time>
      </trkpt>
      <trkpt lat="45.21849" lon="5.81496">
        <ele>220</ele>
        <time>2017-10-25T11:39:34Z</time>
      </trkpt>
      <trkpt lat="45.2184" lon="5.81507">
        <ele>220</ele>
        <time>2017-10-25T11:39:36Z</time>
      </trkpt>
      <trkpt lat="45.21836" lon="5.81511">
        <ele>220</ele>
        <time>2017-10-25T11:39:37Z</time>
      </trkpt>
      <trkpt lat="45.21829" lon="5.81518">
        <ele>220</ele>
        <time>2017-10-25T11:39:39Z</time>
      </trkpt>
      <trkpt lat="45.21821" lon="5.81523">
        <ele>220</ele>
        <time>2017-10-25T11:39:41Z</time>
      </trkpt>
      <trkpt lat="45.21816" lon="5.81527">
        <ele>220</ele>
        <time>2017-10-25T11:39:42Z</time>
      </trkpt>
      <trkpt lat="45.21808" lon="5.81533">
        <ele>220</ele>
        <time>2017-10-25T11:39:44Z</time>
      </trkpt>
      <trkpt lat="45.21803" lon="5.81537">
        <ele>220</ele>
        <time>2017-10-25T11:39:45Z</time>
      </trkpt>
      <trkpt lat="45.21794" lon="5.81544">
        <ele>220</ele>
        <time>2017-10-25T11:39:47Z</time>
      </trkpt>
      <trkpt lat="45.21789" lon="5.81548">
        <ele>220</ele>
        <time>2017-10-25T11:39:48Z</time>
      </trkpt>
      <trkpt lat="45.21784" lon="5.81551">
        <ele>220</ele>
        <time>2017-10-25T11:39:50Z</time>
      </trkpt>
      <trkpt lat="45.21775" lon="5.81553">
        <ele>220</ele>
        <time>2017-10-25T11:39:51Z</time>
      </trkpt>
      <trkpt lat="45.21768" lon="5.8156">
        <ele>220</ele>
        <time>2017-10-25T11:39:53Z</time>
      </trkpt>
      <trkpt lat="45.21762" lon="5.81564">
        <ele>219</ele>
        <time>2017-10-25T11:39:54Z</time>
      </trkpt>
      <trkpt lat="45.21758" lon="5.81576">
        <ele>219</ele>
        <time>2017-10-25T11:39:56Z</time>
      </trkpt>
      <trkpt lat="45.21752" lon="5.81583">
        <ele>219</ele>
        <time>2017-10-25T11:39:58Z</time>
      </trkpt>
      <trkpt lat="45.21745" lon="5.8158">
        <ele>219</ele>
        <time>2017-10-25T11:39:59Z</time>
      </trkpt>
      <trkpt lat="45.2174" lon="5.81586">
        <ele>219</ele>
        <time>2017-10-25T11:40:01Z</time>
      </trkpt>
      <trkpt lat="45.21726" lon="5.81576">
        <ele>219</ele>
        <time>2017-10-25T11:40:03Z</time>
      </trkpt>
      <trkpt lat="45.21719" lon="5.81578">
        <ele>219</ele>
        <time>2017-10-25T11:40:05Z</time>
      </trkpt>
      <trkpt lat="45.21718" lon="5.81587">
        <ele>219</ele>
        <time>2017-10-25T11:40:06Z</time>
      </trkpt>
      <trkpt lat="45.21708" lon="5.81595">
        <ele>219</ele>
        <time>2017-10-25T11:40:09Z</time>
      </trkpt>
      <trkpt lat="45.21707" lon="5.81601">
        <ele>219</ele>
        <time>2017-10-25T11:40:10Z</time>
      </trkpt>
      <trkpt lat="45.21701" lon="5.81611">
        <ele>219</ele>
        <time>2017-10-25T11:40:12Z</time>
      </trkpt>
      <trkpt lat="45.21685" lon="5.81635">
        <ele>219</ele>
        <time>2017-10-25T11:40:18Z</time>
      </trkpt>
      <trkpt lat="45.2168" lon="5.81637">
        <ele>219</ele>
        <time>2017-10-25T11:40:19Z</time>
      </trkpt>
      <trkpt lat="45.21676" lon="5.81637">
        <ele>219</ele>
        <time>2017-10-25T11:40:20Z</time>
      </trkpt>
      <trkpt lat="45.21667" lon="5.81637">
        <ele>219</ele>
        <time>2017-10-25T11:40:22Z</time>
      </trkpt>
      <trkpt lat="45.21661" lon="5.81634">
        <ele>219</ele>
        <time>2017-10-25T11:40:24Z</time>
      </trkpt>
      <trkpt lat="45.21656" lon="5.81631">
        <ele>219</ele>
        <time>2017-10-25T11:40:26Z</time>
      </trkpt>
      <trkpt lat="45.21652" lon="5.81628">
        <ele>219</ele>
        <time>2017-10-25T11:40:27Z</time>
      </trkpt>
      <trkpt lat="45.21643" lon="5.81623">
        <ele>219</ele>
        <time>2017-10-25T11:40:29Z</time>
      </trkpt>
      <trkpt lat="45.21636" lon="5.81621">
        <ele>219</ele>
        <time>2017-10-25T11:40:31Z</time>
      </trkpt>
      <trkpt lat="45.21633" lon="5.81626">
        <ele>219</ele>
        <time>2017-10-25T11:40:35Z</time>
      </trkpt>
      <trkpt lat="45.21637" lon="5.81634">
        <ele>219</ele>
        <time>2017-10-25T11:40:39Z</time>
      </trkpt>
      <trkpt lat="45.21642" lon="5.81639">
        <ele>219</ele>
        <time>2017-10-25T11:40:41Z</time>
      </trkpt>
      <trkpt lat="45.21647" lon="5.81642">
        <ele>219</ele>
        <time>2017-10-25T11:40:42Z</time>
      </trkpt>
      <trkpt lat="45.21658" lon="5.81651">
        <ele>219</ele>
        <time>2017-10-25T11:40:45Z</time>
      </trkpt>
      <trkpt lat="45.21663" lon="5.81654">
        <ele>219</ele>
        <time>2017-10-25T11:40:46Z</time>
      </trkpt>
      <trkpt lat="45.21667" lon="5.81658">
        <ele>219</ele>
        <time>2017-10-25T11:40:47Z</time>
      </trkpt>
      <trkpt lat="45.21674" lon="5.81663">
        <ele>219</ele>
        <time>2017-10-25T11:40:49Z</time>
      </trkpt>
      <trkpt lat="45.21683" lon="5.81672">
        <ele>219</ele>
        <time>2017-10-25T11:40:51Z</time>
      </trkpt>
      <trkpt lat="45.2169" lon="5.81681">
        <ele>219</ele>
        <time>2017-10-25T11:40:53Z</time>
      </trkpt>
      <trkpt lat="45.21699" lon="5.81697">
        <ele>219</ele>
        <time>2017-10-25T11:40:54Z</time>
      </trkpt>
      <trkpt lat="45.21706" lon="5.817">
        <ele>219</ele>
        <time>2017-10-25T11:40:56Z</time>
      </trkpt>
      <trkpt lat="45.21714" lon="5.81706">
        <ele>219</ele>
        <time>2017-10-25T11:40:58Z</time>
      </trkpt>
      <trkpt lat="45.21721" lon="5.81712">
        <ele>219</ele>
        <time>2017-10-25T11:41:00Z</time>
      </trkpt>
      <trkpt lat="45.21724" lon="5.81718">
        <ele>219</ele>
        <time>2017-10-25T11:41:01Z</time>
      </trkpt>
      <trkpt lat="45.21729" lon="5.81724">
        <ele>219</ele>
        <time>2017-10-25T11:41:02Z</time>
      </trkpt>
      <trkpt lat="45.21737" lon="5.81735">
        <ele>219</ele>
        <time>2017-10-25T11:41:04Z</time>
      </trkpt>
      <trkpt lat="45.21745" lon="5.81741">
        <ele>219</ele>
        <time>2017-10-25T11:41:06Z</time>
      </trkpt>
      <trkpt lat="45.21749" lon="5.81746">
        <ele>219</ele>
        <time>2017-10-25T11:41:07Z</time>
      </trkpt>
      <trkpt lat="45.21753" lon="5.81742">
        <ele>219</ele>
        <time>2017-10-25T11:41:08Z</time>
      </trkpt>
      <trkpt lat="45.21758" lon="5.81748">
        <ele>219</ele>
        <time>2017-10-25T11:41:09Z</time>
      </trkpt>
      <trkpt lat="45.21769" lon="5.81756">
        <ele>220</ele>
        <time>2017-10-25T11:41:11Z</time>
      </trkpt>
      <trkpt lat="45.21772" lon="5.81762">
        <ele>220</ele>
        <time>2017-10-25T11:41:14Z</time>
      </trkpt>
      <trkpt lat="45.21777" lon="5.81767">
        <ele>220</ele>
        <time>2017-10-25T11:41:15Z</time>
      </trkpt>
      <trkpt lat="45.21785" lon="5.81774">
        <ele>220</ele>
        <time>2017-10-25T11:41:17Z</time>
      </trkpt>
      <trkpt lat="45.21789" lon="5.81779">
        <ele>220</ele>
        <time>2017-10-25T11:41:19Z</time>
      </trkpt>
      <trkpt lat="45.21797" lon="5.81779">
        <ele>220</ele>
        <time>2017-10-25T11:41:21Z</time>
      </trkpt>
      <trkpt lat="45.21803" lon="5.81784">
        <ele>220</ele>
        <time>2017-10-25T11:41:24Z</time>
      </trkpt>
      <trkpt lat="45.21817" lon="5.81799">
        <ele>219</ele>
        <time>2017-10-25T11:41:26Z</time>
      </trkpt>
      <trkpt lat="45.21825" lon="5.81807">
        <ele>219</ele>
        <time>2017-10-25T11:41:28Z</time>
      </trkpt>
      <trkpt lat="45.21833" lon="5.81815">
        <ele>219</ele>
        <time>2017-10-25T11:41:30Z</time>
      </trkpt>
      <trkpt lat="45.21841" lon="5.81823">
        <ele>220</ele>
        <time>2017-10-25T11:41:32Z</time>
      </trkpt>
      <trkpt lat="45.21848" lon="5.81826">
        <ele>220</ele>
        <time>2017-10-25T11:41:34Z</time>
      </trkpt>
      <trkpt lat="45.21856" lon="5.81829">
        <ele>220</ele>
        <time>2017-10-25T11:41:36Z</time>
      </trkpt>
      <trkpt lat="45.21862" lon="5.81833">
        <ele>220</ele>
        <time>2017-10-25T11:41:38Z</time>
      </trkpt>
      <trkpt lat="45.21868" lon="5.81839">
        <ele>220</ele>
        <time>2017-10-25T11:41:39Z</time>
      </trkpt>
      <trkpt lat="45.21877" lon="5.81848">
        <ele>220</ele>
        <time>2017-10-25T11:41:41Z</time>
      </trkpt>
      <trkpt lat="45.21887" lon="5.81866">
        <ele>220</ele>
        <time>2017-10-25T11:41:43Z</time>
      </trkpt>
      <trkpt lat="45.21892" lon="5.81868">
        <ele>220</ele>
        <time>2017-10-25T11:41:44Z</time>
      </trkpt>
      <trkpt lat="45.21896" lon="5.81873">
        <ele>220</ele>
        <time>2017-10-25T11:41:45Z</time>
      </trkpt>
      <trkpt lat="45.21904" lon="5.81877">
        <ele>220</ele>
        <time>2017-10-25T11:41:47Z</time>
      </trkpt>
      <trkpt lat="45.21908" lon="5.81882">
        <ele>220</ele>
        <time>2017-10-25T11:41:48Z</time>
      </trkpt>
      <trkpt lat="45.21917" lon="5.81894">
        <ele>220</ele>
        <time>2017-10-25T11:41:50Z</time>
      </trkpt>
      <trkpt lat="45.21926" lon="5.819">
        <ele>220</ele>
        <time>2017-10-25T11:41:52Z</time>
      </trkpt>
      <trkpt lat="45.21932" lon="5.81903">
        <ele>220</ele>
        <time>2017-10-25T11:41:54Z</time>
      </trkpt>
      <trkpt lat="45.21938" lon="5.8191">
        <ele>220</ele>
        <time>2017-10-25T11:41:55Z</time>
      </trkpt>
      <trkpt lat="45.21946" lon="5.81918">
        <ele>220</ele>
        <time>2017-10-25T11:41:57Z</time>
      </trkpt>
      <trkpt lat="45.2195" lon="5.81923">
        <ele>220</ele>
        <time>2017-10-25T11:41:58Z</time>
      </trkpt>
      <trkpt lat="45.21959" lon="5.81929">
        <ele>220</ele>
        <time>2017-10-25T11:42:00Z</time>
      </trkpt>
      <trkpt lat="45.21967" lon="5.81935">
        <ele>220</ele>
        <time>2017-10-25T11:42:02Z</time>
      </trkpt>
      <trkpt lat="45.21978" lon="5.8195">
        <ele>220</ele>
        <time>2017-10-25T11:42:04Z</time>
      </trkpt>
      <trkpt lat="45.21982" lon="5.81956">
        <ele>220</ele>
        <time>2017-10-25T11:42:05Z</time>
      </trkpt>
      <trkpt lat="45.21989" lon="5.8196">
        <ele>220</ele>
        <time>2017-10-25T11:42:07Z</time>
      </trkpt>
      <trkpt lat="45.21998" lon="5.81964">
        <ele>220</ele>
        <time>2017-10-25T11:42:09Z</time>
      </trkpt>
      <trkpt lat="45.22006" lon="5.81972">
        <ele>220</ele>
        <time>2017-10-25T11:42:11Z</time>
      </trkpt>
      <trkpt lat="45.22011" lon="5.81979">
        <ele>220</ele>
        <time>2017-10-25T11:42:12Z</time>
      </trkpt>
      <trkpt lat="45.22018" lon="5.81985">
        <ele>220</ele>
        <time>2017-10-25T11:42:14Z</time>
      </trkpt>
      <trkpt lat="45.22027" lon="5.81999">
        <ele>220</ele>
        <time>2017-10-25T11:42:17Z</time>
      </trkpt>
      <trkpt lat="45.22033" lon="5.82004">
        <ele>220</ele>
        <time>2017-10-25T11:42:18Z</time>
      </trkpt>
      <trkpt lat="45.22042" lon="5.82008">
        <ele>220</ele>
        <time>2017-10-25T11:42:20Z</time>
      </trkpt>
      <trkpt lat="45.22047" lon="5.82018">
        <ele>220</ele>
        <time>2017-10-25T11:42:21Z</time>
      </trkpt>
      <trkpt lat="45.22057" lon="5.8203">
        <ele>220</ele>
        <time>2017-10-25T11:42:23Z</time>
      </trkpt>
      <trkpt lat="45.22062" lon="5.82034">
        <ele>220</ele>
        <time>2017-10-25T11:42:24Z</time>
      </trkpt>
      <trkpt lat="45.22066" lon="5.82037">
        <ele>220</ele>
        <time>2017-10-25T11:42:25Z</time>
      </trkpt>
      <trkpt lat="45.22072" lon="5.82044">
        <ele>220</ele>
        <time>2017-10-25T11:42:26Z</time>
      </trkpt>
      <trkpt lat="45.22076" lon="5.82049">
        <ele>220</ele>
        <time>2017-10-25T11:42:27Z</time>
      </trkpt>
      <trkpt lat="45.22081" lon="5.8205">
        <ele>220</ele>
        <time>2017-10-25T11:42:29Z</time>
      </trkpt>
      <trkpt lat="45.22086" lon="5.82059">
        <ele>220</ele>
        <time>2017-10-25T11:42:30Z</time>
      </trkpt>
      <trkpt lat="45.22094" lon="5.82067">
        <ele>220</ele>
        <time>2017-10-25T11:42:32Z</time>
      </trkpt>
      <trkpt lat="45.22098" lon="5.82076">
        <ele>220</ele>
        <time>2017-10-25T11:42:34Z</time>
      </trkpt>
      <trkpt lat="45.22102" lon="5.82081">
        <ele>220</ele>
        <time>2017-10-25T11:42:35Z</time>
      </trkpt>
      <trkpt lat="45.22103" lon="5.82089">
        <ele>220</ele>
        <time>2017-10-25T11:42:36Z</time>
      </trkpt>
      <trkpt lat="45.221" lon="5.82099">
        <ele>220</ele>
        <time>2017-10-25T11:42:38Z</time>
      </trkpt>
      <trkpt lat="45.22098" lon="5.82106">
        <ele>220</ele>
        <time>2017-10-25T11:42:40Z</time>
      </trkpt>
      <trkpt lat="45.22096" lon="5.82112">
        <ele>220</ele>
        <time>2017-10-25T11:42:41Z</time>
      </trkpt>
      <trkpt lat="45.22092" lon="5.82117">
        <ele>220</ele>
        <time>2017-10-25T11:42:42Z</time>
      </trkpt>
      <trkpt lat="45.22088" lon="5.82119">
        <ele>220</ele>
        <time>2017-10-25T11:42:43Z</time>
      </trkpt>
      <trkpt lat="45.22081" lon="5.82118">
        <ele>220</ele>
        <time>2017-10-25T11:42:44Z</time>
      </trkpt>
      <trkpt lat="45.22069" lon="5.82124">
        <ele>220</ele>
        <time>2017-10-25T11:42:47Z</time>
      </trkpt>
      <trkpt lat="45.22059" lon="5.82132">
        <ele>220</ele>
        <time>2017-10-25T11:42:49Z</time>
      </trkpt>
      <trkpt lat="45.22054" lon="5.82136">
        <ele>220</ele>
        <time>2017-10-25T11:42:50Z</time>
      </trkpt>
      <trkpt lat="45.22045" lon="5.82142">
        <ele>220</ele>
        <time>2017-10-25T11:42:52Z</time>
      </trkpt>
      <trkpt lat="45.2204" lon="5.82146">
        <ele>220</ele>
        <time>2017-10-25T11:42:53Z</time>
      </trkpt>
      <trkpt lat="45.22035" lon="5.82152">
        <ele>220</ele>
        <time>2017-10-25T11:42:54Z</time>
      </trkpt>
      <trkpt lat="45.22031" lon="5.82155">
        <ele>220</ele>
        <time>2017-10-25T11:42:55Z</time>
      </trkpt>
      <trkpt lat="45.22022" lon="5.82159">
        <ele>220</ele>
        <time>2017-10-25T11:42:57Z</time>
      </trkpt>
      <trkpt lat="45.22017" lon="5.82163">
        <ele>220</ele>
        <time>2017-10-25T11:42:58Z</time>
      </trkpt>
      <trkpt lat="45.22011" lon="5.82164">
        <ele>220</ele>
        <time>2017-10-25T11:42:59Z</time>
      </trkpt>
      <trkpt lat="45.22003" lon="5.82169">
        <ele>220</ele>
        <time>2017-10-25T11:43:01Z</time>
      </trkpt>
      <trkpt lat="45.21994" lon="5.82171">
        <ele>220</ele>
        <time>2017-10-25T11:43:03Z</time>
      </trkpt>
      <trkpt lat="45.21988" lon="5.82175">
        <ele>220</ele>
        <time>2017-10-25T11:43:05Z</time>
      </trkpt>
      <trkpt lat="45.21982" lon="5.82174">
        <ele>220</ele>
        <time>2017-10-25T11:43:06Z</time>
      </trkpt>
      <trkpt lat="45.21974" lon="5.8218">
        <ele>220</ele>
        <time>2017-10-25T11:43:08Z</time>
      </trkpt>
      <trkpt lat="45.21965" lon="5.82186">
        <ele>220</ele>
        <time>2017-10-25T11:43:10Z</time>
      </trkpt>
      <trkpt lat="45.21956" lon="5.82189">
        <ele>220</ele>
        <time>2017-10-25T11:43:12Z</time>
      </trkpt>
      <trkpt lat="45.21951" lon="5.82195">
        <ele>220</ele>
        <time>2017-10-25T11:43:13Z</time>
      </trkpt>
      <trkpt lat="45.21943" lon="5.82202">
        <ele>220</ele>
        <time>2017-10-25T11:43:15Z</time>
      </trkpt>
      <trkpt lat="45.21937" lon="5.82211">
        <ele>220</ele>
        <time>2017-10-25T11:43:17Z</time>
      </trkpt>
      <trkpt lat="45.21935" lon="5.82219">
        <ele>220</ele>
        <time>2017-10-25T11:43:18Z</time>
      </trkpt>
      <trkpt lat="45.21923" lon="5.82226">
        <ele>220</ele>
        <time>2017-10-25T11:43:20Z</time>
      </trkpt>
      <trkpt lat="45.21917" lon="5.8223">
        <ele>220</ele>
        <time>2017-10-25T11:43:22Z</time>
      </trkpt>
      <trkpt lat="45.2191" lon="5.82238">
        <ele>220</ele>
        <time>2017-10-25T11:43:25Z</time>
      </trkpt>
      <trkpt lat="45.2191" lon="5.8225">
        <ele>220</ele>
        <time>2017-10-25T11:43:26Z</time>
      </trkpt>
      <trkpt lat="45.21905" lon="5.82253">
        <ele>220</ele>
        <time>2017-10-25T11:43:28Z</time>
      </trkpt>
      <trkpt lat="45.21899" lon="5.82257">
        <ele>220</ele>
        <time>2017-10-25T11:43:30Z</time>
      </trkpt>
      <trkpt lat="45.21891" lon="5.82257">
        <ele>220</ele>
        <time>2017-10-25T11:43:32Z</time>
      </trkpt>
      <trkpt lat="45.21884" lon="5.82256">
        <ele>220</ele>
        <time>2017-10-25T11:43:34Z</time>
      </trkpt>
      <trkpt lat="45.21876" lon="5.82257">
        <ele>220</ele>
        <time>2017-10-25T11:43:36Z</time>
      </trkpt>
      <trkpt lat="45.21868" lon="5.82261">
        <ele>220</ele>
        <time>2017-10-25T11:43:38Z</time>
      </trkpt>
      <trkpt lat="45.2186" lon="5.82266">
        <ele>220</ele>
        <time>2017-10-25T11:43:40Z</time>
      </trkpt>
      <trkpt lat="45.21855" lon="5.82268">
        <ele>220</ele>
        <time>2017-10-25T11:43:41Z</time>
      </trkpt>
      <trkpt lat="45.21848" lon="5.82272">
        <ele>220</ele>
        <time>2017-10-25T11:43:42Z</time>
      </trkpt>
      <trkpt lat="45.21838" lon="5.82277">
        <ele>220</ele>
        <time>2017-10-25T11:43:44Z</time>
      </trkpt>
      <trkpt lat="45.21834" lon="5.8228">
        <ele>219</ele>
        <time>2017-10-25T11:43:45Z</time>
      </trkpt>
      <trkpt lat="45.21828" lon="5.82282">
        <ele>219</ele>
        <time>2017-10-25T11:43:46Z</time>
      </trkpt>
      <trkpt lat="45.21822" lon="5.82286">
        <ele>219</ele>
        <time>2017-10-25T11:43:47Z</time>
      </trkpt>
      <trkpt lat="45.21817" lon="5.82289">
        <ele>219</ele>
        <time>2017-10-25T11:43:48Z</time>
      </trkpt>
      <trkpt lat="45.21812" lon="5.82292">
        <ele>219</ele>
        <time>2017-10-25T11:43:49Z</time>
      </trkpt>
      <trkpt lat="45.21808" lon="5.82295">
        <ele>219</ele>
        <time>2017-10-25T11:43:50Z</time>
      </trkpt>
      <trkpt lat="45.21804" lon="5.82299">
        <ele>219</ele>
        <time>2017-10-25T11:43:51Z</time>
      </trkpt>
      <trkpt lat="45.21797" lon="5.82305">
        <ele>219</ele>
        <time>2017-10-25T11:43:53Z</time>
      </trkpt>
      <trkpt lat="45.21791" lon="5.82308">
        <ele>219</ele>
        <time>2017-10-25T11:43:54Z</time>
      </trkpt>
      <trkpt lat="45.21784" lon="5.82308">
        <ele>219</ele>
        <time>2017-10-25T11:43:55Z</time>
      </trkpt>
      <trkpt lat="45.21777" lon="5.82312">
        <ele>219</ele>
        <time>2017-10-25T11:43:57Z</time>
      </trkpt>
      <trkpt lat="45.21769" lon="5.82315">
        <ele>219</ele>
        <time>2017-10-25T11:43:59Z</time>
      </trkpt>
      <trkpt lat="45.21759" lon="5.82324">
        <ele>219</ele>
        <time>2017-10-25T11:44:01Z</time>
      </trkpt>
      <trkpt lat="45.21754" lon="5.82329">
        <ele>219</ele>
        <time>2017-10-25T11:44:02Z</time>
      </trkpt>
      <trkpt lat="45.21742" lon="5.82332">
        <ele>219</ele>
        <time>2017-10-25T11:44:04Z</time>
      </trkpt>
      <trkpt lat="45.21737" lon="5.82346">
        <ele>219</ele>
        <time>2017-10-25T11:44:06Z</time>
      </trkpt>
      <trkpt lat="45.2173" lon="5.82347">
        <ele>219</ele>
        <time>2017-10-25T11:44:07Z</time>
      </trkpt>
      <trkpt lat="45.21725" lon="5.82347">
        <ele>219</ele>
        <time>2017-10-25T11:44:09Z</time>
      </trkpt>
      <trkpt lat="45.21722" lon="5.82352">
        <ele>219</ele>
        <time>2017-10-25T11:44:10Z</time>
      </trkpt>
      <trkpt lat="45.21716" lon="5.82356">
        <ele>219</ele>
        <time>2017-10-25T11:44:11Z</time>
      </trkpt>
      <trkpt lat="45.2171" lon="5.82358">
        <ele>219</ele>
        <time>2017-10-25T11:44:12Z</time>
      </trkpt>
      <trkpt lat="45.21705" lon="5.82373">
        <ele>219</ele>
        <time>2017-10-25T11:44:14Z</time>
      </trkpt>
      <trkpt lat="45.21701" lon="5.82379">
        <ele>219</ele>
        <time>2017-10-25T11:44:15Z</time>
      </trkpt>
      <trkpt lat="45.21695" lon="5.82383">
        <ele>219</ele>
        <time>2017-10-25T11:44:16Z</time>
      </trkpt>
      <trkpt lat="45.2169" lon="5.82388">
        <ele>219</ele>
        <time>2017-10-25T11:44:17Z</time>
      </trkpt>
      <trkpt lat="45.21688" lon="5.82396">
        <ele>219</ele>
        <time>2017-10-25T11:44:18Z</time>
      </trkpt>
      <trkpt lat="45.21682" lon="5.82395">
        <ele>219</ele>
        <time>2017-10-25T11:44:19Z</time>
      </trkpt>
      <trkpt lat="45.21676" lon="5.82402">
        <ele>219</ele>
        <time>2017-10-25T11:44:21Z</time>
      </trkpt>
      <trkpt lat="45.21669" lon="5.8241">
        <ele>219</ele>
        <time>2017-10-25T11:44:23Z</time>
      </trkpt>
      <trkpt lat="45.2166" lon="5.82409">
        <ele>219</ele>
        <time>2017-10-25T11:44:24Z</time>
      </trkpt>
      <trkpt lat="45.21652" lon="5.82414">
        <ele>219</ele>
        <time>2017-10-25T11:44:26Z</time>
      </trkpt>
      <trkpt lat="45.21642" lon="5.82419">
        <ele>219</ele>
        <time>2017-10-25T11:44:28Z</time>
      </trkpt>
      <trkpt lat="45.21639" lon="5.82424">
        <ele>219</ele>
        <time>2017-10-25T11:44:29Z</time>
      </trkpt>
      <trkpt lat="45.21632" lon="5.82431">
        <ele>219</ele>
        <time>2017-10-25T11:44:31Z</time>
      </trkpt>
      <trkpt lat="45.21624" lon="5.82437">
        <ele>219</ele>
        <time>2017-10-25T11:44:33Z</time>
      </trkpt>
      <trkpt lat="45.21619" lon="5.82438">
        <ele>219</ele>
        <time>2017-10-25T11:44:34Z</time>
      </trkpt>
      <trkpt lat="45.21613" lon="5.82445">
        <ele>219</ele>
        <time>2017-10-25T11:44:35Z</time>
      </trkpt>
      <trkpt lat="45.21609" lon="5.82448">
        <ele>219</ele>
        <time>2017-10-25T11:44:36Z</time>
      </trkpt>
      <trkpt lat="45.21605" lon="5.8245">
        <ele>219</ele>
        <time>2017-10-25T11:44:37Z</time>
      </trkpt>
      <trkpt lat="45.21597" lon="5.82454">
        <ele>219</ele>
        <time>2017-10-25T11:44:39Z</time>
      </trkpt>
      <trkpt lat="45.21595" lon="5.82462">
        <ele>219</ele>
        <time>2017-10-25T11:44:40Z</time>
      </trkpt>
      <trkpt lat="45.21589" lon="5.82466">
        <ele>219</ele>
        <time>2017-10-25T11:44:42Z</time>
      </trkpt>
      <trkpt lat="45.2158" lon="5.82468">
        <ele>219</ele>
        <time>2017-10-25T11:44:44Z</time>
      </trkpt>
      <trkpt lat="45.2157" lon="5.82481">
        <ele>219</ele>
        <time>2017-10-25T11:44:46Z</time>
      </trkpt>
      <trkpt lat="45.21566" lon="5.82486">
        <ele>219</ele>
        <time>2017-10-25T11:44:47Z</time>
      </trkpt>
      <trkpt lat="45.21561" lon="5.82489">
        <ele>219</ele>
        <time>2017-10-25T11:44:48Z</time>
      </trkpt>
      <trkpt lat="45.21551" lon="5.82496">
        <ele>219</ele>
        <time>2017-10-25T11:44:50Z</time>
      </trkpt>
      <trkpt lat="45.21542" lon="5.82499">
        <ele>219</ele>
        <time>2017-10-25T11:44:52Z</time>
      </trkpt>
      <trkpt lat="45.21534" lon="5.82507">
        <ele>219</ele>
        <time>2017-10-25T11:44:54Z</time>
      </trkpt>
      <trkpt lat="45.2153" lon="5.8251">
        <ele>219</ele>
        <time>2017-10-25T11:44:55Z</time>
      </trkpt>
      <trkpt lat="45.21525" lon="5.82511">
        <ele>219</ele>
        <time>2017-10-25T11:44:56Z</time>
      </trkpt>
      <trkpt lat="45.2152" lon="5.82516">
        <ele>219</ele>
        <time>2017-10-25T11:44:57Z</time>
      </trkpt>
      <trkpt lat="45.21516" lon="5.8252">
        <ele>219</ele>
        <time>2017-10-25T11:44:58Z</time>
      </trkpt>
      <trkpt lat="45.21508" lon="5.82527">
        <ele>219</ele>
        <time>2017-10-25T11:45:00Z</time>
      </trkpt>
      <trkpt lat="45.21504" lon="5.82532">
        <ele>219</ele>
        <time>2017-10-25T11:45:01Z</time>
      </trkpt>
      <trkpt lat="45.21499" lon="5.82536">
        <ele>219</ele>
        <time>2017-10-25T11:45:02Z</time>
      </trkpt>
      <trkpt lat="45.21496" lon="5.82542">
        <ele>219</ele>
        <time>2017-10-25T11:45:03Z</time>
      </trkpt>
      <trkpt lat="45.21491" lon="5.82546">
        <ele>218</ele>
        <time>2017-10-25T11:45:04Z</time>
      </trkpt>
      <trkpt lat="45.21487" lon="5.82552">
        <ele>218</ele>
        <time>2017-10-25T11:45:05Z</time>
      </trkpt>
      <trkpt lat="45.21478" lon="5.82557">
        <ele>218</ele>
        <time>2017-10-25T11:45:07Z</time>
      </trkpt>
      <trkpt lat="45.21473" lon="5.8256">
        <ele>218</ele>
        <time>2017-10-25T11:45:08Z</time>
      </trkpt>
      <trkpt lat="45.21469" lon="5.82562">
        <ele>218</ele>
        <time>2017-10-25T11:45:09Z</time>
      </trkpt>
      <trkpt lat="45.21464" lon="5.82564">
        <ele>218</ele>
        <time>2017-10-25T11:45:10Z</time>
      </trkpt>
      <trkpt lat="45.21457" lon="5.82569">
        <ele>218</ele>
        <time>2017-10-25T11:45:12Z</time>
      </trkpt>
      <trkpt lat="45.21451" lon="5.82577">
        <ele>218</ele>
        <time>2017-10-25T11:45:13Z</time>
      </trkpt>
      <trkpt lat="45.21441" lon="5.82586">
        <ele>218</ele>
        <time>2017-10-25T11:45:15Z</time>
      </trkpt>
      <trkpt lat="45.21431" lon="5.82588">
        <ele>218</ele>
        <time>2017-10-25T11:45:17Z</time>
      </trkpt>
      <trkpt lat="45.21425" lon="5.82594">
        <ele>218</ele>
        <time>2017-10-25T11:45:19Z</time>
      </trkpt>
      <trkpt lat="45.21421" lon="5.82598">
        <ele>218</ele>
        <time>2017-10-25T11:45:20Z</time>
      </trkpt>
      <trkpt lat="45.2141" lon="5.82605">
        <ele>218</ele>
        <time>2017-10-25T11:45:22Z</time>
      </trkpt>
      <trkpt lat="45.21402" lon="5.82614">
        <ele>218</ele>
        <time>2017-10-25T11:45:24Z</time>
      </trkpt>
      <trkpt lat="45.21397" lon="5.82614">
        <ele>218</ele>
        <time>2017-10-25T11:45:25Z</time>
      </trkpt>
      <trkpt lat="45.21393" lon="5.8262">
        <ele>218</ele>
        <time>2017-10-25T11:45:26Z</time>
      </trkpt>
      <trkpt lat="45.21387" lon="5.82622">
        <ele>218</ele>
        <time>2017-10-25T11:45:28Z</time>
      </trkpt>
      <trkpt lat="45.21381" lon="5.82629">
        <ele>218</ele>
        <time>2017-10-25T11:45:30Z</time>
      </trkpt>
      <trkpt lat="45.21376" lon="5.82634">
        <ele>218</ele>
        <time>2017-10-25T11:45:32Z</time>
      </trkpt>
      <trkpt lat="45.2137" lon="5.82639">
        <ele>218</ele>
        <time>2017-10-25T11:45:34Z</time>
      </trkpt>
      <trkpt lat="45.21363" lon="5.82645">
        <ele>218</ele>
        <time>2017-10-25T11:45:36Z</time>
      </trkpt>
      <trkpt lat="45.2136" lon="5.82651">
        <ele>218</ele>
        <time>2017-10-25T11:45:38Z</time>
      </trkpt>
      <trkpt lat="45.21355" lon="5.82658">
        <ele>218</ele>
        <time>2017-10-25T11:45:40Z</time>
      </trkpt>
      <trkpt lat="45.21348" lon="5.82664">
        <ele>218</ele>
        <time>2017-10-25T11:45:42Z</time>
      </trkpt>
      <trkpt lat="45.21344" lon="5.82671">
        <ele>218</ele>
        <time>2017-10-25T11:45:44Z</time>
      </trkpt>
      <trkpt lat="45.21339" lon="5.82678">
        <ele>218</ele>
        <time>2017-10-25T11:45:46Z</time>
      </trkpt>
      <trkpt lat="45.21335" lon="5.82686">
        <ele>218</ele>
        <time>2017-10-25T11:45:48Z</time>
      </trkpt>
      <trkpt lat="45.21328" lon="5.82695">
        <ele>218</ele>
        <time>2017-10-25T11:45:50Z</time>
      </trkpt>
      <trkpt lat="45.21325" lon="5.827">
        <ele>218</ele>
        <time>2017-10-25T11:45:51Z</time>
      </trkpt>
      <trkpt lat="45.21322" lon="5.82705">
        <ele>218</ele>
        <time>2017-10-25T11:45:52Z</time>
      </trkpt>
      <trkpt lat="45.21316" lon="5.82717">
        <ele>218</ele>
        <time>2017-10-25T11:45:54Z</time>
      </trkpt>
      <trkpt lat="45.21311" lon="5.82727">
        <ele>218</ele>
        <time>2017-10-25T11:45:56Z</time>
      </trkpt>
      <trkpt lat="45.21306" lon="5.82737">
        <ele>218</ele>
        <time>2017-10-25T11:45:58Z</time>
      </trkpt>
      <trkpt lat="45.21302" lon="5.82746">
        <ele>218</ele>
        <time>2017-10-25T11:46:00Z</time>
      </trkpt>
      <trkpt lat="45.21297" lon="5.82756">
        <ele>218</ele>
        <time>2017-10-25T11:46:02Z</time>
      </trkpt>
      <trkpt lat="45.21293" lon="5.82765">
        <ele>218</ele>
        <time>2017-10-25T11:46:04Z</time>
      </trkpt>
      <trkpt lat="45.21289" lon="5.82774">
        <ele>218</ele>
        <time>2017-10-25T11:46:06Z</time>
      </trkpt>
      <trkpt lat="45.21286" lon="5.82784">
        <ele>218</ele>
        <time>2017-10-25T11:46:08Z</time>
      </trkpt>
      <trkpt lat="45.21282" lon="5.82794">
        <ele>218</ele>
        <time>2017-10-25T11:46:10Z</time>
      </trkpt>
      <trkpt lat="45.21278" lon="5.82802">
        <ele>218</ele>
        <time>2017-10-25T11:46:12Z</time>
      </trkpt>
      <trkpt lat="45.21274" lon="5.8281">
        <ele>218</ele>
        <time>2017-10-25T11:46:14Z</time>
      </trkpt>
      <trkpt lat="45.2127" lon="5.82818">
        <ele>218</ele>
        <time>2017-10-25T11:46:16Z</time>
      </trkpt>
      <trkpt lat="45.21268" lon="5.82823">
        <ele>218</ele>
        <time>2017-10-25T11:46:18Z</time>
      </trkpt>
      <trkpt lat="45.21265" lon="5.8283">
        <ele>217</ele>
        <time>2017-10-25T11:46:20Z</time>
      </trkpt>
      <trkpt lat="45.2126" lon="5.82839">
        <ele>217</ele>
        <time>2017-10-25T11:46:22Z</time>
      </trkpt>
      <trkpt lat="45.21255" lon="5.82848">
        <ele>217</ele>
        <time>2017-10-25T11:46:24Z</time>
      </trkpt>
      <trkpt lat="45.21249" lon="5.82858">
        <ele>217</ele>
        <time>2017-10-25T11:46:26Z</time>
      </trkpt>
      <trkpt lat="45.21244" lon="5.82867">
        <ele>217</ele>
        <time>2017-10-25T11:46:28Z</time>
      </trkpt>
      <trkpt lat="45.2124" lon="5.82877">
        <ele>217</ele>
        <time>2017-10-25T11:46:30Z</time>
      </trkpt>
      <trkpt lat="45.21234" lon="5.82887">
        <ele>217</ele>
        <time>2017-10-25T11:46:32Z</time>
      </trkpt>
      <trkpt lat="45.21229" lon="5.82896">
        <ele>217</ele>
        <time>2017-10-25T11:46:34Z</time>
      </trkpt>
      <trkpt lat="45.21225" lon="5.82906">
        <ele>217</ele>
        <time>2017-10-25T11:46:36Z</time>
      </trkpt>
      <trkpt lat="45.2122" lon="5.82916">
        <ele>217</ele>
        <time>2017-10-25T11:46:38Z</time>
      </trkpt>
      <trkpt lat="45.21214" lon="5.82925">
        <ele>216</ele>
        <time>2017-10-25T11:46:40Z</time>
      </trkpt>
      <trkpt lat="45.21209" lon="5.82935">
        <ele>216</ele>
        <time>2017-10-25T11:46:42Z</time>
      </trkpt>
      <trkpt lat="45.21206" lon="5.8294">
        <ele>216</ele>
        <time>2017-10-25T11:46:43Z</time>
      </trkpt>
      <trkpt lat="45.212" lon="5.8295">
        <ele>216</ele>
        <time>2017-10-25T11:46:45Z</time>
      </trkpt>
      <trkpt lat="45.21195" lon="5.8296">
        <ele>216</ele>
        <time>2017-10-25T11:46:47Z</time>
      </trkpt>
      <trkpt lat="45.21192" lon="5.82966">
        <ele>216</ele>
        <time>2017-10-25T11:46:48Z</time>
      </trkpt>
      <trkpt lat="45.2119" lon="5.82971">
        <ele>216</ele>
        <time>2017-10-25T11:46:49Z</time>
      </trkpt>
      <trkpt lat="45.21185" lon="5.82983">
        <ele>216</ele>
        <time>2017-10-25T11:46:51Z</time>
      </trkpt>
      <trkpt lat="45.2118" lon="5.82992">
        <ele>216</ele>
        <time>2017-10-25T11:46:53Z</time>
      </trkpt>
      <trkpt lat="45.21175" lon="5.83002">
        <ele>216</ele>
        <time>2017-10-25T11:46:55Z</time>
      </trkpt>
      <trkpt lat="45.21169" lon="5.83011">
        <ele>216</ele>
        <time>2017-10-25T11:46:57Z</time>
      </trkpt>
      <trkpt lat="45.21165" lon="5.83021">
        <ele>216</ele>
        <time>2017-10-25T11:46:59Z</time>
      </trkpt>
      <trkpt lat="45.21162" lon="5.8303">
        <ele>216</ele>
        <time>2017-10-25T11:47:01Z</time>
      </trkpt>
      <trkpt lat="45.21158" lon="5.83039">
        <ele>217</ele>
        <time>2017-10-25T11:47:03Z</time>
      </trkpt>
      <trkpt lat="45.21154" lon="5.83048">
        <ele>217</ele>
        <time>2017-10-25T11:47:05Z</time>
      </trkpt>
      <trkpt lat="45.21149" lon="5.83058">
        <ele>217</ele>
        <time>2017-10-25T11:47:07Z</time>
      </trkpt>
      <trkpt lat="45.21144" lon="5.83068">
        <ele>217</ele>
        <time>2017-10-25T11:47:09Z</time>
      </trkpt>
      <trkpt lat="45.21141" lon="5.83076">
        <ele>217</ele>
        <time>2017-10-25T11:47:10Z</time>
      </trkpt>
      <trkpt lat="45.21138" lon="5.83083">
        <ele>217</ele>
        <time>2017-10-25T11:47:11Z</time>
      </trkpt>
      <trkpt lat="45.21131" lon="5.83095">
        <ele>217</ele>
        <time>2017-10-25T11:47:13Z</time>
      </trkpt>
      <trkpt lat="45.21126" lon="5.831">
        <ele>218</ele>
        <time>2017-10-25T11:47:15Z</time>
      </trkpt>
      <trkpt lat="45.21122" lon="5.83105">
        <ele>218</ele>
        <time>2017-10-25T11:47:16Z</time>
      </trkpt>
      <trkpt lat="45.21116" lon="5.83114">
        <ele>218</ele>
        <time>2017-10-25T11:47:18Z</time>
      </trkpt>
      <trkpt lat="45.21109" lon="5.83123">
        <ele>218</ele>
        <time>2017-10-25T11:47:20Z</time>
      </trkpt>
      <trkpt lat="45.21103" lon="5.8313">
        <ele>218</ele>
        <time>2017-10-25T11:47:22Z</time>
      </trkpt>
      <trkpt lat="45.21099" lon="5.83134">
        <ele>218</ele>
        <time>2017-10-25T11:47:23Z</time>
      </trkpt>
      <trkpt lat="45.21095" lon="5.83138">
        <ele>218</ele>
        <time>2017-10-25T11:47:24Z</time>
      </trkpt>
      <trkpt lat="45.2109" lon="5.83143">
        <ele>218</ele>
        <time>2017-10-25T11:47:25Z</time>
      </trkpt>
      <trkpt lat="45.21087" lon="5.83147">
        <ele>218</ele>
        <time>2017-10-25T11:47:26Z</time>
      </trkpt>
      <trkpt lat="45.21083" lon="5.83152">
        <ele>218</ele>
        <time>2017-10-25T11:47:27Z</time>
      </trkpt>
      <trkpt lat="45.21077" lon="5.83162">
        <ele>218</ele>
        <time>2017-10-25T11:47:29Z</time>
      </trkpt>
      <trkpt lat="45.21066" lon="5.83166">
        <ele>218</ele>
        <time>2017-10-25T11:47:31Z</time>
      </trkpt>
      <trkpt lat="45.21056" lon="5.83165">
        <ele>218</ele>
        <time>2017-10-25T11:47:33Z</time>
      </trkpt>
      <trkpt lat="45.21051" lon="5.83165">
        <ele>218</ele>
        <time>2017-10-25T11:47:34Z</time>
      </trkpt>
      <trkpt lat="45.21044" lon="5.83164">
        <ele>218</ele>
        <time>2017-10-25T11:47:35Z</time>
      </trkpt>
      <trkpt lat="45.21037" lon="5.83167">
        <ele>218</ele>
        <time>2017-10-25T11:47:36Z</time>
      </trkpt>
      <trkpt lat="45.21031" lon="5.83169">
        <ele>218</ele>
        <time>2017-10-25T11:47:37Z</time>
      </trkpt>
      <trkpt lat="45.21026" lon="5.83171">
        <ele>218</ele>
        <time>2017-10-25T11:47:38Z</time>
      </trkpt>
      <trkpt lat="45.21016" lon="5.83178">
        <ele>218</ele>
        <time>2017-10-25T11:47:40Z</time>
      </trkpt>
      <trkpt lat="45.21013" lon="5.83185">
        <ele>218</ele>
        <time>2017-10-25T11:47:41Z</time>
      </trkpt>
      <trkpt lat="45.21007" lon="5.83198">
        <ele>219</ele>
        <time>2017-10-25T11:47:43Z</time>
      </trkpt>
      <trkpt lat="45.20998" lon="5.83205">
        <ele>219</ele>
        <time>2017-10-25T11:47:45Z</time>
      </trkpt>
      <trkpt lat="45.20985" lon="5.83211">
        <ele>219</ele>
        <time>2017-10-25T11:47:47Z</time>
      </trkpt>
      <trkpt lat="45.2098" lon="5.83212">
        <ele>219</ele>
        <time>2017-10-25T11:47:48Z</time>
      </trkpt>
      <trkpt lat="45.20974" lon="5.83213">
        <ele>219</ele>
        <time>2017-10-25T11:47:49Z</time>
      </trkpt>
      <trkpt lat="45.20969" lon="5.83214">
        <ele>219</ele>
        <time>2017-10-25T11:47:50Z</time>
      </trkpt>
      <trkpt lat="45.20963" lon="5.83211">
        <ele>219</ele>
        <time>2017-10-25T11:47:51Z</time>
      </trkpt>
      <trkpt lat="45.20957" lon="5.83213">
        <ele>219</ele>
        <time>2017-10-25T11:47:52Z</time>
      </trkpt>
      <trkpt lat="45.20953" lon="5.83218">
        <ele>219</ele>
        <time>2017-10-25T11:47:53Z</time>
      </trkpt>
      <trkpt lat="45.20949" lon="5.83221">
        <ele>219</ele>
        <time>2017-10-25T11:47:54Z</time>
      </trkpt>
      <trkpt lat="45.20939" lon="5.83225">
        <ele>219</ele>
        <time>2017-10-25T11:47:56Z</time>
      </trkpt>
      <trkpt lat="45.20929" lon="5.83229">
        <ele>219</ele>
        <time>2017-10-25T11:47:58Z</time>
      </trkpt>
      <trkpt lat="45.20925" lon="5.83233">
        <ele>219</ele>
        <time>2017-10-25T11:47:59Z</time>
      </trkpt>
      <trkpt lat="45.20919" lon="5.83236">
        <ele>219</ele>
        <time>2017-10-25T11:48:00Z</time>
      </trkpt>
      <trkpt lat="45.20913" lon="5.83242">
        <ele>219</ele>
        <time>2017-10-25T11:48:01Z</time>
      </trkpt>
      <trkpt lat="45.20909" lon="5.83245">
        <ele>219</ele>
        <time>2017-10-25T11:48:02Z</time>
      </trkpt>
      <trkpt lat="45.20898" lon="5.83252">
        <ele>219</ele>
        <time>2017-10-25T11:48:04Z</time>
      </trkpt>
      <trkpt lat="45.209" lon="5.83258">
        <ele>219</ele>
        <time>2017-10-25T11:48:05Z</time>
      </trkpt>
      <trkpt lat="45.2089" lon="5.83264">
        <ele>219</ele>
        <time>2017-10-25T11:48:07Z</time>
      </trkpt>
      <trkpt lat="45.20878" lon="5.8327">
        <ele>219</ele>
        <time>2017-10-25T11:48:09Z</time>
      </trkpt>
      <trkpt lat="45.20874" lon="5.83273">
        <ele>219</ele>
        <time>2017-10-25T11:48:10Z</time>
      </trkpt>
      <trkpt lat="45.20869" lon="5.83278">
        <ele>219</ele>
        <time>2017-10-25T11:48:11Z</time>
      </trkpt>
      <trkpt lat="45.20865" lon="5.83283">
        <ele>219</ele>
        <time>2017-10-25T11:48:12Z</time>
      </trkpt>
      <trkpt lat="45.20861" lon="5.83284">
        <ele>219</ele>
        <time>2017-10-25T11:48:13Z</time>
      </trkpt>
      <trkpt lat="45.20855" lon="5.83288">
        <ele>219</ele>
        <time>2017-10-25T11:48:14Z</time>
      </trkpt>
      <trkpt lat="45.2085" lon="5.83289">
        <ele>219</ele>
        <time>2017-10-25T11:48:15Z</time>
      </trkpt>
      <trkpt lat="45.20844" lon="5.83294">
        <ele>219</ele>
        <time>2017-10-25T11:48:17Z</time>
      </trkpt>
      <trkpt lat="45.20838" lon="5.83301">
        <ele>219</ele>
        <time>2017-10-25T11:48:19Z</time>
      </trkpt>
      <trkpt lat="45.20835" lon="5.83312">
        <ele>219</ele>
        <time>2017-10-25T11:48:21Z</time>
      </trkpt>
      <trkpt lat="45.20827" lon="5.83319">
        <ele>219</ele>
        <time>2017-10-25T11:48:23Z</time>
      </trkpt>
      <trkpt lat="45.20821" lon="5.83325">
        <ele>219</ele>
        <time>2017-10-25T11:48:24Z</time>
      </trkpt>
      <trkpt lat="45.20816" lon="5.83329">
        <ele>219</ele>
        <time>2017-10-25T11:48:25Z</time>
      </trkpt>
      <trkpt lat="45.20812" lon="5.83337">
        <ele>219</ele>
        <time>2017-10-25T11:48:27Z</time>
      </trkpt>
      <trkpt lat="45.20803" lon="5.8334">
        <ele>219</ele>
        <time>2017-10-25T11:48:28Z</time>
      </trkpt>
      <trkpt lat="45.20793" lon="5.83343">
        <ele>219</ele>
        <time>2017-10-25T11:48:30Z</time>
      </trkpt>
      <trkpt lat="45.20789" lon="5.83345">
        <ele>219</ele>
        <time>2017-10-25T11:48:31Z</time>
      </trkpt>
      <trkpt lat="45.2078" lon="5.83348">
        <ele>219</ele>
        <time>2017-10-25T11:48:33Z</time>
      </trkpt>
      <trkpt lat="45.20771" lon="5.83351">
        <ele>219</ele>
        <time>2017-10-25T11:48:35Z</time>
      </trkpt>
      <trkpt lat="45.20766" lon="5.83358">
        <ele>219</ele>
        <time>2017-10-25T11:48:38Z</time>
      </trkpt>
      <trkpt lat="45.2076" lon="5.83367">
        <ele>219</ele>
        <time>2017-10-25T11:48:40Z</time>
      </trkpt>
      <trkpt lat="45.20756" lon="5.83372">
        <ele>219</ele>
        <time>2017-10-25T11:48:41Z</time>
      </trkpt>
      <trkpt lat="45.2075" lon="5.83372">
        <ele>219</ele>
        <time>2017-10-25T11:48:43Z</time>
      </trkpt>
      <trkpt lat="45.20745" lon="5.83374">
        <ele>219</ele>
        <time>2017-10-25T11:48:44Z</time>
      </trkpt>
      <trkpt lat="45.20741" lon="5.83377">
        <ele>219</ele>
        <time>2017-10-25T11:48:45Z</time>
      </trkpt>
      <trkpt lat="45.20733" lon="5.83381">
        <ele>219</ele>
        <time>2017-10-25T11:48:47Z</time>
      </trkpt>
      <trkpt lat="45.20726" lon="5.83386">
        <ele>219</ele>
        <time>2017-10-25T11:48:49Z</time>
      </trkpt>
      <trkpt lat="45.20719" lon="5.83393">
        <ele>219</ele>
        <time>2017-10-25T11:48:51Z</time>
      </trkpt>
      <trkpt lat="45.20712" lon="5.83399">
        <ele>219</ele>
        <time>2017-10-25T11:48:53Z</time>
      </trkpt>
      <trkpt lat="45.20706" lon="5.83406">
        <ele>219</ele>
        <time>2017-10-25T11:48:55Z</time>
      </trkpt>
      <trkpt lat="45.20701" lon="5.83412">
        <ele>219</ele>
        <time>2017-10-25T11:48:57Z</time>
      </trkpt>
      <trkpt lat="45.20695" lon="5.83418">
        <ele>219</ele>
        <time>2017-10-25T11:48:59Z</time>
      </trkpt>
      <trkpt lat="45.20689" lon="5.83424">
        <ele>219</ele>
        <time>2017-10-25T11:49:01Z</time>
      </trkpt>
      <trkpt lat="45.20682" lon="5.8343">
        <ele>219</ele>
        <time>2017-10-25T11:49:03Z</time>
      </trkpt>
      <trkpt lat="45.20675" lon="5.83434">
        <ele>219</ele>
        <time>2017-10-25T11:49:05Z</time>
      </trkpt>
      <trkpt lat="45.20668" lon="5.83439">
        <ele>220</ele>
        <time>2017-10-25T11:49:07Z</time>
      </trkpt>
      <trkpt lat="45.20662" lon="5.83445">
        <ele>220</ele>
        <time>2017-10-25T11:49:09Z</time>
      </trkpt>
      <trkpt lat="45.20655" lon="5.8345">
        <ele>220</ele>
        <time>2017-10-25T11:49:11Z</time>
      </trkpt>
      <trkpt lat="45.20649" lon="5.83454">
        <ele>220</ele>
        <time>2017-10-25T11:49:13Z</time>
      </trkpt>
      <trkpt lat="45.20642" lon="5.83459">
        <ele>220</ele>
        <time>2017-10-25T11:49:15Z</time>
      </trkpt>
      <trkpt lat="45.20636" lon="5.83465">
        <ele>220</ele>
        <time>2017-10-25T11:49:17Z</time>
      </trkpt>
      <trkpt lat="45.20629" lon="5.8347">
        <ele>220</ele>
        <time>2017-10-25T11:49:19Z</time>
      </trkpt>
      <trkpt lat="45.20622" lon="5.83475">
        <ele>220</ele>
        <time>2017-10-25T11:49:21Z</time>
      </trkpt>
      <trkpt lat="45.20615" lon="5.8348">
        <ele>221</ele>
        <time>2017-10-25T11:49:23Z</time>
      </trkpt>
      <trkpt lat="45.20609" lon="5.83485">
        <ele>221</ele>
        <time>2017-10-25T11:49:25Z</time>
      </trkpt>
      <trkpt lat="45.20603" lon="5.83491">
        <ele>221</ele>
        <time>2017-10-25T11:49:27Z</time>
      </trkpt>
      <trkpt lat="45.20597" lon="5.83498">
        <ele>221</ele>
        <time>2017-10-25T11:49:29Z</time>
      </trkpt>
      <trkpt lat="45.20591" lon="5.83504">
        <ele>222</ele>
        <time>2017-10-25T11:49:31Z</time>
      </trkpt>
      <trkpt lat="45.20585" lon="5.83508">
        <ele>222</ele>
        <time>2017-10-25T11:49:33Z</time>
      </trkpt>
      <trkpt lat="45.20579" lon="5.83513">
        <ele>222</ele>
        <time>2017-10-25T11:49:35Z</time>
      </trkpt>
      <trkpt lat="45.20572" lon="5.83517">
        <ele>222</ele>
        <time>2017-10-25T11:49:37Z</time>
      </trkpt>
      <trkpt lat="45.20565" lon="5.83521">
        <ele>222</ele>
        <time>2017-10-25T11:49:39Z</time>
      </trkpt>
      <trkpt lat="45.20559" lon="5.83526">
        <ele>222</ele>
        <time>2017-10-25T11:49:41Z</time>
      </trkpt>
      <trkpt lat="45.20552" lon="5.8353">
        <ele>222</ele>
        <time>2017-10-25T11:49:43Z</time>
      </trkpt>
      <trkpt lat="45.20546" lon="5.83535">
        <ele>223</ele>
        <time>2017-10-25T11:49:45Z</time>
      </trkpt>
      <trkpt lat="45.2054" lon="5.8354">
        <ele>223</ele>
        <time>2017-10-25T11:49:47Z</time>
      </trkpt>
      <trkpt lat="45.20536" lon="5.83545">
        <ele>223</ele>
        <time>2017-10-25T11:49:49Z</time>
      </trkpt>
      <trkpt lat="45.20531" lon="5.8355">
        <ele>223</ele>
        <time>2017-10-25T11:49:51Z</time>
      </trkpt>
      <trkpt lat="45.20525" lon="5.83553">
        <ele>223</ele>
        <time>2017-10-25T11:49:53Z</time>
      </trkpt>
      <trkpt lat="45.20519" lon="5.83556">
        <ele>223</ele>
        <time>2017-10-25T11:49:55Z</time>
      </trkpt>
      <trkpt lat="45.20513" lon="5.83556">
        <ele>224</ele>
        <time>2017-10-25T11:49:57Z</time>
      </trkpt>
      <trkpt lat="45.20507" lon="5.83558">
        <ele>224</ele>
        <time>2017-10-25T11:49:59Z</time>
      </trkpt>
      <trkpt lat="45.20503" lon="5.83563">
        <ele>224</ele>
        <time>2017-10-25T11:50:01Z</time>
      </trkpt>
      <trkpt lat="45.20499" lon="5.83568">
        <ele>224</ele>
        <time>2017-10-25T11:50:03Z</time>
      </trkpt>
      <trkpt lat="45.20495" lon="5.83573">
        <ele>224</ele>
        <time>2017-10-25T11:50:05Z</time>
      </trkpt>
      <trkpt lat="45.2049" lon="5.83578">
        <ele>225</ele>
        <time>2017-10-25T11:50:07Z</time>
      </trkpt>
      <trkpt lat="45.20485" lon="5.83581">
        <ele>225</ele>
        <time>2017-10-25T11:50:09Z</time>
      </trkpt>
      <trkpt lat="45.20478" lon="5.83586">
        <ele>225</ele>
        <time>2017-10-25T11:50:11Z</time>
      </trkpt>
      <trkpt lat="45.20472" lon="5.8359">
        <ele>225</ele>
        <time>2017-10-25T11:50:13Z</time>
      </trkpt>
      <trkpt lat="45.20465" lon="5.83596">
        <ele>226</ele>
        <time>2017-10-25T11:50:15Z</time>
      </trkpt>
      <trkpt lat="45.2046" lon="5.83602">
        <ele>226</ele>
        <time>2017-10-25T11:50:17Z</time>
      </trkpt>
      <trkpt lat="45.20454" lon="5.83609">
        <ele>226</ele>
        <time>2017-10-25T11:50:19Z</time>
      </trkpt>
      <trkpt lat="45.20448" lon="5.83614">
        <ele>226</ele>
        <time>2017-10-25T11:50:21Z</time>
      </trkpt>
      <trkpt lat="45.20441" lon="5.8362">
        <ele>226</ele>
        <time>2017-10-25T11:50:23Z</time>
      </trkpt>
      <trkpt lat="45.20435" lon="5.83624">
        <ele>227</ele>
        <time>2017-10-25T11:50:25Z</time>
      </trkpt>
      <trkpt lat="45.2043" lon="5.83631">
        <ele>227</ele>
        <time>2017-10-25T11:50:27Z</time>
      </trkpt>
      <trkpt lat="45.20425" lon="5.83637">
        <ele>227</ele>
        <time>2017-10-25T11:50:29Z</time>
      </trkpt>
      <trkpt lat="45.20421" lon="5.83642">
        <ele>227</ele>
        <time>2017-10-25T11:50:31Z</time>
      </trkpt>
      <trkpt lat="45.20416" lon="5.83646">
        <ele>227</ele>
        <time>2017-10-25T11:50:33Z</time>
      </trkpt>
      <trkpt lat="45.2041" lon="5.8365">
        <ele>227</ele>
        <time>2017-10-25T11:50:35Z</time>
      </trkpt>
      <trkpt lat="45.20404" lon="5.83655">
        <ele>227</ele>
        <time>2017-10-25T11:50:37Z</time>
      </trkpt>
      <trkpt lat="45.20398" lon="5.8366">
        <ele>228</ele>
        <time>2017-10-25T11:50:39Z</time>
      </trkpt>
      <trkpt lat="45.20394" lon="5.83665">
        <ele>228</ele>
        <time>2017-10-25T11:50:41Z</time>
      </trkpt>
      <trkpt lat="45.20389" lon="5.8367">
        <ele>228</ele>
        <time>2017-10-25T11:50:43Z</time>
      </trkpt>
      <trkpt lat="45.20385" lon="5.83677">
        <ele>228</ele>
        <time>2017-10-25T11:50:45Z</time>
      </trkpt>
      <trkpt lat="45.20379" lon="5.83682">
        <ele>228</ele>
        <time>2017-10-25T11:50:47Z</time>
      </trkpt>
      <trkpt lat="45.20372" lon="5.83688">
        <ele>229</ele>
        <time>2017-10-25T11:50:49Z</time>
      </trkpt>
      <trkpt lat="45.20364" lon="5.83693">
        <ele>229</ele>
        <time>2017-10-25T11:50:51Z</time>
      </trkpt>
      <trkpt lat="45.20358" lon="5.83698">
        <ele>229</ele>
        <time>2017-10-25T11:50:53Z</time>
      </trkpt>
      <trkpt lat="45.20352" lon="5.83702">
        <ele>229</ele>
        <time>2017-10-25T11:50:55Z</time>
      </trkpt>
      <trkpt lat="45.20347" lon="5.83706">
        <ele>230</ele>
        <time>2017-10-25T11:50:57Z</time>
      </trkpt>
      <trkpt lat="45.20343" lon="5.83713">
        <ele>230</ele>
        <time>2017-10-25T11:51:00Z</time>
      </trkpt>
      <trkpt lat="45.2034" lon="5.83718">
        <ele>230</ele>
        <time>2017-10-25T11:51:02Z</time>
      </trkpt>
      <trkpt lat="45.20336" lon="5.83724">
        <ele>230</ele>
        <time>2017-10-25T11:51:04Z</time>
      </trkpt>
      <trkpt lat="45.20332" lon="5.83731">
        <ele>231</ele>
        <time>2017-10-25T11:51:06Z</time>
      </trkpt>
      <trkpt lat="45.20326" lon="5.83737">
        <ele>231</ele>
        <time>2017-10-25T11:51:08Z</time>
      </trkpt>
      <trkpt lat="45.20319" lon="5.8374">
        <ele>231</ele>
        <time>2017-10-25T11:51:10Z</time>
      </trkpt>
      <trkpt lat="45.20314" lon="5.83743">
        <ele>232</ele>
        <time>2017-10-25T11:51:12Z</time>
      </trkpt>
      <trkpt lat="45.20309" lon="5.83748">
        <ele>232</ele>
        <time>2017-10-25T11:51:14Z</time>
      </trkpt>
      <trkpt lat="45.20306" lon="5.83754">
        <ele>232</ele>
        <time>2017-10-25T11:51:16Z</time>
      </trkpt>
      <trkpt lat="45.20301" lon="5.8376">
        <ele>232</ele>
        <time>2017-10-25T11:51:18Z</time>
      </trkpt>
      <trkpt lat="45.20297" lon="5.83766">
        <ele>232</ele>
        <time>2017-10-25T11:51:20Z</time>
      </trkpt>
      <trkpt lat="45.20292" lon="5.83772">
        <ele>233</ele>
        <time>2017-10-25T11:51:22Z</time>
      </trkpt>
      <trkpt lat="45.20287" lon="5.83778">
        <ele>233</ele>
        <time>2017-10-25T11:51:24Z</time>
      </trkpt>
      <trkpt lat="45.20281" lon="5.83784">
        <ele>233</ele>
        <time>2017-10-25T11:51:26Z</time>
      </trkpt>
      <trkpt lat="45.20275" lon="5.83792">
        <ele>233</ele>
        <time>2017-10-25T11:51:28Z</time>
      </trkpt>
      <trkpt lat="45.20271" lon="5.83799">
        <ele>233</ele>
        <time>2017-10-25T11:51:30Z</time>
      </trkpt>
      <trkpt lat="45.20267" lon="5.83804">
        <ele>234</ele>
        <time>2017-10-25T11:51:32Z</time>
      </trkpt>
      <trkpt lat="45.20261" lon="5.83807">
        <ele>234</ele>
        <time>2017-10-25T11:51:34Z</time>
      </trkpt>
      <trkpt lat="45.20256" lon="5.83807">
        <ele>234</ele>
        <time>2017-10-25T11:51:36Z</time>
      </trkpt>
      <trkpt lat="45.2025" lon="5.83809">
        <ele>234</ele>
        <time>2017-10-25T11:51:38Z</time>
      </trkpt>
      <trkpt lat="45.20244" lon="5.83812">
        <ele>234</ele>
        <time>2017-10-25T11:51:40Z</time>
      </trkpt>
      <trkpt lat="45.20238" lon="5.83815">
        <ele>234</ele>
        <time>2017-10-25T11:51:42Z</time>
      </trkpt>
      <trkpt lat="45.20231" lon="5.83817">
        <ele>235</ele>
        <time>2017-10-25T11:51:44Z</time>
      </trkpt>
      <trkpt lat="45.20226" lon="5.83818">
        <ele>235</ele>
        <time>2017-10-25T11:51:46Z</time>
      </trkpt>
      <trkpt lat="45.20221" lon="5.83817">
        <ele>235</ele>
        <time>2017-10-25T11:51:49Z</time>
      </trkpt>
      <trkpt lat="45.20214" lon="5.8382">
        <ele>235</ele>
        <time>2017-10-25T11:51:52Z</time>
      </trkpt>
      <trkpt lat="45.20208" lon="5.83823">
        <ele>235</ele>
        <time>2017-10-25T11:51:54Z</time>
      </trkpt>
      <trkpt lat="45.20203" lon="5.83824">
        <ele>236</ele>
        <time>2017-10-25T11:51:56Z</time>
      </trkpt>
      <trkpt lat="45.20196" lon="5.83826">
        <ele>236</ele>
        <time>2017-10-25T11:51:58Z</time>
      </trkpt>
      <trkpt lat="45.2019" lon="5.83828">
        <ele>236</ele>
        <time>2017-10-25T11:52:00Z</time>
      </trkpt>
      <trkpt lat="45.20183" lon="5.8383">
        <ele>236</ele>
        <time>2017-10-25T11:52:02Z</time>
      </trkpt>
      <trkpt lat="45.20176" lon="5.83834">
        <ele>237</ele>
        <time>2017-10-25T11:52:04Z</time>
      </trkpt>
      <trkpt lat="45.20171" lon="5.83835">
        <ele>237</ele>
        <time>2017-10-25T11:52:05Z</time>
      </trkpt>
      <trkpt lat="45.20163" lon="5.83838">
        <ele>237</ele>
        <time>2017-10-25T11:52:07Z</time>
      </trkpt>
      <trkpt lat="45.20156" lon="5.83842">
        <ele>238</ele>
        <time>2017-10-25T11:52:09Z</time>
      </trkpt>
      <trkpt lat="45.2015" lon="5.83847">
        <ele>238</ele>
        <time>2017-10-25T11:52:11Z</time>
      </trkpt>
      <trkpt lat="45.20144" lon="5.83854">
        <ele>238</ele>
        <time>2017-10-25T11:52:13Z</time>
      </trkpt>
      <trkpt lat="45.20143" lon="5.83863">
        <ele>239</ele>
        <time>2017-10-25T11:52:15Z</time>
      </trkpt>
      <trkpt lat="45.20144" lon="5.83872">
        <ele>239</ele>
        <time>2017-10-25T11:52:17Z</time>
      </trkpt>
      <trkpt lat="45.20144" lon="5.83882">
        <ele>240</ele>
        <time>2017-10-25T11:52:19Z</time>
      </trkpt>
      <trkpt lat="45.20144" lon="5.83891">
        <ele>240</ele>
        <time>2017-10-25T11:52:21Z</time>
      </trkpt>
      <trkpt lat="45.20145" lon="5.839">
        <ele>241</ele>
        <time>2017-10-25T11:52:23Z</time>
      </trkpt>
      <trkpt lat="45.20145" lon="5.8391">
        <ele>241</ele>
        <time>2017-10-25T11:52:25Z</time>
      </trkpt>
      <trkpt lat="45.20145" lon="5.8392">
        <ele>242</ele>
        <time>2017-10-25T11:52:27Z</time>
      </trkpt>
      <trkpt lat="45.20145" lon="5.8393">
        <ele>242</ele>
        <time>2017-10-25T11:52:29Z</time>
      </trkpt>
      <trkpt lat="45.20145" lon="5.8394">
        <ele>243</ele>
        <time>2017-10-25T11:52:31Z</time>
      </trkpt>
      <trkpt lat="45.20146" lon="5.8395">
        <ele>244</ele>
        <time>2017-10-25T11:52:33Z</time>
      </trkpt>
      <trkpt lat="45.20147" lon="5.83959">
        <ele>244</ele>
        <time>2017-10-25T11:52:35Z</time>
      </trkpt>
      <trkpt lat="45.20147" lon="5.83967">
        <ele>245</ele>
        <time>2017-10-25T11:52:37Z</time>
      </trkpt>
      <trkpt lat="45.20147" lon="5.83975">
        <ele>246</ele>
        <time>2017-10-25T11:52:39Z</time>
      </trkpt>
      <trkpt lat="45.2015" lon="5.83983">
        <ele>246</ele>
        <time>2017-10-25T11:52:41Z</time>
      </trkpt>
      <trkpt lat="45.2015" lon="5.83991">
        <ele>246</ele>
        <time>2017-10-25T11:52:44Z</time>
      </trkpt>
      <trkpt lat="45.20147" lon="5.83996">
        <ele>247</ele>
        <time>2017-10-25T11:52:46Z</time>
      </trkpt>
      <trkpt lat="45.20144" lon="5.84003">
        <ele>248</ele>
        <time>2017-10-25T11:52:49Z</time>
      </trkpt>
      <trkpt lat="45.20136" lon="5.84007">
        <ele>250</ele>
        <time>2017-10-25T11:54:41Z</time>
      </trkpt>
      <trkpt lat="45.20132" lon="5.84014">
        <ele>251</ele>
        <time>2017-10-25T11:54:43Z</time>
      </trkpt>
      <trkpt lat="45.20128" lon="5.84021">
        <ele>253</ele>
        <time>2017-10-25T11:54:45Z</time>
      </trkpt>
      <trkpt lat="45.20123" lon="5.84027">
        <ele>254</ele>
        <time>2017-10-25T11:54:47Z</time>
      </trkpt>
      <trkpt lat="45.20118" lon="5.84034">
        <ele>255</ele>
        <time>2017-10-25T11:54:49Z</time>
      </trkpt>
      <trkpt lat="45.20114" lon="5.84038">
        <ele>257</ele>
        <time>2017-10-25T11:54:50Z</time>
      </trkpt>
      <trkpt lat="45.20108" lon="5.84045">
        <ele>259</ele>
        <time>2017-10-25T11:54:52Z</time>
      </trkpt>
      <trkpt lat="45.20102" lon="5.84051">
        <ele>262</ele>
        <time>2017-10-25T11:54:54Z</time>
      </trkpt>
      <trkpt lat="45.20097" lon="5.84058">
        <ele>264</ele>
        <time>2017-10-25T11:54:56Z</time>
      </trkpt>
      <trkpt lat="45.20092" lon="5.84065">
        <ele>266</ele>
        <time>2017-10-25T11:54:58Z</time>
      </trkpt>
      <trkpt lat="45.2009" lon="5.84072">
        <ele>266</ele>
        <time>2017-10-25T11:55:00Z</time>
      </trkpt>
      <trkpt lat="45.20088" lon="5.8408">
        <ele>266</ele>
        <time>2017-10-25T11:55:02Z</time>
      </trkpt>
      <trkpt lat="45.20089" lon="5.84088">
        <ele>265</ele>
        <time>2017-10-25T11:55:04Z</time>
      </trkpt>
      <trkpt lat="45.20089" lon="5.84097">
        <ele>265</ele>
        <time>2017-10-25T11:55:06Z</time>
      </trkpt>
      <trkpt lat="45.20089" lon="5.84106">
        <ele>264</ele>
        <time>2017-10-25T11:55:08Z</time>
      </trkpt>
      <trkpt lat="45.20088" lon="5.84115">
        <ele>264</ele>
        <time>2017-10-25T11:55:10Z</time>
      </trkpt>
      <trkpt lat="45.20083" lon="5.84123">
        <ele>265</ele>
        <time>2017-10-25T11:55:12Z</time>
      </trkpt>
      <trkpt lat="45.20078" lon="5.84131">
        <ele>265</ele>
        <time>2017-10-25T11:55:14Z</time>
      </trkpt>
      <trkpt lat="45.20073" lon="5.84137">
        <ele>266</ele>
        <time>2017-10-25T11:55:16Z</time>
      </trkpt>
      <trkpt lat="45.20069" lon="5.84143">
        <ele>266</ele>
        <time>2017-10-25T11:55:18Z</time>
      </trkpt>
      <trkpt lat="45.20067" lon="5.8415">
        <ele>266</ele>
        <time>2017-10-25T11:55:20Z</time>
      </trkpt>
      <trkpt lat="45.20065" lon="5.84156">
        <ele>266</ele>
        <time>2017-10-25T11:55:22Z</time>
      </trkpt>
      <trkpt lat="45.20063" lon="5.84162">
        <ele>265</ele>
        <time>2017-10-25T11:55:24Z</time>
      </trkpt>
      <trkpt lat="45.20059" lon="5.84167">
        <ele>265</ele>
        <time>2017-10-25T11:55:26Z</time>
      </trkpt>
      <trkpt lat="45.20055" lon="5.84172">
        <ele>265</ele>
        <time>2017-10-25T11:55:28Z</time>
      </trkpt>
      <trkpt lat="45.2005" lon="5.84176">
        <ele>265</ele>
        <time>2017-10-25T11:55:30Z</time>
      </trkpt>
      <trkpt lat="45.20045" lon="5.8418">
        <ele>265</ele>
        <time>2017-10-25T11:55:32Z</time>
      </trkpt>
      <trkpt lat="45.20039" lon="5.84183">
        <ele>265</ele>
        <time>2017-10-25T11:55:34Z</time>
      </trkpt>
      <trkpt lat="45.20034" lon="5.84186">
        <ele>265</ele>
        <time>2017-10-25T11:55:36Z</time>
      </trkpt>
      <trkpt lat="45.20029" lon="5.84189">
        <ele>265</ele>
        <time>2017-10-25T11:55:38Z</time>
      </trkpt>
      <trkpt lat="45.20025" lon="5.84192">
        <ele>265</ele>
        <time>2017-10-25T11:55:40Z</time>
      </trkpt>
      <trkpt lat="45.2002" lon="5.84197">
        <ele>264</ele>
        <time>2017-10-25T11:55:43Z</time>
      </trkpt>
      <trkpt lat="45.20014" lon="5.84202">
        <ele>264</ele>
        <time>2017-10-25T11:55:46Z</time>
      </trkpt>
      <trkpt lat="45.20009" lon="5.84206">
        <ele>265</ele>
        <time>2017-10-25T11:55:48Z</time>
      </trkpt>
      <trkpt lat="45.20005" lon="5.8421">
        <ele>265</ele>
        <time>2017-10-25T11:55:50Z</time>
      </trkpt>
      <trkpt lat="45.20001" lon="5.84214">
        <ele>266</ele>
        <time>2017-10-25T11:55:52Z</time>
      </trkpt>
      <trkpt lat="45.19996" lon="5.84219">
        <ele>266</ele>
        <time>2017-10-25T11:55:54Z</time>
      </trkpt>
      <trkpt lat="45.19992" lon="5.84225">
        <ele>266</ele>
        <time>2017-10-25T11:55:57Z</time>
      </trkpt>
      <trkpt lat="45.19988" lon="5.84232">
        <ele>267</ele>
        <time>2017-10-25T11:56:00Z</time>
      </trkpt>
      <trkpt lat="45.19985" lon="5.8424">
        <ele>267</ele>
        <time>2017-10-25T11:56:02Z</time>
      </trkpt>
      <trkpt lat="45.19982" lon="5.84247">
        <ele>267</ele>
        <time>2017-10-25T11:56:04Z</time>
      </trkpt>
      <trkpt lat="45.1998" lon="5.84254">
        <ele>267</ele>
        <time>2017-10-25T11:56:06Z</time>
      </trkpt>
      <trkpt lat="45.19984" lon="5.8426">
        <ele>268</ele>
        <time>2017-10-25T11:56:08Z</time>
      </trkpt>
      <trkpt lat="45.19988" lon="5.84264">
        <ele>268</ele>
        <time>2017-10-25T11:56:10Z</time>
      </trkpt>
      <trkpt lat="45.19993" lon="5.84264">
        <ele>269</ele>
        <time>2017-10-25T11:56:12Z</time>
      </trkpt>
      <trkpt lat="45.19998" lon="5.84264">
        <ele>269</ele>
        <time>2017-10-25T11:56:14Z</time>
      </trkpt>
      <trkpt lat="45.20003" lon="5.84264">
        <ele>270</ele>
        <time>2017-10-25T11:56:16Z</time>
      </trkpt>
      <trkpt lat="45.20008" lon="5.84264">
        <ele>270</ele>
        <time>2017-10-25T11:56:18Z</time>
      </trkpt>
      <trkpt lat="45.20013" lon="5.84263">
        <ele>271</ele>
        <time>2017-10-25T11:56:21Z</time>
      </trkpt>
      <trkpt lat="45.20019" lon="5.84263">
        <ele>271</ele>
        <time>2017-10-25T11:56:24Z</time>
      </trkpt>
      <trkpt lat="45.20025" lon="5.84262">
        <ele>272</ele>
        <time>2017-10-25T11:56:27Z</time>
      </trkpt>
      <trkpt lat="45.2003" lon="5.84261">
        <ele>272</ele>
        <time>2017-10-25T11:56:29Z</time>
      </trkpt>
      <trkpt lat="45.20035" lon="5.84261">
        <ele>273</ele>
        <time>2017-10-25T11:56:31Z</time>
      </trkpt>
      <trkpt lat="45.2004" lon="5.8426">
        <ele>273</ele>
        <time>2017-10-25T11:56:33Z</time>
      </trkpt>
      <trkpt lat="45.20046" lon="5.84259">
        <ele>274</ele>
        <time>2017-10-25T11:56:36Z</time>
      </trkpt>
      <trkpt lat="45.20051" lon="5.84259">
        <ele>274</ele>
        <time>2017-10-25T11:56:39Z</time>
      </trkpt>
      <trkpt lat="45.20056" lon="5.8426">
        <ele>275</ele>
        <time>2017-10-25T11:56:41Z</time>
      </trkpt>
      <trkpt lat="45.20061" lon="5.8426">
        <ele>276</ele>
        <time>2017-10-25T11:56:43Z</time>
      </trkpt>
      <trkpt lat="45.20067" lon="5.84262">
        <ele>277</ele>
        <time>2017-10-25T11:56:45Z</time>
      </trkpt>
      <trkpt lat="45.20072" lon="5.84263">
        <ele>278</ele>
        <time>2017-10-25T11:56:47Z</time>
      </trkpt>
      <trkpt lat="45.20077" lon="5.84263">
        <ele>278</ele>
        <time>2017-10-25T11:56:49Z</time>
      </trkpt>
      <trkpt lat="45.20083" lon="5.84262">
        <ele>279</ele>
        <time>2017-10-25T11:56:52Z</time>
      </trkpt>
      <trkpt lat="45.20089" lon="5.84261">
        <ele>279</ele>
        <time>2017-10-25T11:56:55Z</time>
      </trkpt>
      <trkpt lat="45.20095" lon="5.84258">
        <ele>279</ele>
        <time>2017-10-25T11:56:58Z</time>
      </trkpt>
      <trkpt lat="45.20099" lon="5.84255">
        <ele>279</ele>
        <time>2017-10-25T11:57:00Z</time>
      </trkpt>
      <trkpt lat="45.20104" lon="5.84253">
        <ele>279</ele>
        <time>2017-10-25T11:57:02Z</time>
      </trkpt>
      <trkpt lat="45.2011" lon="5.8425">
        <ele>279</ele>
        <time>2017-10-25T11:57:05Z</time>
      </trkpt>
      <trkpt lat="45.20115" lon="5.84246">
        <ele>278</ele>
        <time>2017-10-25T11:57:08Z</time>
      </trkpt>
      <trkpt lat="45.2012" lon="5.84242">
        <ele>278</ele>
        <time>2017-10-25T11:57:11Z</time>
      </trkpt>
      <trkpt lat="45.20125" lon="5.84239">
        <ele>277</ele>
        <time>2017-10-25T11:57:14Z</time>
      </trkpt>
      <trkpt lat="45.20129" lon="5.84233">
        <ele>275</ele>
        <time>2017-10-25T11:57:17Z</time>
      </trkpt>
      <trkpt lat="45.20134" lon="5.84229">
        <ele>274</ele>
        <time>2017-10-25T11:57:20Z</time>
      </trkpt>
      <trkpt lat="45.2014" lon="5.84227">
        <ele>273</ele>
        <time>2017-10-25T11:57:23Z</time>
      </trkpt>
      <trkpt lat="45.20145" lon="5.84226">
        <ele>273</ele>
        <time>2017-10-25T11:57:26Z</time>
      </trkpt>
      <trkpt lat="45.2015" lon="5.84226">
        <ele>272</ele>
        <time>2017-10-25T11:57:29Z</time>
      </trkpt>
      <trkpt lat="45.20154" lon="5.84228">
        <ele>273</ele>
        <time>2017-10-25T11:57:32Z</time>
      </trkpt>
      <trkpt lat="45.20158" lon="5.84232">
        <ele>274</ele>
        <time>2017-10-25T11:57:35Z</time>
      </trkpt>
      <trkpt lat="45.20162" lon="5.84237">
        <ele>275</ele>
        <time>2017-10-25T11:57:38Z</time>
      </trkpt>
      <trkpt lat="45.20165" lon="5.84243">
        <ele>276</ele>
        <time>2017-10-25T11:57:41Z</time>
      </trkpt>
      <trkpt lat="45.20168" lon="5.8425">
        <ele>278</ele>
        <time>2017-10-25T11:57:44Z</time>
      </trkpt>
      <trkpt lat="45.2017" lon="5.84258">
        <ele>280</ele>
        <time>2017-10-25T11:57:47Z</time>
      </trkpt>
      <trkpt lat="45.20171" lon="5.84266">
        <ele>282</ele>
        <time>2017-10-25T11:57:50Z</time>
      </trkpt>
      <trkpt lat="45.20173" lon="5.84273">
        <ele>284</ele>
        <time>2017-10-25T11:57:53Z</time>
      </trkpt>
      <trkpt lat="45.20174" lon="5.84281">
        <ele>287</ele>
        <time>2017-10-25T11:57:56Z</time>
      </trkpt>
      <trkpt lat="45.20175" lon="5.84288">
        <ele>290</ele>
        <time>2017-10-25T11:57:59Z</time>
      </trkpt>
      <trkpt lat="45.20177" lon="5.84296">
        <ele>292</ele>
        <time>2017-10-25T11:58:02Z</time>
      </trkpt>
      <trkpt lat="45.20179" lon="5.84304">
        <ele>295</ele>
        <time>2017-10-25T11:58:05Z</time>
      </trkpt>
      <trkpt lat="45.20182" lon="5.84311">
        <ele>297</ele>
        <time>2017-10-25T11:58:08Z</time>
      </trkpt>
      <trkpt lat="45.20185" lon="5.84318">
        <ele>298</ele>
        <time>2017-10-25T11:58:11Z</time>
      </trkpt>
      <trkpt lat="45.20189" lon="5.84325">
        <ele>299</ele>
        <time>2017-10-25T11:58:14Z</time>
      </trkpt>
      <trkpt lat="45.20191" lon="5.84332">
        <ele>300</ele>
        <time>2017-10-25T11:58:17Z</time>
      </trkpt>
      <trkpt lat="45.20194" lon="5.84338">
        <ele>301</ele>
        <time>2017-10-25T11:58:20Z</time>
      </trkpt>
      <trkpt lat="45.20198" lon="5.84345">
        <ele>300</ele>
        <time>2017-10-25T11:58:23Z</time>
      </trkpt>
      <trkpt lat="45.202" lon="5.84353">
        <ele>301</ele>
        <time>2017-10-25T11:58:26Z</time>
      </trkpt>
      <trkpt lat="45.20204" lon="5.84359">
        <ele>301</ele>
        <time>2017-10-25T11:58:29Z</time>
      </trkpt>
      <trkpt lat="45.20207" lon="5.84365">
        <ele>301</ele>
        <time>2017-10-25T11:58:31Z</time>
      </trkpt>
      <trkpt lat="45.2021" lon="5.84373">
        <ele>301</ele>
        <time>2017-10-25T11:58:34Z</time>
      </trkpt>
      <trkpt lat="45.20213" lon="5.84381">
        <ele>302</ele>
        <time>2017-10-25T11:58:37Z</time>
      </trkpt>
      <trkpt lat="45.20216" lon="5.84389">
        <ele>302</ele>
        <time>2017-10-25T11:58:40Z</time>
      </trkpt>
      <trkpt lat="45.20221" lon="5.84396">
        <ele>301</ele>
        <time>2017-10-25T11:58:43Z</time>
      </trkpt>
      <trkpt lat="45.20228" lon="5.84404">
        <ele>299</ele>
        <time>2017-10-25T11:58:47Z</time>
      </trkpt>
      <trkpt lat="45.20232" lon="5.84412">
        <ele>298</ele>
        <time>2017-10-25T11:58:50Z</time>
      </trkpt>
      <trkpt lat="45.20233" lon="5.8442">
        <ele>300</ele>
        <time>2017-10-25T11:58:53Z</time>
      </trkpt>
      <trkpt lat="45.20235" lon="5.84428">
        <ele>301</ele>
        <time>2017-10-25T11:58:56Z</time>
      </trkpt>
      <trkpt lat="45.20237" lon="5.84436">
        <ele>301</ele>
        <time>2017-10-25T11:58:59Z</time>
      </trkpt>
      <trkpt lat="45.20237" lon="5.84444">
        <ele>303</ele>
        <time>2017-10-25T11:59:02Z</time>
      </trkpt>
      <trkpt lat="45.20241" lon="5.84456">
        <ele>304</ele>
        <time>2017-10-25T11:59:06Z</time>
      </trkpt>
      <trkpt lat="45.20242" lon="5.84464">
        <ele>305</ele>
        <time>2017-10-25T11:59:09Z</time>
      </trkpt>
      <trkpt lat="45.20242" lon="5.84472">
        <ele>307</ele>
        <time>2017-10-25T11:59:12Z</time>
      </trkpt>
      <trkpt lat="45.2024" lon="5.8448">
        <ele>311</ele>
        <time>2017-10-25T11:59:15Z</time>
      </trkpt>
      <trkpt lat="45.20239" lon="5.84487">
        <ele>313</ele>
        <time>2017-10-25T11:59:18Z</time>
      </trkpt>
      <trkpt lat="45.20239" lon="5.84494">
        <ele>315</ele>
        <time>2017-10-25T11:59:21Z</time>
      </trkpt>
      <trkpt lat="45.2024" lon="5.84501">
        <ele>316</ele>
        <time>2017-10-25T11:59:24Z</time>
      </trkpt>
      <trkpt lat="45.20241" lon="5.84509">
        <ele>318</ele>
        <time>2017-10-25T11:59:27Z</time>
      </trkpt>
      <trkpt lat="45.20245" lon="5.84517">
        <ele>317</ele>
        <time>2017-10-25T11:59:30Z</time>
      </trkpt>
      <trkpt lat="45.2025" lon="5.84521">
        <ele>315</ele>
        <time>2017-10-25T11:59:32Z</time>
      </trkpt>
      <trkpt lat="45.20253" lon="5.84527">
        <ele>315</ele>
        <time>2017-10-25T11:59:34Z</time>
      </trkpt>
      <trkpt lat="45.20255" lon="5.84536">
        <ele>316</ele>
        <time>2017-10-25T11:59:37Z</time>
      </trkpt>
      <trkpt lat="45.20257" lon="5.84541">
        <ele>316</ele>
        <time>2017-10-25T11:59:39Z</time>
      </trkpt>
      <trkpt lat="45.2026" lon="5.8455">
        <ele>316</ele>
        <time>2017-10-25T11:59:42Z</time>
      </trkpt>
      <trkpt lat="45.20262" lon="5.84558">
        <ele>316</ele>
        <time>2017-10-25T11:59:45Z</time>
      </trkpt>
      <trkpt lat="45.20264" lon="5.84566">
        <ele>316</ele>
        <time>2017-10-25T11:59:48Z</time>
      </trkpt>
      <trkpt lat="45.20266" lon="5.84574">
        <ele>317</ele>
        <time>2017-10-25T11:59:51Z</time>
      </trkpt>
      <trkpt lat="45.20267" lon="5.84582">
        <ele>318</ele>
        <time>2017-10-25T11:59:54Z</time>
      </trkpt>
      <trkpt lat="45.20269" lon="5.84589">
        <ele>318</ele>
        <time>2017-10-25T11:59:57Z</time>
      </trkpt>
      <trkpt lat="45.2027" lon="5.84597">
        <ele>319</ele>
        <time>2017-10-25T12:00:00Z</time>
      </trkpt>
      <trkpt lat="45.20271" lon="5.84605">
        <ele>320</ele>
        <time>2017-10-25T12:00:03Z</time>
      </trkpt>
      <trkpt lat="45.20271" lon="5.84613">
        <ele>322</ele>
        <time>2017-10-25T12:00:06Z</time>
      </trkpt>
      <trkpt lat="45.20271" lon="5.84621">
        <ele>324</ele>
        <time>2017-10-25T12:00:09Z</time>
      </trkpt>
      <trkpt lat="45.20273" lon="5.84628">
        <ele>325</ele>
        <time>2017-10-25T12:00:12Z</time>
      </trkpt>
      <trkpt lat="45.20276" lon="5.84634">
        <ele>324</ele>
        <time>2017-10-25T12:00:15Z</time>
      </trkpt>
      <trkpt lat="45.20277" lon="5.84641">
        <ele>325</ele>
        <time>2017-10-25T12:00:18Z</time>
      </trkpt>
      <trkpt lat="45.2028" lon="5.84648">
        <ele>324</ele>
        <time>2017-10-25T12:00:22Z</time>
      </trkpt>
      <trkpt lat="45.20285" lon="5.84653">
        <ele>322</ele>
        <time>2017-10-25T12:00:25Z</time>
      </trkpt>
      <trkpt lat="45.2029" lon="5.8466">
        <ele>320</ele>
        <time>2017-10-25T12:00:28Z</time>
      </trkpt>
      <trkpt lat="45.20295" lon="5.84665">
        <ele>318</ele>
        <time>2017-10-25T12:00:31Z</time>
      </trkpt>
      <trkpt lat="45.20298" lon="5.84672">
        <ele>317</ele>
        <time>2017-10-25T12:00:34Z</time>
      </trkpt>
      <trkpt lat="45.20303" lon="5.84677">
        <ele>315</ele>
        <time>2017-10-25T12:00:36Z</time>
      </trkpt>
      <trkpt lat="45.20307" lon="5.84681">
        <ele>313</ele>
        <time>2017-10-25T12:00:38Z</time>
      </trkpt>
      <trkpt lat="45.20306" lon="5.8469">
        <ele>316</ele>
        <time>2017-10-25T12:00:41Z</time>
      </trkpt>
      <trkpt lat="45.20304" lon="5.84697">
        <ele>318</ele>
        <time>2017-10-25T12:00:43Z</time>
      </trkpt>
      <trkpt lat="45.20301" lon="5.84704">
        <ele>322</ele>
        <time>2017-10-25T12:00:46Z</time>
      </trkpt>
      <trkpt lat="45.20299" lon="5.84712">
        <ele>326</ele>
        <time>2017-10-25T12:00:49Z</time>
      </trkpt>
      <trkpt lat="45.203" lon="5.84719">
        <ele>327</ele>
        <time>2017-10-25T12:00:52Z</time>
      </trkpt>
      <trkpt lat="45.20302" lon="5.84727">
        <ele>327</ele>
        <time>2017-10-25T12:00:55Z</time>
      </trkpt>
      <trkpt lat="45.20304" lon="5.84735">
        <ele>327</ele>
        <time>2017-10-25T12:00:58Z</time>
      </trkpt>
      <trkpt lat="45.20308" lon="5.84742">
        <ele>326</ele>
        <time>2017-10-25T12:01:01Z</time>
      </trkpt>
      <trkpt lat="45.2031" lon="5.8475">
        <ele>326</ele>
        <time>2017-10-25T12:01:04Z</time>
      </trkpt>
      <trkpt lat="45.2031" lon="5.84759">
        <ele>328</ele>
        <time>2017-10-25T12:01:07Z</time>
      </trkpt>
      <trkpt lat="45.2031" lon="5.84767">
        <ele>330</ele>
        <time>2017-10-25T12:01:10Z</time>
      </trkpt>
      <trkpt lat="45.2031" lon="5.84775">
        <ele>332</ele>
        <time>2017-10-25T12:01:13Z</time>
      </trkpt>
      <trkpt lat="45.20313" lon="5.84781">
        <ele>331</ele>
        <time>2017-10-25T12:01:16Z</time>
      </trkpt>
      <trkpt lat="45.20314" lon="5.84789">
        <ele>332</ele>
        <time>2017-10-25T12:01:19Z</time>
      </trkpt>
      <trkpt lat="45.20316" lon="5.84796">
        <ele>332</ele>
        <time>2017-10-25T12:01:22Z</time>
      </trkpt>
      <trkpt lat="45.20315" lon="5.84804">
        <ele>335</ele>
        <time>2017-10-25T12:01:25Z</time>
      </trkpt>
      <trkpt lat="45.20315" lon="5.84814">
        <ele>337</ele>
        <time>2017-10-25T12:01:29Z</time>
      </trkpt>
      <trkpt lat="45.20315" lon="5.84822">
        <ele>339</ele>
        <time>2017-10-25T12:01:32Z</time>
      </trkpt>
      <trkpt lat="45.20318" lon="5.84829">
        <ele>339</ele>
        <time>2017-10-25T12:01:35Z</time>
      </trkpt>
      <trkpt lat="45.20321" lon="5.84835">
        <ele>338</ele>
        <time>2017-10-25T12:01:38Z</time>
      </trkpt>
      <trkpt lat="45.20322" lon="5.84842">
        <ele>339</ele>
        <time>2017-10-25T12:01:41Z</time>
      </trkpt>
      <trkpt lat="45.20324" lon="5.84849">
        <ele>340</ele>
        <time>2017-10-25T12:01:44Z</time>
      </trkpt>
      <trkpt lat="45.20323" lon="5.84858">
        <ele>343</ele>
        <time>2017-10-25T12:01:47Z</time>
      </trkpt>
      <trkpt lat="45.20324" lon="5.84866">
        <ele>344</ele>
        <time>2017-10-25T12:01:50Z</time>
      </trkpt>
      <trkpt lat="45.20325" lon="5.84874">
        <ele>346</ele>
        <time>2017-10-25T12:01:53Z</time>
      </trkpt>
      <trkpt lat="45.20327" lon="5.84881">
        <ele>346</ele>
        <time>2017-10-25T12:01:56Z</time>
      </trkpt>
      <trkpt lat="45.20332" lon="5.84888">
        <ele>344</ele>
        <time>2017-10-25T12:01:59Z</time>
      </trkpt>
      <trkpt lat="45.20337" lon="5.84895">
        <ele>343</ele>
        <time>2017-10-25T12:02:02Z</time>
      </trkpt>
      <trkpt lat="45.2034" lon="5.84902">
        <ele>343</ele>
        <time>2017-10-25T12:02:05Z</time>
      </trkpt>
      <trkpt lat="45.20343" lon="5.84908">
        <ele>342</ele>
        <time>2017-10-25T12:02:07Z</time>
      </trkpt>
      <trkpt lat="45.20345" lon="5.84915">
        <ele>343</ele>
        <time>2017-10-25T12:02:10Z</time>
      </trkpt>
      <trkpt lat="45.20347" lon="5.84922">
        <ele>344</ele>
        <time>2017-10-25T12:02:14Z</time>
      </trkpt>
      <trkpt lat="45.2035" lon="5.8493">
        <ele>344</ele>
        <time>2017-10-25T12:02:18Z</time>
      </trkpt>
      <trkpt lat="45.20352" lon="5.84937">
        <ele>344</ele>
        <time>2017-10-25T12:02:21Z</time>
      </trkpt>
      <trkpt lat="45.20354" lon="5.84943">
        <ele>345</ele>
        <time>2017-10-25T12:02:24Z</time>
      </trkpt>
      <trkpt lat="45.20357" lon="5.84949">
        <ele>344</ele>
        <time>2017-10-25T12:02:26Z</time>
      </trkpt>
      <trkpt lat="45.2036" lon="5.84955">
        <ele>344</ele>
        <time>2017-10-25T12:02:28Z</time>
      </trkpt>
      <trkpt lat="45.20363" lon="5.8496">
        <ele>343</ele>
        <time>2017-10-25T12:02:30Z</time>
      </trkpt>
      <trkpt lat="45.20365" lon="5.84969">
        <ele>344</ele>
        <time>2017-10-25T12:02:33Z</time>
      </trkpt>
      <trkpt lat="45.20367" lon="5.84976">
        <ele>344</ele>
        <time>2017-10-25T12:02:36Z</time>
      </trkpt>
      <trkpt lat="45.20371" lon="5.84984">
        <ele>343</ele>
        <time>2017-10-25T12:02:39Z</time>
      </trkpt>
      <trkpt lat="45.20374" lon="5.84991">
        <ele>343</ele>
        <time>2017-10-25T12:02:42Z</time>
      </trkpt>
      <trkpt lat="45.20374" lon="5.84998">
        <ele>345</ele>
        <time>2017-10-25T12:02:45Z</time>
      </trkpt>
      <trkpt lat="45.20376" lon="5.85005">
        <ele>345</ele>
        <time>2017-10-25T12:02:48Z</time>
      </trkpt>
      <trkpt lat="45.20379" lon="5.85011">
        <ele>345</ele>
        <time>2017-10-25T12:02:51Z</time>
      </trkpt>
      <trkpt lat="45.20383" lon="5.85018">
        <ele>344</ele>
        <time>2017-10-25T12:02:54Z</time>
      </trkpt>
      <trkpt lat="45.20385" lon="5.85025">
        <ele>344</ele>
        <time>2017-10-25T12:02:57Z</time>
      </trkpt>
      <trkpt lat="45.20387" lon="5.85033">
        <ele>345</ele>
        <time>2017-10-25T12:03:00Z</time>
      </trkpt>
      <trkpt lat="45.20388" lon="5.85039">
        <ele>345</ele>
        <time>2017-10-25T12:03:03Z</time>
      </trkpt>
      <trkpt lat="45.20392" lon="5.85046">
        <ele>344</ele>
        <time>2017-10-25T12:03:06Z</time>
      </trkpt>
      <trkpt lat="45.20396" lon="5.85053">
        <ele>344</ele>
        <time>2017-10-25T12:03:09Z</time>
      </trkpt>
      <trkpt lat="45.20398" lon="5.85061">
        <ele>344</ele>
        <time>2017-10-25T12:03:12Z</time>
      </trkpt>
      <trkpt lat="45.20401" lon="5.85068">
        <ele>344</ele>
        <time>2017-10-25T12:03:15Z</time>
      </trkpt>
      <trkpt lat="45.20403" lon="5.85076">
        <ele>345</ele>
        <time>2017-10-25T12:03:18Z</time>
      </trkpt>
      <trkpt lat="45.20406" lon="5.85084">
        <ele>345</ele>
        <time>2017-10-25T12:03:21Z</time>
      </trkpt>
      <trkpt lat="45.20409" lon="5.85091">
        <ele>345</ele>
        <time>2017-10-25T12:03:24Z</time>
      </trkpt>
      <trkpt lat="45.20411" lon="5.85099">
        <ele>345</ele>
        <time>2017-10-25T12:03:27Z</time>
      </trkpt>
      <trkpt lat="45.2041" lon="5.85107">
        <ele>347</ele>
        <time>2017-10-25T12:03:30Z</time>
      </trkpt>
      <trkpt lat="45.20407" lon="5.85113">
        <ele>350</ele>
        <time>2017-10-25T12:03:34Z</time>
      </trkpt>
      <trkpt lat="45.20402" lon="5.8511">
        <ele>352</ele>
        <time>2017-10-25T12:03:38Z</time>
      </trkpt>
      <trkpt lat="45.20398" lon="5.85103">
        <ele>354</ele>
        <time>2017-10-25T12:03:41Z</time>
      </trkpt>
      <trkpt lat="45.20396" lon="5.85095">
        <ele>354</ele>
        <time>2017-10-25T12:03:44Z</time>
      </trkpt>
      <trkpt lat="45.20394" lon="5.85087">
        <ele>353</ele>
        <time>2017-10-25T12:03:47Z</time>
      </trkpt>
      <trkpt lat="45.20392" lon="5.8508">
        <ele>353</ele>
        <time>2017-10-25T12:03:50Z</time>
      </trkpt>
      <trkpt lat="45.20391" lon="5.85072">
        <ele>351</ele>
        <time>2017-10-25T12:03:54Z</time>
      </trkpt>
      <trkpt lat="45.20389" lon="5.85064">
        <ele>351</ele>
        <time>2017-10-25T12:03:58Z</time>
      </trkpt>
      <trkpt lat="45.20386" lon="5.85059">
        <ele>352</ele>
        <time>2017-10-25T12:04:00Z</time>
      </trkpt>
      <trkpt lat="45.20383" lon="5.85054">
        <ele>352</ele>
        <time>2017-10-25T12:04:03Z</time>
      </trkpt>
      <trkpt lat="45.20379" lon="5.85048">
        <ele>354</ele>
        <time>2017-10-25T12:04:06Z</time>
      </trkpt>
      <trkpt lat="45.20375" lon="5.85042">
        <ele>355</ele>
        <time>2017-10-25T12:04:09Z</time>
      </trkpt>
      <trkpt lat="45.20371" lon="5.85036">
        <ele>356</ele>
        <time>2017-10-25T12:04:12Z</time>
      </trkpt>
      <trkpt lat="45.20368" lon="5.8503">
        <ele>357</ele>
        <time>2017-10-25T12:04:15Z</time>
      </trkpt>
      <trkpt lat="45.20364" lon="5.85024">
        <ele>358</ele>
        <time>2017-10-25T12:04:18Z</time>
      </trkpt>
      <trkpt lat="45.20362" lon="5.85017">
        <ele>358</ele>
        <time>2017-10-25T12:04:22Z</time>
      </trkpt>
      <trkpt lat="45.20361" lon="5.85011">
        <ele>357</ele>
        <time>2017-10-25T12:04:26Z</time>
      </trkpt>
      <trkpt lat="45.20358" lon="5.85003">
        <ele>357</ele>
        <time>2017-10-25T12:04:30Z</time>
      </trkpt>
      <trkpt lat="45.20355" lon="5.84997">
        <ele>358</ele>
        <time>2017-10-25T12:04:33Z</time>
      </trkpt>
      <trkpt lat="45.2035" lon="5.84991">
        <ele>360</ele>
        <time>2017-10-25T12:04:36Z</time>
      </trkpt>
      <trkpt lat="45.20346" lon="5.84985">
        <ele>361</ele>
        <time>2017-10-25T12:04:39Z</time>
      </trkpt>
      <trkpt lat="45.20341" lon="5.84979">
        <ele>363</ele>
        <time>2017-10-25T12:04:42Z</time>
      </trkpt>
      <trkpt lat="45.20337" lon="5.84973">
        <ele>364</ele>
        <time>2017-10-25T12:04:44Z</time>
      </trkpt>
      <trkpt lat="45.20334" lon="5.84968">
        <ele>365</ele>
        <time>2017-10-25T12:04:46Z</time>
      </trkpt>
      <trkpt lat="45.20332" lon="5.8496">
        <ele>364</ele>
        <time>2017-10-25T12:04:50Z</time>
      </trkpt>
      <trkpt lat="45.20327" lon="5.84954">
        <ele>366</ele>
        <time>2017-10-25T12:04:54Z</time>
      </trkpt>
      <trkpt lat="45.20324" lon="5.84947">
        <ele>366</ele>
        <time>2017-10-25T12:04:57Z</time>
      </trkpt>
      <trkpt lat="45.20319" lon="5.84941">
        <ele>368</ele>
        <time>2017-10-25T12:05:00Z</time>
      </trkpt>
      <trkpt lat="45.20314" lon="5.84934">
        <ele>369</ele>
        <time>2017-10-25T12:05:03Z</time>
      </trkpt>
      <trkpt lat="45.20312" lon="5.84929">
        <ele>369</ele>
        <time>2017-10-25T12:05:05Z</time>
      </trkpt>
      <trkpt lat="45.20309" lon="5.84921">
        <ele>368</ele>
        <time>2017-10-25T12:05:08Z</time>
      </trkpt>
      <trkpt lat="45.20305" lon="5.84914">
        <ele>369</ele>
        <time>2017-10-25T12:05:11Z</time>
      </trkpt>
      <trkpt lat="45.20301" lon="5.84909">
        <ele>371</ele>
        <time>2017-10-25T12:05:14Z</time>
      </trkpt>
      <trkpt lat="45.20297" lon="5.84902">
        <ele>371</ele>
        <time>2017-10-25T12:05:17Z</time>
      </trkpt>
      <trkpt lat="45.20295" lon="5.84896">
        <ele>371</ele>
        <time>2017-10-25T12:05:20Z</time>
      </trkpt>
      <trkpt lat="45.20292" lon="5.84889">
        <ele>371</ele>
        <time>2017-10-25T12:05:23Z</time>
      </trkpt>
      <trkpt lat="45.20289" lon="5.84883">
        <ele>373</ele>
        <time>2017-10-25T12:05:26Z</time>
      </trkpt>
      <trkpt lat="45.20287" lon="5.84875">
        <ele>372</ele>
        <time>2017-10-25T12:05:29Z</time>
      </trkpt>
      <trkpt lat="45.20285" lon="5.84867">
        <ele>371</ele>
        <time>2017-10-25T12:05:32Z</time>
      </trkpt>
      <trkpt lat="45.20282" lon="5.84861">
        <ele>372</ele>
        <time>2017-10-25T12:05:35Z</time>
      </trkpt>
      <trkpt lat="45.20283" lon="5.84854">
        <ele>369</ele>
        <time>2017-10-25T12:05:38Z</time>
      </trkpt>
      <trkpt lat="45.20285" lon="5.84846">
        <ele>366</ele>
        <time>2017-10-25T12:05:41Z</time>
      </trkpt>
      <trkpt lat="45.20283" lon="5.84839">
        <ele>366</ele>
        <time>2017-10-25T12:05:44Z</time>
      </trkpt>
      <trkpt lat="45.20281" lon="5.84832">
        <ele>367</ele>
        <time>2017-10-25T12:05:47Z</time>
      </trkpt>
      <trkpt lat="45.20277" lon="5.84824">
        <ele>367</ele>
        <time>2017-10-25T12:05:50Z</time>
      </trkpt>
      <trkpt lat="45.20276" lon="5.84817">
        <ele>367</ele>
        <time>2017-10-25T12:05:53Z</time>
      </trkpt>
      <trkpt lat="45.20277" lon="5.8481">
        <ele>364</ele>
        <time>2017-10-25T12:05:57Z</time>
      </trkpt>
      <trkpt lat="45.20274" lon="5.84804">
        <ele>365</ele>
        <time>2017-10-25T12:06:00Z</time>
      </trkpt>
      <trkpt lat="45.20272" lon="5.84797">
        <ele>365</ele>
        <time>2017-10-25T12:06:03Z</time>
      </trkpt>
      <trkpt lat="45.20269" lon="5.84789">
        <ele>365</ele>
        <time>2017-10-25T12:06:06Z</time>
      </trkpt>
      <trkpt lat="45.20267" lon="5.84783">
        <ele>365</ele>
        <time>2017-10-25T12:06:08Z</time>
      </trkpt>
      <trkpt lat="45.20262" lon="5.84778">
        <ele>368</ele>
        <time>2017-10-25T12:06:10Z</time>
      </trkpt>
      <trkpt lat="45.20257" lon="5.84772">
        <ele>370</ele>
        <time>2017-10-25T12:06:12Z</time>
      </trkpt>
      <trkpt lat="45.20254" lon="5.84766">
        <ele>371</ele>
        <time>2017-10-25T12:06:14Z</time>
      </trkpt>
      <trkpt lat="45.20247" lon="5.84754">
        <ele>372</ele>
        <time>2017-10-25T12:06:19Z</time>
      </trkpt>
      <trkpt lat="45.20244" lon="5.84747">
        <ele>373</ele>
        <time>2017-10-25T12:06:22Z</time>
      </trkpt>
      <trkpt lat="45.20239" lon="5.84741">
        <ele>374</ele>
        <time>2017-10-25T12:06:25Z</time>
      </trkpt>
      <trkpt lat="45.20232" lon="5.8473">
        <ele>375</ele>
        <time>2017-10-25T12:06:33Z</time>
      </trkpt>
      <trkpt lat="45.20226" lon="5.84724">
        <ele>377</ele>
        <time>2017-10-25T12:06:36Z</time>
      </trkpt>
      <trkpt lat="45.20221" lon="5.8472">
        <ele>380</ele>
        <time>2017-10-25T12:06:38Z</time>
      </trkpt>
      <trkpt lat="45.20217" lon="5.84716">
        <ele>381</ele>
        <time>2017-10-25T12:06:40Z</time>
      </trkpt>
      <trkpt lat="45.20211" lon="5.84711">
        <ele>384</ele>
        <time>2017-10-25T12:06:43Z</time>
      </trkpt>
      <trkpt lat="45.20206" lon="5.84707">
        <ele>386</ele>
        <time>2017-10-25T12:06:46Z</time>
      </trkpt>
      <trkpt lat="45.20202" lon="5.84702">
        <ele>387</ele>
        <time>2017-10-25T12:06:48Z</time>
      </trkpt>
      <trkpt lat="45.20198" lon="5.84697">
        <ele>389</ele>
        <time>2017-10-25T12:06:50Z</time>
      </trkpt>
      <trkpt lat="45.20196" lon="5.8469">
        <ele>389</ele>
        <time>2017-10-25T12:06:53Z</time>
      </trkpt>
      <trkpt lat="45.20194" lon="5.84683">
        <ele>390</ele>
        <time>2017-10-25T12:06:56Z</time>
      </trkpt>
      <trkpt lat="45.20191" lon="5.84678">
        <ele>390</ele>
        <time>2017-10-25T12:07:01Z</time>
      </trkpt>
      <trkpt lat="45.20188" lon="5.84673">
        <ele>391</ele>
        <time>2017-10-25T12:07:04Z</time>
      </trkpt>
      <trkpt lat="45.20184" lon="5.84668">
        <ele>392</ele>
        <time>2017-10-25T12:07:07Z</time>
      </trkpt>
      <trkpt lat="45.20181" lon="5.84663">
        <ele>392</ele>
        <time>2017-10-25T12:07:10Z</time>
      </trkpt>
      <trkpt lat="45.20179" lon="5.84655">
        <ele>391</ele>
        <time>2017-10-25T12:07:14Z</time>
      </trkpt>
      <trkpt lat="45.20177" lon="5.84648">
        <ele>391</ele>
        <time>2017-10-25T12:07:17Z</time>
      </trkpt>
      <trkpt lat="45.20173" lon="5.84641">
        <ele>391</ele>
        <time>2017-10-25T12:07:20Z</time>
      </trkpt>
      <trkpt lat="45.20171" lon="5.84635">
        <ele>391</ele>
        <time>2017-10-25T12:07:22Z</time>
      </trkpt>
      <trkpt lat="45.20167" lon="5.84628">
        <ele>392</ele>
        <time>2017-10-25T12:07:25Z</time>
      </trkpt>
      <trkpt lat="45.20164" lon="5.84623">
        <ele>392</ele>
        <time>2017-10-25T12:07:28Z</time>
      </trkpt>
      <trkpt lat="45.2016" lon="5.84616">
        <ele>393</ele>
        <time>2017-10-25T12:07:31Z</time>
      </trkpt>
      <trkpt lat="45.20155" lon="5.8461">
        <ele>394</ele>
        <time>2017-10-25T12:07:33Z</time>
      </trkpt>
      <trkpt lat="45.20151" lon="5.84602">
        <ele>394</ele>
        <time>2017-10-25T12:07:35Z</time>
      </trkpt>
      <trkpt lat="45.20147" lon="5.84597">
        <ele>395</ele>
        <time>2017-10-25T12:07:37Z</time>
      </trkpt>
      <trkpt lat="45.20144" lon="5.84592">
        <ele>395</ele>
        <time>2017-10-25T12:07:40Z</time>
      </trkpt>
      <trkpt lat="45.20142" lon="5.84585">
        <ele>394</ele>
        <time>2017-10-25T12:07:43Z</time>
      </trkpt>
      <trkpt lat="45.20139" lon="5.84578">
        <ele>394</ele>
        <time>2017-10-25T12:07:46Z</time>
      </trkpt>
      <trkpt lat="45.20135" lon="5.84573">
        <ele>395</ele>
        <time>2017-10-25T12:07:49Z</time>
      </trkpt>
      <trkpt lat="45.20132" lon="5.84567">
        <ele>395</ele>
        <time>2017-10-25T12:07:52Z</time>
      </trkpt>
      <trkpt lat="45.20131" lon="5.8456">
        <ele>394</ele>
        <time>2017-10-25T12:07:55Z</time>
      </trkpt>
      <trkpt lat="45.20131" lon="5.84552">
        <ele>392</ele>
        <time>2017-10-25T12:07:58Z</time>
      </trkpt>
      <trkpt lat="45.20131" lon="5.84546">
        <ele>390</ele>
        <time>2017-10-25T12:08:01Z</time>
      </trkpt>
      <trkpt lat="45.20129" lon="5.84539">
        <ele>390</ele>
        <time>2017-10-25T12:08:04Z</time>
      </trkpt>
      <trkpt lat="45.20126" lon="5.84532">
        <ele>389</ele>
        <time>2017-10-25T12:08:07Z</time>
      </trkpt>
      <trkpt lat="45.20124" lon="5.84525">
        <ele>388</ele>
        <time>2017-10-25T12:08:10Z</time>
      </trkpt>
      <trkpt lat="45.20123" lon="5.84517">
        <ele>386</ele>
        <time>2017-10-25T12:08:13Z</time>
      </trkpt>
      <trkpt lat="45.20121" lon="5.8451">
        <ele>384</ele>
        <time>2017-10-25T12:08:16Z</time>
      </trkpt>
      <trkpt lat="45.2012" lon="5.84504">
        <ele>383</ele>
        <time>2017-10-25T12:08:19Z</time>
      </trkpt>
      <trkpt lat="45.20116" lon="5.84497">
        <ele>382</ele>
        <time>2017-10-25T12:08:22Z</time>
      </trkpt>
      <trkpt lat="45.20114" lon="5.8449">
        <ele>380</ele>
        <time>2017-10-25T12:08:25Z</time>
      </trkpt>
      <trkpt lat="45.2011" lon="5.84486">
        <ele>379</ele>
        <time>2017-10-25T12:08:28Z</time>
      </trkpt>
      <trkpt lat="45.20106" lon="5.8448">
        <ele>378</ele>
        <time>2017-10-25T12:08:32Z</time>
      </trkpt>
      <trkpt lat="45.20102" lon="5.84476">
        <ele>377</ele>
        <time>2017-10-25T12:08:35Z</time>
      </trkpt>
      <trkpt lat="45.20098" lon="5.84473">
        <ele>376</ele>
        <time>2017-10-25T12:08:38Z</time>
      </trkpt>
      <trkpt lat="45.20093" lon="5.8447">
        <ele>376</ele>
        <time>2017-10-25T12:08:41Z</time>
      </trkpt>
      <trkpt lat="45.20087" lon="5.84468">
        <ele>376</ele>
        <time>2017-10-25T12:08:44Z</time>
      </trkpt>
      <trkpt lat="45.20083" lon="5.84467">
        <ele>376</ele>
        <time>2017-10-25T12:08:46Z</time>
      </trkpt>
      <trkpt lat="45.20076" lon="5.84467">
        <ele>376</ele>
        <time>2017-10-25T12:08:49Z</time>
      </trkpt>
      <trkpt lat="45.20071" lon="5.84468">
        <ele>378</ele>
        <time>2017-10-25T12:08:52Z</time>
      </trkpt>
      <trkpt lat="45.20066" lon="5.84468">
        <ele>378</ele>
        <time>2017-10-25T12:08:55Z</time>
      </trkpt>
      <trkpt lat="45.2006" lon="5.84469">
        <ele>379</ele>
        <time>2017-10-25T12:08:58Z</time>
      </trkpt>
      <trkpt lat="45.20055" lon="5.84469">
        <ele>380</ele>
        <time>2017-10-25T12:09:01Z</time>
      </trkpt>
      <trkpt lat="45.20049" lon="5.84471">
        <ele>381</ele>
        <time>2017-10-25T12:09:04Z</time>
      </trkpt>
      <trkpt lat="45.20045" lon="5.84474">
        <ele>382</ele>
        <time>2017-10-25T12:09:07Z</time>
      </trkpt>
      <trkpt lat="45.2004" lon="5.84478">
        <ele>382</ele>
        <time>2017-10-25T12:09:10Z</time>
      </trkpt>
      <trkpt lat="45.20035" lon="5.84482">
        <ele>383</ele>
        <time>2017-10-25T12:09:13Z</time>
      </trkpt>
      <trkpt lat="45.20029" lon="5.84483">
        <ele>382</ele>
        <time>2017-10-25T12:09:16Z</time>
      </trkpt>
      <trkpt lat="45.20022" lon="5.84483">
        <ele>381</ele>
        <time>2017-10-25T12:09:19Z</time>
      </trkpt>
      <trkpt lat="45.20016" lon="5.84484">
        <ele>380</ele>
        <time>2017-10-25T12:09:22Z</time>
      </trkpt>
      <trkpt lat="45.20011" lon="5.84486">
        <ele>379</ele>
        <time>2017-10-25T12:09:25Z</time>
      </trkpt>
      <trkpt lat="45.20005" lon="5.84486">
        <ele>378</ele>
        <time>2017-10-25T12:09:28Z</time>
      </trkpt>
      <trkpt lat="45.19998" lon="5.84488">
        <ele>378</ele>
        <time>2017-10-25T12:09:31Z</time>
      </trkpt>
      <trkpt lat="45.19992" lon="5.84491">
        <ele>378</ele>
        <time>2017-10-25T12:09:34Z</time>
      </trkpt>
      <trkpt lat="45.19986" lon="5.84491">
        <ele>377</ele>
        <time>2017-10-25T12:09:37Z</time>
      </trkpt>
      <trkpt lat="45.1998" lon="5.8449">
        <ele>375</ele>
        <time>2017-10-25T12:09:40Z</time>
      </trkpt>
      <trkpt lat="45.19974" lon="5.84491">
        <ele>372</ele>
        <time>2017-10-25T12:09:43Z</time>
      </trkpt>
      <trkpt lat="45.19969" lon="5.84494">
        <ele>372</ele>
        <time>2017-10-25T12:09:46Z</time>
      </trkpt>
      <trkpt lat="45.19965" lon="5.845">
        <ele>373</ele>
        <time>2017-10-25T12:09:49Z</time>
      </trkpt>
      <trkpt lat="45.1996" lon="5.84506">
        <ele>373</ele>
        <time>2017-10-25T12:09:52Z</time>
      </trkpt>
      <trkpt lat="45.19956" lon="5.84512">
        <ele>374</ele>
        <time>2017-10-25T12:09:55Z</time>
      </trkpt>
      <trkpt lat="45.19952" lon="5.84518">
        <ele>375</ele>
        <time>2017-10-25T12:09:58Z</time>
      </trkpt>
      <trkpt lat="45.19949" lon="5.84524">
        <ele>377</ele>
        <time>2017-10-25T12:10:01Z</time>
      </trkpt>
      <trkpt lat="45.19947" lon="5.84531">
        <ele>379</ele>
        <time>2017-10-25T12:10:04Z</time>
      </trkpt>
      <trkpt lat="45.19944" lon="5.84538">
        <ele>381</ele>
        <time>2017-10-25T12:10:07Z</time>
      </trkpt>
      <trkpt lat="45.19942" lon="5.84545">
        <ele>383</ele>
        <time>2017-10-25T12:10:10Z</time>
      </trkpt>
      <trkpt lat="45.19938" lon="5.84551">
        <ele>384</ele>
        <time>2017-10-25T12:10:13Z</time>
      </trkpt>
      <trkpt lat="45.19935" lon="5.84558">
        <ele>386</ele>
        <time>2017-10-25T12:10:16Z</time>
      </trkpt>
      <trkpt lat="45.19932" lon="5.84566">
        <ele>388</ele>
        <time>2017-10-25T12:10:19Z</time>
      </trkpt>
      <trkpt lat="45.19928" lon="5.84574">
        <ele>390</ele>
        <time>2017-10-25T12:10:22Z</time>
      </trkpt>
      <trkpt lat="45.1992" lon="5.84584">
        <ele>391</ele>
        <time>2017-10-25T12:10:27Z</time>
      </trkpt>
      <trkpt lat="45.19916" lon="5.8459">
        <ele>392</ele>
        <time>2017-10-25T12:10:30Z</time>
      </trkpt>
      <trkpt lat="45.19912" lon="5.84595">
        <ele>392</ele>
        <time>2017-10-25T12:10:33Z</time>
      </trkpt>
      <trkpt lat="45.19907" lon="5.84599">
        <ele>392</ele>
        <time>2017-10-25T12:10:36Z</time>
      </trkpt>
      <trkpt lat="45.19904" lon="5.84605">
        <ele>393</ele>
        <time>2017-10-25T12:10:39Z</time>
      </trkpt>
      <trkpt lat="45.199" lon="5.84612">
        <ele>394</ele>
        <time>2017-10-25T12:10:42Z</time>
      </trkpt>
      <trkpt lat="45.19896" lon="5.84617">
        <ele>393</ele>
        <time>2017-10-25T12:10:45Z</time>
      </trkpt>
      <trkpt lat="45.19892" lon="5.84624">
        <ele>394</ele>
        <time>2017-10-25T12:10:48Z</time>
      </trkpt>
      <trkpt lat="45.19888" lon="5.84629">
        <ele>394</ele>
        <time>2017-10-25T12:10:51Z</time>
      </trkpt>
      <trkpt lat="45.19884" lon="5.84635">
        <ele>395</ele>
        <time>2017-10-25T12:10:54Z</time>
      </trkpt>
      <trkpt lat="45.1988" lon="5.84641">
        <ele>395</ele>
        <time>2017-10-25T12:10:57Z</time>
      </trkpt>
      <trkpt lat="45.19875" lon="5.84646">
        <ele>394</ele>
        <time>2017-10-25T12:11:00Z</time>
      </trkpt>
      <trkpt lat="45.19871" lon="5.84652">
        <ele>394</ele>
        <time>2017-10-25T12:11:03Z</time>
      </trkpt>
      <trkpt lat="45.19866" lon="5.84657">
        <ele>393</ele>
        <time>2017-10-25T12:11:06Z</time>
      </trkpt>
      <trkpt lat="45.19861" lon="5.84662">
        <ele>391</ele>
        <time>2017-10-25T12:11:09Z</time>
      </trkpt>
      <trkpt lat="45.19856" lon="5.84667">
        <ele>391</ele>
        <time>2017-10-25T12:11:12Z</time>
      </trkpt>
      <trkpt lat="45.19854" lon="5.84673">
        <ele>392</ele>
        <time>2017-10-25T12:11:15Z</time>
      </trkpt>
      <trkpt lat="45.1985" lon="5.8468">
        <ele>392</ele>
        <time>2017-10-25T12:11:18Z</time>
      </trkpt>
      <trkpt lat="45.19846" lon="5.84686">
        <ele>391</ele>
        <time>2017-10-25T12:11:21Z</time>
      </trkpt>
      <trkpt lat="45.19846" lon="5.84694">
        <ele>393</ele>
        <time>2017-10-25T12:11:24Z</time>
      </trkpt>
      <trkpt lat="45.19847" lon="5.84704">
        <ele>397</ele>
        <time>2017-10-25T12:11:27Z</time>
      </trkpt>
      <trkpt lat="45.19848" lon="5.84712">
        <ele>399</ele>
        <time>2017-10-25T12:11:30Z</time>
      </trkpt>
      <trkpt lat="45.19848" lon="5.84721">
        <ele>403</ele>
        <time>2017-10-25T12:11:33Z</time>
      </trkpt>
      <trkpt lat="45.19851" lon="5.84728">
        <ele>407</ele>
        <time>2017-10-25T12:11:36Z</time>
      </trkpt>
      <trkpt lat="45.19854" lon="5.84736">
        <ele>410</ele>
        <time>2017-10-25T12:11:39Z</time>
      </trkpt>
      <trkpt lat="45.19856" lon="5.84742">
        <ele>413</ele>
        <time>2017-10-25T12:11:41Z</time>
      </trkpt>
      <trkpt lat="45.19859" lon="5.8475">
        <ele>417</ele>
        <time>2017-10-25T12:11:44Z</time>
      </trkpt>
      <trkpt lat="45.19862" lon="5.84757">
        <ele>420</ele>
        <time>2017-10-25T12:11:47Z</time>
      </trkpt>
      <trkpt lat="45.19864" lon="5.84765">
        <ele>423</ele>
        <time>2017-10-25T12:11:50Z</time>
      </trkpt>
      <trkpt lat="45.19862" lon="5.84774">
        <ele>424</ele>
        <time>2017-10-25T12:11:53Z</time>
      </trkpt>
      <trkpt lat="45.1986" lon="5.8478">
        <ele>425</ele>
        <time>2017-10-25T12:11:55Z</time>
      </trkpt>
      <trkpt lat="45.19855" lon="5.84782">
        <ele>424</ele>
        <time>2017-10-25T12:11:57Z</time>
      </trkpt>
      <trkpt lat="45.19851" lon="5.84782">
        <ele>422</ele>
        <time>2017-10-25T12:11:59Z</time>
      </trkpt>
      <trkpt lat="45.19844" lon="5.8478">
        <ele>419</ele>
        <time>2017-10-25T12:12:02Z</time>
      </trkpt>
      <trkpt lat="45.19839" lon="5.84778">
        <ele>417</ele>
        <time>2017-10-25T12:12:05Z</time>
      </trkpt>
      <trkpt lat="45.19833" lon="5.84776">
        <ele>415</ele>
        <time>2017-10-25T12:12:08Z</time>
      </trkpt>
      <trkpt lat="45.19826" lon="5.84778">
        <ele>414</ele>
        <time>2017-10-25T12:12:11Z</time>
      </trkpt>
      <trkpt lat="45.1982" lon="5.8478">
        <ele>413</ele>
        <time>2017-10-25T12:12:14Z</time>
      </trkpt>
      <trkpt lat="45.19815" lon="5.84784">
        <ele>413</ele>
        <time>2017-10-25T12:12:17Z</time>
      </trkpt>
      <trkpt lat="45.1981" lon="5.8479">
        <ele>414</ele>
        <time>2017-10-25T12:12:20Z</time>
      </trkpt>
      <trkpt lat="45.19804" lon="5.84794">
        <ele>415</ele>
        <time>2017-10-25T12:12:23Z</time>
      </trkpt>
      <trkpt lat="45.19795" lon="5.84802">
        <ele>416</ele>
        <time>2017-10-25T12:12:28Z</time>
      </trkpt>
      <trkpt lat="45.1979" lon="5.84805">
        <ele>416</ele>
        <time>2017-10-25T12:12:31Z</time>
      </trkpt>
      <trkpt lat="45.19785" lon="5.84809">
        <ele>417</ele>
        <time>2017-10-25T12:12:34Z</time>
      </trkpt>
      <trkpt lat="45.1978" lon="5.84813">
        <ele>418</ele>
        <time>2017-10-25T12:12:37Z</time>
      </trkpt>
      <trkpt lat="45.19775" lon="5.84817">
        <ele>419</ele>
        <time>2017-10-25T12:12:40Z</time>
      </trkpt>
      <trkpt lat="45.19771" lon="5.84823">
        <ele>421</ele>
        <time>2017-10-25T12:12:43Z</time>
      </trkpt>
      <trkpt lat="45.19766" lon="5.84828">
        <ele>422</ele>
        <time>2017-10-25T12:12:46Z</time>
      </trkpt>
      <trkpt lat="45.19761" lon="5.84829">
        <ele>421</ele>
        <time>2017-10-25T12:12:48Z</time>
      </trkpt>
      <trkpt lat="45.19756" lon="5.8483">
        <ele>421</ele>
        <time>2017-10-25T12:12:50Z</time>
      </trkpt>
      <trkpt lat="45.19751" lon="5.84831">
        <ele>420</ele>
        <time>2017-10-25T12:12:52Z</time>
      </trkpt>
      <trkpt lat="45.19745" lon="5.84831">
        <ele>419</ele>
        <time>2017-10-25T12:12:55Z</time>
      </trkpt>
      <trkpt lat="45.19739" lon="5.84831">
        <ele>418</ele>
        <time>2017-10-25T12:12:58Z</time>
      </trkpt>
      <trkpt lat="45.19734" lon="5.84833">
        <ele>417</ele>
        <time>2017-10-25T12:13:01Z</time>
      </trkpt>
      <trkpt lat="45.19729" lon="5.84834">
        <ele>417</ele>
        <time>2017-10-25T12:13:04Z</time>
      </trkpt>
      <trkpt lat="45.19725" lon="5.84838">
        <ele>419</ele>
        <time>2017-10-25T12:13:07Z</time>
      </trkpt>
      <trkpt lat="45.19721" lon="5.84843">
        <ele>420</ele>
        <time>2017-10-25T12:13:10Z</time>
      </trkpt>
      <trkpt lat="45.19717" lon="5.84849">
        <ele>423</ele>
        <time>2017-10-25T12:13:13Z</time>
      </trkpt>
      <trkpt lat="45.19713" lon="5.84854">
        <ele>425</ele>
        <time>2017-10-25T12:13:16Z</time>
      </trkpt>
      <trkpt lat="45.19709" lon="5.8486">
        <ele>427</ele>
        <time>2017-10-25T12:13:19Z</time>
      </trkpt>
      <trkpt lat="45.19704" lon="5.84864">
        <ele>428</ele>
        <time>2017-10-25T12:13:22Z</time>
      </trkpt>
      <trkpt lat="45.19698" lon="5.84867">
        <ele>428</ele>
        <time>2017-10-25T12:13:25Z</time>
      </trkpt>
      <trkpt lat="45.19692" lon="5.8487">
        <ele>428</ele>
        <time>2017-10-25T12:13:28Z</time>
      </trkpt>
      <trkpt lat="45.19686" lon="5.84873">
        <ele>428</ele>
        <time>2017-10-25T12:13:31Z</time>
      </trkpt>
      <trkpt lat="45.19682" lon="5.84878">
        <ele>430</ele>
        <time>2017-10-25T12:13:34Z</time>
      </trkpt>
      <trkpt lat="45.19677" lon="5.84884">
        <ele>432</ele>
        <time>2017-10-25T12:13:37Z</time>
      </trkpt>
      <trkpt lat="45.19674" lon="5.84891">
        <ele>435</ele>
        <time>2017-10-25T12:13:40Z</time>
      </trkpt>
      <trkpt lat="45.1967" lon="5.84899">
        <ele>437</ele>
        <time>2017-10-25T12:13:43Z</time>
      </trkpt>
      <trkpt lat="45.19667" lon="5.84907">
        <ele>440</ele>
        <time>2017-10-25T12:13:46Z</time>
      </trkpt>
      <trkpt lat="45.19663" lon="5.84914">
        <ele>443</ele>
        <time>2017-10-25T12:13:49Z</time>
      </trkpt>
      <trkpt lat="45.19655" lon="5.84924">
        <ele>446</ele>
        <time>2017-10-25T12:13:54Z</time>
      </trkpt>
      <trkpt lat="45.1965" lon="5.84929">
        <ele>447</ele>
        <time>2017-10-25T12:13:57Z</time>
      </trkpt>
      <trkpt lat="45.19646" lon="5.84935">
        <ele>449</ele>
        <time>2017-10-25T12:14:00Z</time>
      </trkpt>
      <trkpt lat="45.19642" lon="5.84942">
        <ele>452</ele>
        <time>2017-10-25T12:14:03Z</time>
      </trkpt>
      <trkpt lat="45.19638" lon="5.84947">
        <ele>453</ele>
        <time>2017-10-25T12:14:06Z</time>
      </trkpt>
      <trkpt lat="45.19634" lon="5.84953">
        <ele>455</ele>
        <time>2017-10-25T12:14:09Z</time>
      </trkpt>
      <trkpt lat="45.19629" lon="5.84958">
        <ele>456</ele>
        <time>2017-10-25T12:14:12Z</time>
      </trkpt>
      <trkpt lat="45.19623" lon="5.84961">
        <ele>455</ele>
        <time>2017-10-25T12:14:15Z</time>
      </trkpt>
      <trkpt lat="45.19617" lon="5.84963">
        <ele>455</ele>
        <time>2017-10-25T12:14:18Z</time>
      </trkpt>
      <trkpt lat="45.19611" lon="5.84964">
        <ele>453</ele>
        <time>2017-10-25T12:14:21Z</time>
      </trkpt>
      <trkpt lat="45.19605" lon="5.84967">
        <ele>453</ele>
        <time>2017-10-25T12:14:24Z</time>
      </trkpt>
      <trkpt lat="45.19599" lon="5.84969">
        <ele>452</ele>
        <time>2017-10-25T12:14:27Z</time>
      </trkpt>
      <trkpt lat="45.19593" lon="5.84971">
        <ele>452</ele>
        <time>2017-10-25T12:14:30Z</time>
      </trkpt>
      <trkpt lat="45.19588" lon="5.84976">
        <ele>452</ele>
        <time>2017-10-25T12:14:33Z</time>
      </trkpt>
      <trkpt lat="45.19584" lon="5.84981">
        <ele>454</ele>
        <time>2017-10-25T12:14:36Z</time>
      </trkpt>
      <trkpt lat="45.1958" lon="5.84986">
        <ele>455</ele>
        <time>2017-10-25T12:14:40Z</time>
      </trkpt>
      <trkpt lat="45.19576" lon="5.8499">
        <ele>456</ele>
        <time>2017-10-25T12:14:43Z</time>
      </trkpt>
      <trkpt lat="45.19568" lon="5.84998">
        <ele>457</ele>
        <time>2017-10-25T12:14:49Z</time>
      </trkpt>
      <trkpt lat="45.19562" lon="5.85">
        <ele>456</ele>
        <time>2017-10-25T12:14:52Z</time>
      </trkpt>
      <trkpt lat="45.19557" lon="5.85002">
        <ele>455</ele>
        <time>2017-10-25T12:14:55Z</time>
      </trkpt>
      <trkpt lat="45.19551" lon="5.85003">
        <ele>453</ele>
        <time>2017-10-25T12:14:58Z</time>
      </trkpt>
      <trkpt lat="45.19546" lon="5.85005">
        <ele>452</ele>
        <time>2017-10-25T12:15:01Z</time>
      </trkpt>
      <trkpt lat="45.1954" lon="5.85008">
        <ele>452</ele>
        <time>2017-10-25T12:15:04Z</time>
      </trkpt>
      <trkpt lat="45.19535" lon="5.85012">
        <ele>452</ele>
        <time>2017-10-25T12:15:07Z</time>
      </trkpt>
      <trkpt lat="45.19529" lon="5.85016">
        <ele>452</ele>
        <time>2017-10-25T12:15:10Z</time>
      </trkpt>
      <trkpt lat="45.19525" lon="5.85021">
        <ele>453</ele>
        <time>2017-10-25T12:15:13Z</time>
      </trkpt>
      <trkpt lat="45.19519" lon="5.85025">
        <ele>454</ele>
        <time>2017-10-25T12:15:16Z</time>
      </trkpt>
      <trkpt lat="45.1951" lon="5.85034">
        <ele>454</ele>
        <time>2017-10-25T12:15:21Z</time>
      </trkpt>
      <trkpt lat="45.19507" lon="5.85038">
        <ele>455</ele>
        <time>2017-10-25T12:15:23Z</time>
      </trkpt>
      <trkpt lat="45.19503" lon="5.85042">
        <ele>455</ele>
        <time>2017-10-25T12:15:25Z</time>
      </trkpt>
      <trkpt lat="45.19499" lon="5.85046">
        <ele>456</ele>
        <time>2017-10-25T12:15:27Z</time>
      </trkpt>
      <trkpt lat="45.19495" lon="5.8505">
        <ele>456</ele>
        <time>2017-10-25T12:15:29Z</time>
      </trkpt>
      <trkpt lat="45.19488" lon="5.85062">
        <ele>458</ele>
        <time>2017-10-25T12:15:34Z</time>
      </trkpt>
      <trkpt lat="45.19483" lon="5.85068">
        <ele>458</ele>
        <time>2017-10-25T12:15:37Z</time>
      </trkpt>
      <trkpt lat="45.19478" lon="5.85074">
        <ele>459</ele>
        <time>2017-10-25T12:15:40Z</time>
      </trkpt>
      <trkpt lat="45.19475" lon="5.85082">
        <ele>461</ele>
        <time>2017-10-25T12:15:43Z</time>
      </trkpt>
      <trkpt lat="45.19473" lon="5.8509">
        <ele>463</ele>
        <time>2017-10-25T12:15:46Z</time>
      </trkpt>
      <trkpt lat="45.1947" lon="5.85097">
        <ele>464</ele>
        <time>2017-10-25T12:15:50Z</time>
      </trkpt>
      <trkpt lat="45.1947" lon="5.85104">
        <ele>466</ele>
        <time>2017-10-25T12:15:53Z</time>
      </trkpt>
      <trkpt lat="45.19469" lon="5.85113">
        <ele>468</ele>
        <time>2017-10-25T12:15:56Z</time>
      </trkpt>
      <trkpt lat="45.19469" lon="5.85121">
        <ele>470</ele>
        <time>2017-10-25T12:15:59Z</time>
      </trkpt>
      <trkpt lat="45.19468" lon="5.85128">
        <ele>472</ele>
        <time>2017-10-25T12:16:02Z</time>
      </trkpt>
      <trkpt lat="45.19468" lon="5.85136">
        <ele>474</ele>
        <time>2017-10-25T12:16:05Z</time>
      </trkpt>
      <trkpt lat="45.19468" lon="5.85144">
        <ele>476</ele>
        <time>2017-10-25T12:16:08Z</time>
      </trkpt>
      <trkpt lat="45.19469" lon="5.85152">
        <ele>478</ele>
        <time>2017-10-25T12:16:11Z</time>
      </trkpt>
      <trkpt lat="45.19468" lon="5.85161">
        <ele>481</ele>
        <time>2017-10-25T12:16:14Z</time>
      </trkpt>
      <trkpt lat="45.19465" lon="5.8517">
        <ele>482</ele>
        <time>2017-10-25T12:16:17Z</time>
      </trkpt>
      <trkpt lat="45.19462" lon="5.85175">
        <ele>483</ele>
        <time>2017-10-25T12:16:19Z</time>
      </trkpt>
      <trkpt lat="45.19459" lon="5.8518">
        <ele>484</ele>
        <time>2017-10-25T12:16:21Z</time>
      </trkpt>
      <trkpt lat="45.19455" lon="5.85182">
        <ele>483</ele>
        <time>2017-10-25T12:16:23Z</time>
      </trkpt>
      <trkpt lat="45.1945" lon="5.85184">
        <ele>482</ele>
        <time>2017-10-25T12:16:25Z</time>
      </trkpt>
      <trkpt lat="45.19445" lon="5.85184">
        <ele>480</ele>
        <time>2017-10-25T12:16:27Z</time>
      </trkpt>
      <trkpt lat="45.1944" lon="5.85184">
        <ele>479</ele>
        <time>2017-10-25T12:16:29Z</time>
      </trkpt>
      <trkpt lat="45.19434" lon="5.85182">
        <ele>476</ele>
        <time>2017-10-25T12:16:32Z</time>
      </trkpt>
      <trkpt lat="45.19429" lon="5.85178">
        <ele>474</ele>
        <time>2017-10-25T12:16:35Z</time>
      </trkpt>
      <trkpt lat="45.19424" lon="5.85176">
        <ele>472</ele>
        <time>2017-10-25T12:16:37Z</time>
      </trkpt>
      <trkpt lat="45.19419" lon="5.85172">
        <ele>470</ele>
        <time>2017-10-25T12:16:40Z</time>
      </trkpt>
      <trkpt lat="45.19413" lon="5.85168">
        <ele>468</ele>
        <time>2017-10-25T12:16:43Z</time>
      </trkpt>
      <trkpt lat="45.19408" lon="5.85172">
        <ele>469</ele>
        <time>2017-10-25T12:16:46Z</time>
      </trkpt>
      <trkpt lat="45.19405" lon="5.85179">
        <ele>470</ele>
        <time>2017-10-25T12:16:49Z</time>
      </trkpt>
      <trkpt lat="45.19401" lon="5.85187">
        <ele>472</ele>
        <time>2017-10-25T12:16:52Z</time>
      </trkpt>
      <trkpt lat="45.194" lon="5.85193">
        <ele>473</ele>
        <time>2017-10-25T12:16:54Z</time>
      </trkpt>
      <trkpt lat="45.19398" lon="5.85199">
        <ele>475</ele>
        <time>2017-10-25T12:16:56Z</time>
      </trkpt>
      <trkpt lat="45.19394" lon="5.85207">
        <ele>477</ele>
        <time>2017-10-25T12:16:59Z</time>
      </trkpt>
      <trkpt lat="45.1939" lon="5.85213">
        <ele>478</ele>
        <time>2017-10-25T12:17:02Z</time>
      </trkpt>
      <trkpt lat="45.19385" lon="5.85219">
        <ele>478</ele>
        <time>2017-10-25T12:17:05Z</time>
      </trkpt>
      <trkpt lat="45.19382" lon="5.85227">
        <ele>480</ele>
        <time>2017-10-25T12:17:08Z</time>
      </trkpt>
      <trkpt lat="45.1938" lon="5.85235">
        <ele>482</ele>
        <time>2017-10-25T12:17:11Z</time>
      </trkpt>
      <trkpt lat="45.19378" lon="5.85243">
        <ele>483</ele>
        <time>2017-10-25T12:17:14Z</time>
      </trkpt>
      <trkpt lat="45.19376" lon="5.8525">
        <ele>484</ele>
        <time>2017-10-25T12:17:17Z</time>
      </trkpt>
      <trkpt lat="45.19376" lon="5.85259">
        <ele>486</ele>
        <time>2017-10-25T12:17:20Z</time>
      </trkpt>
      <trkpt lat="45.19376" lon="5.85268">
        <ele>488</ele>
        <time>2017-10-25T12:17:23Z</time>
      </trkpt>
      <trkpt lat="45.19376" lon="5.85277">
        <ele>490</ele>
        <time>2017-10-25T12:17:26Z</time>
      </trkpt>
      <trkpt lat="45.19376" lon="5.85284">
        <ele>492</ele>
        <time>2017-10-25T12:17:28Z</time>
      </trkpt>
      <trkpt lat="45.19376" lon="5.85292">
        <ele>494</ele>
        <time>2017-10-25T12:17:31Z</time>
      </trkpt>
      <trkpt lat="45.19377" lon="5.85301">
        <ele>496</ele>
        <time>2017-10-25T12:17:34Z</time>
      </trkpt>
      <trkpt lat="45.19376" lon="5.85308">
        <ele>497</ele>
        <time>2017-10-25T12:17:37Z</time>
      </trkpt>
      <trkpt lat="45.19377" lon="5.85317">
        <ele>499</ele>
        <time>2017-10-25T12:17:40Z</time>
      </trkpt>
      <trkpt lat="45.19377" lon="5.85326">
        <ele>501</ele>
        <time>2017-10-25T12:17:43Z</time>
      </trkpt>
      <trkpt lat="45.19377" lon="5.85336">
        <ele>503</ele>
        <time>2017-10-25T12:17:46Z</time>
      </trkpt>
      <trkpt lat="45.19377" lon="5.85345">
        <ele>505</ele>
        <time>2017-10-25T12:17:49Z</time>
      </trkpt>
      <trkpt lat="45.19377" lon="5.85353">
        <ele>507</ele>
        <time>2017-10-25T12:17:52Z</time>
      </trkpt>
      <trkpt lat="45.19376" lon="5.85361">
        <ele>508</ele>
        <time>2017-10-25T12:17:55Z</time>
      </trkpt>
      <trkpt lat="45.19371" lon="5.85368">
        <ele>509</ele>
        <time>2017-10-25T12:17:58Z</time>
      </trkpt>
      <trkpt lat="45.19367" lon="5.85371">
        <ele>509</ele>
        <time>2017-10-25T12:18:00Z</time>
      </trkpt>
      <trkpt lat="45.19363" lon="5.85372">
        <ele>509</ele>
        <time>2017-10-25T12:18:02Z</time>
      </trkpt>
      <trkpt lat="45.19358" lon="5.85368">
        <ele>508</ele>
        <time>2017-10-25T12:18:04Z</time>
      </trkpt>
      <trkpt lat="45.19355" lon="5.85363">
        <ele>507</ele>
        <time>2017-10-25T12:18:06Z</time>
      </trkpt>
      <trkpt lat="45.19352" lon="5.85357">
        <ele>505</ele>
        <time>2017-10-25T12:18:08Z</time>
      </trkpt>
      <trkpt lat="45.1935" lon="5.85351">
        <ele>504</ele>
        <time>2017-10-25T12:18:10Z</time>
      </trkpt>
      <trkpt lat="45.19348" lon="5.85343">
        <ele>502</ele>
        <time>2017-10-25T12:18:12Z</time>
      </trkpt>
      <trkpt lat="45.19345" lon="5.85337">
        <ele>500</ele>
        <time>2017-10-25T12:18:14Z</time>
      </trkpt>
      <trkpt lat="45.19341" lon="5.8533">
        <ele>498</ele>
        <time>2017-10-25T12:18:17Z</time>
      </trkpt>
      <trkpt lat="45.19335" lon="5.85326">
        <ele>497</ele>
        <time>2017-10-25T12:18:20Z</time>
      </trkpt>
      <trkpt lat="45.1933" lon="5.85325">
        <ele>497</ele>
        <time>2017-10-25T12:18:22Z</time>
      </trkpt>
      <trkpt lat="45.19325" lon="5.85325">
        <ele>496</ele>
        <time>2017-10-25T12:18:24Z</time>
      </trkpt>
      <trkpt lat="45.1932" lon="5.85327">
        <ele>497</ele>
        <time>2017-10-25T12:18:26Z</time>
      </trkpt>
      <trkpt lat="45.19315" lon="5.85328">
        <ele>497</ele>
        <time>2017-10-25T12:18:28Z</time>
      </trkpt>
      <trkpt lat="45.19309" lon="5.8533">
        <ele>497</ele>
        <time>2017-10-25T12:18:30Z</time>
      </trkpt>
      <trkpt lat="45.19304" lon="5.85332">
        <ele>497</ele>
        <time>2017-10-25T12:18:32Z</time>
      </trkpt>
      <trkpt lat="45.19299" lon="5.85334">
        <ele>498</ele>
        <time>2017-10-25T12:18:34Z</time>
      </trkpt>
      <trkpt lat="45.19295" lon="5.85336">
        <ele>498</ele>
        <time>2017-10-25T12:18:36Z</time>
      </trkpt>
      <trkpt lat="45.1929" lon="5.85339">
        <ele>499</ele>
        <time>2017-10-25T12:18:38Z</time>
      </trkpt>
      <trkpt lat="45.19284" lon="5.85344">
        <ele>500</ele>
        <time>2017-10-25T12:18:41Z</time>
      </trkpt>
      <trkpt lat="45.19279" lon="5.85346">
        <ele>500</ele>
        <time>2017-10-25T12:18:43Z</time>
      </trkpt>
      <trkpt lat="45.19273" lon="5.85349">
        <ele>501</ele>
        <time>2017-10-25T12:18:46Z</time>
      </trkpt>
      <trkpt lat="45.19268" lon="5.8535">
        <ele>501</ele>
        <time>2017-10-25T12:18:48Z</time>
      </trkpt>
      <trkpt lat="45.19262" lon="5.8535">
        <ele>501</ele>
        <time>2017-10-25T12:18:50Z</time>
      </trkpt>
      <trkpt lat="45.19258" lon="5.85353">
        <ele>502</ele>
        <time>2017-10-25T12:18:52Z</time>
      </trkpt>
      <trkpt lat="45.19253" lon="5.85355">
        <ele>502</ele>
        <time>2017-10-25T12:18:54Z</time>
      </trkpt>
      <trkpt lat="45.19247" lon="5.85357">
        <ele>503</ele>
        <time>2017-10-25T12:18:57Z</time>
      </trkpt>
      <trkpt lat="45.19242" lon="5.85359">
        <ele>503</ele>
        <time>2017-10-25T12:18:59Z</time>
      </trkpt>
      <trkpt lat="45.19237" lon="5.8536">
        <ele>503</ele>
        <time>2017-10-25T12:19:01Z</time>
      </trkpt>
      <trkpt lat="45.19232" lon="5.85361">
        <ele>503</ele>
        <time>2017-10-25T12:19:03Z</time>
      </trkpt>
      <trkpt lat="45.19226" lon="5.85363">
        <ele>504</ele>
        <time>2017-10-25T12:19:06Z</time>
      </trkpt>
      <trkpt lat="45.19217" lon="5.85366">
        <ele>504</ele>
        <time>2017-10-25T12:19:10Z</time>
      </trkpt>
      <trkpt lat="45.19212" lon="5.85366">
        <ele>503</ele>
        <time>2017-10-25T12:19:12Z</time>
      </trkpt>
      <trkpt lat="45.19206" lon="5.85368">
        <ele>504</ele>
        <time>2017-10-25T12:19:14Z</time>
      </trkpt>
      <trkpt lat="45.19201" lon="5.85369">
        <ele>503</ele>
        <time>2017-10-25T12:19:16Z</time>
      </trkpt>
      <trkpt lat="45.19196" lon="5.85372">
        <ele>504</ele>
        <time>2017-10-25T12:19:18Z</time>
      </trkpt>
      <trkpt lat="45.19191" lon="5.85374">
        <ele>504</ele>
        <time>2017-10-25T12:19:20Z</time>
      </trkpt>
      <trkpt lat="45.19186" lon="5.85377">
        <ele>505</ele>
        <time>2017-10-25T12:19:22Z</time>
      </trkpt>
      <trkpt lat="45.19181" lon="5.85378">
        <ele>504</ele>
        <time>2017-10-25T12:19:24Z</time>
      </trkpt>
      <trkpt lat="45.19177" lon="5.85381">
        <ele>505</ele>
        <time>2017-10-25T12:19:26Z</time>
      </trkpt>
      <trkpt lat="45.19173" lon="5.85384">
        <ele>506</ele>
        <time>2017-10-25T12:19:28Z</time>
      </trkpt>
      <trkpt lat="45.19169" lon="5.85388">
        <ele>506</ele>
        <time>2017-10-25T12:19:30Z</time>
      </trkpt>
      <trkpt lat="45.19165" lon="5.85392">
        <ele>507</ele>
        <time>2017-10-25T12:19:32Z</time>
      </trkpt>
      <trkpt lat="45.19161" lon="5.85398">
        <ele>509</ele>
        <time>2017-10-25T12:19:34Z</time>
      </trkpt>
      <trkpt lat="45.19157" lon="5.85403">
        <ele>510</ele>
        <time>2017-10-25T12:19:36Z</time>
      </trkpt>
      <trkpt lat="45.19154" lon="5.85408">
        <ele>511</ele>
        <time>2017-10-25T12:19:38Z</time>
      </trkpt>
      <trkpt lat="45.1915" lon="5.85412">
        <ele>511</ele>
        <time>2017-10-25T12:19:40Z</time>
      </trkpt>
      <trkpt lat="45.19146" lon="5.85416">
        <ele>511</ele>
        <time>2017-10-25T12:19:42Z</time>
      </trkpt>
      <trkpt lat="45.19141" lon="5.85422">
        <ele>512</ele>
        <time>2017-10-25T12:19:45Z</time>
      </trkpt>
      <trkpt lat="45.19138" lon="5.85427">
        <ele>513</ele>
        <time>2017-10-25T12:19:47Z</time>
      </trkpt>
      <trkpt lat="45.19136" lon="5.85433">
        <ele>514</ele>
        <time>2017-10-25T12:19:49Z</time>
      </trkpt>
      <trkpt lat="45.19133" lon="5.85439">
        <ele>516</ele>
        <time>2017-10-25T12:19:51Z</time>
      </trkpt>
      <trkpt lat="45.1913" lon="5.85444">
        <ele>517</ele>
        <time>2017-10-25T12:19:53Z</time>
      </trkpt>
      <trkpt lat="45.19126" lon="5.85449">
        <ele>517</ele>
        <time>2017-10-25T12:19:55Z</time>
      </trkpt>
      <trkpt lat="45.19123" lon="5.85454">
        <ele>518</ele>
        <time>2017-10-25T12:19:57Z</time>
      </trkpt>
      <trkpt lat="45.19119" lon="5.85459">
        <ele>519</ele>
        <time>2017-10-25T12:19:59Z</time>
      </trkpt>
      <trkpt lat="45.19115" lon="5.85462">
        <ele>520</ele>
        <time>2017-10-25T12:20:01Z</time>
      </trkpt>
      <trkpt lat="45.19111" lon="5.85466">
        <ele>520</ele>
        <time>2017-10-25T12:20:03Z</time>
      </trkpt>
      <trkpt lat="45.19107" lon="5.85471">
        <ele>521</ele>
        <time>2017-10-25T12:20:05Z</time>
      </trkpt>
      <trkpt lat="45.19103" lon="5.85475">
        <ele>522</ele>
        <time>2017-10-25T12:20:07Z</time>
      </trkpt>
      <trkpt lat="45.19098" lon="5.85478">
        <ele>522</ele>
        <time>2017-10-25T12:20:09Z</time>
      </trkpt>
      <trkpt lat="45.19094" lon="5.85483">
        <ele>522</ele>
        <time>2017-10-25T12:20:11Z</time>
      </trkpt>
      <trkpt lat="45.19091" lon="5.85487">
        <ele>523</ele>
        <time>2017-10-25T12:20:13Z</time>
      </trkpt>
      <trkpt lat="45.19086" lon="5.8549">
        <ele>523</ele>
        <time>2017-10-25T12:20:15Z</time>
      </trkpt>
      <trkpt lat="45.19082" lon="5.85493">
        <ele>524</ele>
        <time>2017-10-25T12:20:17Z</time>
      </trkpt>
      <trkpt lat="45.19077" lon="5.85498">
        <ele>524</ele>
        <time>2017-10-25T12:20:20Z</time>
      </trkpt>
      <trkpt lat="45.19072" lon="5.85501">
        <ele>524</ele>
        <time>2017-10-25T12:20:22Z</time>
      </trkpt>
      <trkpt lat="45.19067" lon="5.85505">
        <ele>525</ele>
        <time>2017-10-25T12:20:25Z</time>
      </trkpt>
      <trkpt lat="45.19062" lon="5.85508">
        <ele>525</ele>
        <time>2017-10-25T12:20:27Z</time>
      </trkpt>
      <trkpt lat="45.19056" lon="5.85511">
        <ele>525</ele>
        <time>2017-10-25T12:20:30Z</time>
      </trkpt>
      <trkpt lat="45.19052" lon="5.85513">
        <ele>525</ele>
        <time>2017-10-25T12:20:32Z</time>
      </trkpt>
      <trkpt lat="45.19047" lon="5.85514">
        <ele>525</ele>
        <time>2017-10-25T12:20:34Z</time>
      </trkpt>
      <trkpt lat="45.19043" lon="5.85516">
        <ele>524</ele>
        <time>2017-10-25T12:20:36Z</time>
      </trkpt>
      <trkpt lat="45.19038" lon="5.85517">
        <ele>524</ele>
        <time>2017-10-25T12:20:38Z</time>
      </trkpt>
      <trkpt lat="45.19033" lon="5.85518">
        <ele>523</ele>
        <time>2017-10-25T12:20:40Z</time>
      </trkpt>
      <trkpt lat="45.19029" lon="5.85519">
        <ele>522</ele>
        <time>2017-10-25T12:20:42Z</time>
      </trkpt>
      <trkpt lat="45.19024" lon="5.85523">
        <ele>523</ele>
        <time>2017-10-25T12:20:44Z</time>
      </trkpt>
      <trkpt lat="45.19019" lon="5.85528">
        <ele>523</ele>
        <time>2017-10-25T12:20:47Z</time>
      </trkpt>
      <trkpt lat="45.19015" lon="5.85533">
        <ele>524</ele>
        <time>2017-10-25T12:20:51Z</time>
      </trkpt>
      <trkpt lat="45.1901" lon="5.85535">
        <ele>523</ele>
        <time>2017-10-25T12:20:54Z</time>
      </trkpt>
      <trkpt lat="45.19004" lon="5.85538">
        <ele>522</ele>
        <time>2017-10-25T12:20:57Z</time>
      </trkpt>
      <trkpt lat="45.19" lon="5.85543">
        <ele>522</ele>
        <time>2017-10-25T12:21:00Z</time>
      </trkpt>
      <trkpt lat="45.18995" lon="5.85547">
        <ele>522</ele>
        <time>2017-10-25T12:21:03Z</time>
      </trkpt>
      <trkpt lat="45.18991" lon="5.85554">
        <ele>522</ele>
        <time>2017-10-25T12:21:06Z</time>
      </trkpt>
      <trkpt lat="45.18988" lon="5.85559">
        <ele>523</ele>
        <time>2017-10-25T12:21:08Z</time>
      </trkpt>
      <trkpt lat="45.18985" lon="5.85564">
        <ele>523</ele>
        <time>2017-10-25T12:21:10Z</time>
      </trkpt>
      <trkpt lat="45.18982" lon="5.85569">
        <ele>524</ele>
        <time>2017-10-25T12:21:12Z</time>
      </trkpt>
      <trkpt lat="45.18979" lon="5.85575">
        <ele>524</ele>
        <time>2017-10-25T12:21:14Z</time>
      </trkpt>
      <trkpt lat="45.18977" lon="5.8558">
        <ele>525</ele>
        <time>2017-10-25T12:21:16Z</time>
      </trkpt>
      <trkpt lat="45.18974" lon="5.85588">
        <ele>526</ele>
        <time>2017-10-25T12:21:19Z</time>
      </trkpt>
      <trkpt lat="45.18971" lon="5.85594">
        <ele>525</ele>
        <time>2017-10-25T12:21:22Z</time>
      </trkpt>
      <trkpt lat="45.18968" lon="5.85603">
        <ele>526</ele>
        <time>2017-10-25T12:21:25Z</time>
      </trkpt>
      <trkpt lat="45.18966" lon="5.85609">
        <ele>527</ele>
        <time>2017-10-25T12:21:27Z</time>
      </trkpt>
      <trkpt lat="45.18963" lon="5.85618">
        <ele>528</ele>
        <time>2017-10-25T12:21:30Z</time>
      </trkpt>
      <trkpt lat="45.18956" lon="5.8563">
        <ele>527</ele>
        <time>2017-10-25T12:21:35Z</time>
      </trkpt>
      <trkpt lat="45.18953" lon="5.85637">
        <ele>527</ele>
        <time>2017-10-25T12:21:38Z</time>
      </trkpt>
      <trkpt lat="45.18948" lon="5.85644">
        <ele>525</ele>
        <time>2017-10-25T12:21:41Z</time>
      </trkpt>
      <trkpt lat="45.18945" lon="5.85649">
        <ele>525</ele>
        <time>2017-10-25T12:21:43Z</time>
      </trkpt>
      <trkpt lat="45.18942" lon="5.85657">
        <ele>524</ele>
        <time>2017-10-25T12:21:46Z</time>
      </trkpt>
      <trkpt lat="45.1894" lon="5.85666">
        <ele>525</ele>
        <time>2017-10-25T12:21:49Z</time>
      </trkpt>
      <trkpt lat="45.18941" lon="5.85674">
        <ele>526</ele>
        <time>2017-10-25T12:21:52Z</time>
      </trkpt>
      <trkpt lat="45.18942" lon="5.85681">
        <ele>527</ele>
        <time>2017-10-25T12:21:54Z</time>
      </trkpt>
      <trkpt lat="45.18943" lon="5.85688">
        <ele>529</ele>
        <time>2017-10-25T12:21:56Z</time>
      </trkpt>
      <trkpt lat="45.18945" lon="5.85695">
        <ele>531</ele>
        <time>2017-10-25T12:21:58Z</time>
      </trkpt>
      <trkpt lat="45.18947" lon="5.85702">
        <ele>533</ele>
        <time>2017-10-25T12:22:00Z</time>
      </trkpt>
      <trkpt lat="45.18948" lon="5.85708">
        <ele>534</ele>
        <time>2017-10-25T12:22:02Z</time>
      </trkpt>
      <trkpt lat="45.1895" lon="5.85716">
        <ele>535</ele>
        <time>2017-10-25T12:22:05Z</time>
      </trkpt>
      <trkpt lat="45.18951" lon="5.85724">
        <ele>536</ele>
        <time>2017-10-25T12:22:08Z</time>
      </trkpt>
      <trkpt lat="45.18952" lon="5.85733">
        <ele>538</ele>
        <time>2017-10-25T12:22:11Z</time>
      </trkpt>
      <trkpt lat="45.18953" lon="5.85741">
        <ele>539</ele>
        <time>2017-10-25T12:22:14Z</time>
      </trkpt>
      <trkpt lat="45.18954" lon="5.85749">
        <ele>540</ele>
        <time>2017-10-25T12:22:17Z</time>
      </trkpt>
      <trkpt lat="45.18956" lon="5.85756">
        <ele>542</ele>
        <time>2017-10-25T12:22:20Z</time>
      </trkpt>
      <trkpt lat="45.18956" lon="5.85765">
        <ele>542</ele>
        <time>2017-10-25T12:22:23Z</time>
      </trkpt>
      <trkpt lat="45.18957" lon="5.85772">
        <ele>543</ele>
        <time>2017-10-25T12:22:25Z</time>
      </trkpt>
      <trkpt lat="45.18958" lon="5.85778">
        <ele>544</ele>
        <time>2017-10-25T12:22:27Z</time>
      </trkpt>
      <trkpt lat="45.18958" lon="5.85784">
        <ele>544</ele>
        <time>2017-10-25T12:22:29Z</time>
      </trkpt>
      <trkpt lat="45.18959" lon="5.85791">
        <ele>545</ele>
        <time>2017-10-25T12:22:31Z</time>
      </trkpt>
      <trkpt lat="45.18959" lon="5.85797">
        <ele>546</ele>
        <time>2017-10-25T12:22:33Z</time>
      </trkpt>
      <trkpt lat="45.18959" lon="5.85805">
        <ele>546</ele>
        <time>2017-10-25T12:22:35Z</time>
      </trkpt>
      <trkpt lat="45.18959" lon="5.85813">
        <ele>546</ele>
        <time>2017-10-25T12:22:37Z</time>
      </trkpt>
      <trkpt lat="45.18959" lon="5.85822">
        <ele>546</ele>
        <time>2017-10-25T12:22:40Z</time>
      </trkpt>
      <trkpt lat="45.18958" lon="5.85831">
        <ele>546</ele>
        <time>2017-10-25T12:22:43Z</time>
      </trkpt>
      <trkpt lat="45.18959" lon="5.85841">
        <ele>547</ele>
        <time>2017-10-25T12:22:46Z</time>
      </trkpt>
      <trkpt lat="45.18959" lon="5.85848">
        <ele>547</ele>
        <time>2017-10-25T12:22:49Z</time>
      </trkpt>
      <trkpt lat="45.18959" lon="5.85858">
        <ele>548</ele>
        <time>2017-10-25T12:22:52Z</time>
      </trkpt>
      <trkpt lat="45.18959" lon="5.85864">
        <ele>548</ele>
        <time>2017-10-25T12:22:54Z</time>
      </trkpt>
      <trkpt lat="45.18959" lon="5.85874">
        <ele>549</ele>
        <time>2017-10-25T12:22:57Z</time>
      </trkpt>
      <trkpt lat="45.1896" lon="5.8588">
        <ele>549</ele>
        <time>2017-10-25T12:22:59Z</time>
      </trkpt>
      <trkpt lat="45.18961" lon="5.8589">
        <ele>550</ele>
        <time>2017-10-25T12:23:02Z</time>
      </trkpt>
      <trkpt lat="45.18961" lon="5.85899">
        <ele>551</ele>
        <time>2017-10-25T12:23:05Z</time>
      </trkpt>
      <trkpt lat="45.18963" lon="5.85908">
        <ele>552</ele>
        <time>2017-10-25T12:23:08Z</time>
      </trkpt>
      <trkpt lat="45.18964" lon="5.85916">
        <ele>553</ele>
        <time>2017-10-25T12:23:10Z</time>
      </trkpt>
      <trkpt lat="45.18965" lon="5.85923">
        <ele>554</ele>
        <time>2017-10-25T12:23:12Z</time>
      </trkpt>
      <trkpt lat="45.18966" lon="5.8593">
        <ele>555</ele>
        <time>2017-10-25T12:23:14Z</time>
      </trkpt>
      <trkpt lat="45.18966" lon="5.85937">
        <ele>555</ele>
        <time>2017-10-25T12:23:16Z</time>
      </trkpt>
      <trkpt lat="45.18967" lon="5.85944">
        <ele>556</ele>
        <time>2017-10-25T12:23:18Z</time>
      </trkpt>
      <trkpt lat="45.18968" lon="5.85951">
        <ele>557</ele>
        <time>2017-10-25T12:23:20Z</time>
      </trkpt>
      <trkpt lat="45.18968" lon="5.85958">
        <ele>558</ele>
        <time>2017-10-25T12:23:22Z</time>
      </trkpt>
      <trkpt lat="45.18967" lon="5.85965">
        <ele>558</ele>
        <time>2017-10-25T12:23:24Z</time>
      </trkpt>
      <trkpt lat="45.18967" lon="5.85971">
        <ele>558</ele>
        <time>2017-10-25T12:23:26Z</time>
      </trkpt>
      <trkpt lat="45.18966" lon="5.85979">
        <ele>558</ele>
        <time>2017-10-25T12:23:29Z</time>
      </trkpt>
      <trkpt lat="45.18964" lon="5.85985">
        <ele>558</ele>
        <time>2017-10-25T12:23:32Z</time>
      </trkpt>
      <trkpt lat="45.18963" lon="5.85993">
        <ele>558</ele>
        <time>2017-10-25T12:23:35Z</time>
      </trkpt>
      <trkpt lat="45.18959" lon="5.86">
        <ele>558</ele>
        <time>2017-10-25T12:23:38Z</time>
      </trkpt>
      <trkpt lat="45.18957" lon="5.86008">
        <ele>558</ele>
        <time>2017-10-25T12:23:41Z</time>
      </trkpt>
      <trkpt lat="45.18957" lon="5.86015">
        <ele>558</ele>
        <time>2017-10-25T12:23:43Z</time>
      </trkpt>
      <trkpt lat="45.18956" lon="5.86021">
        <ele>558</ele>
        <time>2017-10-25T12:23:45Z</time>
      </trkpt>
      <trkpt lat="45.18954" lon="5.86029">
        <ele>558</ele>
        <time>2017-10-25T12:23:47Z</time>
      </trkpt>
      <trkpt lat="45.18952" lon="5.86037">
        <ele>558</ele>
        <time>2017-10-25T12:23:49Z</time>
      </trkpt>
      <trkpt lat="45.1895" lon="5.86044">
        <ele>558</ele>
        <time>2017-10-25T12:23:51Z</time>
      </trkpt>
      <trkpt lat="45.18948" lon="5.86051">
        <ele>558</ele>
        <time>2017-10-25T12:23:54Z</time>
      </trkpt>
      <trkpt lat="45.18945" lon="5.86058">
        <ele>558</ele>
        <time>2017-10-25T12:23:58Z</time>
      </trkpt>
      <trkpt lat="45.18944" lon="5.86066">
        <ele>559</ele>
        <time>2017-10-25T12:24:01Z</time>
      </trkpt>
      <trkpt lat="45.18943" lon="5.86075">
        <ele>559</ele>
        <time>2017-10-25T12:24:04Z</time>
      </trkpt>
      <trkpt lat="45.18943" lon="5.86084">
        <ele>560</ele>
        <time>2017-10-25T12:24:07Z</time>
      </trkpt>
      <trkpt lat="45.18942" lon="5.86091">
        <ele>560</ele>
        <time>2017-10-25T12:24:10Z</time>
      </trkpt>
      <trkpt lat="45.18942" lon="5.86098">
        <ele>561</ele>
        <time>2017-10-25T12:24:13Z</time>
      </trkpt>
      <trkpt lat="45.18941" lon="5.86106">
        <ele>562</ele>
        <time>2017-10-25T12:24:16Z</time>
      </trkpt>
      <trkpt lat="45.1894" lon="5.86115">
        <ele>562</ele>
        <time>2017-10-25T12:24:19Z</time>
      </trkpt>
      <trkpt lat="45.1894" lon="5.86123">
        <ele>563</ele>
        <time>2017-10-25T12:24:22Z</time>
      </trkpt>
      <trkpt lat="45.1894" lon="5.8613">
        <ele>564</ele>
        <time>2017-10-25T12:24:24Z</time>
      </trkpt>
      <trkpt lat="45.1894" lon="5.86137">
        <ele>564</ele>
        <time>2017-10-25T12:24:26Z</time>
      </trkpt>
      <trkpt lat="45.1894" lon="5.86146">
        <ele>565</ele>
        <time>2017-10-25T12:24:29Z</time>
      </trkpt>
      <trkpt lat="45.18938" lon="5.86153">
        <ele>565</ele>
        <time>2017-10-25T12:24:31Z</time>
      </trkpt>
      <trkpt lat="45.18937" lon="5.86159">
        <ele>566</ele>
        <time>2017-10-25T12:24:33Z</time>
      </trkpt>
      <trkpt lat="45.18936" lon="5.86166">
        <ele>566</ele>
        <time>2017-10-25T12:24:35Z</time>
      </trkpt>
      <trkpt lat="45.18933" lon="5.86174">
        <ele>566</ele>
        <time>2017-10-25T12:24:38Z</time>
      </trkpt>
      <trkpt lat="45.1893" lon="5.86181">
        <ele>566</ele>
        <time>2017-10-25T12:24:40Z</time>
      </trkpt>
      <trkpt lat="45.18929" lon="5.86187">
        <ele>567</ele>
        <time>2017-10-25T12:24:42Z</time>
      </trkpt>
      <trkpt lat="45.18928" lon="5.86193">
        <ele>567</ele>
        <time>2017-10-25T12:24:44Z</time>
      </trkpt>
      <trkpt lat="45.18928" lon="5.862">
        <ele>568</ele>
        <time>2017-10-25T12:24:46Z</time>
      </trkpt>
      <trkpt lat="45.18928" lon="5.86208">
        <ele>569</ele>
        <time>2017-10-25T12:24:49Z</time>
      </trkpt>
      <trkpt lat="45.18927" lon="5.86217">
        <ele>569</ele>
        <time>2017-10-25T12:24:52Z</time>
      </trkpt>
      <trkpt lat="45.18926" lon="5.86226">
        <ele>570</ele>
        <time>2017-10-25T12:24:55Z</time>
      </trkpt>
      <trkpt lat="45.18925" lon="5.86234">
        <ele>571</ele>
        <time>2017-10-25T12:24:58Z</time>
      </trkpt>
      <trkpt lat="45.18922" lon="5.8624">
        <ele>571</ele>
        <time>2017-10-25T12:25:03Z</time>
      </trkpt>
      <trkpt lat="45.18921" lon="5.86247">
        <ele>571</ele>
        <time>2017-10-25T12:25:06Z</time>
      </trkpt>
      <trkpt lat="45.18919" lon="5.86255">
        <ele>572</ele>
        <time>2017-10-25T12:25:09Z</time>
      </trkpt>
      <trkpt lat="45.18918" lon="5.86265">
        <ele>573</ele>
        <time>2017-10-25T12:25:12Z</time>
      </trkpt>
      <trkpt lat="45.18916" lon="5.86271">
        <ele>573</ele>
        <time>2017-10-25T12:25:14Z</time>
      </trkpt>
      <trkpt lat="45.18913" lon="5.8628">
        <ele>574</ele>
        <time>2017-10-25T12:25:17Z</time>
      </trkpt>
      <trkpt lat="45.18911" lon="5.86286">
        <ele>574</ele>
        <time>2017-10-25T12:25:19Z</time>
      </trkpt>
      <trkpt lat="45.1891" lon="5.86293">
        <ele>575</ele>
        <time>2017-10-25T12:25:21Z</time>
      </trkpt>
      <trkpt lat="45.18908" lon="5.86301">
        <ele>575</ele>
        <time>2017-10-25T12:25:24Z</time>
      </trkpt>
      <trkpt lat="45.18906" lon="5.86307">
        <ele>576</ele>
        <time>2017-10-25T12:25:28Z</time>
      </trkpt>
      <trkpt lat="45.18905" lon="5.86315">
        <ele>576</ele>
        <time>2017-10-25T12:25:31Z</time>
      </trkpt>
      <trkpt lat="45.18903" lon="5.86321">
        <ele>577</ele>
        <time>2017-10-25T12:25:33Z</time>
      </trkpt>
      <trkpt lat="45.18901" lon="5.86329">
        <ele>577</ele>
        <time>2017-10-25T12:25:35Z</time>
      </trkpt>
      <trkpt lat="45.189" lon="5.86335">
        <ele>578</ele>
        <time>2017-10-25T12:25:37Z</time>
      </trkpt>
      <trkpt lat="45.18898" lon="5.86344">
        <ele>579</ele>
        <time>2017-10-25T12:25:40Z</time>
      </trkpt>
      <trkpt lat="45.18894" lon="5.86352">
        <ele>579</ele>
        <time>2017-10-25T12:25:43Z</time>
      </trkpt>
      <trkpt lat="45.18892" lon="5.86359">
        <ele>580</ele>
        <time>2017-10-25T12:25:45Z</time>
      </trkpt>
      <trkpt lat="45.1889" lon="5.86365">
        <ele>580</ele>
        <time>2017-10-25T12:25:47Z</time>
      </trkpt>
      <trkpt lat="45.18887" lon="5.86371">
        <ele>580</ele>
        <time>2017-10-25T12:25:49Z</time>
      </trkpt>
      <trkpt lat="45.18884" lon="5.86376">
        <ele>580</ele>
        <time>2017-10-25T12:25:51Z</time>
      </trkpt>
      <trkpt lat="45.18881" lon="5.86381">
        <ele>580</ele>
        <time>2017-10-25T12:25:53Z</time>
      </trkpt>
      <trkpt lat="45.18873" lon="5.86391">
        <ele>581</ele>
        <time>2017-10-25T12:25:58Z</time>
      </trkpt>
      <trkpt lat="45.18868" lon="5.86397">
        <ele>581</ele>
        <time>2017-10-25T12:26:01Z</time>
      </trkpt>
      <trkpt lat="45.18866" lon="5.86402">
        <ele>582</ele>
        <time>2017-10-25T12:26:03Z</time>
      </trkpt>
      <trkpt lat="45.18863" lon="5.86407">
        <ele>582</ele>
        <time>2017-10-25T12:26:05Z</time>
      </trkpt>
      <trkpt lat="45.1886" lon="5.86413">
        <ele>583</ele>
        <time>2017-10-25T12:26:07Z</time>
      </trkpt>
      <trkpt lat="45.18857" lon="5.86418">
        <ele>583</ele>
        <time>2017-10-25T12:26:09Z</time>
      </trkpt>
      <trkpt lat="45.18854" lon="5.86423">
        <ele>583</ele>
        <time>2017-10-25T12:26:11Z</time>
      </trkpt>
      <trkpt lat="45.1885" lon="5.86428">
        <ele>583</ele>
        <time>2017-10-25T12:26:13Z</time>
      </trkpt>
      <trkpt lat="45.18847" lon="5.86433">
        <ele>584</ele>
        <time>2017-10-25T12:26:15Z</time>
      </trkpt>
      <trkpt lat="45.18843" lon="5.86437">
        <ele>584</ele>
        <time>2017-10-25T12:26:17Z</time>
      </trkpt>
      <trkpt lat="45.18834" lon="5.86445">
        <ele>584</ele>
        <time>2017-10-25T12:26:22Z</time>
      </trkpt>
      <trkpt lat="45.18828" lon="5.8645">
        <ele>584</ele>
        <time>2017-10-25T12:26:25Z</time>
      </trkpt>
      <trkpt lat="45.18823" lon="5.86453">
        <ele>584</ele>
        <time>2017-10-25T12:26:28Z</time>
      </trkpt>
      <trkpt lat="45.18817" lon="5.86456">
        <ele>584</ele>
        <time>2017-10-25T12:26:31Z</time>
      </trkpt>
      <trkpt lat="45.18811" lon="5.86456">
        <ele>583</ele>
        <time>2017-10-25T12:26:34Z</time>
      </trkpt>
      <trkpt lat="45.18805" lon="5.86456">
        <ele>582</ele>
        <time>2017-10-25T12:26:37Z</time>
      </trkpt>
      <trkpt lat="45.18799" lon="5.86457">
        <ele>582</ele>
        <time>2017-10-25T12:26:40Z</time>
      </trkpt>
      <trkpt lat="45.18793" lon="5.86458">
        <ele>581</ele>
        <time>2017-10-25T12:26:43Z</time>
      </trkpt>
      <trkpt lat="45.18787" lon="5.86458">
        <ele>581</ele>
        <time>2017-10-25T12:26:46Z</time>
      </trkpt>
      <trkpt lat="45.18782" lon="5.86462">
        <ele>581</ele>
        <time>2017-10-25T12:26:49Z</time>
      </trkpt>
      <trkpt lat="45.18779" lon="5.86469">
        <ele>581</ele>
        <time>2017-10-25T12:26:52Z</time>
      </trkpt>
      <trkpt lat="45.18777" lon="5.86477">
        <ele>582</ele>
        <time>2017-10-25T12:26:55Z</time>
      </trkpt>
      <trkpt lat="45.18776" lon="5.86486">
        <ele>582</ele>
        <time>2017-10-25T12:26:58Z</time>
      </trkpt>
      <trkpt lat="45.18778" lon="5.86494">
        <ele>583</ele>
        <time>2017-10-25T12:27:01Z</time>
      </trkpt>
      <trkpt lat="45.18779" lon="5.86502">
        <ele>585</ele>
        <time>2017-10-25T12:27:04Z</time>
      </trkpt>
      <trkpt lat="45.18781" lon="5.86511">
        <ele>586</ele>
        <time>2017-10-25T12:27:07Z</time>
      </trkpt>
      <trkpt lat="45.18784" lon="5.86518">
        <ele>587</ele>
        <time>2017-10-25T12:27:10Z</time>
      </trkpt>
      <trkpt lat="45.18786" lon="5.86527">
        <ele>588</ele>
        <time>2017-10-25T12:27:13Z</time>
      </trkpt>
      <trkpt lat="45.18787" lon="5.86536">
        <ele>589</ele>
        <time>2017-10-25T12:27:16Z</time>
      </trkpt>
      <trkpt lat="45.18788" lon="5.86542">
        <ele>590</ele>
        <time>2017-10-25T12:27:18Z</time>
      </trkpt>
      <trkpt lat="45.18789" lon="5.86548">
        <ele>591</ele>
        <time>2017-10-25T12:27:20Z</time>
      </trkpt>
      <trkpt lat="45.18791" lon="5.86555">
        <ele>592</ele>
        <time>2017-10-25T12:27:22Z</time>
      </trkpt>
      <trkpt lat="45.18792" lon="5.86561">
        <ele>593</ele>
        <time>2017-10-25T12:27:24Z</time>
      </trkpt>
      <trkpt lat="45.18793" lon="5.86567">
        <ele>594</ele>
        <time>2017-10-25T12:27:26Z</time>
      </trkpt>
      <trkpt lat="45.18794" lon="5.86576">
        <ele>595</ele>
        <time>2017-10-25T12:27:29Z</time>
      </trkpt>
      <trkpt lat="45.18795" lon="5.86583">
        <ele>596</ele>
        <time>2017-10-25T12:27:31Z</time>
      </trkpt>
      <trkpt lat="45.18797" lon="5.86592">
        <ele>597</ele>
        <time>2017-10-25T12:27:34Z</time>
      </trkpt>
      <trkpt lat="45.18796" lon="5.86601">
        <ele>598</ele>
        <time>2017-10-25T12:27:37Z</time>
      </trkpt>
      <trkpt lat="45.18795" lon="5.86608">
        <ele>599</ele>
        <time>2017-10-25T12:27:40Z</time>
      </trkpt>
      <trkpt lat="45.18794" lon="5.86614">
        <ele>599</ele>
        <time>2017-10-25T12:27:43Z</time>
      </trkpt>
      <trkpt lat="45.18792" lon="5.86623">
        <ele>600</ele>
        <time>2017-10-25T12:27:46Z</time>
      </trkpt>
      <trkpt lat="45.18791" lon="5.86631">
        <ele>601</ele>
        <time>2017-10-25T12:27:49Z</time>
      </trkpt>
      <trkpt lat="45.18787" lon="5.86638">
        <ele>601</ele>
        <time>2017-10-25T12:27:52Z</time>
      </trkpt>
      <trkpt lat="45.18783" lon="5.86644">
        <ele>602</ele>
        <time>2017-10-25T12:27:55Z</time>
      </trkpt>
      <trkpt lat="45.18779" lon="5.8665">
        <ele>602</ele>
        <time>2017-10-25T12:27:58Z</time>
      </trkpt>
      <trkpt lat="45.18775" lon="5.86657">
        <ele>602</ele>
        <time>2017-10-25T12:28:01Z</time>
      </trkpt>
      <trkpt lat="45.18771" lon="5.86663">
        <ele>603</ele>
        <time>2017-10-25T12:28:04Z</time>
      </trkpt>
      <trkpt lat="45.18766" lon="5.8667">
        <ele>603</ele>
        <time>2017-10-25T12:28:07Z</time>
      </trkpt>
      <trkpt lat="45.18763" lon="5.86677">
        <ele>603</ele>
        <time>2017-10-25T12:28:10Z</time>
      </trkpt>
      <trkpt lat="45.18759" lon="5.86684">
        <ele>604</ele>
        <time>2017-10-25T12:28:13Z</time>
      </trkpt>
      <trkpt lat="45.18755" lon="5.8669">
        <ele>604</ele>
        <time>2017-10-25T12:28:16Z</time>
      </trkpt>
      <trkpt lat="45.1875" lon="5.86696">
        <ele>604</ele>
        <time>2017-10-25T12:28:19Z</time>
      </trkpt>
      <trkpt lat="45.18745" lon="5.86702">
        <ele>605</ele>
        <time>2017-10-25T12:28:22Z</time>
      </trkpt>
      <trkpt lat="45.18741" lon="5.86708">
        <ele>606</ele>
        <time>2017-10-25T12:28:25Z</time>
      </trkpt>
      <trkpt lat="45.18736" lon="5.86713">
        <ele>606</ele>
        <time>2017-10-25T12:28:28Z</time>
      </trkpt>
      <trkpt lat="45.18732" lon="5.86718">
        <ele>607</ele>
        <time>2017-10-25T12:28:31Z</time>
      </trkpt>
      <trkpt lat="45.18728" lon="5.86725">
        <ele>608</ele>
        <time>2017-10-25T12:28:34Z</time>
      </trkpt>
      <trkpt lat="45.18723" lon="5.8673">
        <ele>608</ele>
        <time>2017-10-25T12:28:37Z</time>
      </trkpt>
      <trkpt lat="45.18719" lon="5.86736">
        <ele>609</ele>
        <time>2017-10-25T12:28:40Z</time>
      </trkpt>
      <trkpt lat="45.18715" lon="5.86743">
        <ele>610</ele>
        <time>2017-10-25T12:28:43Z</time>
      </trkpt>
      <trkpt lat="45.18712" lon="5.86749">
        <ele>610</ele>
        <time>2017-10-25T12:28:46Z</time>
      </trkpt>
      <trkpt lat="45.18708" lon="5.86756">
        <ele>611</ele>
        <time>2017-10-25T12:28:49Z</time>
      </trkpt>
      <trkpt lat="45.18706" lon="5.86762">
        <ele>612</ele>
        <time>2017-10-25T12:28:52Z</time>
      </trkpt>
      <trkpt lat="45.18704" lon="5.86767">
        <ele>612</ele>
        <time>2017-10-25T12:28:55Z</time>
      </trkpt>
      <trkpt lat="45.18701" lon="5.86774">
        <ele>613</ele>
        <time>2017-10-25T12:28:58Z</time>
      </trkpt>
      <trkpt lat="45.18699" lon="5.86782">
        <ele>614</ele>
        <time>2017-10-25T12:29:01Z</time>
      </trkpt>
      <trkpt lat="45.18695" lon="5.86789">
        <ele>614</ele>
        <time>2017-10-25T12:29:04Z</time>
      </trkpt>
      <trkpt lat="45.18692" lon="5.86796">
        <ele>615</ele>
        <time>2017-10-25T12:29:07Z</time>
      </trkpt>
      <trkpt lat="45.18689" lon="5.86802">
        <ele>616</ele>
        <time>2017-10-25T12:29:10Z</time>
      </trkpt>
      <trkpt lat="45.18686" lon="5.86808">
        <ele>616</ele>
        <time>2017-10-25T12:29:13Z</time>
      </trkpt>
      <trkpt lat="45.18683" lon="5.86816">
        <ele>617</ele>
        <time>2017-10-25T12:29:16Z</time>
      </trkpt>
      <trkpt lat="45.18681" lon="5.86823">
        <ele>617</ele>
        <time>2017-10-25T12:29:18Z</time>
      </trkpt>
      <trkpt lat="45.18678" lon="5.86829">
        <ele>618</ele>
        <time>2017-10-25T12:29:20Z</time>
      </trkpt>
      <trkpt lat="45.18675" lon="5.86834">
        <ele>618</ele>
        <time>2017-10-25T12:29:22Z</time>
      </trkpt>
      <trkpt lat="45.18671" lon="5.86841">
        <ele>620</ele>
        <time>2017-10-25T12:29:25Z</time>
      </trkpt>
      <trkpt lat="45.18668" lon="5.86848">
        <ele>621</ele>
        <time>2017-10-25T12:29:29Z</time>
      </trkpt>
      <trkpt lat="45.18666" lon="5.86856">
        <ele>622</ele>
        <time>2017-10-25T12:29:32Z</time>
      </trkpt>
      <trkpt lat="45.18664" lon="5.86864">
        <ele>623</ele>
        <time>2017-10-25T12:29:35Z</time>
      </trkpt>
      <trkpt lat="45.18663" lon="5.86873">
        <ele>624</ele>
        <time>2017-10-25T12:29:38Z</time>
      </trkpt>
      <trkpt lat="45.18661" lon="5.86882">
        <ele>625</ele>
        <time>2017-10-25T12:29:41Z</time>
      </trkpt>
      <trkpt lat="45.1866" lon="5.8689">
        <ele>626</ele>
        <time>2017-10-25T12:29:44Z</time>
      </trkpt>
      <trkpt lat="45.18658" lon="5.86898">
        <ele>627</ele>
        <time>2017-10-25T12:29:47Z</time>
      </trkpt>
      <trkpt lat="45.18656" lon="5.86906">
        <ele>628</ele>
        <time>2017-10-25T12:29:50Z</time>
      </trkpt>
      <trkpt lat="45.18652" lon="5.86912">
        <ele>629</ele>
        <time>2017-10-25T12:29:53Z</time>
      </trkpt>
      <trkpt lat="45.18648" lon="5.86917">
        <ele>630</ele>
        <time>2017-10-25T12:29:56Z</time>
      </trkpt>
      <trkpt lat="45.18642" lon="5.86921">
        <ele>631</ele>
        <time>2017-10-25T12:29:59Z</time>
      </trkpt>
      <trkpt lat="45.18636" lon="5.86922">
        <ele>632</ele>
        <time>2017-10-25T12:30:02Z</time>
      </trkpt>
      <trkpt lat="45.1863" lon="5.8692">
        <ele>632</ele>
        <time>2017-10-25T12:30:05Z</time>
      </trkpt>
      <trkpt lat="45.18624" lon="5.86917">
        <ele>632</ele>
        <time>2017-10-25T12:30:08Z</time>
      </trkpt>
      <trkpt lat="45.18619" lon="5.86912">
        <ele>632</ele>
        <time>2017-10-25T12:30:11Z</time>
      </trkpt>
      <trkpt lat="45.18614" lon="5.86906">
        <ele>632</ele>
        <time>2017-10-25T12:30:14Z</time>
      </trkpt>
      <trkpt lat="45.1861" lon="5.86899">
        <ele>632</ele>
        <time>2017-10-25T12:30:17Z</time>
      </trkpt>
      <trkpt lat="45.18606" lon="5.86892">
        <ele>632</ele>
        <time>2017-10-25T12:30:20Z</time>
      </trkpt>
      <trkpt lat="45.18602" lon="5.86887">
        <ele>632</ele>
        <time>2017-10-25T12:30:23Z</time>
      </trkpt>
      <trkpt lat="45.18601" lon="5.86877">
        <ele>631</ele>
        <time>2017-10-25T12:30:26Z</time>
      </trkpt>
      <trkpt lat="45.18599" lon="5.86871">
        <ele>631</ele>
        <time>2017-10-25T12:30:28Z</time>
      </trkpt>
      <trkpt lat="45.18597" lon="5.86865">
        <ele>631</ele>
        <time>2017-10-25T12:30:30Z</time>
      </trkpt>
      <trkpt lat="45.18593" lon="5.8686">
        <ele>631</ele>
        <time>2017-10-25T12:30:32Z</time>
      </trkpt>
      <trkpt lat="45.18588" lon="5.86858">
        <ele>631</ele>
        <time>2017-10-25T12:30:34Z</time>
      </trkpt>
      <trkpt lat="45.18583" lon="5.86859">
        <ele>632</ele>
        <time>2017-10-25T12:30:36Z</time>
      </trkpt>
      <trkpt lat="45.18578" lon="5.8686">
        <ele>633</ele>
        <time>2017-10-25T12:30:38Z</time>
      </trkpt>
      <trkpt lat="45.18573" lon="5.86859">
        <ele>633</ele>
        <time>2017-10-25T12:30:40Z</time>
      </trkpt>
      <trkpt lat="45.18569" lon="5.86852">
        <ele>633</ele>
        <time>2017-10-25T12:30:42Z</time>
      </trkpt>
      <trkpt lat="45.18566" lon="5.86846">
        <ele>633</ele>
        <time>2017-10-25T12:30:44Z</time>
      </trkpt>
      <trkpt lat="45.18563" lon="5.86841">
        <ele>633</ele>
        <time>2017-10-25T12:30:46Z</time>
      </trkpt>
      <trkpt lat="45.18559" lon="5.86837">
        <ele>633</ele>
        <time>2017-10-25T12:30:48Z</time>
      </trkpt>
      <trkpt lat="45.18555" lon="5.86832">
        <ele>633</ele>
        <time>2017-10-25T12:30:50Z</time>
      </trkpt>
      <trkpt lat="45.18553" lon="5.86826">
        <ele>633</ele>
        <time>2017-10-25T12:31:12Z</time>
      </trkpt>
      <trkpt lat="45.18555" lon="5.8682">
        <ele>632</ele>
        <time>2017-10-25T12:31:27Z</time>
      </trkpt>
      <trkpt lat="45.18556" lon="5.86827">
        <ele>632</ele>
        <time>2017-10-25T12:36:25Z</time>
      </trkpt>
      <trkpt lat="45.18561" lon="5.86829">
        <ele>632</ele>
        <time>2017-10-25T12:36:31Z</time>
      </trkpt>
      <trkpt lat="45.18562" lon="5.86822">
        <ele>631</ele>
        <time>2017-10-25T12:36:34Z</time>
      </trkpt>
      <trkpt lat="45.1856" lon="5.86815">
        <ele>631</ele>
        <time>2017-10-25T12:36:36Z</time>
      </trkpt>
      <trkpt lat="45.18555" lon="5.86805">
        <ele>631</ele>
        <time>2017-10-25T12:36:38Z</time>
      </trkpt>
      <trkpt lat="45.18552" lon="5.868">
        <ele>631</ele>
        <time>2017-10-25T12:36:39Z</time>
      </trkpt>
      <trkpt lat="45.18549" lon="5.86795">
        <ele>630</ele>
        <time>2017-10-25T12:36:40Z</time>
      </trkpt>
      <trkpt lat="45.18545" lon="5.86785">
        <ele>630</ele>
        <time>2017-10-25T12:36:42Z</time>
      </trkpt>
      <trkpt lat="45.18543" lon="5.86779">
        <ele>630</ele>
        <time>2017-10-25T12:36:44Z</time>
      </trkpt>
      <trkpt lat="45.18538" lon="5.86773">
        <ele>630</ele>
        <time>2017-10-25T12:36:57Z</time>
      </trkpt>
      <trkpt lat="45.18534" lon="5.86767">
        <ele>630</ele>
        <time>2017-10-25T12:36:59Z</time>
      </trkpt>
      <trkpt lat="45.1853" lon="5.86758">
        <ele>629</ele>
        <time>2017-10-25T12:37:01Z</time>
      </trkpt>
      <trkpt lat="45.18527" lon="5.86751">
        <ele>629</ele>
        <time>2017-10-25T12:37:02Z</time>
      </trkpt>
      <trkpt lat="45.18523" lon="5.8674">
        <ele>628</ele>
        <time>2017-10-25T12:37:03Z</time>
      </trkpt>
      <trkpt lat="45.1852" lon="5.86735">
        <ele>628</ele>
        <time>2017-10-25T12:37:04Z</time>
      </trkpt>
      <trkpt lat="45.18517" lon="5.86728">
        <ele>628</ele>
        <time>2017-10-25T12:37:05Z</time>
      </trkpt>
      <trkpt lat="45.18514" lon="5.86721">
        <ele>627</ele>
        <time>2017-10-25T12:37:06Z</time>
      </trkpt>
      <trkpt lat="45.18509" lon="5.86708">
        <ele>626</ele>
        <time>2017-10-25T12:37:08Z</time>
      </trkpt>
      <trkpt lat="45.18502" lon="5.86694">
        <ele>625</ele>
        <time>2017-10-25T12:37:10Z</time>
      </trkpt>
      <trkpt lat="45.18494" lon="5.8668">
        <ele>624</ele>
        <time>2017-10-25T12:37:12Z</time>
      </trkpt>
      <trkpt lat="45.18491" lon="5.86672">
        <ele>623</ele>
        <time>2017-10-25T12:37:13Z</time>
      </trkpt>
      <trkpt lat="45.18486" lon="5.86665">
        <ele>622</ele>
        <time>2017-10-25T12:37:14Z</time>
      </trkpt>
      <trkpt lat="45.18481" lon="5.86656">
        <ele>622</ele>
        <time>2017-10-25T12:37:15Z</time>
      </trkpt>
      <trkpt lat="45.18476" lon="5.8665">
        <ele>621</ele>
        <time>2017-10-25T12:37:16Z</time>
      </trkpt>
      <trkpt lat="45.18465" lon="5.86639">
        <ele>620</ele>
        <time>2017-10-25T12:37:18Z</time>
      </trkpt>
      <trkpt lat="45.18453" lon="5.86629">
        <ele>617</ele>
        <time>2017-10-25T12:37:20Z</time>
      </trkpt>
      <trkpt lat="45.18448" lon="5.86625">
        <ele>616</ele>
        <time>2017-10-25T12:37:21Z</time>
      </trkpt>
      <trkpt lat="45.18441" lon="5.86619">
        <ele>615</ele>
        <time>2017-10-25T12:37:22Z</time>
      </trkpt>
      <trkpt lat="45.18436" lon="5.86614">
        <ele>614</ele>
        <time>2017-10-25T12:37:23Z</time>
      </trkpt>
      <trkpt lat="45.18428" lon="5.86608">
        <ele>612</ele>
        <time>2017-10-25T12:37:25Z</time>
      </trkpt>
      <trkpt lat="45.18423" lon="5.86604">
        <ele>611</ele>
        <time>2017-10-25T12:37:27Z</time>
      </trkpt>
      <trkpt lat="45.18418" lon="5.86598">
        <ele>609</ele>
        <time>2017-10-25T12:37:29Z</time>
      </trkpt>
      <trkpt lat="45.18413" lon="5.86591">
        <ele>607</ele>
        <time>2017-10-25T12:37:31Z</time>
      </trkpt>
      <trkpt lat="45.18407" lon="5.86589">
        <ele>606</ele>
        <time>2017-10-25T12:37:33Z</time>
      </trkpt>
      <trkpt lat="45.18401" lon="5.86587">
        <ele>605</ele>
        <time>2017-10-25T12:37:35Z</time>
      </trkpt>
      <trkpt lat="45.18393" lon="5.86593">
        <ele>603</ele>
        <time>2017-10-25T12:38:45Z</time>
      </trkpt>
      <trkpt lat="45.18387" lon="5.86598">
        <ele>602</ele>
        <time>2017-10-25T12:38:46Z</time>
      </trkpt>
      <trkpt lat="45.18377" lon="5.86608">
        <ele>600</ele>
        <time>2017-10-25T12:38:47Z</time>
      </trkpt>
      <trkpt lat="45.18368" lon="5.86614">
        <ele>598</ele>
        <time>2017-10-25T12:38:48Z</time>
      </trkpt>
      <trkpt lat="45.18363" lon="5.86622">
        <ele>597</ele>
        <time>2017-10-25T12:38:49Z</time>
      </trkpt>
      <trkpt lat="45.18356" lon="5.86632">
        <ele>596</ele>
        <time>2017-10-25T12:38:50Z</time>
      </trkpt>
      <trkpt lat="45.18353" lon="5.8664">
        <ele>596</ele>
        <time>2017-10-25T12:38:51Z</time>
      </trkpt>
      <trkpt lat="45.18346" lon="5.86646">
        <ele>595</ele>
        <time>2017-10-25T12:38:52Z</time>
      </trkpt>
      <trkpt lat="45.18342" lon="5.86653">
        <ele>594</ele>
        <time>2017-10-25T12:38:53Z</time>
      </trkpt>
      <trkpt lat="45.18335" lon="5.86661">
        <ele>593</ele>
        <time>2017-10-25T12:38:54Z</time>
      </trkpt>
      <trkpt lat="45.18329" lon="5.86668">
        <ele>590</ele>
        <time>2017-10-25T12:38:55Z</time>
      </trkpt>
      <trkpt lat="45.18322" lon="5.86674">
        <ele>588</ele>
        <time>2017-10-25T12:38:56Z</time>
      </trkpt>
      <trkpt lat="45.18318" lon="5.8668">
        <ele>587</ele>
        <time>2017-10-25T12:38:57Z</time>
      </trkpt>
      <trkpt lat="45.18312" lon="5.86694">
        <ele>585</ele>
        <time>2017-10-25T12:38:58Z</time>
      </trkpt>
      <trkpt lat="45.18306" lon="5.86703">
        <ele>583</ele>
        <time>2017-10-25T12:38:59Z</time>
      </trkpt>
      <trkpt lat="45.183" lon="5.86712">
        <ele>581</ele>
        <time>2017-10-25T12:39:00Z</time>
      </trkpt>
      <trkpt lat="45.18294" lon="5.8672">
        <ele>578</ele>
        <time>2017-10-25T12:39:01Z</time>
      </trkpt>
      <trkpt lat="45.18292" lon="5.86731">
        <ele>578</ele>
        <time>2017-10-25T12:39:02Z</time>
      </trkpt>
      <trkpt lat="45.18293" lon="5.86747">
        <ele>581</ele>
        <time>2017-10-25T12:39:03Z</time>
      </trkpt>
      <trkpt lat="45.18289" lon="5.86758">
        <ele>579</ele>
        <time>2017-10-25T12:39:04Z</time>
      </trkpt>
      <trkpt lat="45.18286" lon="5.86775">
        <ele>579</ele>
        <time>2017-10-25T12:39:05Z</time>
      </trkpt>
      <trkpt lat="45.18283" lon="5.86786">
        <ele>578</ele>
        <time>2017-10-25T12:39:06Z</time>
      </trkpt>
      <trkpt lat="45.18279" lon="5.86799">
        <ele>577</ele>
        <time>2017-10-25T12:39:07Z</time>
      </trkpt>
      <trkpt lat="45.18276" lon="5.86811">
        <ele>577</ele>
        <time>2017-10-25T12:39:08Z</time>
      </trkpt>
      <trkpt lat="45.18273" lon="5.86822">
        <ele>576</ele>
        <time>2017-10-25T12:39:09Z</time>
      </trkpt>
      <trkpt lat="45.18269" lon="5.86834">
        <ele>575</ele>
        <time>2017-10-25T12:39:10Z</time>
      </trkpt>
      <trkpt lat="45.18265" lon="5.86844">
        <ele>573</ele>
        <time>2017-10-25T12:39:11Z</time>
      </trkpt>
      <trkpt lat="45.18262" lon="5.86855">
        <ele>573</ele>
        <time>2017-10-25T12:39:12Z</time>
      </trkpt>
      <trkpt lat="45.18259" lon="5.86868">
        <ele>573</ele>
        <time>2017-10-25T12:39:13Z</time>
      </trkpt>
      <trkpt lat="45.18256" lon="5.86884">
        <ele>573</ele>
        <time>2017-10-25T12:39:14Z</time>
      </trkpt>
      <trkpt lat="45.1825" lon="5.86896">
        <ele>572</ele>
        <time>2017-10-25T12:39:15Z</time>
      </trkpt>
      <trkpt lat="45.18245" lon="5.86907">
        <ele>570</ele>
        <time>2017-10-25T12:39:16Z</time>
      </trkpt>
      <trkpt lat="45.1824" lon="5.86917">
        <ele>569</ele>
        <time>2017-10-25T12:39:17Z</time>
      </trkpt>
      <trkpt lat="45.18237" lon="5.86923">
        <ele>568</ele>
        <time>2017-10-25T12:39:18Z</time>
      </trkpt>
      <trkpt lat="45.18231" lon="5.86938">
        <ele>566</ele>
        <time>2017-10-25T12:39:19Z</time>
      </trkpt>
      <trkpt lat="45.18231" lon="5.86954">
        <ele>568</ele>
        <time>2017-10-25T12:39:20Z</time>
      </trkpt>
      <trkpt lat="45.1823" lon="5.86973">
        <ele>569</ele>
        <time>2017-10-25T12:39:21Z</time>
      </trkpt>
      <trkpt lat="45.18224" lon="5.86985">
        <ele>567</ele>
        <time>2017-10-25T12:39:22Z</time>
      </trkpt>
      <trkpt lat="45.18219" lon="5.86998">
        <ele>566</ele>
        <time>2017-10-25T12:39:23Z</time>
      </trkpt>
      <trkpt lat="45.18213" lon="5.87011">
        <ele>564</ele>
        <time>2017-10-25T12:39:24Z</time>
      </trkpt>
      <trkpt lat="45.1821" lon="5.87025">
        <ele>563</ele>
        <time>2017-10-25T12:39:25Z</time>
      </trkpt>
      <trkpt lat="45.18207" lon="5.87041">
        <ele>563</ele>
        <time>2017-10-25T12:39:26Z</time>
      </trkpt>
      <trkpt lat="45.182" lon="5.87072">
        <ele>563</ele>
        <time>2017-10-25T12:39:28Z</time>
      </trkpt>
      <trkpt lat="45.18197" lon="5.87086">
        <ele>563</ele>
        <time>2017-10-25T12:39:29Z</time>
      </trkpt>
      <trkpt lat="45.18195" lon="5.87099">
        <ele>566</ele>
        <time>2017-10-25T12:39:30Z</time>
      </trkpt>
      <trkpt lat="45.1819" lon="5.87105">
        <ele>566</ele>
        <time>2017-10-25T12:39:31Z</time>
      </trkpt>
      <trkpt lat="45.18184" lon="5.87113">
        <ele>567</ele>
        <time>2017-10-25T12:39:32Z</time>
      </trkpt>
      <trkpt lat="45.18179" lon="5.87119">
        <ele>568</ele>
        <time>2017-10-25T12:39:33Z</time>
      </trkpt>
      <trkpt lat="45.18173" lon="5.87127">
        <ele>569</ele>
        <time>2017-10-25T12:39:34Z</time>
      </trkpt>
      <trkpt lat="45.18165" lon="5.87126">
        <ele>567</ele>
        <time>2017-10-25T12:39:35Z</time>
      </trkpt>
      <trkpt lat="45.18154" lon="5.87133">
        <ele>567</ele>
        <time>2017-10-25T12:39:36Z</time>
      </trkpt>
      <trkpt lat="45.18144" lon="5.87129">
        <ele>564</ele>
        <time>2017-10-25T12:39:37Z</time>
      </trkpt>
      <trkpt lat="45.18137" lon="5.8713">
        <ele>563</ele>
        <time>2017-10-25T12:39:38Z</time>
      </trkpt>
      <trkpt lat="45.18131" lon="5.87132">
        <ele>562</ele>
        <time>2017-10-25T12:39:39Z</time>
      </trkpt>
      <trkpt lat="45.18126" lon="5.87133">
        <ele>562</ele>
        <time>2017-10-25T12:39:40Z</time>
      </trkpt>
      <trkpt lat="45.18118" lon="5.87137">
        <ele>565</ele>
        <time>2017-10-25T12:39:42Z</time>
      </trkpt>
      <trkpt lat="45.18111" lon="5.87144">
        <ele>568</ele>
        <time>2017-10-25T12:39:44Z</time>
      </trkpt>
      <trkpt lat="45.18106" lon="5.87147">
        <ele>570</ele>
        <time>2017-10-25T12:39:45Z</time>
      </trkpt>
      <trkpt lat="45.18101" lon="5.87155">
        <ele>572</ele>
        <time>2017-10-25T12:39:46Z</time>
      </trkpt>
      <trkpt lat="45.18091" lon="5.87167">
        <ele>575</ele>
        <time>2017-10-25T12:39:48Z</time>
      </trkpt>
      <trkpt lat="45.18082" lon="5.87181">
        <ele>578</ele>
        <time>2017-10-25T12:39:50Z</time>
      </trkpt>
      <trkpt lat="45.18075" lon="5.872">
        <ele>581</ele>
        <time>2017-10-25T12:39:52Z</time>
      </trkpt>
      <trkpt lat="45.1807" lon="5.87209">
        <ele>582</ele>
        <time>2017-10-25T12:39:53Z</time>
      </trkpt>
      <trkpt lat="45.18067" lon="5.87217">
        <ele>583</ele>
        <time>2017-10-25T12:39:54Z</time>
      </trkpt>
      <trkpt lat="45.18061" lon="5.8722">
        <ele>584</ele>
        <time>2017-10-25T12:39:56Z</time>
      </trkpt>
      <trkpt lat="45.18053" lon="5.87226">
        <ele>589</ele>
        <time>2017-10-25T12:39:58Z</time>
      </trkpt>
      <trkpt lat="45.18047" lon="5.87223">
        <ele>593</ele>
        <time>2017-10-25T12:40:02Z</time>
      </trkpt>
      <trkpt lat="45.18042" lon="5.87216">
        <ele>596</ele>
        <time>2017-10-25T12:40:05Z</time>
      </trkpt>
      <trkpt lat="45.18039" lon="5.8721">
        <ele>598</ele>
        <time>2017-10-25T12:40:07Z</time>
      </trkpt>
      <trkpt lat="45.18037" lon="5.87204">
        <ele>599</ele>
        <time>2017-10-25T12:40:09Z</time>
      </trkpt>
      <trkpt lat="45.18036" lon="5.87195">
        <ele>600</ele>
        <time>2017-10-25T12:40:12Z</time>
      </trkpt>
      <trkpt lat="45.18034" lon="5.87188">
        <ele>601</ele>
        <time>2017-10-25T12:40:15Z</time>
      </trkpt>
      <trkpt lat="45.18034" lon="5.87179">
        <ele>600</ele>
        <time>2017-10-25T12:40:18Z</time>
      </trkpt>
      <trkpt lat="45.18036" lon="5.87173">
        <ele>599</ele>
        <time>2017-10-25T12:40:20Z</time>
      </trkpt>
      <trkpt lat="45.18037" lon="5.87164">
        <ele>598</ele>
        <time>2017-10-25T12:40:23Z</time>
      </trkpt>
      <trkpt lat="45.18039" lon="5.87156">
        <ele>596</ele>
        <time>2017-10-25T12:40:26Z</time>
      </trkpt>
      <trkpt lat="45.18042" lon="5.87147">
        <ele>594</ele>
        <time>2017-10-25T12:40:29Z</time>
      </trkpt>
      <trkpt lat="45.18042" lon="5.8714">
        <ele>594</ele>
        <time>2017-10-25T12:40:32Z</time>
      </trkpt>
      <trkpt lat="45.18034" lon="5.87147">
        <ele>600</ele>
        <time>2017-10-25T12:40:40Z</time>
      </trkpt>
      <trkpt lat="45.18027" lon="5.87147">
        <ele>605</ele>
        <time>2017-10-25T12:40:42Z</time>
      </trkpt>
      <trkpt lat="45.18022" lon="5.87146">
        <ele>608</ele>
        <time>2017-10-25T12:40:47Z</time>
      </trkpt>
      <trkpt lat="45.18021" lon="5.87138">
        <ele>609</ele>
        <time>2017-10-25T12:40:50Z</time>
      </trkpt>
      <trkpt lat="45.18022" lon="5.8713">
        <ele>608</ele>
        <time>2017-10-25T12:40:52Z</time>
      </trkpt>
      <trkpt lat="45.18022" lon="5.87122">
        <ele>608</ele>
        <time>2017-10-25T12:40:55Z</time>
      </trkpt>
      <trkpt lat="45.18023" lon="5.87116">
        <ele>607</ele>
        <time>2017-10-25T12:40:57Z</time>
      </trkpt>
      <trkpt lat="45.18025" lon="5.87109">
        <ele>605</ele>
        <time>2017-10-25T12:40:59Z</time>
      </trkpt>
      <trkpt lat="45.18026" lon="5.87102">
        <ele>604</ele>
        <time>2017-10-25T12:41:01Z</time>
      </trkpt>
      <trkpt lat="45.18028" lon="5.87095">
        <ele>603</ele>
        <time>2017-10-25T12:41:03Z</time>
      </trkpt>
      <trkpt lat="45.1803" lon="5.87089">
        <ele>601</ele>
        <time>2017-10-25T12:41:05Z</time>
      </trkpt>
      <trkpt lat="45.18031" lon="5.87082">
        <ele>601</ele>
        <time>2017-10-25T12:41:07Z</time>
      </trkpt>
      <trkpt lat="45.18031" lon="5.87073">
        <ele>601</ele>
        <time>2017-10-25T12:41:10Z</time>
      </trkpt>
      <trkpt lat="45.18031" lon="5.87067">
        <ele>601</ele>
        <time>2017-10-25T12:41:12Z</time>
      </trkpt>
      <trkpt lat="45.18031" lon="5.8706">
        <ele>602</ele>
        <time>2017-10-25T12:41:14Z</time>
      </trkpt>
      <trkpt lat="45.18031" lon="5.87052">
        <ele>602</ele>
        <time>2017-10-25T12:41:16Z</time>
      </trkpt>
      <trkpt lat="45.18032" lon="5.87045">
        <ele>602</ele>
        <time>2017-10-25T12:41:18Z</time>
      </trkpt>
      <trkpt lat="45.18033" lon="5.87038">
        <ele>602</ele>
        <time>2017-10-25T12:41:20Z</time>
      </trkpt>
      <trkpt lat="45.18033" lon="5.8703">
        <ele>602</ele>
        <time>2017-10-25T12:41:22Z</time>
      </trkpt>
      <trkpt lat="45.18034" lon="5.87024">
        <ele>602</ele>
        <time>2017-10-25T12:41:24Z</time>
      </trkpt>
      <trkpt lat="45.18034" lon="5.87016">
        <ele>602</ele>
        <time>2017-10-25T12:41:26Z</time>
      </trkpt>
      <trkpt lat="45.18035" lon="5.8701">
        <ele>602</ele>
        <time>2017-10-25T12:41:28Z</time>
      </trkpt>
      <trkpt lat="45.18033" lon="5.87001">
        <ele>603</ele>
        <time>2017-10-25T12:41:31Z</time>
      </trkpt>
      <trkpt lat="45.18031" lon="5.86994">
        <ele>605</ele>
        <time>2017-10-25T12:41:34Z</time>
      </trkpt>
      <trkpt lat="45.18033" lon="5.86984">
        <ele>604</ele>
        <time>2017-10-25T12:41:37Z</time>
      </trkpt>
      <trkpt lat="45.18036" lon="5.8697">
        <ele>602</ele>
        <time>2017-10-25T12:41:42Z</time>
      </trkpt>
      <trkpt lat="45.18037" lon="5.86961">
        <ele>602</ele>
        <time>2017-10-25T12:41:45Z</time>
      </trkpt>
      <trkpt lat="45.18039" lon="5.86953">
        <ele>601</ele>
        <time>2017-10-25T12:41:48Z</time>
      </trkpt>
      <trkpt lat="45.18042" lon="5.86944">
        <ele>599</ele>
        <time>2017-10-25T12:41:51Z</time>
      </trkpt>
      <trkpt lat="45.18043" lon="5.86936">
        <ele>599</ele>
        <time>2017-10-25T12:41:54Z</time>
      </trkpt>
      <trkpt lat="45.18042" lon="5.86927">
        <ele>600</ele>
        <time>2017-10-25T12:41:57Z</time>
      </trkpt>
      <trkpt lat="45.18041" lon="5.86921">
        <ele>600</ele>
        <time>2017-10-25T12:41:59Z</time>
      </trkpt>
      <trkpt lat="45.18039" lon="5.86912">
        <ele>602</ele>
        <time>2017-10-25T12:42:02Z</time>
      </trkpt>
      <trkpt lat="45.18037" lon="5.86906">
        <ele>603</ele>
        <time>2017-10-25T12:42:04Z</time>
      </trkpt>
      <trkpt lat="45.18034" lon="5.869">
        <ele>605</ele>
        <time>2017-10-25T12:42:06Z</time>
      </trkpt>
      <trkpt lat="45.18032" lon="5.86894">
        <ele>606</ele>
        <time>2017-10-25T12:42:08Z</time>
      </trkpt>
      <trkpt lat="45.18031" lon="5.86886">
        <ele>607</ele>
        <time>2017-10-25T12:42:11Z</time>
      </trkpt>
      <trkpt lat="45.18028" lon="5.86879">
        <ele>609</ele>
        <time>2017-10-25T12:42:14Z</time>
      </trkpt>
      <trkpt lat="45.18024" lon="5.86875">
        <ele>612</ele>
        <time>2017-10-25T12:42:16Z</time>
      </trkpt>
      <trkpt lat="45.18022" lon="5.86869">
        <ele>613</ele>
        <time>2017-10-25T12:42:18Z</time>
      </trkpt>
      <trkpt lat="45.18021" lon="5.8686">
        <ele>613</ele>
        <time>2017-10-25T12:42:21Z</time>
      </trkpt>
      <trkpt lat="45.1802" lon="5.86852">
        <ele>614</ele>
        <time>2017-10-25T12:42:24Z</time>
      </trkpt>
      <trkpt lat="45.1802" lon="5.86844">
        <ele>614</ele>
        <time>2017-10-25T12:42:27Z</time>
      </trkpt>
      <trkpt lat="45.1802" lon="5.86836">
        <ele>613</ele>
        <time>2017-10-25T12:42:30Z</time>
      </trkpt>
      <trkpt lat="45.1802" lon="5.86827">
        <ele>613</ele>
        <time>2017-10-25T12:42:33Z</time>
      </trkpt>
      <trkpt lat="45.18019" lon="5.86818">
        <ele>613</ele>
        <time>2017-10-25T12:42:36Z</time>
      </trkpt>
      <trkpt lat="45.18019" lon="5.86812">
        <ele>613</ele>
        <time>2017-10-25T12:42:38Z</time>
      </trkpt>
      <trkpt lat="45.18016" lon="5.86804">
        <ele>615</ele>
        <time>2017-10-25T12:42:41Z</time>
      </trkpt>
      <trkpt lat="45.18013" lon="5.86796">
        <ele>616</ele>
        <time>2017-10-25T12:42:44Z</time>
      </trkpt>
      <trkpt lat="45.18013" lon="5.86786">
        <ele>616</ele>
        <time>2017-10-25T12:42:47Z</time>
      </trkpt>
      <trkpt lat="45.18014" lon="5.86778">
        <ele>615</ele>
        <time>2017-10-25T12:42:50Z</time>
      </trkpt>
      <trkpt lat="45.18014" lon="5.8677">
        <ele>614</ele>
        <time>2017-10-25T12:42:53Z</time>
      </trkpt>
      <trkpt lat="45.18017" lon="5.86762">
        <ele>612</ele>
        <time>2017-10-25T12:42:56Z</time>
      </trkpt>
      <trkpt lat="45.18017" lon="5.86755">
        <ele>612</ele>
        <time>2017-10-25T12:42:58Z</time>
      </trkpt>
      <trkpt lat="45.18016" lon="5.86748">
        <ele>612</ele>
        <time>2017-10-25T12:43:00Z</time>
      </trkpt>
      <trkpt lat="45.18016" lon="5.86741">
        <ele>612</ele>
        <time>2017-10-25T12:43:02Z</time>
      </trkpt>
      <trkpt lat="45.18016" lon="5.86735">
        <ele>612</ele>
        <time>2017-10-25T12:43:04Z</time>
      </trkpt>
      <trkpt lat="45.18017" lon="5.86729">
        <ele>611</ele>
        <time>2017-10-25T12:43:06Z</time>
      </trkpt>
      <trkpt lat="45.18016" lon="5.86722">
        <ele>612</ele>
        <time>2017-10-25T12:43:08Z</time>
      </trkpt>
      <trkpt lat="45.18015" lon="5.86714">
        <ele>612</ele>
        <time>2017-10-25T12:43:11Z</time>
      </trkpt>
      <trkpt lat="45.18015" lon="5.86707">
        <ele>612</ele>
        <time>2017-10-25T12:43:14Z</time>
      </trkpt>
      <trkpt lat="45.18012" lon="5.867">
        <ele>615</ele>
        <time>2017-10-25T12:43:17Z</time>
      </trkpt>
      <trkpt lat="45.18009" lon="5.86692">
        <ele>616</ele>
        <time>2017-10-25T12:43:20Z</time>
      </trkpt>
      <trkpt lat="45.18007" lon="5.86686">
        <ele>617</ele>
        <time>2017-10-25T12:43:22Z</time>
      </trkpt>
      <trkpt lat="45.18007" lon="5.86679">
        <ele>617</ele>
        <time>2017-10-25T12:43:24Z</time>
      </trkpt>
      <trkpt lat="45.18007" lon="5.86673">
        <ele>617</ele>
        <time>2017-10-25T12:43:26Z</time>
      </trkpt>
      <trkpt lat="45.18007" lon="5.86666">
        <ele>617</ele>
        <time>2017-10-25T12:43:28Z</time>
      </trkpt>
      <trkpt lat="45.18007" lon="5.86659">
        <ele>617</ele>
        <time>2017-10-25T12:43:30Z</time>
      </trkpt>
      <trkpt lat="45.18009" lon="5.8665">
        <ele>616</ele>
        <time>2017-10-25T12:43:33Z</time>
      </trkpt>
      <trkpt lat="45.18011" lon="5.86644">
        <ele>615</ele>
        <time>2017-10-25T12:43:36Z</time>
      </trkpt>
      <trkpt lat="45.18012" lon="5.86636">
        <ele>615</ele>
        <time>2017-10-25T12:43:40Z</time>
      </trkpt>
      <trkpt lat="45.18012" lon="5.86628">
        <ele>615</ele>
        <time>2017-10-25T12:43:43Z</time>
      </trkpt>
      <trkpt lat="45.18012" lon="5.86619">
        <ele>615</ele>
        <time>2017-10-25T12:43:46Z</time>
      </trkpt>
      <trkpt lat="45.18013" lon="5.8661">
        <ele>615</ele>
        <time>2017-10-25T12:43:49Z</time>
      </trkpt>
      <trkpt lat="45.18013" lon="5.86601">
        <ele>615</ele>
        <time>2017-10-25T12:43:52Z</time>
      </trkpt>
      <trkpt lat="45.18012" lon="5.86592">
        <ele>615</ele>
        <time>2017-10-25T12:43:55Z</time>
      </trkpt>
      <trkpt lat="45.18012" lon="5.86583">
        <ele>616</ele>
        <time>2017-10-25T12:43:58Z</time>
      </trkpt>
      <trkpt lat="45.18014" lon="5.86571">
        <ele>615</ele>
        <time>2017-10-25T12:44:02Z</time>
      </trkpt>
      <trkpt lat="45.18015" lon="5.86564">
        <ele>614</ele>
        <time>2017-10-25T12:44:04Z</time>
      </trkpt>
      <trkpt lat="45.18016" lon="5.86557">
        <ele>614</ele>
        <time>2017-10-25T12:44:07Z</time>
      </trkpt>
      <trkpt lat="45.18017" lon="5.8655">
        <ele>614</ele>
        <time>2017-10-25T12:44:11Z</time>
      </trkpt>
      <trkpt lat="45.18017" lon="5.86542">
        <ele>614</ele>
        <time>2017-10-25T12:44:14Z</time>
      </trkpt>
      <trkpt lat="45.18015" lon="5.86534">
        <ele>615</ele>
        <time>2017-10-25T12:44:18Z</time>
      </trkpt>
      <trkpt lat="45.18013" lon="5.86527">
        <ele>616</ele>
        <time>2017-10-25T12:44:21Z</time>
      </trkpt>
      <trkpt lat="45.18012" lon="5.8652">
        <ele>616</ele>
        <time>2017-10-25T12:44:23Z</time>
      </trkpt>
      <trkpt lat="45.18012" lon="5.86514">
        <ele>616</ele>
        <time>2017-10-25T12:44:25Z</time>
      </trkpt>
      <trkpt lat="45.18012" lon="5.86507">
        <ele>616</ele>
        <time>2017-10-25T12:44:27Z</time>
      </trkpt>
      <trkpt lat="45.18012" lon="5.86499">
        <ele>617</ele>
        <time>2017-10-25T12:44:29Z</time>
      </trkpt>
      <trkpt lat="45.18011" lon="5.86491">
        <ele>617</ele>
        <time>2017-10-25T12:44:31Z</time>
      </trkpt>
      <trkpt lat="45.18012" lon="5.86484">
        <ele>617</ele>
        <time>2017-10-25T12:44:33Z</time>
      </trkpt>
      <trkpt lat="45.18012" lon="5.86478">
        <ele>617</ele>
        <time>2017-10-25T12:44:35Z</time>
      </trkpt>
      <trkpt lat="45.18013" lon="5.86469">
        <ele>616</ele>
        <time>2017-10-25T12:44:38Z</time>
      </trkpt>
      <trkpt lat="45.18013" lon="5.86462">
        <ele>616</ele>
        <time>2017-10-25T12:44:41Z</time>
      </trkpt>
      <trkpt lat="45.18013" lon="5.86454">
        <ele>616</ele>
        <time>2017-10-25T12:44:44Z</time>
      </trkpt>
      <trkpt lat="45.18015" lon="5.86447">
        <ele>616</ele>
        <time>2017-10-25T12:44:47Z</time>
      </trkpt>
      <trkpt lat="45.18014" lon="5.8644">
        <ele>616</ele>
        <time>2017-10-25T12:44:49Z</time>
      </trkpt>
      <trkpt lat="45.18014" lon="5.86432">
        <ele>616</ele>
        <time>2017-10-25T12:44:51Z</time>
      </trkpt>
      <trkpt lat="45.18014" lon="5.86426">
        <ele>616</ele>
        <time>2017-10-25T12:44:53Z</time>
      </trkpt>
      <trkpt lat="45.18013" lon="5.86418">
        <ele>616</ele>
        <time>2017-10-25T12:44:56Z</time>
      </trkpt>
      <trkpt lat="45.18013" lon="5.8641">
        <ele>616</ele>
        <time>2017-10-25T12:44:59Z</time>
      </trkpt>
      <trkpt lat="45.18014" lon="5.86401">
        <ele>616</ele>
        <time>2017-10-25T12:45:02Z</time>
      </trkpt>
      <trkpt lat="45.18014" lon="5.86394">
        <ele>616</ele>
        <time>2017-10-25T12:45:05Z</time>
      </trkpt>
      <trkpt lat="45.18012" lon="5.86387">
        <ele>617</ele>
        <time>2017-10-25T12:45:07Z</time>
      </trkpt>
      <trkpt lat="45.18011" lon="5.8638">
        <ele>617</ele>
        <time>2017-10-25T12:45:09Z</time>
      </trkpt>
      <trkpt lat="45.18009" lon="5.86373">
        <ele>618</ele>
        <time>2017-10-25T12:45:11Z</time>
      </trkpt>
      <trkpt lat="45.18005" lon="5.86366">
        <ele>619</ele>
        <time>2017-10-25T12:45:14Z</time>
      </trkpt>
      <trkpt lat="45.18" lon="5.86362">
        <ele>620</ele>
        <time>2017-10-25T12:45:16Z</time>
      </trkpt>
      <trkpt lat="45.17995" lon="5.86359">
        <ele>621</ele>
        <time>2017-10-25T12:45:18Z</time>
      </trkpt>
      <trkpt lat="45.1799" lon="5.86358">
        <ele>622</ele>
        <time>2017-10-25T12:45:20Z</time>
      </trkpt>
      <trkpt lat="45.17985" lon="5.86357">
        <ele>622</ele>
        <time>2017-10-25T12:45:22Z</time>
      </trkpt>
      <trkpt lat="45.1798" lon="5.86358">
        <ele>622</ele>
        <time>2017-10-25T12:45:24Z</time>
      </trkpt>
      <trkpt lat="45.17976" lon="5.86358">
        <ele>622</ele>
        <time>2017-10-25T12:45:26Z</time>
      </trkpt>
      <trkpt lat="45.1797" lon="5.86359">
        <ele>623</ele>
        <time>2017-10-25T12:45:28Z</time>
      </trkpt>
      <trkpt lat="45.17965" lon="5.86359">
        <ele>623</ele>
        <time>2017-10-25T12:45:30Z</time>
      </trkpt>
      <trkpt lat="45.1796" lon="5.8636">
        <ele>623</ele>
        <time>2017-10-25T12:45:32Z</time>
      </trkpt>
      <trkpt lat="45.17955" lon="5.86361">
        <ele>623</ele>
        <time>2017-10-25T12:45:34Z</time>
      </trkpt>
      <trkpt lat="45.1795" lon="5.86362">
        <ele>624</ele>
        <time>2017-10-25T12:45:36Z</time>
      </trkpt>
      <trkpt lat="45.17945" lon="5.86362">
        <ele>624</ele>
        <time>2017-10-25T12:45:38Z</time>
      </trkpt>
      <trkpt lat="45.17939" lon="5.86363">
        <ele>624</ele>
        <time>2017-10-25T12:45:40Z</time>
      </trkpt>
      <trkpt lat="45.17933" lon="5.86364">
        <ele>624</ele>
        <time>2017-10-25T12:45:42Z</time>
      </trkpt>
      <trkpt lat="45.17927" lon="5.86366">
        <ele>625</ele>
        <time>2017-10-25T12:45:44Z</time>
      </trkpt>
      <trkpt lat="45.1792" lon="5.86367">
        <ele>625</ele>
        <time>2017-10-25T12:45:46Z</time>
      </trkpt>
      <trkpt lat="45.17914" lon="5.86368">
        <ele>625</ele>
        <time>2017-10-25T12:45:48Z</time>
      </trkpt>
      <trkpt lat="45.17907" lon="5.86368">
        <ele>625</ele>
        <time>2017-10-25T12:45:50Z</time>
      </trkpt>
      <trkpt lat="45.17901" lon="5.86369">
        <ele>625</ele>
        <time>2017-10-25T12:45:52Z</time>
      </trkpt>
      <trkpt lat="45.17894" lon="5.8637">
        <ele>625</ele>
        <time>2017-10-25T12:45:54Z</time>
      </trkpt>
      <trkpt lat="45.17888" lon="5.86372">
        <ele>625</ele>
        <time>2017-10-25T12:45:56Z</time>
      </trkpt>
      <trkpt lat="45.17881" lon="5.86373">
        <ele>625</ele>
        <time>2017-10-25T12:45:58Z</time>
      </trkpt>
      <trkpt lat="45.17875" lon="5.86374">
        <ele>625</ele>
        <time>2017-10-25T12:46:00Z</time>
      </trkpt>
      <trkpt lat="45.17868" lon="5.86375">
        <ele>625</ele>
        <time>2017-10-25T12:46:02Z</time>
      </trkpt>
      <trkpt lat="45.17862" lon="5.86376">
        <ele>625</ele>
        <time>2017-10-25T12:46:04Z</time>
      </trkpt>
      <trkpt lat="45.17855" lon="5.86377">
        <ele>625</ele>
        <time>2017-10-25T12:46:06Z</time>
      </trkpt>
      <trkpt lat="45.17847" lon="5.86379">
        <ele>625</ele>
        <time>2017-10-25T12:46:08Z</time>
      </trkpt>
      <trkpt lat="45.17836" lon="5.86378">
        <ele>626</ele>
        <time>2017-10-25T12:46:10Z</time>
      </trkpt>
      <trkpt lat="45.17831" lon="5.86377">
        <ele>626</ele>
        <time>2017-10-25T12:46:11Z</time>
      </trkpt>
      <trkpt lat="45.17824" lon="5.86376">
        <ele>626</ele>
        <time>2017-10-25T12:46:12Z</time>
      </trkpt>
      <trkpt lat="45.17812" lon="5.86373">
        <ele>626</ele>
        <time>2017-10-25T12:46:14Z</time>
      </trkpt>
      <trkpt lat="45.17806" lon="5.86369">
        <ele>626</ele>
        <time>2017-10-25T12:46:15Z</time>
      </trkpt>
      <trkpt lat="45.17802" lon="5.86365">
        <ele>625</ele>
        <time>2017-10-25T12:46:16Z</time>
      </trkpt>
      <trkpt lat="45.17798" lon="5.86361">
        <ele>625</ele>
        <time>2017-10-25T12:46:17Z</time>
      </trkpt>
      <trkpt lat="45.17786" lon="5.86353">
        <ele>625</ele>
        <time>2017-10-25T12:46:19Z</time>
      </trkpt>
      <trkpt lat="45.17779" lon="5.86346">
        <ele>625</ele>
        <time>2017-10-25T12:46:20Z</time>
      </trkpt>
      <trkpt lat="45.17775" lon="5.86341">
        <ele>625</ele>
        <time>2017-10-25T12:46:21Z</time>
      </trkpt>
      <trkpt lat="45.17761" lon="5.86332">
        <ele>625</ele>
        <time>2017-10-25T12:46:23Z</time>
      </trkpt>
      <trkpt lat="45.17747" lon="5.86324">
        <ele>626</ele>
        <time>2017-10-25T12:46:25Z</time>
      </trkpt>
      <trkpt lat="45.1774" lon="5.86322">
        <ele>627</ele>
        <time>2017-10-25T12:46:26Z</time>
      </trkpt>
      <trkpt lat="45.17728" lon="5.86318">
        <ele>628</ele>
        <time>2017-10-25T12:46:28Z</time>
      </trkpt>
      <trkpt lat="45.17721" lon="5.86311">
        <ele>628</ele>
        <time>2017-10-25T12:46:29Z</time>
      </trkpt>
      <trkpt lat="45.17716" lon="5.86305">
        <ele>628</ele>
        <time>2017-10-25T12:46:30Z</time>
      </trkpt>
      <trkpt lat="45.17712" lon="5.86297">
        <ele>628</ele>
        <time>2017-10-25T12:46:31Z</time>
      </trkpt>
      <trkpt lat="45.17708" lon="5.8628">
        <ele>627</ele>
        <time>2017-10-25T12:46:33Z</time>
      </trkpt>
      <trkpt lat="45.17706" lon="5.86269">
        <ele>627</ele>
        <time>2017-10-25T12:46:34Z</time>
      </trkpt>
      <trkpt lat="45.17703" lon="5.8626">
        <ele>627</ele>
        <time>2017-10-25T12:46:35Z</time>
      </trkpt>
      <trkpt lat="45.17701" lon="5.86249">
        <ele>627</ele>
        <time>2017-10-25T12:46:37Z</time>
      </trkpt>
      <trkpt lat="45.17696" lon="5.86239">
        <ele>627</ele>
        <time>2017-10-25T12:46:39Z</time>
      </trkpt>
      <trkpt lat="45.17691" lon="5.86229">
        <ele>627</ele>
        <time>2017-10-25T12:46:41Z</time>
      </trkpt>
      <trkpt lat="45.17688" lon="5.86222">
        <ele>628</ele>
        <time>2017-10-25T12:46:43Z</time>
      </trkpt>
      <trkpt lat="45.17684" lon="5.86217">
        <ele>628</ele>
        <time>2017-10-25T12:46:45Z</time>
      </trkpt>
      <trkpt lat="45.17677" lon="5.86206">
        <ele>629</ele>
        <time>2017-10-25T12:46:48Z</time>
      </trkpt>
      <trkpt lat="45.17673" lon="5.862">
        <ele>629</ele>
        <time>2017-10-25T12:46:50Z</time>
      </trkpt>
      <trkpt lat="45.17669" lon="5.86193">
        <ele>629</ele>
        <time>2017-10-25T12:46:52Z</time>
      </trkpt>
      <trkpt lat="45.17666" lon="5.86187">
        <ele>629</ele>
        <time>2017-10-25T12:46:54Z</time>
      </trkpt>
      <trkpt lat="45.17663" lon="5.86181">
        <ele>629</ele>
        <time>2017-10-25T12:46:56Z</time>
      </trkpt>
      <trkpt lat="45.1766" lon="5.86175">
        <ele>629</ele>
        <time>2017-10-25T12:46:58Z</time>
      </trkpt>
      <trkpt lat="45.17657" lon="5.86169">
        <ele>630</ele>
        <time>2017-10-25T12:47:00Z</time>
      </trkpt>
      <trkpt lat="45.17654" lon="5.86164">
        <ele>630</ele>
        <time>2017-10-25T12:47:02Z</time>
      </trkpt>
      <trkpt lat="45.17651" lon="5.86159">
        <ele>630</ele>
        <time>2017-10-25T12:47:04Z</time>
      </trkpt>
      <trkpt lat="45.17647" lon="5.86153">
        <ele>630</ele>
        <time>2017-10-25T12:47:06Z</time>
      </trkpt>
      <trkpt lat="45.17645" lon="5.86147">
        <ele>630</ele>
        <time>2017-10-25T12:47:08Z</time>
      </trkpt>
      <trkpt lat="45.17643" lon="5.86141">
        <ele>630</ele>
        <time>2017-10-25T12:47:10Z</time>
      </trkpt>
      <trkpt lat="45.1764" lon="5.86134">
        <ele>629</ele>
        <time>2017-10-25T12:47:12Z</time>
      </trkpt>
      <trkpt lat="45.17638" lon="5.86126">
        <ele>629</ele>
        <time>2017-10-25T12:47:14Z</time>
      </trkpt>
      <trkpt lat="45.17636" lon="5.86118">
        <ele>629</ele>
        <time>2017-10-25T12:47:16Z</time>
      </trkpt>
      <trkpt lat="45.17634" lon="5.8611">
        <ele>629</ele>
        <time>2017-10-25T12:47:18Z</time>
      </trkpt>
      <trkpt lat="45.17633" lon="5.86102">
        <ele>629</ele>
        <time>2017-10-25T12:47:20Z</time>
      </trkpt>
      <trkpt lat="45.17632" lon="5.86095">
        <ele>628</ele>
        <time>2017-10-25T12:47:22Z</time>
      </trkpt>
      <trkpt lat="45.17631" lon="5.86089">
        <ele>628</ele>
        <time>2017-10-25T12:47:24Z</time>
      </trkpt>
      <trkpt lat="45.17629" lon="5.8608">
        <ele>628</ele>
        <time>2017-10-25T12:47:26Z</time>
      </trkpt>
      <trkpt lat="45.17627" lon="5.86071">
        <ele>628</ele>
        <time>2017-10-25T12:47:28Z</time>
      </trkpt>
      <trkpt lat="45.17624" lon="5.86061">
        <ele>627</ele>
        <time>2017-10-25T12:47:30Z</time>
      </trkpt>
      <trkpt lat="45.1762" lon="5.86052">
        <ele>627</ele>
        <time>2017-10-25T12:47:32Z</time>
      </trkpt>
      <trkpt lat="45.17615" lon="5.86042">
        <ele>627</ele>
        <time>2017-10-25T12:47:34Z</time>
      </trkpt>
      <trkpt lat="45.1761" lon="5.86033">
        <ele>627</ele>
        <time>2017-10-25T12:47:36Z</time>
      </trkpt>
      <trkpt lat="45.17603" lon="5.86027">
        <ele>627</ele>
        <time>2017-10-25T12:47:38Z</time>
      </trkpt>
      <trkpt lat="45.17596" lon="5.86022">
        <ele>627</ele>
        <time>2017-10-25T12:47:40Z</time>
      </trkpt>
      <trkpt lat="45.1759" lon="5.86019">
        <ele>627</ele>
        <time>2017-10-25T12:47:42Z</time>
      </trkpt>
      <trkpt lat="45.17583" lon="5.86016">
        <ele>627</ele>
        <time>2017-10-25T12:47:44Z</time>
      </trkpt>
      <trkpt lat="45.17576" lon="5.86014">
        <ele>628</ele>
        <time>2017-10-25T12:47:46Z</time>
      </trkpt>
      <trkpt lat="45.17568" lon="5.86011">
        <ele>629</ele>
        <time>2017-10-25T12:47:48Z</time>
      </trkpt>
      <trkpt lat="45.17561" lon="5.86009">
        <ele>629</ele>
        <time>2017-10-25T12:47:50Z</time>
      </trkpt>
      <trkpt lat="45.17555" lon="5.86006">
        <ele>630</ele>
        <time>2017-10-25T12:47:52Z</time>
      </trkpt>
      <trkpt lat="45.17548" lon="5.86004">
        <ele>630</ele>
        <time>2017-10-25T12:47:54Z</time>
      </trkpt>
      <trkpt lat="45.17542" lon="5.86003">
        <ele>631</ele>
        <time>2017-10-25T12:47:56Z</time>
      </trkpt>
      <trkpt lat="45.17535" lon="5.86002">
        <ele>631</ele>
        <time>2017-10-25T12:47:58Z</time>
      </trkpt>
      <trkpt lat="45.17529" lon="5.86">
        <ele>632</ele>
        <time>2017-10-25T12:48:00Z</time>
      </trkpt>
      <trkpt lat="45.17522" lon="5.85999">
        <ele>633</ele>
        <time>2017-10-25T12:48:02Z</time>
      </trkpt>
      <trkpt lat="45.17516" lon="5.85998">
        <ele>633</ele>
        <time>2017-10-25T12:48:04Z</time>
      </trkpt>
      <trkpt lat="45.1751" lon="5.85998">
        <ele>634</ele>
        <time>2017-10-25T12:48:06Z</time>
      </trkpt>
      <trkpt lat="45.17505" lon="5.85998">
        <ele>635</ele>
        <time>2017-10-25T12:48:08Z</time>
      </trkpt>
      <trkpt lat="45.17498" lon="5.85998">
        <ele>636</ele>
        <time>2017-10-25T12:48:10Z</time>
      </trkpt>
      <trkpt lat="45.17491" lon="5.85996">
        <ele>637</ele>
        <time>2017-10-25T12:48:12Z</time>
      </trkpt>
      <trkpt lat="45.17485" lon="5.85993">
        <ele>637</ele>
        <time>2017-10-25T12:48:14Z</time>
      </trkpt>
      <trkpt lat="45.17481" lon="5.85988">
        <ele>638</ele>
        <time>2017-10-25T12:48:16Z</time>
      </trkpt>
      <trkpt lat="45.17476" lon="5.85979">
        <ele>638</ele>
        <time>2017-10-25T12:48:18Z</time>
      </trkpt>
      <trkpt lat="45.17474" lon="5.85969">
        <ele>637</ele>
        <time>2017-10-25T12:48:20Z</time>
      </trkpt>
      <trkpt lat="45.17471" lon="5.85959">
        <ele>637</ele>
        <time>2017-10-25T12:48:22Z</time>
      </trkpt>
      <trkpt lat="45.17469" lon="5.85951">
        <ele>637</ele>
        <time>2017-10-25T12:48:24Z</time>
      </trkpt>
      <trkpt lat="45.17467" lon="5.85942">
        <ele>637</ele>
        <time>2017-10-25T12:48:26Z</time>
      </trkpt>
      <trkpt lat="45.17465" lon="5.85934">
        <ele>636</ele>
        <time>2017-10-25T12:48:28Z</time>
      </trkpt>
      <trkpt lat="45.17461" lon="5.85925">
        <ele>637</ele>
        <time>2017-10-25T12:48:30Z</time>
      </trkpt>
      <trkpt lat="45.17458" lon="5.85918">
        <ele>637</ele>
        <time>2017-10-25T12:48:32Z</time>
      </trkpt>
      <trkpt lat="45.17454" lon="5.85911">
        <ele>637</ele>
        <time>2017-10-25T12:48:34Z</time>
      </trkpt>
      <trkpt lat="45.1745" lon="5.85904">
        <ele>637</ele>
        <time>2017-10-25T12:48:36Z</time>
      </trkpt>
      <trkpt lat="45.17447" lon="5.85898">
        <ele>637</ele>
        <time>2017-10-25T12:48:38Z</time>
      </trkpt>
      <trkpt lat="45.17444" lon="5.85892">
        <ele>637</ele>
        <time>2017-10-25T12:48:40Z</time>
      </trkpt>
      <trkpt lat="45.1744" lon="5.85885">
        <ele>637</ele>
        <time>2017-10-25T12:48:42Z</time>
      </trkpt>
      <trkpt lat="45.17437" lon="5.85879">
        <ele>638</ele>
        <time>2017-10-25T12:48:44Z</time>
      </trkpt>
      <trkpt lat="45.17434" lon="5.85873">
        <ele>638</ele>
        <time>2017-10-25T12:48:46Z</time>
      </trkpt>
      <trkpt lat="45.17429" lon="5.85868">
        <ele>638</ele>
        <time>2017-10-25T12:48:49Z</time>
      </trkpt>
      <trkpt lat="45.17425" lon="5.85863">
        <ele>638</ele>
        <time>2017-10-25T12:48:51Z</time>
      </trkpt>
      <trkpt lat="45.17422" lon="5.85858">
        <ele>639</ele>
        <time>2017-10-25T12:48:53Z</time>
      </trkpt>
      <trkpt lat="45.17418" lon="5.85853">
        <ele>639</ele>
        <time>2017-10-25T12:48:55Z</time>
      </trkpt>
      <trkpt lat="45.17415" lon="5.85849">
        <ele>639</ele>
        <time>2017-10-25T12:48:57Z</time>
      </trkpt>
      <trkpt lat="45.1741" lon="5.85846">
        <ele>640</ele>
        <time>2017-10-25T12:48:59Z</time>
      </trkpt>
      <trkpt lat="45.17404" lon="5.85844">
        <ele>641</ele>
        <time>2017-10-25T12:49:02Z</time>
      </trkpt>
      <trkpt lat="45.17398" lon="5.8584">
        <ele>642</ele>
        <time>2017-10-25T12:49:05Z</time>
      </trkpt>
      <trkpt lat="45.17393" lon="5.85835">
        <ele>642</ele>
        <time>2017-10-25T12:49:08Z</time>
      </trkpt>
      <trkpt lat="45.17389" lon="5.85828">
        <ele>643</ele>
        <time>2017-10-25T12:49:11Z</time>
      </trkpt>
      <trkpt lat="45.17384" lon="5.85822">
        <ele>643</ele>
        <time>2017-10-25T12:49:14Z</time>
      </trkpt>
      <trkpt lat="45.17379" lon="5.85816">
        <ele>644</ele>
        <time>2017-10-25T12:49:17Z</time>
      </trkpt>
      <trkpt lat="45.17371" lon="5.85805">
        <ele>644</ele>
        <time>2017-10-25T12:49:22Z</time>
      </trkpt>
      <trkpt lat="45.17366" lon="5.85797">
        <ele>645</ele>
        <time>2017-10-25T12:49:25Z</time>
      </trkpt>
      <trkpt lat="45.17364" lon="5.85792">
        <ele>645</ele>
        <time>2017-10-25T12:49:27Z</time>
      </trkpt>
      <trkpt lat="45.1736" lon="5.85787">
        <ele>646</ele>
        <time>2017-10-25T12:49:29Z</time>
      </trkpt>
      <trkpt lat="45.17356" lon="5.85782">
        <ele>646</ele>
        <time>2017-10-25T12:49:31Z</time>
      </trkpt>
      <trkpt lat="45.17352" lon="5.85779">
        <ele>647</ele>
        <time>2017-10-25T12:49:33Z</time>
      </trkpt>
      <trkpt lat="45.17348" lon="5.85775">
        <ele>647</ele>
        <time>2017-10-25T12:49:35Z</time>
      </trkpt>
      <trkpt lat="45.17342" lon="5.8577">
        <ele>648</ele>
        <time>2017-10-25T12:49:38Z</time>
      </trkpt>
      <trkpt lat="45.17337" lon="5.85765">
        <ele>649</ele>
        <time>2017-10-25T12:49:41Z</time>
      </trkpt>
      <trkpt lat="45.17334" lon="5.85761">
        <ele>649</ele>
        <time>2017-10-25T12:49:43Z</time>
      </trkpt>
      <trkpt lat="45.17329" lon="5.85758">
        <ele>650</ele>
        <time>2017-10-25T12:49:45Z</time>
      </trkpt>
      <trkpt lat="45.17325" lon="5.85753">
        <ele>651</ele>
        <time>2017-10-25T12:49:47Z</time>
      </trkpt>
      <trkpt lat="45.17321" lon="5.85749">
        <ele>652</ele>
        <time>2017-10-25T12:49:49Z</time>
      </trkpt>
      <trkpt lat="45.17316" lon="5.85744">
        <ele>652</ele>
        <time>2017-10-25T12:49:51Z</time>
      </trkpt>
      <trkpt lat="45.17313" lon="5.85739">
        <ele>653</ele>
        <time>2017-10-25T12:49:53Z</time>
      </trkpt>
      <trkpt lat="45.1731" lon="5.85733">
        <ele>653</ele>
        <time>2017-10-25T12:49:55Z</time>
      </trkpt>
      <trkpt lat="45.17307" lon="5.85727">
        <ele>654</ele>
        <time>2017-10-25T12:49:57Z</time>
      </trkpt>
      <trkpt lat="45.17305" lon="5.85721">
        <ele>654</ele>
        <time>2017-10-25T12:49:59Z</time>
      </trkpt>
      <trkpt lat="45.17302" lon="5.85715">
        <ele>654</ele>
        <time>2017-10-25T12:50:01Z</time>
      </trkpt>
      <trkpt lat="45.17299" lon="5.85708">
        <ele>655</ele>
        <time>2017-10-25T12:50:03Z</time>
      </trkpt>
      <trkpt lat="45.17296" lon="5.85703">
        <ele>655</ele>
        <time>2017-10-25T12:50:05Z</time>
      </trkpt>
      <trkpt lat="45.17292" lon="5.85699">
        <ele>656</ele>
        <time>2017-10-25T12:50:07Z</time>
      </trkpt>
      <trkpt lat="45.17285" lon="5.85698">
        <ele>657</ele>
        <time>2017-10-25T12:50:10Z</time>
      </trkpt>
      <trkpt lat="45.1728" lon="5.85699">
        <ele>659</ele>
        <time>2017-10-25T12:50:12Z</time>
      </trkpt>
      <trkpt lat="45.17276" lon="5.85701">
        <ele>660</ele>
        <time>2017-10-25T12:50:14Z</time>
      </trkpt>
      <trkpt lat="45.17272" lon="5.85709">
        <ele>661</ele>
        <time>2017-10-25T12:50:17Z</time>
      </trkpt>
      <trkpt lat="45.17271" lon="5.85716">
        <ele>662</ele>
        <time>2017-10-25T12:50:19Z</time>
      </trkpt>
      <trkpt lat="45.1727" lon="5.85723">
        <ele>663</ele>
        <time>2017-10-25T12:50:21Z</time>
      </trkpt>
      <trkpt lat="45.1727" lon="5.8573">
        <ele>663</ele>
        <time>2017-10-25T12:50:23Z</time>
      </trkpt>
      <trkpt lat="45.17271" lon="5.85737">
        <ele>663</ele>
        <time>2017-10-25T12:50:25Z</time>
      </trkpt>
      <trkpt lat="45.17273" lon="5.85744">
        <ele>663</ele>
        <time>2017-10-25T12:50:27Z</time>
      </trkpt>
      <trkpt lat="45.17275" lon="5.85751">
        <ele>663</ele>
        <time>2017-10-25T12:50:29Z</time>
      </trkpt>
      <trkpt lat="45.17276" lon="5.85757">
        <ele>663</ele>
        <time>2017-10-25T12:50:31Z</time>
      </trkpt>
      <trkpt lat="45.17278" lon="5.85766">
        <ele>663</ele>
        <time>2017-10-25T12:50:34Z</time>
      </trkpt>
      <trkpt lat="45.17282" lon="5.85777">
        <ele>662</ele>
        <time>2017-10-25T12:50:38Z</time>
      </trkpt>
      <trkpt lat="45.17284" lon="5.85784">
        <ele>662</ele>
        <time>2017-10-25T12:50:40Z</time>
      </trkpt>
      <trkpt lat="45.17285" lon="5.85791">
        <ele>662</ele>
        <time>2017-10-25T12:50:42Z</time>
      </trkpt>
      <trkpt lat="45.17285" lon="5.85797">
        <ele>663</ele>
        <time>2017-10-25T12:50:44Z</time>
      </trkpt>
      <trkpt lat="45.17286" lon="5.85807">
        <ele>663</ele>
        <time>2017-10-25T12:50:47Z</time>
      </trkpt>
      <trkpt lat="45.17286" lon="5.85816">
        <ele>664</ele>
        <time>2017-10-25T12:50:50Z</time>
      </trkpt>
      <trkpt lat="45.17286" lon="5.85822">
        <ele>664</ele>
        <time>2017-10-25T12:50:53Z</time>
      </trkpt>
      <trkpt lat="45.17287" lon="5.85831">
        <ele>665</ele>
        <time>2017-10-25T12:50:56Z</time>
      </trkpt>
      <trkpt lat="45.17287" lon="5.85838">
        <ele>665</ele>
        <time>2017-10-25T12:50:58Z</time>
      </trkpt>
      <trkpt lat="45.17288" lon="5.85846">
        <ele>666</ele>
        <time>2017-10-25T12:51:00Z</time>
      </trkpt>
      <trkpt lat="45.1729" lon="5.85854">
        <ele>666</ele>
        <time>2017-10-25T12:51:02Z</time>
      </trkpt>
      <trkpt lat="45.17292" lon="5.85862">
        <ele>665</ele>
        <time>2017-10-25T12:51:04Z</time>
      </trkpt>
      <trkpt lat="45.17294" lon="5.85869">
        <ele>665</ele>
        <time>2017-10-25T12:51:06Z</time>
      </trkpt>
      <trkpt lat="45.17296" lon="5.85875">
        <ele>665</ele>
        <time>2017-10-25T12:51:08Z</time>
      </trkpt>
      <trkpt lat="45.17297" lon="5.85882">
        <ele>665</ele>
        <time>2017-10-25T12:51:10Z</time>
      </trkpt>
      <trkpt lat="45.173" lon="5.85891">
        <ele>665</ele>
        <time>2017-10-25T12:51:13Z</time>
      </trkpt>
      <trkpt lat="45.173" lon="5.85899">
        <ele>666</ele>
        <time>2017-10-25T12:51:16Z</time>
      </trkpt>
      <trkpt lat="45.17299" lon="5.85908">
        <ele>666</ele>
        <time>2017-10-25T12:51:19Z</time>
      </trkpt>
      <trkpt lat="45.17298" lon="5.85916">
        <ele>667</ele>
        <time>2017-10-25T12:51:22Z</time>
      </trkpt>
      <trkpt lat="45.17296" lon="5.85925">
        <ele>668</ele>
        <time>2017-10-25T12:51:25Z</time>
      </trkpt>
      <trkpt lat="45.17292" lon="5.85931">
        <ele>670</ele>
        <time>2017-10-25T12:51:28Z</time>
      </trkpt>
      <trkpt lat="45.17285" lon="5.85933">
        <ele>672</ele>
        <time>2017-10-25T12:51:31Z</time>
      </trkpt>
      <trkpt lat="45.17279" lon="5.85931">
        <ele>673</ele>
        <time>2017-10-25T12:51:34Z</time>
      </trkpt>
      <trkpt lat="45.17273" lon="5.85927">
        <ele>675</ele>
        <time>2017-10-25T12:51:37Z</time>
      </trkpt>
      <trkpt lat="45.1727" lon="5.85922">
        <ele>675</ele>
        <time>2017-10-25T12:51:39Z</time>
      </trkpt>
      <trkpt lat="45.17268" lon="5.85913">
        <ele>675</ele>
        <time>2017-10-25T12:51:42Z</time>
      </trkpt>
      <trkpt lat="45.17266" lon="5.85905">
        <ele>675</ele>
        <time>2017-10-25T12:51:45Z</time>
      </trkpt>
      <trkpt lat="45.17265" lon="5.85895">
        <ele>675</ele>
        <time>2017-10-25T12:51:48Z</time>
      </trkpt>
      <trkpt lat="45.17264" lon="5.85889">
        <ele>675</ele>
        <time>2017-10-25T12:51:50Z</time>
      </trkpt>
      <trkpt lat="45.17262" lon="5.85879">
        <ele>675</ele>
        <time>2017-10-25T12:51:53Z</time>
      </trkpt>
      <trkpt lat="45.17259" lon="5.85873">
        <ele>675</ele>
        <time>2017-10-25T12:51:55Z</time>
      </trkpt>
      <trkpt lat="45.17254" lon="5.85867">
        <ele>676</ele>
        <time>2017-10-25T12:51:58Z</time>
      </trkpt>
      <trkpt lat="45.17249" lon="5.85861">
        <ele>677</ele>
        <time>2017-10-25T12:52:01Z</time>
      </trkpt>
      <trkpt lat="45.17246" lon="5.85856">
        <ele>678</ele>
        <time>2017-10-25T12:52:03Z</time>
      </trkpt>
      <trkpt lat="45.17242" lon="5.85851">
        <ele>678</ele>
        <time>2017-10-25T12:52:05Z</time>
      </trkpt>
      <trkpt lat="45.1724" lon="5.85846">
        <ele>678</ele>
        <time>2017-10-25T12:52:07Z</time>
      </trkpt>
      <trkpt lat="45.17237" lon="5.8584">
        <ele>678</ele>
        <time>2017-10-25T12:52:09Z</time>
      </trkpt>
      <trkpt lat="45.17233" lon="5.85835">
        <ele>679</ele>
        <time>2017-10-25T12:52:11Z</time>
      </trkpt>
      <trkpt lat="45.1723" lon="5.85832">
        <ele>680</ele>
        <time>2017-10-25T12:52:13Z</time>
      </trkpt>
      <trkpt lat="45.17225" lon="5.85826">
        <ele>681</ele>
        <time>2017-10-25T12:52:16Z</time>
      </trkpt>
      <trkpt lat="45.17219" lon="5.85821">
        <ele>682</ele>
        <time>2017-10-25T12:52:19Z</time>
      </trkpt>
      <trkpt lat="45.17215" lon="5.85815">
        <ele>683</ele>
        <time>2017-10-25T12:52:22Z</time>
      </trkpt>
      <trkpt lat="45.17212" lon="5.85808">
        <ele>683</ele>
        <time>2017-10-25T12:52:25Z</time>
      </trkpt>
      <trkpt lat="45.17208" lon="5.85802">
        <ele>684</ele>
        <time>2017-10-25T12:52:28Z</time>
      </trkpt>
      <trkpt lat="45.17205" lon="5.85796">
        <ele>684</ele>
        <time>2017-10-25T12:52:30Z</time>
      </trkpt>
      <trkpt lat="45.17202" lon="5.85791">
        <ele>685</ele>
        <time>2017-10-25T12:52:32Z</time>
      </trkpt>
      <trkpt lat="45.17199" lon="5.85786">
        <ele>685</ele>
        <time>2017-10-25T12:52:34Z</time>
      </trkpt>
      <trkpt lat="45.17195" lon="5.85778">
        <ele>686</ele>
        <time>2017-10-25T12:52:37Z</time>
      </trkpt>
      <trkpt lat="45.17193" lon="5.85771">
        <ele>686</ele>
        <time>2017-10-25T12:52:39Z</time>
      </trkpt>
      <trkpt lat="45.17191" lon="5.85763">
        <ele>686</ele>
        <time>2017-10-25T12:52:41Z</time>
      </trkpt>
      <trkpt lat="45.17188" lon="5.85756">
        <ele>686</ele>
        <time>2017-10-25T12:52:43Z</time>
      </trkpt>
      <trkpt lat="45.17184" lon="5.85751">
        <ele>687</ele>
        <time>2017-10-25T12:52:45Z</time>
      </trkpt>
      <trkpt lat="45.1718" lon="5.85745">
        <ele>688</ele>
        <time>2017-10-25T12:52:48Z</time>
      </trkpt>
      <trkpt lat="45.17174" lon="5.85741">
        <ele>689</ele>
        <time>2017-10-25T12:52:51Z</time>
      </trkpt>
      <trkpt lat="45.17169" lon="5.85736">
        <ele>690</ele>
        <time>2017-10-25T12:52:54Z</time>
      </trkpt>
      <trkpt lat="45.17165" lon="5.85733">
        <ele>691</ele>
        <time>2017-10-25T12:52:56Z</time>
      </trkpt>
      <trkpt lat="45.17162" lon="5.85728">
        <ele>692</ele>
        <time>2017-10-25T12:52:58Z</time>
      </trkpt>
      <trkpt lat="45.17157" lon="5.85722">
        <ele>693</ele>
        <time>2017-10-25T12:53:01Z</time>
      </trkpt>
      <trkpt lat="45.17152" lon="5.85717">
        <ele>694</ele>
        <time>2017-10-25T12:53:04Z</time>
      </trkpt>
      <trkpt lat="45.17148" lon="5.85712">
        <ele>694</ele>
        <time>2017-10-25T12:53:06Z</time>
      </trkpt>
      <trkpt lat="45.17144" lon="5.85708">
        <ele>695</ele>
        <time>2017-10-25T12:53:08Z</time>
      </trkpt>
      <trkpt lat="45.17139" lon="5.85703">
        <ele>696</ele>
        <time>2017-10-25T12:53:10Z</time>
      </trkpt>
      <trkpt lat="45.17135" lon="5.85698">
        <ele>697</ele>
        <time>2017-10-25T12:53:13Z</time>
      </trkpt>
      <trkpt lat="45.1713" lon="5.85693">
        <ele>697</ele>
        <time>2017-10-25T12:53:16Z</time>
      </trkpt>
      <trkpt lat="45.17127" lon="5.85688">
        <ele>698</ele>
        <time>2017-10-25T12:53:19Z</time>
      </trkpt>
      <trkpt lat="45.17122" lon="5.85683">
        <ele>699</ele>
        <time>2017-10-25T12:53:22Z</time>
      </trkpt>
      <trkpt lat="45.17119" lon="5.85676">
        <ele>699</ele>
        <time>2017-10-25T12:53:25Z</time>
      </trkpt>
      <trkpt lat="45.17116" lon="5.85668">
        <ele>699</ele>
        <time>2017-10-25T12:53:28Z</time>
      </trkpt>
      <trkpt lat="45.17112" lon="5.85664">
        <ele>700</ele>
        <time>2017-10-25T12:53:31Z</time>
      </trkpt>
      <trkpt lat="45.17108" lon="5.85657">
        <ele>700</ele>
        <time>2017-10-25T12:53:34Z</time>
      </trkpt>
      <trkpt lat="45.17107" lon="5.85651">
        <ele>700</ele>
        <time>2017-10-25T12:53:36Z</time>
      </trkpt>
      <trkpt lat="45.17105" lon="5.85643">
        <ele>700</ele>
        <time>2017-10-25T12:53:39Z</time>
      </trkpt>
      <trkpt lat="45.17102" lon="5.85637">
        <ele>700</ele>
        <time>2017-10-25T12:53:42Z</time>
      </trkpt>
      <trkpt lat="45.17101" lon="5.85629">
        <ele>700</ele>
        <time>2017-10-25T12:53:45Z</time>
      </trkpt>
      <trkpt lat="45.17099" lon="5.85622">
        <ele>700</ele>
        <time>2017-10-25T12:53:47Z</time>
      </trkpt>
      <trkpt lat="45.17096" lon="5.85616">
        <ele>700</ele>
        <time>2017-10-25T12:53:49Z</time>
      </trkpt>
      <trkpt lat="45.17092" lon="5.85609">
        <ele>701</ele>
        <time>2017-10-25T12:53:52Z</time>
      </trkpt>
      <trkpt lat="45.1709" lon="5.85603">
        <ele>701</ele>
        <time>2017-10-25T12:53:54Z</time>
      </trkpt>
      <trkpt lat="45.17086" lon="5.85591">
        <ele>702</ele>
        <time>2017-10-25T12:53:58Z</time>
      </trkpt>
      <trkpt lat="45.17081" lon="5.85586">
        <ele>703</ele>
        <time>2017-10-25T12:54:01Z</time>
      </trkpt>
      <trkpt lat="45.17078" lon="5.85579">
        <ele>703</ele>
        <time>2017-10-25T12:54:04Z</time>
      </trkpt>
      <trkpt lat="45.17075" lon="5.85573">
        <ele>704</ele>
        <time>2017-10-25T12:54:07Z</time>
      </trkpt>
      <trkpt lat="45.17073" lon="5.85566">
        <ele>704</ele>
        <time>2017-10-25T12:54:10Z</time>
      </trkpt>
      <trkpt lat="45.17072" lon="5.85559">
        <ele>704</ele>
        <time>2017-10-25T12:54:13Z</time>
      </trkpt>
      <trkpt lat="45.17068" lon="5.85553">
        <ele>705</ele>
        <time>2017-10-25T12:54:16Z</time>
      </trkpt>
      <trkpt lat="45.17064" lon="5.85549">
        <ele>706</ele>
        <time>2017-10-25T12:54:19Z</time>
      </trkpt>
      <trkpt lat="45.17061" lon="5.85541">
        <ele>706</ele>
        <time>2017-10-25T12:54:22Z</time>
      </trkpt>
      <trkpt lat="45.17059" lon="5.85534">
        <ele>706</ele>
        <time>2017-10-25T12:54:24Z</time>
      </trkpt>
      <trkpt lat="45.17058" lon="5.85525">
        <ele>706</ele>
        <time>2017-10-25T12:54:26Z</time>
      </trkpt>
      <trkpt lat="45.17056" lon="5.85518">
        <ele>706</ele>
        <time>2017-10-25T12:54:28Z</time>
      </trkpt>
      <trkpt lat="45.17053" lon="5.85511">
        <ele>707</ele>
        <time>2017-10-25T12:54:30Z</time>
      </trkpt>
      <trkpt lat="45.17049" lon="5.85504">
        <ele>707</ele>
        <time>2017-10-25T12:54:33Z</time>
      </trkpt>
      <trkpt lat="45.17048" lon="5.85497">
        <ele>707</ele>
        <time>2017-10-25T12:54:35Z</time>
      </trkpt>
      <trkpt lat="45.17046" lon="5.85491">
        <ele>707</ele>
        <time>2017-10-25T12:54:37Z</time>
      </trkpt>
      <trkpt lat="45.17044" lon="5.85482">
        <ele>707</ele>
        <time>2017-10-25T12:54:40Z</time>
      </trkpt>
      <trkpt lat="45.17043" lon="5.85473">
        <ele>707</ele>
        <time>2017-10-25T12:54:43Z</time>
      </trkpt>
      <trkpt lat="45.17041" lon="5.85465">
        <ele>707</ele>
        <time>2017-10-25T12:54:46Z</time>
      </trkpt>
      <trkpt lat="45.17039" lon="5.85457">
        <ele>707</ele>
        <time>2017-10-25T12:54:49Z</time>
      </trkpt>
      <trkpt lat="45.17038" lon="5.85451">
        <ele>707</ele>
        <time>2017-10-25T12:54:51Z</time>
      </trkpt>
      <trkpt lat="45.17037" lon="5.85443">
        <ele>707</ele>
        <time>2017-10-25T12:54:54Z</time>
      </trkpt>
      <trkpt lat="45.17034" lon="5.85435">
        <ele>707</ele>
        <time>2017-10-25T12:54:58Z</time>
      </trkpt>
      <trkpt lat="45.17032" lon="5.85426">
        <ele>707</ele>
        <time>2017-10-25T12:55:02Z</time>
      </trkpt>
      <trkpt lat="45.17031" lon="5.8542">
        <ele>707</ele>
        <time>2017-10-25T12:55:04Z</time>
      </trkpt>
      <trkpt lat="45.1703" lon="5.85413">
        <ele>707</ele>
        <time>2017-10-25T12:55:06Z</time>
      </trkpt>
      <trkpt lat="45.17027" lon="5.85406">
        <ele>707</ele>
        <time>2017-10-25T12:55:09Z</time>
      </trkpt>
      <trkpt lat="45.17022" lon="5.85399">
        <ele>709</ele>
        <time>2017-10-25T12:55:12Z</time>
      </trkpt>
      <trkpt lat="45.1702" lon="5.85391">
        <ele>709</ele>
        <time>2017-10-25T12:55:15Z</time>
      </trkpt>
      <trkpt lat="45.17019" lon="5.85385">
        <ele>709</ele>
        <time>2017-10-25T12:55:17Z</time>
      </trkpt>
      <trkpt lat="45.17015" lon="5.85378">
        <ele>710</ele>
        <time>2017-10-25T12:55:20Z</time>
      </trkpt>
      <trkpt lat="45.17011" lon="5.85372">
        <ele>711</ele>
        <time>2017-10-25T12:55:23Z</time>
      </trkpt>
      <trkpt lat="45.17007" lon="5.85366">
        <ele>712</ele>
        <time>2017-10-25T12:55:26Z</time>
      </trkpt>
      <trkpt lat="45.17004" lon="5.85361">
        <ele>712</ele>
        <time>2017-10-25T12:55:29Z</time>
      </trkpt>
      <trkpt lat="45.17" lon="5.85354">
        <ele>713</ele>
        <time>2017-10-25T12:55:32Z</time>
      </trkpt>
      <trkpt lat="45.16995" lon="5.85349">
        <ele>714</ele>
        <time>2017-10-25T12:55:35Z</time>
      </trkpt>
      <trkpt lat="45.1699" lon="5.85345">
        <ele>716</ele>
        <time>2017-10-25T12:55:38Z</time>
      </trkpt>
      <trkpt lat="45.16986" lon="5.85341">
        <ele>717</ele>
        <time>2017-10-25T12:55:41Z</time>
      </trkpt>
      <trkpt lat="45.16982" lon="5.85336">
        <ele>718</ele>
        <time>2017-10-25T12:55:44Z</time>
      </trkpt>
      <trkpt lat="45.16977" lon="5.8533">
        <ele>719</ele>
        <time>2017-10-25T12:55:47Z</time>
      </trkpt>
      <trkpt lat="45.16974" lon="5.85323">
        <ele>720</ele>
        <time>2017-10-25T12:55:50Z</time>
      </trkpt>
      <trkpt lat="45.16971" lon="5.85315">
        <ele>721</ele>
        <time>2017-10-25T12:55:53Z</time>
      </trkpt>
      <trkpt lat="45.16968" lon="5.85308">
        <ele>721</ele>
        <time>2017-10-25T12:55:56Z</time>
      </trkpt>
      <trkpt lat="45.16965" lon="5.853">
        <ele>722</ele>
        <time>2017-10-25T12:55:59Z</time>
      </trkpt>
      <trkpt lat="45.16962" lon="5.85292">
        <ele>723</ele>
        <time>2017-10-25T12:56:02Z</time>
      </trkpt>
      <trkpt lat="45.1696" lon="5.85286">
        <ele>724</ele>
        <time>2017-10-25T12:56:04Z</time>
      </trkpt>
      <trkpt lat="45.16959" lon="5.85279">
        <ele>724</ele>
        <time>2017-10-25T12:56:06Z</time>
      </trkpt>
      <trkpt lat="45.16958" lon="5.85272">
        <ele>724</ele>
        <time>2017-10-25T12:56:08Z</time>
      </trkpt>
      <trkpt lat="45.16957" lon="5.85265">
        <ele>725</ele>
        <time>2017-10-25T12:56:10Z</time>
      </trkpt>
      <trkpt lat="45.16956" lon="5.85258">
        <ele>725</ele>
        <time>2017-10-25T12:56:12Z</time>
      </trkpt>
      <trkpt lat="45.16955" lon="5.85251">
        <ele>725</ele>
        <time>2017-10-25T12:56:14Z</time>
      </trkpt>
      <trkpt lat="45.16954" lon="5.85244">
        <ele>726</ele>
        <time>2017-10-25T12:56:16Z</time>
      </trkpt>
      <trkpt lat="45.16954" lon="5.85236">
        <ele>726</ele>
        <time>2017-10-25T12:56:18Z</time>
      </trkpt>
      <trkpt lat="45.16954" lon="5.8523">
        <ele>726</ele>
        <time>2017-10-25T12:56:20Z</time>
      </trkpt>
      <trkpt lat="45.16954" lon="5.85221">
        <ele>726</ele>
        <time>2017-10-25T12:56:23Z</time>
      </trkpt>
      <trkpt lat="45.16956" lon="5.85212">
        <ele>726</ele>
        <time>2017-10-25T12:56:26Z</time>
      </trkpt>
      <trkpt lat="45.16956" lon="5.85204">
        <ele>726</ele>
        <time>2017-10-25T12:56:29Z</time>
      </trkpt>
      <trkpt lat="45.16958" lon="5.85195">
        <ele>726</ele>
        <time>2017-10-25T12:56:32Z</time>
      </trkpt>
      <trkpt lat="45.16959" lon="5.85187">
        <ele>726</ele>
        <time>2017-10-25T12:56:35Z</time>
      </trkpt>
      <trkpt lat="45.1696" lon="5.85179">
        <ele>726</ele>
        <time>2017-10-25T12:56:38Z</time>
      </trkpt>
      <trkpt lat="45.16961" lon="5.85172">
        <ele>727</ele>
        <time>2017-10-25T12:56:41Z</time>
      </trkpt>
      <trkpt lat="45.16962" lon="5.85165">
        <ele>727</ele>
        <time>2017-10-25T12:56:44Z</time>
      </trkpt>
      <trkpt lat="45.16963" lon="5.85156">
        <ele>727</ele>
        <time>2017-10-25T12:56:48Z</time>
      </trkpt>
      <trkpt lat="45.16965" lon="5.85149">
        <ele>727</ele>
        <time>2017-10-25T12:56:51Z</time>
      </trkpt>
      <trkpt lat="45.1697" lon="5.85143">
        <ele>727</ele>
        <time>2017-10-25T12:56:54Z</time>
      </trkpt>
      <trkpt lat="45.16976" lon="5.8514">
        <ele>726</ele>
        <time>2017-10-25T12:56:57Z</time>
      </trkpt>
      <trkpt lat="45.16981" lon="5.85139">
        <ele>725</ele>
        <time>2017-10-25T12:56:59Z</time>
      </trkpt>
      <trkpt lat="45.16986" lon="5.85139">
        <ele>724</ele>
        <time>2017-10-25T12:57:01Z</time>
      </trkpt>
      <trkpt lat="45.16991" lon="5.85137">
        <ele>723</ele>
        <time>2017-10-25T12:57:03Z</time>
      </trkpt>
      <trkpt lat="45.16995" lon="5.85138">
        <ele>722</ele>
        <time>2017-10-25T12:57:05Z</time>
      </trkpt>
      <trkpt lat="45.17002" lon="5.85139">
        <ele>720</ele>
        <time>2017-10-25T12:57:08Z</time>
      </trkpt>
      <trkpt lat="45.17008" lon="5.8514">
        <ele>719</ele>
        <time>2017-10-25T12:57:11Z</time>
      </trkpt>
      <trkpt lat="45.17013" lon="5.8514">
        <ele>717</ele>
        <time>2017-10-25T12:57:14Z</time>
      </trkpt>
      <trkpt lat="45.17019" lon="5.8514">
        <ele>716</ele>
        <time>2017-10-25T12:57:18Z</time>
      </trkpt>
      <trkpt lat="45.17026" lon="5.8514">
        <ele>714</ele>
        <time>2017-10-25T12:57:21Z</time>
      </trkpt>
      <trkpt lat="45.1703" lon="5.85139">
        <ele>714</ele>
        <time>2017-10-25T12:57:23Z</time>
      </trkpt>
      <trkpt lat="45.17035" lon="5.85137">
        <ele>714</ele>
        <time>2017-10-25T12:57:25Z</time>
      </trkpt>
      <trkpt lat="45.1704" lon="5.85136">
        <ele>714</ele>
        <time>2017-10-25T12:57:27Z</time>
      </trkpt>
      <trkpt lat="45.17045" lon="5.85134">
        <ele>714</ele>
        <time>2017-10-25T12:57:29Z</time>
      </trkpt>
      <trkpt lat="45.17051" lon="5.85132">
        <ele>714</ele>
        <time>2017-10-25T12:57:31Z</time>
      </trkpt>
      <trkpt lat="45.17056" lon="5.8513">
        <ele>714</ele>
        <time>2017-10-25T12:57:33Z</time>
      </trkpt>
      <trkpt lat="45.17062" lon="5.85128">
        <ele>713</ele>
        <time>2017-10-25T12:57:35Z</time>
      </trkpt>
      <trkpt lat="45.17069" lon="5.85126">
        <ele>713</ele>
        <time>2017-10-25T12:57:37Z</time>
      </trkpt>
      <trkpt lat="45.17075" lon="5.85124">
        <ele>713</ele>
        <time>2017-10-25T12:57:39Z</time>
      </trkpt>
      <trkpt lat="45.17081" lon="5.85122">
        <ele>713</ele>
        <time>2017-10-25T12:57:41Z</time>
      </trkpt>
      <trkpt lat="45.17087" lon="5.85118">
        <ele>714</ele>
        <time>2017-10-25T12:57:43Z</time>
      </trkpt>
      <trkpt lat="45.17093" lon="5.85115">
        <ele>714</ele>
        <time>2017-10-25T12:57:45Z</time>
      </trkpt>
      <trkpt lat="45.17098" lon="5.85112">
        <ele>714</ele>
        <time>2017-10-25T12:57:47Z</time>
      </trkpt>
      <trkpt lat="45.17103" lon="5.85108">
        <ele>715</ele>
        <time>2017-10-25T12:57:49Z</time>
      </trkpt>
      <trkpt lat="45.17109" lon="5.85105">
        <ele>715</ele>
        <time>2017-10-25T12:57:51Z</time>
      </trkpt>
      <trkpt lat="45.17114" lon="5.85102">
        <ele>716</ele>
        <time>2017-10-25T12:57:53Z</time>
      </trkpt>
      <trkpt lat="45.1712" lon="5.85099">
        <ele>716</ele>
        <time>2017-10-25T12:57:55Z</time>
      </trkpt>
      <trkpt lat="45.17125" lon="5.85096">
        <ele>717</ele>
        <time>2017-10-25T12:57:57Z</time>
      </trkpt>
      <trkpt lat="45.17131" lon="5.85093">
        <ele>717</ele>
        <time>2017-10-25T12:57:59Z</time>
      </trkpt>
      <trkpt lat="45.17135" lon="5.8509">
        <ele>717</ele>
        <time>2017-10-25T12:58:01Z</time>
      </trkpt>
      <trkpt lat="45.17141" lon="5.85086">
        <ele>718</ele>
        <time>2017-10-25T12:58:03Z</time>
      </trkpt>
      <trkpt lat="45.17146" lon="5.85083">
        <ele>718</ele>
        <time>2017-10-25T12:58:05Z</time>
      </trkpt>
      <trkpt lat="45.17151" lon="5.85079">
        <ele>719</ele>
        <time>2017-10-25T12:58:07Z</time>
      </trkpt>
      <trkpt lat="45.17156" lon="5.85075">
        <ele>719</ele>
        <time>2017-10-25T12:58:09Z</time>
      </trkpt>
      <trkpt lat="45.1716" lon="5.8507">
        <ele>720</ele>
        <time>2017-10-25T12:58:11Z</time>
      </trkpt>
      <trkpt lat="45.17163" lon="5.85064">
        <ele>721</ele>
        <time>2017-10-25T12:58:13Z</time>
      </trkpt>
      <trkpt lat="45.17166" lon="5.85055">
        <ele>723</ele>
        <time>2017-10-25T12:58:15Z</time>
      </trkpt>
      <trkpt lat="45.17168" lon="5.85047">
        <ele>725</ele>
        <time>2017-10-25T12:58:17Z</time>
      </trkpt>
      <trkpt lat="45.1717" lon="5.85039">
        <ele>726</ele>
        <time>2017-10-25T12:58:19Z</time>
      </trkpt>
      <trkpt lat="45.17171" lon="5.85031">
        <ele>728</ele>
        <time>2017-10-25T12:58:21Z</time>
      </trkpt>
      <trkpt lat="45.17172" lon="5.85024">
        <ele>729</ele>
        <time>2017-10-25T12:58:23Z</time>
      </trkpt>
      <trkpt lat="45.17172" lon="5.85015">
        <ele>730</ele>
        <time>2017-10-25T12:58:26Z</time>
      </trkpt>
      <trkpt lat="45.17172" lon="5.85007">
        <ele>732</ele>
        <time>2017-10-25T12:58:28Z</time>
      </trkpt>
      <trkpt lat="45.1717" lon="5.84999">
        <ele>733</ele>
        <time>2017-10-25T12:58:30Z</time>
      </trkpt>
      <trkpt lat="45.17169" lon="5.84992">
        <ele>734</ele>
        <time>2017-10-25T12:58:32Z</time>
      </trkpt>
      <trkpt lat="45.17167" lon="5.84984">
        <ele>735</ele>
        <time>2017-10-25T12:58:34Z</time>
      </trkpt>
      <trkpt lat="45.17166" lon="5.84976">
        <ele>737</ele>
        <time>2017-10-25T12:58:36Z</time>
      </trkpt>
      <trkpt lat="45.17166" lon="5.84968">
        <ele>738</ele>
        <time>2017-10-25T12:58:38Z</time>
      </trkpt>
      <trkpt lat="45.17165" lon="5.8496">
        <ele>739</ele>
        <time>2017-10-25T12:58:40Z</time>
      </trkpt>
      <trkpt lat="45.17165" lon="5.84951">
        <ele>740</ele>
        <time>2017-10-25T12:58:42Z</time>
      </trkpt>
      <trkpt lat="45.17165" lon="5.84941">
        <ele>741</ele>
        <time>2017-10-25T12:58:44Z</time>
      </trkpt>
      <trkpt lat="45.17165" lon="5.84933">
        <ele>741</ele>
        <time>2017-10-25T12:58:46Z</time>
      </trkpt>
      <trkpt lat="45.17164" lon="5.84924">
        <ele>742</ele>
        <time>2017-10-25T12:58:49Z</time>
      </trkpt>
      <trkpt lat="45.17163" lon="5.84918">
        <ele>743</ele>
        <time>2017-10-25T12:58:51Z</time>
      </trkpt>
      <trkpt lat="45.17164" lon="5.84911">
        <ele>743</ele>
        <time>2017-10-25T12:58:53Z</time>
      </trkpt>
      <trkpt lat="45.17164" lon="5.84902">
        <ele>744</ele>
        <time>2017-10-25T12:58:55Z</time>
      </trkpt>
      <trkpt lat="45.17165" lon="5.84894">
        <ele>745</ele>
        <time>2017-10-25T12:58:57Z</time>
      </trkpt>
      <trkpt lat="45.17165" lon="5.84888">
        <ele>745</ele>
        <time>2017-10-25T12:58:59Z</time>
      </trkpt>
      <trkpt lat="45.17166" lon="5.84881">
        <ele>746</ele>
        <time>2017-10-25T12:59:01Z</time>
      </trkpt>
      <trkpt lat="45.17166" lon="5.84874">
        <ele>746</ele>
        <time>2017-10-25T12:59:03Z</time>
      </trkpt>
      <trkpt lat="45.17165" lon="5.84867">
        <ele>747</ele>
        <time>2017-10-25T12:59:06Z</time>
      </trkpt>
      <trkpt lat="45.17165" lon="5.84859">
        <ele>747</ele>
        <time>2017-10-25T12:59:09Z</time>
      </trkpt>
      <trkpt lat="45.17167" lon="5.84849">
        <ele>747</ele>
        <time>2017-10-25T12:59:12Z</time>
      </trkpt>
      <trkpt lat="45.17167" lon="5.8484">
        <ele>748</ele>
        <time>2017-10-25T12:59:15Z</time>
      </trkpt>
      <trkpt lat="45.17167" lon="5.84833">
        <ele>748</ele>
        <time>2017-10-25T12:59:17Z</time>
      </trkpt>
      <trkpt lat="45.17168" lon="5.84824">
        <ele>749</ele>
        <time>2017-10-25T12:59:19Z</time>
      </trkpt>
      <trkpt lat="45.17168" lon="5.84815">
        <ele>749</ele>
        <time>2017-10-25T12:59:21Z</time>
      </trkpt>
      <trkpt lat="45.1717" lon="5.84807">
        <ele>749</ele>
        <time>2017-10-25T12:59:23Z</time>
      </trkpt>
      <trkpt lat="45.17173" lon="5.84799">
        <ele>750</ele>
        <time>2017-10-25T12:59:25Z</time>
      </trkpt>
      <trkpt lat="45.17176" lon="5.84793">
        <ele>749</ele>
        <time>2017-10-25T12:59:27Z</time>
      </trkpt>
      <trkpt lat="45.1718" lon="5.84785">
        <ele>749</ele>
        <time>2017-10-25T12:59:30Z</time>
      </trkpt>
      <trkpt lat="45.17184" lon="5.84781">
        <ele>749</ele>
        <time>2017-10-25T12:59:32Z</time>
      </trkpt>
      <trkpt lat="45.17188" lon="5.84776">
        <ele>749</ele>
        <time>2017-10-25T12:59:34Z</time>
      </trkpt>
      <trkpt lat="45.17191" lon="5.84771">
        <ele>749</ele>
        <time>2017-10-25T12:59:36Z</time>
      </trkpt>
      <trkpt lat="45.17195" lon="5.84768">
        <ele>748</ele>
        <time>2017-10-25T12:59:38Z</time>
      </trkpt>
      <trkpt lat="45.17199" lon="5.84764">
        <ele>748</ele>
        <time>2017-10-25T12:59:40Z</time>
      </trkpt>
      <trkpt lat="45.17203" lon="5.8476">
        <ele>748</ele>
        <time>2017-10-25T12:59:42Z</time>
      </trkpt>
      <trkpt lat="45.17206" lon="5.84755">
        <ele>747</ele>
        <time>2017-10-25T12:59:44Z</time>
      </trkpt>
      <trkpt lat="45.17208" lon="5.84749">
        <ele>748</ele>
        <time>2017-10-25T12:59:46Z</time>
      </trkpt>
      <trkpt lat="45.17209" lon="5.84742">
        <ele>748</ele>
        <time>2017-10-25T12:59:48Z</time>
      </trkpt>
      <trkpt lat="45.17209" lon="5.84735">
        <ele>748</ele>
        <time>2017-10-25T12:59:50Z</time>
      </trkpt>
      <trkpt lat="45.17209" lon="5.84728">
        <ele>748</ele>
        <time>2017-10-25T12:59:52Z</time>
      </trkpt>
      <trkpt lat="45.17207" lon="5.84719">
        <ele>749</ele>
        <time>2017-10-25T12:59:55Z</time>
      </trkpt>
      <trkpt lat="45.17203" lon="5.84712">
        <ele>749</ele>
        <time>2017-10-25T12:59:58Z</time>
      </trkpt>
      <trkpt lat="45.17198" lon="5.84705">
        <ele>750</ele>
        <time>2017-10-25T13:00:01Z</time>
      </trkpt>
      <trkpt lat="45.17194" lon="5.847">
        <ele>751</ele>
        <time>2017-10-25T13:00:03Z</time>
      </trkpt>
      <trkpt lat="45.1719" lon="5.84694">
        <ele>751</ele>
        <time>2017-10-25T13:00:05Z</time>
      </trkpt>
      <trkpt lat="45.17186" lon="5.84687">
        <ele>752</ele>
        <time>2017-10-25T13:00:07Z</time>
      </trkpt>
      <trkpt lat="45.17182" lon="5.84682">
        <ele>753</ele>
        <time>2017-10-25T13:00:09Z</time>
      </trkpt>
      <trkpt lat="45.17179" lon="5.84676">
        <ele>753</ele>
        <time>2017-10-25T13:00:11Z</time>
      </trkpt>
      <trkpt lat="45.17175" lon="5.84671">
        <ele>753</ele>
        <time>2017-10-25T13:00:13Z</time>
      </trkpt>
      <trkpt lat="45.17172" lon="5.84666">
        <ele>753</ele>
        <time>2017-10-25T13:00:15Z</time>
      </trkpt>
      <trkpt lat="45.17168" lon="5.84662">
        <ele>753</ele>
        <time>2017-10-25T13:00:17Z</time>
      </trkpt>
      <trkpt lat="45.17164" lon="5.84658">
        <ele>753</ele>
        <time>2017-10-25T13:00:19Z</time>
      </trkpt>
      <trkpt lat="45.17159" lon="5.84655">
        <ele>753</ele>
        <time>2017-10-25T13:00:21Z</time>
      </trkpt>
      <trkpt lat="45.17155" lon="5.84651">
        <ele>753</ele>
        <time>2017-10-25T13:00:23Z</time>
      </trkpt>
      <trkpt lat="45.17151" lon="5.84647">
        <ele>754</ele>
        <time>2017-10-25T13:00:25Z</time>
      </trkpt>
      <trkpt lat="45.17146" lon="5.84642">
        <ele>754</ele>
        <time>2017-10-25T13:00:27Z</time>
      </trkpt>
      <trkpt lat="45.17143" lon="5.84637">
        <ele>754</ele>
        <time>2017-10-25T13:00:29Z</time>
      </trkpt>
      <trkpt lat="45.17142" lon="5.84627">
        <ele>753</ele>
        <time>2017-10-25T13:01:56Z</time>
      </trkpt>
      <trkpt lat="45.17136" lon="5.84619">
        <ele>754</ele>
        <time>2017-10-25T13:01:58Z</time>
      </trkpt>
      <trkpt lat="45.1713" lon="5.8461">
        <ele>754</ele>
        <time>2017-10-25T13:02:00Z</time>
      </trkpt>
      <trkpt lat="45.17126" lon="5.84604">
        <ele>755</ele>
        <time>2017-10-25T13:02:01Z</time>
      </trkpt>
      <trkpt lat="45.1712" lon="5.84595">
        <ele>755</ele>
        <time>2017-10-25T13:02:02Z</time>
      </trkpt>
      <trkpt lat="45.17117" lon="5.84589">
        <ele>755</ele>
        <time>2017-10-25T13:02:03Z</time>
      </trkpt>
      <trkpt lat="45.17113" lon="5.84583">
        <ele>755</ele>
        <time>2017-10-25T13:02:04Z</time>
      </trkpt>
      <trkpt lat="45.17109" lon="5.84578">
        <ele>755</ele>
        <time>2017-10-25T13:02:05Z</time>
      </trkpt>
      <trkpt lat="45.17103" lon="5.84571">
        <ele>756</ele>
        <time>2017-10-25T13:02:06Z</time>
      </trkpt>
      <trkpt lat="45.17096" lon="5.84563">
        <ele>756</ele>
        <time>2017-10-25T13:02:07Z</time>
      </trkpt>
      <trkpt lat="45.17087" lon="5.84549">
        <ele>756</ele>
        <time>2017-10-25T13:02:09Z</time>
      </trkpt>
      <trkpt lat="45.17084" lon="5.84543">
        <ele>756</ele>
        <time>2017-10-25T13:02:10Z</time>
      </trkpt>
      <trkpt lat="45.17076" lon="5.84535">
        <ele>757</ele>
        <time>2017-10-25T13:02:11Z</time>
      </trkpt>
      <trkpt lat="45.17072" lon="5.84527">
        <ele>757</ele>
        <time>2017-10-25T13:02:12Z</time>
      </trkpt>
      <trkpt lat="45.17065" lon="5.84525">
        <ele>758</ele>
        <time>2017-10-25T13:02:13Z</time>
      </trkpt>
      <trkpt lat="45.17062" lon="5.84514">
        <ele>757</ele>
        <time>2017-10-25T13:02:14Z</time>
      </trkpt>
      <trkpt lat="45.17057" lon="5.84509">
        <ele>757</ele>
        <time>2017-10-25T13:02:15Z</time>
      </trkpt>
      <trkpt lat="45.17057" lon="5.84497">
        <ele>756</ele>
        <time>2017-10-25T13:02:16Z</time>
      </trkpt>
      <trkpt lat="45.17054" lon="5.84489">
        <ele>755</ele>
        <time>2017-10-25T13:02:17Z</time>
      </trkpt>
      <trkpt lat="45.1705" lon="5.8448">
        <ele>755</ele>
        <time>2017-10-25T13:02:18Z</time>
      </trkpt>
      <trkpt lat="45.17043" lon="5.84471">
        <ele>755</ele>
        <time>2017-10-25T13:02:19Z</time>
      </trkpt>
      <trkpt lat="45.17041" lon="5.84463">
        <ele>754</ele>
        <time>2017-10-25T13:02:20Z</time>
      </trkpt>
      <trkpt lat="45.17038" lon="5.84458">
        <ele>754</ele>
        <time>2017-10-25T13:02:21Z</time>
      </trkpt>
      <trkpt lat="45.1703" lon="5.8444">
        <ele>752</ele>
        <time>2017-10-25T13:02:23Z</time>
      </trkpt>
      <trkpt lat="45.17025" lon="5.84432">
        <ele>752</ele>
        <time>2017-10-25T13:02:24Z</time>
      </trkpt>
      <trkpt lat="45.17023" lon="5.84423">
        <ele>751</ele>
        <time>2017-10-25T13:02:25Z</time>
      </trkpt>
      <trkpt lat="45.1702" lon="5.84415">
        <ele>750</ele>
        <time>2017-10-25T13:02:26Z</time>
      </trkpt>
      <trkpt lat="45.17017" lon="5.84406">
        <ele>749</ele>
        <time>2017-10-25T13:02:27Z</time>
      </trkpt>
      <trkpt lat="45.1701" lon="5.84391">
        <ele>749</ele>
        <time>2017-10-25T13:02:29Z</time>
      </trkpt>
      <trkpt lat="45.17004" lon="5.84373">
        <ele>747</ele>
        <time>2017-10-25T13:02:31Z</time>
      </trkpt>
      <trkpt lat="45.17" lon="5.84365">
        <ele>747</ele>
        <time>2017-10-25T13:02:32Z</time>
      </trkpt>
      <trkpt lat="45.16997" lon="5.84358">
        <ele>747</ele>
        <time>2017-10-25T13:02:33Z</time>
      </trkpt>
      <trkpt lat="45.16994" lon="5.84351">
        <ele>746</ele>
        <time>2017-10-25T13:02:34Z</time>
      </trkpt>
      <trkpt lat="45.16991" lon="5.84345">
        <ele>746</ele>
        <time>2017-10-25T13:02:35Z</time>
      </trkpt>
      <trkpt lat="45.16989" lon="5.84337">
        <ele>745</ele>
        <time>2017-10-25T13:02:36Z</time>
      </trkpt>
      <trkpt lat="45.16986" lon="5.84329">
        <ele>744</ele>
        <time>2017-10-25T13:02:37Z</time>
      </trkpt>
      <trkpt lat="45.16981" lon="5.84316">
        <ele>744</ele>
        <time>2017-10-25T13:02:39Z</time>
      </trkpt>
      <trkpt lat="45.16977" lon="5.84305">
        <ele>743</ele>
        <time>2017-10-25T13:02:41Z</time>
      </trkpt>
      <trkpt lat="45.16975" lon="5.84295">
        <ele>742</ele>
        <time>2017-10-25T13:02:43Z</time>
      </trkpt>
      <trkpt lat="45.16979" lon="5.8429">
        <ele>741</ele>
        <time>2017-10-25T13:02:49Z</time>
      </trkpt>
      <trkpt lat="45.16986" lon="5.84288">
        <ele>740</ele>
        <time>2017-10-25T13:04:32Z</time>
      </trkpt>
      <trkpt lat="45.1699" lon="5.84285">
        <ele>740</ele>
        <time>2017-10-25T13:04:34Z</time>
      </trkpt>
      <trkpt lat="45.16994" lon="5.84282">
        <ele>739</ele>
        <time>2017-10-25T13:04:36Z</time>
      </trkpt>
      <trkpt lat="45.17" lon="5.84278">
        <ele>738</ele>
        <time>2017-10-25T13:04:39Z</time>
      </trkpt>
      <trkpt lat="45.17005" lon="5.84274">
        <ele>737</ele>
        <time>2017-10-25T13:04:42Z</time>
      </trkpt>
      <trkpt lat="45.17011" lon="5.84271">
        <ele>737</ele>
        <time>2017-10-25T13:04:45Z</time>
      </trkpt>
      <trkpt lat="45.17016" lon="5.84269">
        <ele>736</ele>
        <time>2017-10-25T13:04:48Z</time>
      </trkpt>
      <trkpt lat="45.17021" lon="5.84266">
        <ele>736</ele>
        <time>2017-10-25T13:04:51Z</time>
      </trkpt>
      <trkpt lat="45.17025" lon="5.84262">
        <ele>735</ele>
        <time>2017-10-25T13:04:54Z</time>
      </trkpt>
      <trkpt lat="45.17029" lon="5.84259">
        <ele>735</ele>
        <time>2017-10-25T13:04:57Z</time>
      </trkpt>
      <trkpt lat="45.17034" lon="5.84255">
        <ele>736</ele>
        <time>2017-10-25T13:05:01Z</time>
      </trkpt>
      <trkpt lat="45.17039" lon="5.84253">
        <ele>736</ele>
        <time>2017-10-25T13:05:05Z</time>
      </trkpt>
      <trkpt lat="45.17044" lon="5.84248">
        <ele>736</ele>
        <time>2017-10-25T13:05:09Z</time>
      </trkpt>
      <trkpt lat="45.17046" lon="5.84236">
        <ele>736</ele>
        <time>2017-10-25T13:05:15Z</time>
      </trkpt>
      <trkpt lat="45.17046" lon="5.84228">
        <ele>736</ele>
        <time>2017-10-25T13:05:19Z</time>
      </trkpt>
      <trkpt lat="45.17044" lon="5.84221">
        <ele>736</ele>
        <time>2017-10-25T13:05:23Z</time>
      </trkpt>
      <trkpt lat="45.17041" lon="5.84215">
        <ele>735</ele>
        <time>2017-10-25T13:05:27Z</time>
      </trkpt>
      <trkpt lat="45.17039" lon="5.84209">
        <ele>734</ele>
        <time>2017-10-25T13:05:31Z</time>
      </trkpt>
      <trkpt lat="45.17037" lon="5.84202">
        <ele>734</ele>
        <time>2017-10-25T13:05:35Z</time>
      </trkpt>
      <trkpt lat="45.17034" lon="5.84195">
        <ele>733</ele>
        <time>2017-10-25T13:05:39Z</time>
      </trkpt>
      <trkpt lat="45.17032" lon="5.84188">
        <ele>733</ele>
        <time>2017-10-25T13:05:43Z</time>
      </trkpt>
      <trkpt lat="45.17029" lon="5.84182">
        <ele>733</ele>
        <time>2017-10-25T13:05:47Z</time>
      </trkpt>
      <trkpt lat="45.17026" lon="5.84175">
        <ele>733</ele>
        <time>2017-10-25T13:05:51Z</time>
      </trkpt>
      <trkpt lat="45.17024" lon="5.84169">
        <ele>733</ele>
        <time>2017-10-25T13:05:55Z</time>
      </trkpt>
      <trkpt lat="45.17022" lon="5.84163">
        <ele>733</ele>
        <time>2017-10-25T13:05:59Z</time>
      </trkpt>
      <trkpt lat="45.1702" lon="5.84156">
        <ele>733</ele>
        <time>2017-10-25T13:06:03Z</time>
      </trkpt>
      <trkpt lat="45.17018" lon="5.84148">
        <ele>732</ele>
        <time>2017-10-25T13:06:07Z</time>
      </trkpt>
      <trkpt lat="45.17016" lon="5.84142">
        <ele>732</ele>
        <time>2017-10-25T13:06:11Z</time>
      </trkpt>
      <trkpt lat="45.17014" lon="5.84136">
        <ele>732</ele>
        <time>2017-10-25T13:06:15Z</time>
      </trkpt>
      <trkpt lat="45.17014" lon="5.84129">
        <ele>732</ele>
        <time>2017-10-25T13:06:19Z</time>
      </trkpt>
      <trkpt lat="45.17014" lon="5.84121">
        <ele>732</ele>
        <time>2017-10-25T13:06:23Z</time>
      </trkpt>
      <trkpt lat="45.17018" lon="5.84117">
        <ele>733</ele>
        <time>2017-10-25T13:06:28Z</time>
      </trkpt>
      <trkpt lat="45.17023" lon="5.8412">
        <ele>733</ele>
        <time>2017-10-25T13:06:31Z</time>
      </trkpt>
      <trkpt lat="45.17028" lon="5.84123">
        <ele>734</ele>
        <time>2017-10-25T13:06:35Z</time>
      </trkpt>
      <trkpt lat="45.17033" lon="5.84126">
        <ele>735</ele>
        <time>2017-10-25T13:06:39Z</time>
      </trkpt>
      <trkpt lat="45.17036" lon="5.84133">
        <ele>735</ele>
        <time>2017-10-25T13:06:43Z</time>
      </trkpt>
      <trkpt lat="45.17042" lon="5.84134">
        <ele>736</ele>
        <time>2017-10-25T13:06:47Z</time>
      </trkpt>
      <trkpt lat="45.17047" lon="5.84136">
        <ele>738</ele>
        <time>2017-10-25T13:06:51Z</time>
      </trkpt>
      <trkpt lat="45.17051" lon="5.84138">
        <ele>738</ele>
        <time>2017-10-25T13:06:54Z</time>
      </trkpt>
      <trkpt lat="45.17056" lon="5.8414">
        <ele>739</ele>
        <time>2017-10-25T13:06:57Z</time>
      </trkpt>
      <trkpt lat="45.17061" lon="5.84143">
        <ele>740</ele>
        <time>2017-10-25T13:07:01Z</time>
      </trkpt>
      <trkpt lat="45.17065" lon="5.84147">
        <ele>741</ele>
        <time>2017-10-25T13:07:05Z</time>
      </trkpt>
      <trkpt lat="45.1707" lon="5.8415">
        <ele>742</ele>
        <time>2017-10-25T13:07:09Z</time>
      </trkpt>
      <trkpt lat="45.17075" lon="5.84153">
        <ele>743</ele>
        <time>2017-10-25T13:07:13Z</time>
      </trkpt>
      <trkpt lat="45.1708" lon="5.84156">
        <ele>744</ele>
        <time>2017-10-25T13:07:17Z</time>
      </trkpt>
      <trkpt lat="45.17084" lon="5.84161">
        <ele>744</ele>
        <time>2017-10-25T13:07:21Z</time>
      </trkpt>
      <trkpt lat="45.17089" lon="5.84166">
        <ele>745</ele>
        <time>2017-10-25T13:07:25Z</time>
      </trkpt>
      <trkpt lat="45.17094" lon="5.8417">
        <ele>745</ele>
        <time>2017-10-25T13:07:29Z</time>
      </trkpt>
      <trkpt lat="45.17099" lon="5.84173">
        <ele>746</ele>
        <time>2017-10-25T13:07:33Z</time>
      </trkpt>
      <trkpt lat="45.17102" lon="5.84179">
        <ele>746</ele>
        <time>2017-10-25T13:07:37Z</time>
      </trkpt>
      <trkpt lat="45.17106" lon="5.84184">
        <ele>747</ele>
        <time>2017-10-25T13:07:41Z</time>
      </trkpt>
      <trkpt lat="45.17111" lon="5.84185">
        <ele>748</ele>
        <time>2017-10-25T13:07:45Z</time>
      </trkpt>
      <trkpt lat="45.17115" lon="5.84181">
        <ele>749</ele>
        <time>2017-10-25T13:07:49Z</time>
      </trkpt>
      <trkpt lat="45.17113" lon="5.84173">
        <ele>749</ele>
        <time>2017-10-25T13:07:53Z</time>
      </trkpt>
      <trkpt lat="45.1711" lon="5.84167">
        <ele>749</ele>
        <time>2017-10-25T13:07:57Z</time>
      </trkpt>
      <trkpt lat="45.17108" lon="5.8416">
        <ele>749</ele>
        <time>2017-10-25T13:08:01Z</time>
      </trkpt>
      <trkpt lat="45.17106" lon="5.84153">
        <ele>750</ele>
        <time>2017-10-25T13:08:05Z</time>
      </trkpt>
      <trkpt lat="45.17104" lon="5.84146">
        <ele>750</ele>
        <time>2017-10-25T13:08:09Z</time>
      </trkpt>
      <trkpt lat="45.171" lon="5.8414">
        <ele>749</ele>
        <time>2017-10-25T13:08:13Z</time>
      </trkpt>
      <trkpt lat="45.17097" lon="5.84134">
        <ele>749</ele>
        <time>2017-10-25T13:08:17Z</time>
      </trkpt>
      <trkpt lat="45.17095" lon="5.84127">
        <ele>749</ele>
        <time>2017-10-25T13:08:21Z</time>
      </trkpt>
      <trkpt lat="45.17093" lon="5.8412">
        <ele>750</ele>
        <time>2017-10-25T13:08:25Z</time>
      </trkpt>
      <trkpt lat="45.1709" lon="5.84113">
        <ele>750</ele>
        <time>2017-10-25T13:08:29Z</time>
      </trkpt>
      <trkpt lat="45.17087" lon="5.84106">
        <ele>750</ele>
        <time>2017-10-25T13:08:33Z</time>
      </trkpt>
      <trkpt lat="45.17086" lon="5.841">
        <ele>750</ele>
        <time>2017-10-25T13:08:36Z</time>
      </trkpt>
      <trkpt lat="45.17084" lon="5.84094">
        <ele>750</ele>
        <time>2017-10-25T13:08:39Z</time>
      </trkpt>
      <trkpt lat="45.17082" lon="5.84088">
        <ele>751</ele>
        <time>2017-10-25T13:08:42Z</time>
      </trkpt>
      <trkpt lat="45.17083" lon="5.84075">
        <ele>752</ele>
        <time>2017-10-25T13:08:49Z</time>
      </trkpt>
      <trkpt lat="45.1708" lon="5.84069">
        <ele>752</ele>
        <time>2017-10-25T13:10:42Z</time>
      </trkpt>
      <trkpt lat="45.17077" lon="5.84061">
        <ele>752</ele>
        <time>2017-10-25T13:10:47Z</time>
      </trkpt>
      <trkpt lat="45.17075" lon="5.84054">
        <ele>753</ele>
        <time>2017-10-25T13:10:51Z</time>
      </trkpt>
      <trkpt lat="45.17074" lon="5.84048">
        <ele>753</ele>
        <time>2017-10-25T13:10:55Z</time>
      </trkpt>
      <trkpt lat="45.17073" lon="5.84041">
        <ele>754</ele>
        <time>2017-10-25T13:11:00Z</time>
      </trkpt>
      <trkpt lat="45.17073" lon="5.84033">
        <ele>755</ele>
        <time>2017-10-25T13:11:05Z</time>
      </trkpt>
      <trkpt lat="45.1707" lon="5.84028">
        <ele>754</ele>
        <time>2017-10-25T13:11:10Z</time>
      </trkpt>
      <trkpt lat="45.17068" lon="5.84021">
        <ele>755</ele>
        <time>2017-10-25T13:11:14Z</time>
      </trkpt>
      <trkpt lat="45.17066" lon="5.84013">
        <ele>755</ele>
        <time>2017-10-25T13:11:18Z</time>
      </trkpt>
      <trkpt lat="45.17065" lon="5.84006">
        <ele>755</ele>
        <time>2017-10-25T13:11:23Z</time>
      </trkpt>
      <trkpt lat="45.17064" lon="5.84">
        <ele>756</ele>
        <time>2017-10-25T13:11:28Z</time>
      </trkpt>
      <trkpt lat="45.17064" lon="5.83993">
        <ele>757</ele>
        <time>2017-10-25T13:11:32Z</time>
      </trkpt>
      <trkpt lat="45.17064" lon="5.83986">
        <ele>758</ele>
        <time>2017-10-25T13:11:36Z</time>
      </trkpt>
      <trkpt lat="45.17061" lon="5.8398">
        <ele>757</ele>
        <time>2017-10-25T13:11:40Z</time>
      </trkpt>
      <trkpt lat="45.17059" lon="5.83973">
        <ele>757</ele>
        <time>2017-10-25T13:11:44Z</time>
      </trkpt>
      <trkpt lat="45.17057" lon="5.83966">
        <ele>757</ele>
        <time>2017-10-25T13:11:48Z</time>
      </trkpt>
      <trkpt lat="45.17057" lon="5.8396">
        <ele>758</ele>
        <time>2017-10-25T13:11:52Z</time>
      </trkpt>
      <trkpt lat="45.17057" lon="5.83952">
        <ele>759</ele>
        <time>2017-10-25T13:11:56Z</time>
      </trkpt>
      <trkpt lat="45.17056" lon="5.83946">
        <ele>759</ele>
        <time>2017-10-25T13:12:00Z</time>
      </trkpt>
      <trkpt lat="45.17055" lon="5.83939">
        <ele>760</ele>
        <time>2017-10-25T13:12:04Z</time>
      </trkpt>
      <trkpt lat="45.17054" lon="5.8393">
        <ele>760</ele>
        <time>2017-10-25T13:12:08Z</time>
      </trkpt>
      <trkpt lat="45.17054" lon="5.83923">
        <ele>761</ele>
        <time>2017-10-25T13:12:12Z</time>
      </trkpt>
      <trkpt lat="45.17053" lon="5.83917">
        <ele>761</ele>
        <time>2017-10-25T13:12:17Z</time>
      </trkpt>
      <trkpt lat="45.17051" lon="5.83909">
        <ele>761</ele>
        <time>2017-10-25T13:12:22Z</time>
      </trkpt>
      <trkpt lat="45.17052" lon="5.83902">
        <ele>762</ele>
        <time>2017-10-25T13:12:28Z</time>
      </trkpt>
      <trkpt lat="45.1705" lon="5.83895">
        <ele>762</ele>
        <time>2017-10-25T13:12:34Z</time>
      </trkpt>
      <trkpt lat="45.17051" lon="5.83888">
        <ele>763</ele>
        <time>2017-10-25T13:12:39Z</time>
      </trkpt>
      <trkpt lat="45.17053" lon="5.83881">
        <ele>764</ele>
        <time>2017-10-25T13:12:45Z</time>
      </trkpt>
      <trkpt lat="45.17065" lon="5.83864">
        <ele>771</ele>
        <time>2017-10-25T13:13:40Z</time>
      </trkpt>
      <trkpt lat="45.17068" lon="5.83859">
        <ele>772</ele>
        <time>2017-10-25T13:13:42Z</time>
      </trkpt>
      <trkpt lat="45.17072" lon="5.83855">
        <ele>774</ele>
        <time>2017-10-25T13:13:46Z</time>
      </trkpt>
      <trkpt lat="45.17076" lon="5.83848">
        <ele>776</ele>
        <time>2017-10-25T13:13:49Z</time>
      </trkpt>
      <trkpt lat="45.17081" lon="5.83843">
        <ele>778</ele>
        <time>2017-10-25T13:13:54Z</time>
      </trkpt>
      <trkpt lat="45.17085" lon="5.8384">
        <ele>780</ele>
        <time>2017-10-25T13:13:58Z</time>
      </trkpt>
      <trkpt lat="45.17088" lon="5.83837">
        <ele>781</ele>
        <time>2017-10-25T13:14:02Z</time>
      </trkpt>
      <trkpt lat="45.17093" lon="5.83832">
        <ele>783</ele>
        <time>2017-10-25T13:14:07Z</time>
      </trkpt>
      <trkpt lat="45.17095" lon="5.83826">
        <ele>784</ele>
        <time>2017-10-25T13:14:12Z</time>
      </trkpt>
      <trkpt lat="45.17098" lon="5.83819">
        <ele>785</ele>
        <time>2017-10-25T13:14:17Z</time>
      </trkpt>
      <trkpt lat="45.17101" lon="5.83814">
        <ele>787</ele>
        <time>2017-10-25T13:14:25Z</time>
      </trkpt>
      <trkpt lat="45.17106" lon="5.83814">
        <ele>789</ele>
        <time>2017-10-25T13:14:33Z</time>
      </trkpt>
      <trkpt lat="45.1711" lon="5.83812">
        <ele>790</ele>
        <time>2017-10-25T13:14:46Z</time>
      </trkpt>
      <trkpt lat="45.17115" lon="5.83812">
        <ele>792</ele>
        <time>2017-10-25T13:14:53Z</time>
      </trkpt>
      <trkpt lat="45.1712" lon="5.83815">
        <ele>793</ele>
        <time>2017-10-25T13:15:02Z</time>
      </trkpt>
      <trkpt lat="45.17124" lon="5.83818">
        <ele>794</ele>
        <time>2017-10-25T13:15:12Z</time>
      </trkpt>
      <trkpt lat="45.17132" lon="5.83824">
        <ele>797</ele>
        <time>2017-10-25T13:15:34Z</time>
      </trkpt>
      <trkpt lat="45.17134" lon="5.8383">
        <ele>797</ele>
        <time>2017-10-25T13:15:41Z</time>
      </trkpt>
      <trkpt lat="45.17138" lon="5.83835">
        <ele>798</ele>
        <time>2017-10-25T13:15:48Z</time>
      </trkpt>
      <trkpt lat="45.17142" lon="5.83833">
        <ele>799</ele>
        <time>2017-10-25T13:15:59Z</time>
      </trkpt>
      <trkpt lat="45.17145" lon="5.83838">
        <ele>800</ele>
        <time>2017-10-25T13:16:05Z</time>
      </trkpt>
      <trkpt lat="45.17149" lon="5.83843">
        <ele>801</ele>
        <time>2017-10-25T13:16:12Z</time>
      </trkpt>
      <trkpt lat="45.17152" lon="5.83847">
        <ele>802</ele>
        <time>2017-10-25T13:16:18Z</time>
      </trkpt>
      <trkpt lat="45.17157" lon="5.83847">
        <ele>803</ele>
        <time>2017-10-25T13:16:24Z</time>
      </trkpt>
      <trkpt lat="45.17162" lon="5.8385">
        <ele>805</ele>
        <time>2017-10-25T13:16:32Z</time>
      </trkpt>
      <trkpt lat="45.17164" lon="5.83856">
        <ele>805</ele>
        <time>2017-10-25T13:16:40Z</time>
      </trkpt>
      <trkpt lat="45.17167" lon="5.83861">
        <ele>805</ele>
        <time>2017-10-25T13:16:47Z</time>
      </trkpt>
      <trkpt lat="45.17171" lon="5.83866">
        <ele>806</ele>
        <time>2017-10-25T13:16:54Z</time>
      </trkpt>
      <trkpt lat="45.17173" lon="5.83872">
        <ele>806</ele>
        <time>2017-10-25T13:17:00Z</time>
      </trkpt>
      <trkpt lat="45.17178" lon="5.83876">
        <ele>807</ele>
        <time>2017-10-25T13:17:07Z</time>
      </trkpt>
      <trkpt lat="45.17183" lon="5.83877">
        <ele>809</ele>
        <time>2017-10-25T13:17:15Z</time>
      </trkpt>
      <trkpt lat="45.17187" lon="5.83878">
        <ele>810</ele>
        <time>2017-10-25T13:17:21Z</time>
      </trkpt>
      <trkpt lat="45.17192" lon="5.83879">
        <ele>812</ele>
        <time>2017-10-25T13:17:29Z</time>
      </trkpt>
      <trkpt lat="45.17196" lon="5.83881">
        <ele>813</ele>
        <time>2017-10-25T13:17:37Z</time>
      </trkpt>
      <trkpt lat="45.17202" lon="5.83883">
        <ele>815</ele>
        <time>2017-10-25T13:17:45Z</time>
      </trkpt>
      <trkpt lat="45.17205" lon="5.83888">
        <ele>815</ele>
        <time>2017-10-25T13:17:51Z</time>
      </trkpt>
      <trkpt lat="45.17207" lon="5.83893">
        <ele>815</ele>
        <time>2017-10-25T13:18:02Z</time>
      </trkpt>
      <trkpt lat="45.17211" lon="5.83897">
        <ele>816</ele>
        <time>2017-10-25T13:18:08Z</time>
      </trkpt>
      <trkpt lat="45.17215" lon="5.83901">
        <ele>817</ele>
        <time>2017-10-25T13:18:14Z</time>
      </trkpt>
      <trkpt lat="45.17219" lon="5.83903">
        <ele>818</ele>
        <time>2017-10-25T13:18:20Z</time>
      </trkpt>
      <trkpt lat="45.17224" lon="5.83906">
        <ele>819</ele>
        <time>2017-10-25T13:18:27Z</time>
      </trkpt>
      <trkpt lat="45.17228" lon="5.83909">
        <ele>820</ele>
        <time>2017-10-25T13:18:33Z</time>
      </trkpt>
      <trkpt lat="45.1723" lon="5.83915">
        <ele>820</ele>
        <time>2017-10-25T13:18:41Z</time>
      </trkpt>
      <trkpt lat="45.17238" lon="5.83923">
        <ele>822</ele>
        <time>2017-10-25T13:18:55Z</time>
      </trkpt>
      <trkpt lat="45.17242" lon="5.83926">
        <ele>823</ele>
        <time>2017-10-25T13:19:03Z</time>
      </trkpt>
      <trkpt lat="45.17246" lon="5.8393">
        <ele>824</ele>
        <time>2017-10-25T13:19:09Z</time>
      </trkpt>
      <trkpt lat="45.17247" lon="5.83936">
        <ele>823</ele>
        <time>2017-10-25T13:19:26Z</time>
      </trkpt>
      <trkpt lat="45.17252" lon="5.8394">
        <ele>824</ele>
        <time>2017-10-25T13:19:31Z</time>
      </trkpt>
      <trkpt lat="45.17257" lon="5.83944">
        <ele>825</ele>
        <time>2017-10-25T13:19:35Z</time>
      </trkpt>
      <trkpt lat="45.1726" lon="5.83948">
        <ele>826</ele>
        <time>2017-10-25T13:19:38Z</time>
      </trkpt>
      <trkpt lat="45.17263" lon="5.83953">
        <ele>826</ele>
        <time>2017-10-25T13:19:41Z</time>
      </trkpt>
      <trkpt lat="45.17267" lon="5.83959">
        <ele>826</ele>
        <time>2017-10-25T13:19:45Z</time>
      </trkpt>
      <trkpt lat="45.17271" lon="5.83964">
        <ele>827</ele>
        <time>2017-10-25T13:19:48Z</time>
      </trkpt>
      <trkpt lat="45.17267" lon="5.83953">
        <ele>828</ele>
        <time>2017-10-25T13:21:20Z</time>
      </trkpt>
      <trkpt lat="45.17263" lon="5.83947">
        <ele>827</ele>
        <time>2017-10-25T13:21:22Z</time>
      </trkpt>
      <trkpt lat="45.1726" lon="5.8394">
        <ele>828</ele>
        <time>2017-10-25T13:21:24Z</time>
      </trkpt>
      <trkpt lat="45.17256" lon="5.83934">
        <ele>827</ele>
        <time>2017-10-25T13:21:26Z</time>
      </trkpt>
      <trkpt lat="45.17252" lon="5.83928">
        <ele>827</ele>
        <time>2017-10-25T13:21:28Z</time>
      </trkpt>
      <trkpt lat="45.1725" lon="5.83922">
        <ele>827</ele>
        <time>2017-10-25T13:21:30Z</time>
      </trkpt>
      <trkpt lat="45.17247" lon="5.83909">
        <ele>828</ele>
        <time>2017-10-25T13:21:34Z</time>
      </trkpt>
      <trkpt lat="45.17246" lon="5.83902">
        <ele>828</ele>
        <time>2017-10-25T13:21:36Z</time>
      </trkpt>
      <trkpt lat="45.17245" lon="5.83895">
        <ele>829</ele>
        <time>2017-10-25T13:21:38Z</time>
      </trkpt>
      <trkpt lat="45.17244" lon="5.83888">
        <ele>830</ele>
        <time>2017-10-25T13:21:41Z</time>
      </trkpt>
      <trkpt lat="45.17244" lon="5.83881">
        <ele>831</ele>
        <time>2017-10-25T13:21:44Z</time>
      </trkpt>
      <trkpt lat="45.17241" lon="5.83874">
        <ele>831</ele>
        <time>2017-10-25T13:21:48Z</time>
      </trkpt>
      <trkpt lat="45.17238" lon="5.83866">
        <ele>830</ele>
        <time>2017-10-25T13:21:52Z</time>
      </trkpt>
      <trkpt lat="45.17236" lon="5.8386">
        <ele>830</ele>
        <time>2017-10-25T13:21:55Z</time>
      </trkpt>
      <trkpt lat="45.17234" lon="5.83855">
        <ele>830</ele>
        <time>2017-10-25T13:21:58Z</time>
      </trkpt>
      <trkpt lat="45.17231" lon="5.83847">
        <ele>830</ele>
        <time>2017-10-25T13:22:02Z</time>
      </trkpt>
      <trkpt lat="45.17229" lon="5.83839">
        <ele>830</ele>
        <time>2017-10-25T13:22:06Z</time>
      </trkpt>
      <trkpt lat="45.17228" lon="5.83832">
        <ele>831</ele>
        <time>2017-10-25T13:22:10Z</time>
      </trkpt>
      <trkpt lat="45.17224" lon="5.83828">
        <ele>830</ele>
        <time>2017-10-25T13:22:13Z</time>
      </trkpt>
      <trkpt lat="45.17222" lon="5.83822">
        <ele>830</ele>
        <time>2017-10-25T13:22:17Z</time>
      </trkpt>
      <trkpt lat="45.1722" lon="5.83815">
        <ele>830</ele>
        <time>2017-10-25T13:22:21Z</time>
      </trkpt>
      <trkpt lat="45.17216" lon="5.83809">
        <ele>829</ele>
        <time>2017-10-25T13:22:25Z</time>
      </trkpt>
      <trkpt lat="45.17213" lon="5.83802">
        <ele>828</ele>
        <time>2017-10-25T13:22:29Z</time>
      </trkpt>
      <trkpt lat="45.1721" lon="5.83796">
        <ele>828</ele>
        <time>2017-10-25T13:22:33Z</time>
      </trkpt>
      <trkpt lat="45.17208" lon="5.8379">
        <ele>828</ele>
        <time>2017-10-25T13:22:37Z</time>
      </trkpt>
      <trkpt lat="45.17206" lon="5.83782">
        <ele>828</ele>
        <time>2017-10-25T13:22:42Z</time>
      </trkpt>
      <trkpt lat="45.17206" lon="5.83775">
        <ele>829</ele>
        <time>2017-10-25T13:22:45Z</time>
      </trkpt>
      <trkpt lat="45.17208" lon="5.83767">
        <ele>830</ele>
        <time>2017-10-25T13:22:48Z</time>
      </trkpt>
      <trkpt lat="45.1721" lon="5.83761">
        <ele>832</ele>
        <time>2017-10-25T13:22:51Z</time>
      </trkpt>
      <trkpt lat="45.17212" lon="5.83752">
        <ele>834</ele>
        <time>2017-10-25T13:23:11Z</time>
      </trkpt>
      <trkpt lat="45.17215" lon="5.83745">
        <ele>836</ele>
        <time>2017-10-25T13:23:17Z</time>
      </trkpt>
      <trkpt lat="45.17217" lon="5.83739">
        <ele>838</ele>
        <time>2017-10-25T13:23:21Z</time>
      </trkpt>
      <trkpt lat="45.17216" lon="5.83733">
        <ele>838</ele>
        <time>2017-10-25T13:23:37Z</time>
      </trkpt>
      <trkpt lat="45.17213" lon="5.83727">
        <ele>838</ele>
        <time>2017-10-25T13:23:53Z</time>
      </trkpt>
      <trkpt lat="45.17209" lon="5.83715">
        <ele>837</ele>
        <time>2017-10-25T13:24:04Z</time>
      </trkpt>
      <trkpt lat="45.17211" lon="5.83709">
        <ele>839</ele>
        <time>2017-10-25T13:24:10Z</time>
      </trkpt>
      <trkpt lat="45.17213" lon="5.83703">
        <ele>841</ele>
        <time>2017-10-25T13:24:15Z</time>
      </trkpt>
      <trkpt lat="45.1721" lon="5.83693">
        <ele>840</ele>
        <time>2017-10-25T13:25:05Z</time>
      </trkpt>
      <trkpt lat="45.17211" lon="5.83686">
        <ele>842</ele>
        <time>2017-10-25T13:25:17Z</time>
      </trkpt>
      <trkpt lat="45.17211" lon="5.83674">
        <ele>843</ele>
        <time>2017-10-25T13:25:53Z</time>
      </trkpt>
      <trkpt lat="45.17212" lon="5.83667">
        <ele>845</ele>
        <time>2017-10-25T13:26:02Z</time>
      </trkpt>
      <trkpt lat="45.17212" lon="5.83661">
        <ele>846</ele>
        <time>2017-10-25T13:26:08Z</time>
      </trkpt>
      <trkpt lat="45.17213" lon="5.83651">
        <ele>847</ele>
        <time>2017-10-25T13:26:44Z</time>
      </trkpt>
      <trkpt lat="45.17215" lon="5.83643">
        <ele>850</ele>
        <time>2017-10-25T13:26:48Z</time>
      </trkpt>
      <trkpt lat="45.17215" lon="5.83636">
        <ele>851</ele>
        <time>2017-10-25T13:26:53Z</time>
      </trkpt>
      <trkpt lat="45.17215" lon="5.83629">
        <ele>852</ele>
        <time>2017-10-25T13:26:57Z</time>
      </trkpt>
      <trkpt lat="45.17214" lon="5.83622">
        <ele>852</ele>
        <time>2017-10-25T13:27:03Z</time>
      </trkpt>
      <trkpt lat="45.17215" lon="5.83615">
        <ele>854</ele>
        <time>2017-10-25T13:27:39Z</time>
      </trkpt>
      <trkpt lat="45.17217" lon="5.83609">
        <ele>856</ele>
        <time>2017-10-25T13:27:44Z</time>
      </trkpt>
      <trkpt lat="45.17214" lon="5.83597">
        <ele>856</ele>
        <time>2017-10-25T13:28:16Z</time>
      </trkpt>
      <trkpt lat="45.17212" lon="5.83591">
        <ele>856</ele>
        <time>2017-10-25T13:28:22Z</time>
      </trkpt>
      <trkpt lat="45.17212" lon="5.83585">
        <ele>857</ele>
        <time>2017-10-25T13:28:30Z</time>
      </trkpt>
      <trkpt lat="45.17211" lon="5.83578">
        <ele>857</ele>
        <time>2017-10-25T13:28:36Z</time>
      </trkpt>
      <trkpt lat="45.1721" lon="5.83572">
        <ele>857</ele>
        <time>2017-10-25T13:28:40Z</time>
      </trkpt>
      <trkpt lat="45.17214" lon="5.83568">
        <ele>861</ele>
        <time>2017-10-25T13:28:51Z</time>
      </trkpt>
      <trkpt lat="45.17216" lon="5.83561">
        <ele>863</ele>
        <time>2017-10-25T13:29:20Z</time>
      </trkpt>
      <trkpt lat="45.17214" lon="5.83553">
        <ele>863</ele>
        <time>2017-10-25T13:29:24Z</time>
      </trkpt>
      <trkpt lat="45.17214" lon="5.83547">
        <ele>864</ele>
        <time>2017-10-25T13:29:28Z</time>
      </trkpt>
      <trkpt lat="45.17214" lon="5.8354">
        <ele>865</ele>
        <time>2017-10-25T13:29:34Z</time>
      </trkpt>
      <trkpt lat="45.17215" lon="5.83534">
        <ele>867</ele>
        <time>2017-10-25T13:29:39Z</time>
      </trkpt>
      <trkpt lat="45.17212" lon="5.83528">
        <ele>865</ele>
        <time>2017-10-25T13:29:47Z</time>
      </trkpt>
      <trkpt lat="45.1721" lon="5.83522">
        <ele>865</ele>
        <time>2017-10-25T13:29:53Z</time>
      </trkpt>
      <trkpt lat="45.17209" lon="5.83515">
        <ele>865</ele>
        <time>2017-10-25T13:29:59Z</time>
      </trkpt>
      <trkpt lat="45.1721" lon="5.83508">
        <ele>867</ele>
        <time>2017-10-25T13:30:05Z</time>
      </trkpt>
      <trkpt lat="45.17209" lon="5.83501">
        <ele>867</ele>
        <time>2017-10-25T13:30:15Z</time>
      </trkpt>
      <trkpt lat="45.17207" lon="5.83495">
        <ele>867</ele>
        <time>2017-10-25T13:30:26Z</time>
      </trkpt>
      <trkpt lat="45.17207" lon="5.83489">
        <ele>868</ele>
        <time>2017-10-25T13:30:34Z</time>
      </trkpt>
      <trkpt lat="45.17208" lon="5.83482">
        <ele>869</ele>
        <time>2017-10-25T13:30:45Z</time>
      </trkpt>
      <trkpt lat="45.1721" lon="5.83475">
        <ele>872</ele>
        <time>2017-10-25T13:30:53Z</time>
      </trkpt>
      <trkpt lat="45.17207" lon="5.83462">
        <ele>872</ele>
        <time>2017-10-25T13:31:05Z</time>
      </trkpt>
      <trkpt lat="45.17207" lon="5.83456">
        <ele>872</ele>
        <time>2017-10-25T13:31:12Z</time>
      </trkpt>
      <trkpt lat="45.17206" lon="5.8345">
        <ele>872</ele>
        <time>2017-10-25T13:31:20Z</time>
      </trkpt>
      <trkpt lat="45.17207" lon="5.83443">
        <ele>874</ele>
        <time>2017-10-25T13:31:27Z</time>
      </trkpt>
      <trkpt lat="45.17208" lon="5.83436">
        <ele>876</ele>
        <time>2017-10-25T13:31:34Z</time>
      </trkpt>
      <trkpt lat="45.17207" lon="5.83429">
        <ele>876</ele>
        <time>2017-10-25T13:31:40Z</time>
      </trkpt>
      <trkpt lat="45.17205" lon="5.83422">
        <ele>875</ele>
        <time>2017-10-25T13:31:49Z</time>
      </trkpt>
      <trkpt lat="45.17205" lon="5.83415">
        <ele>876</ele>
        <time>2017-10-25T13:31:55Z</time>
      </trkpt>
      <trkpt lat="45.17204" lon="5.83409">
        <ele>876</ele>
        <time>2017-10-25T13:32:09Z</time>
      </trkpt>
      <trkpt lat="45.17203" lon="5.83402">
        <ele>876</ele>
        <time>2017-10-25T13:32:14Z</time>
      </trkpt>
      <trkpt lat="45.17202" lon="5.83395">
        <ele>876</ele>
        <time>2017-10-25T13:32:20Z</time>
      </trkpt>
      <trkpt lat="45.17202" lon="5.83388">
        <ele>877</ele>
        <time>2017-10-25T13:32:25Z</time>
      </trkpt>
      <trkpt lat="45.17204" lon="5.83381">
        <ele>879</ele>
        <time>2017-10-25T13:32:30Z</time>
      </trkpt>
      <trkpt lat="45.17206" lon="5.83374">
        <ele>882</ele>
        <time>2017-10-25T13:32:34Z</time>
      </trkpt>
      <trkpt lat="45.17208" lon="5.83367">
        <ele>884</ele>
        <time>2017-10-25T13:32:38Z</time>
      </trkpt>
      <trkpt lat="45.17209" lon="5.83359">
        <ele>885</ele>
        <time>2017-10-25T13:32:42Z</time>
      </trkpt>
      <trkpt lat="45.17208" lon="5.83352">
        <ele>884</ele>
        <time>2017-10-25T13:32:47Z</time>
      </trkpt>
      <trkpt lat="45.17211" lon="5.83348">
        <ele>886</ele>
        <time>2017-10-25T13:32:51Z</time>
      </trkpt>
      <trkpt lat="45.17218" lon="5.83347">
        <ele>892</ele>
        <time>2017-10-25T13:34:55Z</time>
      </trkpt>
      <trkpt lat="45.17228" lon="5.83344">
        <ele>900</ele>
        <time>2017-10-25T13:35:01Z</time>
      </trkpt>
      <trkpt lat="45.17232" lon="5.83341">
        <ele>903</ele>
        <time>2017-10-25T13:35:24Z</time>
      </trkpt>
      <trkpt lat="45.17233" lon="5.8333">
        <ele>904</ele>
        <time>2017-10-25T13:39:19Z</time>
      </trkpt>
      <trkpt lat="45.17234" lon="5.83243">
        <ele>901</ele>
        <time>2017-10-25T13:41:51Z</time>
      </trkpt>
      <trkpt lat="45.17244" lon="5.8324">
        <ele>905</ele>
        <time>2017-10-25T13:41:58Z</time>
      </trkpt>
      <trkpt lat="45.17242" lon="5.8311">
        <ele>897</ele>
        <time>2017-10-25T13:49:08Z</time>
      </trkpt>
      <trkpt lat="45.17233" lon="5.83082">
        <ele>894</ele>
        <time>2017-10-25T13:49:09Z</time>
      </trkpt>
      <trkpt lat="45.17257" lon="5.83063">
        <ele>899</ele>
        <time>2017-10-25T13:49:11Z</time>
      </trkpt>
      <trkpt lat="45.17264" lon="5.83063">
        <ele>901</ele>
        <time>2017-10-25T13:49:12Z</time>
      </trkpt>
      <trkpt lat="45.17255" lon="5.83064">
        <ele>899</ele>
        <time>2017-10-25T13:49:13Z</time>
      </trkpt>
      <trkpt lat="45.17253" lon="5.83055">
        <ele>898</ele>
        <time>2017-10-25T13:49:14Z</time>
      </trkpt>
      <trkpt lat="45.17233" lon="5.83063">
        <ele>893</ele>
        <time>2017-10-25T13:49:15Z</time>
      </trkpt>
      <trkpt lat="45.17228" lon="5.83081">
        <ele>890</ele>
        <time>2017-10-25T13:49:16Z</time>
      </trkpt>
      <trkpt lat="45.17225" lon="5.83088">
        <ele>888</ele>
        <time>2017-10-25T13:49:18Z</time>
      </trkpt>
      <trkpt lat="45.1723" lon="5.83084">
        <ele>891</ele>
        <time>2017-10-25T13:49:19Z</time>
      </trkpt>
      <trkpt lat="45.17226" lon="5.83089">
        <ele>889</ele>
        <time>2017-10-25T13:49:20Z</time>
      </trkpt>
      <trkpt lat="45.17236" lon="5.83076">
        <ele>895</ele>
        <time>2017-10-25T13:49:21Z</time>
      </trkpt>
      <trkpt lat="45.1725" lon="5.8305">
        <ele>897</ele>
        <time>2017-10-25T13:49:22Z</time>
      </trkpt>
      <trkpt lat="45.17262" lon="5.8305">
        <ele>900</ele>
        <time>2017-10-25T13:49:24Z</time>
      </trkpt>
      <trkpt lat="45.17243" lon="5.83062">
        <ele>896</ele>
        <time>2017-10-25T13:49:25Z</time>
      </trkpt>
      <trkpt lat="45.17239" lon="5.83075">
        <ele>896</ele>
        <time>2017-10-25T13:49:26Z</time>
      </trkpt>
      <trkpt lat="45.17235" lon="5.83078">
        <ele>895</ele>
        <time>2017-10-25T13:49:28Z</time>
      </trkpt>
      <trkpt lat="45.17231" lon="5.83085">
        <ele>892</ele>
        <time>2017-10-25T13:49:29Z</time>
      </trkpt>
      <trkpt lat="45.17241" lon="5.83074">
        <ele>896</ele>
        <time>2017-10-25T13:49:30Z</time>
      </trkpt>
      <trkpt lat="45.17253" lon="5.83071">
        <ele>899</ele>
        <time>2017-10-25T13:49:31Z</time>
      </trkpt>
      <trkpt lat="45.17252" lon="5.83089">
        <ele>899</ele>
        <time>2017-10-25T13:49:32Z</time>
      </trkpt>
      <trkpt lat="45.17248" lon="5.83082">
        <ele>898</ele>
        <time>2017-10-25T13:49:33Z</time>
      </trkpt>
      <trkpt lat="45.17251" lon="5.83071">
        <ele>898</ele>
        <time>2017-10-25T13:49:34Z</time>
      </trkpt>
      <trkpt lat="45.17243" lon="5.83057">
        <ele>896</ele>
        <time>2017-10-25T13:49:35Z</time>
      </trkpt>
      <trkpt lat="45.17228" lon="5.83076">
        <ele>890</ele>
        <time>2017-10-25T13:49:36Z</time>
      </trkpt>
      <trkpt lat="45.17243" lon="5.8306">
        <ele>896</ele>
        <time>2017-10-25T13:49:37Z</time>
      </trkpt>
      <trkpt lat="45.17261" lon="5.83042">
        <ele>899</ele>
        <time>2017-10-25T13:49:38Z</time>
      </trkpt>
      <trkpt lat="45.17247" lon="5.83054">
        <ele>897</ele>
        <time>2017-10-25T13:49:39Z</time>
      </trkpt>
      <trkpt lat="45.1724" lon="5.83061">
        <ele>895</ele>
        <time>2017-10-25T13:49:40Z</time>
      </trkpt>
      <trkpt lat="45.17235" lon="5.83068">
        <ele>895</ele>
        <time>2017-10-25T13:49:41Z</time>
      </trkpt>
      <trkpt lat="45.17241" lon="5.83064">
        <ele>896</ele>
        <time>2017-10-25T13:49:43Z</time>
      </trkpt>
      <trkpt lat="45.17246" lon="5.83064">
        <ele>897</ele>
        <time>2017-10-25T13:49:44Z</time>
      </trkpt>
      <trkpt lat="45.17252" lon="5.83059">
        <ele>898</ele>
        <time>2017-10-25T13:49:47Z</time>
      </trkpt>
      <trkpt lat="45.17247" lon="5.83065">
        <ele>897</ele>
        <time>2017-10-25T13:49:50Z</time>
      </trkpt>
      <trkpt lat="45.17237" lon="5.83065">
        <ele>895</ele>
        <time>2017-10-25T13:53:25Z</time>
      </trkpt>
      <trkpt lat="45.17231" lon="5.83062">
        <ele>892</ele>
        <time>2017-10-25T13:53:26Z</time>
      </trkpt>
      <trkpt lat="45.17229" lon="5.83055">
        <ele>890</ele>
        <time>2017-10-25T13:53:28Z</time>
      </trkpt>
      <trkpt lat="45.17232" lon="5.83048">
        <ele>892</ele>
        <time>2017-10-25T13:53:30Z</time>
      </trkpt>
      <trkpt lat="45.1723" lon="5.8304">
        <ele>889</ele>
        <time>2017-10-25T13:53:32Z</time>
      </trkpt>
      <trkpt lat="45.17227" lon="5.83034">
        <ele>888</ele>
        <time>2017-10-25T13:53:35Z</time>
      </trkpt>
      <trkpt lat="45.17224" lon="5.83028">
        <ele>885</ele>
        <time>2017-10-25T13:53:38Z</time>
      </trkpt>
      <trkpt lat="45.17219" lon="5.83022">
        <ele>881</ele>
        <time>2017-10-25T13:53:41Z</time>
      </trkpt>
      <trkpt lat="45.17216" lon="5.83016">
        <ele>879</ele>
        <time>2017-10-25T13:53:43Z</time>
      </trkpt>
      <trkpt lat="45.17214" lon="5.83011">
        <ele>877</ele>
        <time>2017-10-25T13:53:45Z</time>
      </trkpt>
      <trkpt lat="45.1721" lon="5.83004">
        <ele>874</ele>
        <time>2017-10-25T13:53:48Z</time>
      </trkpt>
      <trkpt lat="45.17204" lon="5.83002">
        <ele>870</ele>
        <time>2017-10-25T13:53:51Z</time>
      </trkpt>
      <trkpt lat="45.17199" lon="5.83">
        <ele>866</ele>
        <time>2017-10-25T13:53:53Z</time>
      </trkpt>
      <trkpt lat="45.17193" lon="5.82988">
        <ele>861</ele>
        <time>2017-10-25T13:53:57Z</time>
      </trkpt>
      <trkpt lat="45.17189" lon="5.82982">
        <ele>859</ele>
        <time>2017-10-25T13:53:59Z</time>
      </trkpt>
      <trkpt lat="45.17187" lon="5.82976">
        <ele>858</ele>
        <time>2017-10-25T13:54:01Z</time>
      </trkpt>
      <trkpt lat="45.17185" lon="5.82969">
        <ele>857</ele>
        <time>2017-10-25T13:54:04Z</time>
      </trkpt>
      <trkpt lat="45.17179" lon="5.82958">
        <ele>853</ele>
        <time>2017-10-25T13:54:09Z</time>
      </trkpt>
      <trkpt lat="45.17177" lon="5.82951">
        <ele>852</ele>
        <time>2017-10-25T13:54:12Z</time>
      </trkpt>
      <trkpt lat="45.17175" lon="5.82944">
        <ele>851</ele>
        <time>2017-10-25T13:54:15Z</time>
      </trkpt>
      <trkpt lat="45.17173" lon="5.82937">
        <ele>851</ele>
        <time>2017-10-25T13:54:18Z</time>
      </trkpt>
      <trkpt lat="45.17167" lon="5.82932">
        <ele>848</ele>
        <time>2017-10-25T13:54:21Z</time>
      </trkpt>
      <trkpt lat="45.1716" lon="5.82929">
        <ele>845</ele>
        <time>2017-10-25T13:54:24Z</time>
      </trkpt>
      <trkpt lat="45.17156" lon="5.82925">
        <ele>842</ele>
        <time>2017-10-25T13:54:26Z</time>
      </trkpt>
      <trkpt lat="45.17148" lon="5.82918">
        <ele>839</ele>
        <time>2017-10-25T13:54:30Z</time>
      </trkpt>
      <trkpt lat="45.17145" lon="5.82913">
        <ele>838</ele>
        <time>2017-10-25T13:54:32Z</time>
      </trkpt>
      <trkpt lat="45.17143" lon="5.82906">
        <ele>837</ele>
        <time>2017-10-25T13:54:34Z</time>
      </trkpt>
      <trkpt lat="45.17141" lon="5.82898">
        <ele>838</ele>
        <time>2017-10-25T13:54:36Z</time>
      </trkpt>
      <trkpt lat="45.17139" lon="5.82888">
        <ele>837</ele>
        <time>2017-10-25T13:54:38Z</time>
      </trkpt>
      <trkpt lat="45.17136" lon="5.8288">
        <ele>836</ele>
        <time>2017-10-25T13:54:40Z</time>
      </trkpt>
      <trkpt lat="45.17133" lon="5.82874">
        <ele>835</ele>
        <time>2017-10-25T13:54:42Z</time>
      </trkpt>
      <trkpt lat="45.17131" lon="5.82866">
        <ele>835</ele>
        <time>2017-10-25T13:54:45Z</time>
      </trkpt>
      <trkpt lat="45.17129" lon="5.82858">
        <ele>834</ele>
        <time>2017-10-25T13:54:48Z</time>
      </trkpt>
      <trkpt lat="45.17126" lon="5.82851">
        <ele>833</ele>
        <time>2017-10-25T13:54:51Z</time>
      </trkpt>
      <trkpt lat="45.17121" lon="5.82846">
        <ele>832</ele>
        <time>2017-10-25T13:54:54Z</time>
      </trkpt>
      <trkpt lat="45.17118" lon="5.8284">
        <ele>831</ele>
        <time>2017-10-25T13:54:57Z</time>
      </trkpt>
      <trkpt lat="45.17114" lon="5.82836">
        <ele>830</ele>
        <time>2017-10-25T13:54:59Z</time>
      </trkpt>
      <trkpt lat="45.1711" lon="5.82831">
        <ele>830</ele>
        <time>2017-10-25T13:55:01Z</time>
      </trkpt>
      <trkpt lat="45.17104" lon="5.82827">
        <ele>828</ele>
        <time>2017-10-25T13:55:04Z</time>
      </trkpt>
      <trkpt lat="45.17101" lon="5.82822">
        <ele>827</ele>
        <time>2017-10-25T13:55:07Z</time>
      </trkpt>
      <trkpt lat="45.17095" lon="5.82821">
        <ele>825</ele>
        <time>2017-10-25T13:55:11Z</time>
      </trkpt>
      <trkpt lat="45.17089" lon="5.82821">
        <ele>822</ele>
        <time>2017-10-25T13:55:14Z</time>
      </trkpt>
      <trkpt lat="45.17083" lon="5.82823">
        <ele>818</ele>
        <time>2017-10-25T13:55:17Z</time>
      </trkpt>
      <trkpt lat="45.17077" lon="5.82823">
        <ele>815</ele>
        <time>2017-10-25T13:55:20Z</time>
      </trkpt>
      <trkpt lat="45.17072" lon="5.82823">
        <ele>812</ele>
        <time>2017-10-25T13:55:23Z</time>
      </trkpt>
      <trkpt lat="45.1707" lon="5.82817">
        <ele>811</ele>
        <time>2017-10-25T13:55:28Z</time>
      </trkpt>
      <trkpt lat="45.17064" lon="5.82813">
        <ele>808</ele>
        <time>2017-10-25T13:55:31Z</time>
      </trkpt>
      <trkpt lat="45.17057" lon="5.82812">
        <ele>804</ele>
        <time>2017-10-25T13:55:33Z</time>
      </trkpt>
      <trkpt lat="45.17052" lon="5.82813">
        <ele>801</ele>
        <time>2017-10-25T13:55:34Z</time>
      </trkpt>
      <trkpt lat="45.17048" lon="5.82813">
        <ele>799</ele>
        <time>2017-10-25T13:55:35Z</time>
      </trkpt>
      <trkpt lat="45.17043" lon="5.82812">
        <ele>797</ele>
        <time>2017-10-25T13:55:36Z</time>
      </trkpt>
      <trkpt lat="45.17036" lon="5.8281">
        <ele>793</ele>
        <time>2017-10-25T13:55:38Z</time>
      </trkpt>
      <trkpt lat="45.1703" lon="5.82808">
        <ele>790</ele>
        <time>2017-10-25T13:55:40Z</time>
      </trkpt>
      <trkpt lat="45.17025" lon="5.82806">
        <ele>787</ele>
        <time>2017-10-25T13:55:42Z</time>
      </trkpt>
      <trkpt lat="45.1702" lon="5.82803">
        <ele>783</ele>
        <time>2017-10-25T13:55:44Z</time>
      </trkpt>
      <trkpt lat="45.17014" lon="5.82793">
        <ele>780</ele>
        <time>2017-10-25T13:55:49Z</time>
      </trkpt>
      <trkpt lat="45.1701" lon="5.8279">
        <ele>777</ele>
        <time>2017-10-25T13:55:50Z</time>
      </trkpt>
      <trkpt lat="45.17006" lon="5.82787">
        <ele>775</ele>
        <time>2017-10-25T13:55:51Z</time>
      </trkpt>
      <trkpt lat="45.16997" lon="5.82775">
        <ele>770</ele>
        <time>2017-10-25T13:55:54Z</time>
      </trkpt>
      <trkpt lat="45.16994" lon="5.82768">
        <ele>768</ele>
        <time>2017-10-25T13:55:56Z</time>
      </trkpt>
      <trkpt lat="45.16992" lon="5.82762">
        <ele>768</ele>
        <time>2017-10-25T13:55:58Z</time>
      </trkpt>
      <trkpt lat="45.16991" lon="5.82754">
        <ele>768</ele>
        <time>2017-10-25T13:56:01Z</time>
      </trkpt>
      <trkpt lat="45.16988" lon="5.82749">
        <ele>765</ele>
        <time>2017-10-25T13:56:04Z</time>
      </trkpt>
      <trkpt lat="45.16982" lon="5.82745">
        <ele>761</ele>
        <time>2017-10-25T13:56:07Z</time>
      </trkpt>
      <trkpt lat="45.16979" lon="5.82738">
        <ele>760</ele>
        <time>2017-10-25T13:56:10Z</time>
      </trkpt>
      <trkpt lat="45.1698" lon="5.82732">
        <ele>761</ele>
        <time>2017-10-25T13:56:12Z</time>
      </trkpt>
      <trkpt lat="45.16981" lon="5.82724">
        <ele>761</ele>
        <time>2017-10-25T13:56:15Z</time>
      </trkpt>
      <trkpt lat="45.16985" lon="5.82719">
        <ele>764</ele>
        <time>2017-10-25T13:56:18Z</time>
      </trkpt>
      <trkpt lat="45.16984" lon="5.82712">
        <ele>764</ele>
        <time>2017-10-25T13:56:22Z</time>
      </trkpt>
      <trkpt lat="45.1698" lon="5.82707">
        <ele>761</ele>
        <time>2017-10-25T13:56:25Z</time>
      </trkpt>
      <trkpt lat="45.16981" lon="5.827">
        <ele>762</ele>
        <time>2017-10-25T13:57:29Z</time>
      </trkpt>
      <trkpt lat="45.16979" lon="5.82693">
        <ele>761</ele>
        <time>2017-10-25T13:57:32Z</time>
      </trkpt>
      <trkpt lat="45.16975" lon="5.82688">
        <ele>759</ele>
        <time>2017-10-25T13:57:36Z</time>
      </trkpt>
      <trkpt lat="45.1697" lon="5.82682">
        <ele>757</ele>
        <time>2017-10-25T13:57:39Z</time>
      </trkpt>
      <trkpt lat="45.16966" lon="5.82675">
        <ele>755</ele>
        <time>2017-10-25T13:57:42Z</time>
      </trkpt>
      <trkpt lat="45.16963" lon="5.82667">
        <ele>754</ele>
        <time>2017-10-25T13:57:45Z</time>
      </trkpt>
      <trkpt lat="45.16959" lon="5.82662">
        <ele>752</ele>
        <time>2017-10-25T13:57:48Z</time>
      </trkpt>
      <trkpt lat="45.16953" lon="5.8266">
        <ele>748</ele>
        <time>2017-10-25T13:57:50Z</time>
      </trkpt>
      <trkpt lat="45.16948" lon="5.82655">
        <ele>745</ele>
        <time>2017-10-25T13:57:53Z</time>
      </trkpt>
      <trkpt lat="45.16945" lon="5.82648">
        <ele>744</ele>
        <time>2017-10-25T13:57:56Z</time>
      </trkpt>
      <trkpt lat="45.16939" lon="5.82642">
        <ele>741</ele>
        <time>2017-10-25T13:57:59Z</time>
      </trkpt>
      <trkpt lat="45.16935" lon="5.82637">
        <ele>739</ele>
        <time>2017-10-25T13:58:01Z</time>
      </trkpt>
      <trkpt lat="45.16932" lon="5.8263">
        <ele>738</ele>
        <time>2017-10-25T13:58:03Z</time>
      </trkpt>
      <trkpt lat="45.16929" lon="5.82624">
        <ele>736</ele>
        <time>2017-10-25T13:58:06Z</time>
      </trkpt>
      <trkpt lat="45.16926" lon="5.82614">
        <ele>735</ele>
        <time>2017-10-25T14:00:07Z</time>
      </trkpt>
      <trkpt lat="45.16924" lon="5.82607">
        <ele>735</ele>
        <time>2017-10-25T14:00:09Z</time>
      </trkpt>
      <trkpt lat="45.16921" lon="5.82599">
        <ele>733</ele>
        <time>2017-10-25T14:00:11Z</time>
      </trkpt>
      <trkpt lat="45.1692" lon="5.82588">
        <ele>733</ele>
        <time>2017-10-25T14:00:13Z</time>
      </trkpt>
      <trkpt lat="45.16919" lon="5.82581">
        <ele>733</ele>
        <time>2017-10-25T14:00:14Z</time>
      </trkpt>
      <trkpt lat="45.16917" lon="5.82572">
        <ele>733</ele>
        <time>2017-10-25T14:00:16Z</time>
      </trkpt>
      <trkpt lat="45.16916" lon="5.82564">
        <ele>733</ele>
        <time>2017-10-25T14:00:19Z</time>
      </trkpt>
      <trkpt lat="45.16914" lon="5.82554">
        <ele>733</ele>
        <time>2017-10-25T14:00:21Z</time>
      </trkpt>
      <trkpt lat="45.16911" lon="5.82543">
        <ele>732</ele>
        <time>2017-10-25T14:00:23Z</time>
      </trkpt>
      <trkpt lat="45.16906" lon="5.82533">
        <ele>730</ele>
        <time>2017-10-25T14:00:25Z</time>
      </trkpt>
      <trkpt lat="45.169" lon="5.82525">
        <ele>728</ele>
        <time>2017-10-25T14:00:27Z</time>
      </trkpt>
      <trkpt lat="45.16893" lon="5.82517">
        <ele>726</ele>
        <time>2017-10-25T14:00:29Z</time>
      </trkpt>
      <trkpt lat="45.16892" lon="5.82506">
        <ele>727</ele>
        <time>2017-10-25T14:00:31Z</time>
      </trkpt>
      <trkpt lat="45.16893" lon="5.82494">
        <ele>727</ele>
        <time>2017-10-25T14:00:33Z</time>
      </trkpt>
      <trkpt lat="45.16894" lon="5.82487">
        <ele>728</ele>
        <time>2017-10-25T14:00:34Z</time>
      </trkpt>
      <trkpt lat="45.16892" lon="5.82475">
        <ele>727</ele>
        <time>2017-10-25T14:00:36Z</time>
      </trkpt>
      <trkpt lat="45.1689" lon="5.82463">
        <ele>726</ele>
        <time>2017-10-25T14:00:38Z</time>
      </trkpt>
      <trkpt lat="45.16887" lon="5.82456">
        <ele>724</ele>
        <time>2017-10-25T14:00:40Z</time>
      </trkpt>
      <trkpt lat="45.16882" lon="5.8245">
        <ele>722</ele>
        <time>2017-10-25T14:00:42Z</time>
      </trkpt>
      <trkpt lat="45.16876" lon="5.82444">
        <ele>720</ele>
        <time>2017-10-25T14:00:44Z</time>
      </trkpt>
      <trkpt lat="45.16872" lon="5.82438">
        <ele>719</ele>
        <time>2017-10-25T14:00:46Z</time>
      </trkpt>
      <trkpt lat="45.16868" lon="5.82433">
        <ele>718</ele>
        <time>2017-10-25T14:00:48Z</time>
      </trkpt>
      <trkpt lat="45.16863" lon="5.8243">
        <ele>716</ele>
        <time>2017-10-25T14:00:50Z</time>
      </trkpt>
      <trkpt lat="45.16859" lon="5.82429">
        <ele>715</ele>
        <time>2017-10-25T14:00:52Z</time>
      </trkpt>
      <trkpt lat="45.16854" lon="5.82428">
        <ele>714</ele>
        <time>2017-10-25T14:00:54Z</time>
      </trkpt>
      <trkpt lat="45.16849" lon="5.82426">
        <ele>712</ele>
        <time>2017-10-25T14:00:56Z</time>
      </trkpt>
      <trkpt lat="45.16843" lon="5.82426">
        <ele>711</ele>
        <time>2017-10-25T14:00:58Z</time>
      </trkpt>
      <trkpt lat="45.16838" lon="5.82426">
        <ele>709</ele>
        <time>2017-10-25T14:01:00Z</time>
      </trkpt>
      <trkpt lat="45.16832" lon="5.82425">
        <ele>708</ele>
        <time>2017-10-25T14:01:02Z</time>
      </trkpt>
      <trkpt lat="45.16827" lon="5.82424">
        <ele>707</ele>
        <time>2017-10-25T14:01:04Z</time>
      </trkpt>
      <trkpt lat="45.16821" lon="5.82423">
        <ele>705</ele>
        <time>2017-10-25T14:01:07Z</time>
      </trkpt>
      <trkpt lat="45.16816" lon="5.82418">
        <ele>703</ele>
        <time>2017-10-25T14:01:38Z</time>
      </trkpt>
      <trkpt lat="45.16811" lon="5.82413">
        <ele>701</ele>
        <time>2017-10-25T14:01:40Z</time>
      </trkpt>
      <trkpt lat="45.16806" lon="5.82408">
        <ele>699</ele>
        <time>2017-10-25T14:01:42Z</time>
      </trkpt>
      <trkpt lat="45.16803" lon="5.82401">
        <ele>698</ele>
        <time>2017-10-25T14:01:44Z</time>
      </trkpt>
      <trkpt lat="45.168" lon="5.82395">
        <ele>698</ele>
        <time>2017-10-25T14:01:46Z</time>
      </trkpt>
      <trkpt lat="45.16795" lon="5.82392">
        <ele>696</ele>
        <time>2017-10-25T14:01:48Z</time>
      </trkpt>
      <trkpt lat="45.1679" lon="5.82391">
        <ele>694</ele>
        <time>2017-10-25T14:01:50Z</time>
      </trkpt>
      <trkpt lat="45.16786" lon="5.82386">
        <ele>693</ele>
        <time>2017-10-25T14:01:53Z</time>
      </trkpt>
      <trkpt lat="45.16792" lon="5.82384">
        <ele>696</ele>
        <time>2017-10-25T14:01:55Z</time>
      </trkpt>
      <trkpt lat="45.168" lon="5.82384">
        <ele>700</ele>
        <time>2017-10-25T14:01:57Z</time>
      </trkpt>
      <trkpt lat="45.16807" lon="5.82383">
        <ele>703</ele>
        <time>2017-10-25T14:01:59Z</time>
      </trkpt>
      <trkpt lat="45.16814" lon="5.82384">
        <ele>706</ele>
        <time>2017-10-25T14:02:01Z</time>
      </trkpt>
      <trkpt lat="45.16821" lon="5.82385">
        <ele>709</ele>
        <time>2017-10-25T14:02:03Z</time>
      </trkpt>
      <trkpt lat="45.16826" lon="5.82386">
        <ele>711</ele>
        <time>2017-10-25T14:02:06Z</time>
      </trkpt>
      <trkpt lat="45.1683" lon="5.82387">
        <ele>711</ele>
        <time>2017-10-25T14:03:22Z</time>
      </trkpt>
      <trkpt lat="45.16834" lon="5.82391">
        <ele>711</ele>
        <time>2017-10-25T14:03:25Z</time>
      </trkpt>
      <trkpt lat="45.16839" lon="5.8239">
        <ele>712</ele>
        <time>2017-10-25T14:03:28Z</time>
      </trkpt>
      <trkpt lat="45.16835" lon="5.82384">
        <ele>712</ele>
        <time>2017-10-25T14:03:33Z</time>
      </trkpt>
      <trkpt lat="45.1683" lon="5.82381">
        <ele>712</ele>
        <time>2017-10-25T14:03:36Z</time>
      </trkpt>
      <trkpt lat="45.16826" lon="5.82379">
        <ele>711</ele>
        <time>2017-10-25T14:03:39Z</time>
      </trkpt>
      <trkpt lat="45.16821" lon="5.82378">
        <ele>710</ele>
        <time>2017-10-25T14:03:42Z</time>
      </trkpt>
      <trkpt lat="45.16815" lon="5.82375">
        <ele>708</ele>
        <time>2017-10-25T14:03:45Z</time>
      </trkpt>
      <trkpt lat="45.16809" lon="5.82373">
        <ele>706</ele>
        <time>2017-10-25T14:03:48Z</time>
      </trkpt>
      <trkpt lat="45.16805" lon="5.82372">
        <ele>704</ele>
        <time>2017-10-25T14:03:50Z</time>
      </trkpt>
      <trkpt lat="45.16799" lon="5.82369">
        <ele>702</ele>
        <time>2017-10-25T14:03:53Z</time>
      </trkpt>
      <trkpt lat="45.16794" lon="5.82368">
        <ele>700</ele>
        <time>2017-10-25T14:03:55Z</time>
      </trkpt>
      <trkpt lat="45.16789" lon="5.82368">
        <ele>698</ele>
        <time>2017-10-25T14:03:57Z</time>
      </trkpt>
      <trkpt lat="45.16784" lon="5.82366">
        <ele>696</ele>
        <time>2017-10-25T14:03:59Z</time>
      </trkpt>
      <trkpt lat="45.16778" lon="5.82364">
        <ele>694</ele>
        <time>2017-10-25T14:04:01Z</time>
      </trkpt>
      <trkpt lat="45.16772" lon="5.82363">
        <ele>692</ele>
        <time>2017-10-25T14:04:03Z</time>
      </trkpt>
      <trkpt lat="45.16766" lon="5.82365">
        <ele>689</ele>
        <time>2017-10-25T14:04:05Z</time>
      </trkpt>
      <trkpt lat="45.16761" lon="5.82367">
        <ele>686</ele>
        <time>2017-10-25T14:04:07Z</time>
      </trkpt>
      <trkpt lat="45.16756" lon="5.82367">
        <ele>684</ele>
        <time>2017-10-25T14:04:09Z</time>
      </trkpt>
      <trkpt lat="45.16753" lon="5.82361">
        <ele>685</ele>
        <time>2017-10-25T14:04:12Z</time>
      </trkpt>
      <trkpt lat="45.1675" lon="5.8235">
        <ele>686</ele>
        <time>2017-10-25T14:05:29Z</time>
      </trkpt>
      <trkpt lat="45.16747" lon="5.82343">
        <ele>686</ele>
        <time>2017-10-25T14:05:32Z</time>
      </trkpt>
      <trkpt lat="45.16745" lon="5.82335">
        <ele>687</ele>
        <time>2017-10-25T14:05:35Z</time>
      </trkpt>
      <trkpt lat="45.16743" lon="5.82327">
        <ele>687</ele>
        <time>2017-10-25T14:05:38Z</time>
      </trkpt>
      <trkpt lat="45.16739" lon="5.8232">
        <ele>687</ele>
        <time>2017-10-25T14:05:41Z</time>
      </trkpt>
      <trkpt lat="45.16734" lon="5.82316">
        <ele>684</ele>
        <time>2017-10-25T14:05:44Z</time>
      </trkpt>
      <trkpt lat="45.16729" lon="5.82311">
        <ele>683</ele>
        <time>2017-10-25T14:05:47Z</time>
      </trkpt>
      <trkpt lat="45.16726" lon="5.82305">
        <ele>682</ele>
        <time>2017-10-25T14:05:50Z</time>
      </trkpt>
      <trkpt lat="45.1672" lon="5.82301">
        <ele>680</ele>
        <time>2017-10-25T14:05:53Z</time>
      </trkpt>
      <trkpt lat="45.16717" lon="5.82295">
        <ele>679</ele>
        <time>2017-10-25T14:05:56Z</time>
      </trkpt>
      <trkpt lat="45.16712" lon="5.8229">
        <ele>677</ele>
        <time>2017-10-25T14:05:59Z</time>
      </trkpt>
      <trkpt lat="45.16707" lon="5.82283">
        <ele>676</ele>
        <time>2017-10-25T14:06:01Z</time>
      </trkpt>
      <trkpt lat="45.16702" lon="5.82277">
        <ele>675</ele>
        <time>2017-10-25T14:06:03Z</time>
      </trkpt>
      <trkpt lat="45.16695" lon="5.82271">
        <ele>672</ele>
        <time>2017-10-25T14:06:05Z</time>
      </trkpt>
      <trkpt lat="45.16691" lon="5.82266">
        <ele>670</ele>
        <time>2017-10-25T14:06:06Z</time>
      </trkpt>
      <trkpt lat="45.16685" lon="5.82259">
        <ele>668</ele>
        <time>2017-10-25T14:06:07Z</time>
      </trkpt>
      <trkpt lat="45.16678" lon="5.8225">
        <ele>665</ele>
        <time>2017-10-25T14:06:09Z</time>
      </trkpt>
      <trkpt lat="45.16676" lon="5.82244">
        <ele>666</ele>
        <time>2017-10-25T14:06:11Z</time>
      </trkpt>
      <trkpt lat="45.16674" lon="5.82236">
        <ele>666</ele>
        <time>2017-10-25T14:06:13Z</time>
      </trkpt>
      <trkpt lat="45.1667" lon="5.8223">
        <ele>664</ele>
        <time>2017-10-25T14:06:15Z</time>
      </trkpt>
      <trkpt lat="45.16667" lon="5.82224">
        <ele>664</ele>
        <time>2017-10-25T14:06:17Z</time>
      </trkpt>
      <trkpt lat="45.16663" lon="5.82219">
        <ele>662</ele>
        <time>2017-10-25T14:06:19Z</time>
      </trkpt>
      <trkpt lat="45.16659" lon="5.82214">
        <ele>661</ele>
        <time>2017-10-25T14:06:21Z</time>
      </trkpt>
      <trkpt lat="45.16655" lon="5.82207">
        <ele>659</ele>
        <time>2017-10-25T14:06:23Z</time>
      </trkpt>
      <trkpt lat="45.16651" lon="5.82201">
        <ele>657</ele>
        <time>2017-10-25T14:06:25Z</time>
      </trkpt>
      <trkpt lat="45.1665" lon="5.82191">
        <ele>658</ele>
        <time>2017-10-25T14:06:28Z</time>
      </trkpt>
      <trkpt lat="45.16649" lon="5.82185">
        <ele>658</ele>
        <time>2017-10-25T14:06:30Z</time>
      </trkpt>
      <trkpt lat="45.16649" lon="5.82177">
        <ele>658</ele>
        <time>2017-10-25T14:06:32Z</time>
      </trkpt>
      <trkpt lat="45.16647" lon="5.8217">
        <ele>658</ele>
        <time>2017-10-25T14:06:34Z</time>
      </trkpt>
      <trkpt lat="45.16644" lon="5.82164">
        <ele>657</ele>
        <time>2017-10-25T14:06:36Z</time>
      </trkpt>
      <trkpt lat="45.16641" lon="5.82159">
        <ele>656</ele>
        <time>2017-10-25T14:06:38Z</time>
      </trkpt>
      <trkpt lat="45.16638" lon="5.82153">
        <ele>655</ele>
        <time>2017-10-25T14:06:40Z</time>
      </trkpt>
      <trkpt lat="45.16636" lon="5.82146">
        <ele>654</ele>
        <time>2017-10-25T14:06:42Z</time>
      </trkpt>
      <trkpt lat="45.16634" lon="5.82138">
        <ele>654</ele>
        <time>2017-10-25T14:06:44Z</time>
      </trkpt>
      <trkpt lat="45.16631" lon="5.8213">
        <ele>652</ele>
        <time>2017-10-25T14:06:46Z</time>
      </trkpt>
      <trkpt lat="45.16628" lon="5.82123">
        <ele>650</ele>
        <time>2017-10-25T14:06:48Z</time>
      </trkpt>
      <trkpt lat="45.16625" lon="5.82116">
        <ele>648</ele>
        <time>2017-10-25T14:06:50Z</time>
      </trkpt>
      <trkpt lat="45.16623" lon="5.8211">
        <ele>647</ele>
        <time>2017-10-25T14:06:53Z</time>
      </trkpt>
      <trkpt lat="45.1662" lon="5.82104">
        <ele>645</ele>
        <time>2017-10-25T14:06:58Z</time>
      </trkpt>
      <trkpt lat="45.16614" lon="5.82106">
        <ele>642</ele>
        <time>2017-10-25T14:07:01Z</time>
      </trkpt>
      <trkpt lat="45.16608" lon="5.82109">
        <ele>638</ele>
        <time>2017-10-25T14:07:04Z</time>
      </trkpt>
      <trkpt lat="45.16603" lon="5.82108">
        <ele>634</ele>
        <time>2017-10-25T14:07:07Z</time>
      </trkpt>
      <trkpt lat="45.16601" lon="5.82102">
        <ele>633</ele>
        <time>2017-10-25T14:07:10Z</time>
      </trkpt>
      <trkpt lat="45.166" lon="5.82094">
        <ele>632</ele>
        <time>2017-10-25T14:07:14Z</time>
      </trkpt>
      <trkpt lat="45.16595" lon="5.82091">
        <ele>629</ele>
        <time>2017-10-25T14:07:19Z</time>
      </trkpt>
      <trkpt lat="45.16596" lon="5.82083">
        <ele>629</ele>
        <time>2017-10-25T14:07:22Z</time>
      </trkpt>
      <trkpt lat="45.16599" lon="5.82076">
        <ele>631</ele>
        <time>2017-10-25T14:07:24Z</time>
      </trkpt>
      <trkpt lat="45.16603" lon="5.82071">
        <ele>634</ele>
        <time>2017-10-25T14:07:26Z</time>
      </trkpt>
      <trkpt lat="45.16607" lon="5.82067">
        <ele>636</ele>
        <time>2017-10-25T14:07:28Z</time>
      </trkpt>
      <trkpt lat="45.16609" lon="5.82062">
        <ele>637</ele>
        <time>2017-10-25T14:07:30Z</time>
      </trkpt>
      <trkpt lat="45.16612" lon="5.82054">
        <ele>637</ele>
        <time>2017-10-25T14:07:33Z</time>
      </trkpt>
      <trkpt lat="45.1661" lon="5.8206">
        <ele>637</ele>
        <time>2017-10-25T14:07:44Z</time>
      </trkpt>
      <trkpt lat="45.16615" lon="5.82055">
        <ele>640</ele>
        <time>2017-10-25T14:07:52Z</time>
      </trkpt>
      <trkpt lat="45.1662" lon="5.82049">
        <ele>641</ele>
        <time>2017-10-25T14:07:56Z</time>
      </trkpt>
      <trkpt lat="45.16621" lon="5.82041">
        <ele>640</ele>
        <time>2017-10-25T14:07:59Z</time>
      </trkpt>
      <trkpt lat="45.16622" lon="5.82034">
        <ele>639</ele>
        <time>2017-10-25T14:08:03Z</time>
      </trkpt>
      <trkpt lat="45.16619" lon="5.82029">
        <ele>637</ele>
        <time>2017-10-25T14:08:08Z</time>
      </trkpt>
      <trkpt lat="45.16613" lon="5.82031">
        <ele>634</ele>
        <time>2017-10-25T14:08:11Z</time>
      </trkpt>
      <trkpt lat="45.16615" lon="5.82024">
        <ele>634</ele>
        <time>2017-10-25T14:08:18Z</time>
      </trkpt>
      <trkpt lat="45.16616" lon="5.82016">
        <ele>634</ele>
        <time>2017-10-25T14:08:21Z</time>
      </trkpt>
      <trkpt lat="45.16613" lon="5.82009">
        <ele>631</ele>
        <time>2017-10-25T14:08:24Z</time>
      </trkpt>
      <trkpt lat="45.16607" lon="5.82006">
        <ele>627</ele>
        <time>2017-10-25T14:08:27Z</time>
      </trkpt>
      <trkpt lat="45.16605" lon="5.82">
        <ele>624</ele>
        <time>2017-10-25T14:08:38Z</time>
      </trkpt>
      <trkpt lat="45.16605" lon="5.81993">
        <ele>622</ele>
        <time>2017-10-25T14:08:40Z</time>
      </trkpt>
      <trkpt lat="45.16604" lon="5.81986">
        <ele>620</ele>
        <time>2017-10-25T14:08:43Z</time>
      </trkpt>
      <trkpt lat="45.166" lon="5.81981">
        <ele>616</ele>
        <time>2017-10-25T14:08:46Z</time>
      </trkpt>
      <trkpt lat="45.16597" lon="5.81973">
        <ele>612</ele>
        <time>2017-10-25T14:08:49Z</time>
      </trkpt>
      <trkpt lat="45.16595" lon="5.81964">
        <ele>608</ele>
        <time>2017-10-25T14:08:52Z</time>
      </trkpt>
      <trkpt lat="45.16594" lon="5.81956">
        <ele>605</ele>
        <time>2017-10-25T14:08:55Z</time>
      </trkpt>
      <trkpt lat="45.16593" lon="5.81949">
        <ele>603</ele>
        <time>2017-10-25T14:08:58Z</time>
      </trkpt>
      <trkpt lat="45.16594" lon="5.8194">
        <ele>601</ele>
        <time>2017-10-25T14:09:02Z</time>
      </trkpt>
      <trkpt lat="45.16593" lon="5.81933">
        <ele>598</ele>
        <time>2017-10-25T14:09:05Z</time>
      </trkpt>
      <trkpt lat="45.16592" lon="5.81925">
        <ele>596</ele>
        <time>2017-10-25T14:09:08Z</time>
      </trkpt>
      <trkpt lat="45.16589" lon="5.81918">
        <ele>592</ele>
        <time>2017-10-25T14:09:11Z</time>
      </trkpt>
      <trkpt lat="45.1659" lon="5.81911">
        <ele>591</ele>
        <time>2017-10-25T14:09:13Z</time>
      </trkpt>
      <trkpt lat="45.1659" lon="5.81903">
        <ele>588</ele>
        <time>2017-10-25T14:09:16Z</time>
      </trkpt>
      <trkpt lat="45.16588" lon="5.81896">
        <ele>585</ele>
        <time>2017-10-25T14:09:21Z</time>
      </trkpt>
      <trkpt lat="45.16591" lon="5.81891">
        <ele>585</ele>
        <time>2017-10-25T14:09:28Z</time>
      </trkpt>
      <trkpt lat="45.1659" lon="5.81884">
        <ele>583</ele>
        <time>2017-10-25T14:09:41Z</time>
      </trkpt>
      <trkpt lat="45.16593" lon="5.81876">
        <ele>582</ele>
        <time>2017-10-25T14:10:09Z</time>
      </trkpt>
      <trkpt lat="45.16596" lon="5.81871">
        <ele>582</ele>
        <time>2017-10-25T14:12:02Z</time>
      </trkpt>
      <trkpt lat="45.16598" lon="5.81865">
        <ele>581</ele>
        <time>2017-10-25T14:12:08Z</time>
      </trkpt>
      <trkpt lat="45.166" lon="5.81859">
        <ele>579</ele>
        <time>2017-10-25T14:12:09Z</time>
      </trkpt>
      <trkpt lat="45.16603" lon="5.81853">
        <ele>579</ele>
        <time>2017-10-25T14:12:10Z</time>
      </trkpt>
      <trkpt lat="45.16607" lon="5.81844">
        <ele>577</ele>
        <time>2017-10-25T14:12:12Z</time>
      </trkpt>
      <trkpt lat="45.16611" lon="5.81835">
        <ele>575</ele>
        <time>2017-10-25T14:12:14Z</time>
      </trkpt>
      <trkpt lat="45.16624" lon="5.81817">
        <ele>572</ele>
        <time>2017-10-25T14:12:23Z</time>
      </trkpt>
      <trkpt lat="45.1662" lon="5.81812">
        <ele>570</ele>
        <time>2017-10-25T14:12:27Z</time>
      </trkpt>
      <trkpt lat="45.16613" lon="5.8181">
        <ele>568</ele>
        <time>2017-10-25T14:12:30Z</time>
      </trkpt>
      <trkpt lat="45.16612" lon="5.81801">
        <ele>564</ele>
        <time>2017-10-25T14:12:36Z</time>
      </trkpt>
      <trkpt lat="45.1661" lon="5.81795">
        <ele>561</ele>
        <time>2017-10-25T14:12:39Z</time>
      </trkpt>
      <trkpt lat="45.16607" lon="5.81788">
        <ele>558</ele>
        <time>2017-10-25T14:12:43Z</time>
      </trkpt>
      <trkpt lat="45.16612" lon="5.81781">
        <ele>557</ele>
        <time>2017-10-25T14:12:45Z</time>
      </trkpt>
      <trkpt lat="45.16618" lon="5.81777">
        <ele>557</ele>
        <time>2017-10-25T14:12:47Z</time>
      </trkpt>
      <trkpt lat="45.16623" lon="5.81774">
        <ele>556</ele>
        <time>2017-10-25T14:13:01Z</time>
      </trkpt>
      <trkpt lat="45.1662" lon="5.81781">
        <ele>559</ele>
        <time>2017-10-25T14:13:09Z</time>
      </trkpt>
      <trkpt lat="45.16615" lon="5.81784">
        <ele>559</ele>
        <time>2017-10-25T14:13:12Z</time>
      </trkpt>
      <trkpt lat="45.1661" lon="5.81789">
        <ele>559</ele>
        <time>2017-10-25T14:13:14Z</time>
      </trkpt>
      <trkpt lat="45.16607" lon="5.81795">
        <ele>560</ele>
        <time>2017-10-25T14:13:19Z</time>
      </trkpt>
      <trkpt lat="45.16612" lon="5.81791">
        <ele>561</ele>
        <time>2017-10-25T14:14:02Z</time>
      </trkpt>
      <trkpt lat="45.16603" lon="5.81792">
        <ele>558</ele>
        <time>2017-10-25T14:15:05Z</time>
      </trkpt>
      <trkpt lat="45.16598" lon="5.81793">
        <ele>557</ele>
        <time>2017-10-25T14:15:06Z</time>
      </trkpt>
      <trkpt lat="45.1659" lon="5.81794">
        <ele>555</ele>
        <time>2017-10-25T14:15:08Z</time>
      </trkpt>
      <trkpt lat="45.16583" lon="5.81795">
        <ele>553</ele>
        <time>2017-10-25T14:15:10Z</time>
      </trkpt>
      <trkpt lat="45.16578" lon="5.81794">
        <ele>551</ele>
        <time>2017-10-25T14:15:19Z</time>
      </trkpt>
      <trkpt lat="45.16574" lon="5.8179">
        <ele>548</ele>
        <time>2017-10-25T14:15:22Z</time>
      </trkpt>
      <trkpt lat="45.16571" lon="5.81784">
        <ele>545</ele>
        <time>2017-10-25T14:15:29Z</time>
      </trkpt>
      <trkpt lat="45.16576" lon="5.81781">
        <ele>546</ele>
        <time>2017-10-25T14:15:36Z</time>
      </trkpt>
      <trkpt lat="45.1658" lon="5.81779">
        <ele>547</ele>
        <time>2017-10-25T14:15:38Z</time>
      </trkpt>
      <trkpt lat="45.16585" lon="5.81777">
        <ele>547</ele>
        <time>2017-10-25T14:15:41Z</time>
      </trkpt>
      <trkpt lat="45.16594" lon="5.81774">
        <ele>549</ele>
        <time>2017-10-25T14:15:47Z</time>
      </trkpt>
      <trkpt lat="45.166" lon="5.81773">
        <ele>550</ele>
        <time>2017-10-25T14:15:50Z</time>
      </trkpt>
      <trkpt lat="45.16604" lon="5.81773">
        <ele>552</ele>
        <time>2017-10-25T14:15:53Z</time>
      </trkpt>
      <trkpt lat="45.16611" lon="5.81773">
        <ele>554</ele>
        <time>2017-10-25T14:15:56Z</time>
      </trkpt>
      <trkpt lat="45.16617" lon="5.81774">
        <ele>556</ele>
        <time>2017-10-25T14:15:58Z</time>
      </trkpt>
      <trkpt lat="45.16622" lon="5.81775">
        <ele>556</ele>
        <time>2017-10-25T14:16:00Z</time>
      </trkpt>
      <trkpt lat="45.16628" lon="5.81778">
        <ele>558</ele>
        <time>2017-10-25T14:16:02Z</time>
      </trkpt>
      <trkpt lat="45.16633" lon="5.8178">
        <ele>559</ele>
        <time>2017-10-25T14:16:04Z</time>
      </trkpt>
      <trkpt lat="45.16639" lon="5.81782">
        <ele>561</ele>
        <time>2017-10-25T14:16:06Z</time>
      </trkpt>
      <trkpt lat="45.16644" lon="5.81784">
        <ele>562</ele>
        <time>2017-10-25T14:16:08Z</time>
      </trkpt>
      <trkpt lat="45.1665" lon="5.81784">
        <ele>563</ele>
        <time>2017-10-25T14:16:10Z</time>
      </trkpt>
      <trkpt lat="45.16654" lon="5.81784">
        <ele>563</ele>
        <time>2017-10-25T14:16:12Z</time>
      </trkpt>
      <trkpt lat="45.1666" lon="5.81785">
        <ele>564</ele>
        <time>2017-10-25T14:16:14Z</time>
      </trkpt>
      <trkpt lat="45.16664" lon="5.81785">
        <ele>564</ele>
        <time>2017-10-25T14:16:16Z</time>
      </trkpt>
      <trkpt lat="45.16671" lon="5.81784">
        <ele>564</ele>
        <time>2017-10-25T14:16:19Z</time>
      </trkpt>
      <trkpt lat="45.16675" lon="5.81782">
        <ele>564</ele>
        <time>2017-10-25T14:16:21Z</time>
      </trkpt>
      <trkpt lat="45.16681" lon="5.81781">
        <ele>564</ele>
        <time>2017-10-25T14:16:23Z</time>
      </trkpt>
      <trkpt lat="45.16689" lon="5.8178">
        <ele>564</ele>
        <time>2017-10-25T14:16:25Z</time>
      </trkpt>
      <trkpt lat="45.16697" lon="5.8178">
        <ele>563</ele>
        <time>2017-10-25T14:16:27Z</time>
      </trkpt>
      <trkpt lat="45.16703" lon="5.8178">
        <ele>562</ele>
        <time>2017-10-25T14:16:29Z</time>
      </trkpt>
      <trkpt lat="45.16709" lon="5.81785">
        <ele>564</ele>
        <time>2017-10-25T14:16:32Z</time>
      </trkpt>
      <trkpt lat="45.16711" lon="5.81791">
        <ele>566</ele>
        <time>2017-10-25T14:16:34Z</time>
      </trkpt>
      <trkpt lat="45.16714" lon="5.81798">
        <ele>568</ele>
        <time>2017-10-25T14:16:36Z</time>
      </trkpt>
      <trkpt lat="45.16718" lon="5.81804">
        <ele>570</ele>
        <time>2017-10-25T14:16:38Z</time>
      </trkpt>
      <trkpt lat="45.16725" lon="5.81812">
        <ele>572</ele>
        <time>2017-10-25T14:16:40Z</time>
      </trkpt>
      <trkpt lat="45.16733" lon="5.81822">
        <ele>575</ele>
        <time>2017-10-25T14:16:42Z</time>
      </trkpt>
      <trkpt lat="45.16737" lon="5.81831">
        <ele>577</ele>
        <time>2017-10-25T14:16:44Z</time>
      </trkpt>
      <trkpt lat="45.16742" lon="5.81837">
        <ele>579</ele>
        <time>2017-10-25T14:16:46Z</time>
      </trkpt>
      <trkpt lat="45.16747" lon="5.81842">
        <ele>579</ele>
        <time>2017-10-25T14:16:48Z</time>
      </trkpt>
      <trkpt lat="45.16755" lon="5.81848">
        <ele>580</ele>
        <time>2017-10-25T14:16:50Z</time>
      </trkpt>
      <trkpt lat="45.16759" lon="5.81852">
        <ele>580</ele>
        <time>2017-10-25T14:16:51Z</time>
      </trkpt>
      <trkpt lat="45.16767" lon="5.8186">
        <ele>581</ele>
        <time>2017-10-25T14:16:53Z</time>
      </trkpt>
      <trkpt lat="45.16771" lon="5.81865">
        <ele>581</ele>
        <time>2017-10-25T14:16:55Z</time>
      </trkpt>
      <trkpt lat="45.16766" lon="5.81862">
        <ele>582</ele>
        <time>2017-10-25T14:16:59Z</time>
      </trkpt>
      <trkpt lat="45.1677" lon="5.81867">
        <ele>582</ele>
        <time>2017-10-25T14:17:09Z</time>
      </trkpt>
      <trkpt lat="45.1678" lon="5.81872">
        <ele>581</ele>
        <time>2017-10-25T14:17:35Z</time>
      </trkpt>
      <trkpt lat="45.16787" lon="5.81877">
        <ele>580</ele>
        <time>2017-10-25T14:17:37Z</time>
      </trkpt>
      <trkpt lat="45.16795" lon="5.81881">
        <ele>579</ele>
        <time>2017-10-25T14:17:39Z</time>
      </trkpt>
      <trkpt lat="45.16802" lon="5.81883">
        <ele>578</ele>
        <time>2017-10-25T14:17:41Z</time>
      </trkpt>
      <trkpt lat="45.1681" lon="5.81883">
        <ele>576</ele>
        <time>2017-10-25T14:17:43Z</time>
      </trkpt>
      <trkpt lat="45.16816" lon="5.81883">
        <ele>574</ele>
        <time>2017-10-25T14:17:45Z</time>
      </trkpt>
      <trkpt lat="45.16822" lon="5.81885">
        <ele>573</ele>
        <time>2017-10-25T14:17:47Z</time>
      </trkpt>
      <trkpt lat="45.16827" lon="5.81884">
        <ele>572</ele>
        <time>2017-10-25T14:17:49Z</time>
      </trkpt>
      <trkpt lat="45.16833" lon="5.81885">
        <ele>573</ele>
        <time>2017-10-25T14:17:51Z</time>
      </trkpt>
      <trkpt lat="45.16837" lon="5.81886">
        <ele>573</ele>
        <time>2017-10-25T14:17:53Z</time>
      </trkpt>
      <trkpt lat="45.16842" lon="5.81889">
        <ele>574</ele>
        <time>2017-10-25T14:17:55Z</time>
      </trkpt>
      <trkpt lat="45.16847" lon="5.8189">
        <ele>574</ele>
        <time>2017-10-25T14:17:57Z</time>
      </trkpt>
      <trkpt lat="45.16847" lon="5.81881">
        <ele>572</ele>
        <time>2017-10-25T14:18:07Z</time>
      </trkpt>
      <trkpt lat="45.16842" lon="5.81873">
        <ele>570</ele>
        <time>2017-10-25T14:18:10Z</time>
      </trkpt>
      <trkpt lat="45.16838" lon="5.81866">
        <ele>567</ele>
        <time>2017-10-25T14:18:12Z</time>
      </trkpt>
      <trkpt lat="45.16833" lon="5.81859">
        <ele>565</ele>
        <time>2017-10-25T14:18:14Z</time>
      </trkpt>
      <trkpt lat="45.16827" lon="5.81852">
        <ele>563</ele>
        <time>2017-10-25T14:18:16Z</time>
      </trkpt>
      <trkpt lat="45.16822" lon="5.81848">
        <ele>561</ele>
        <time>2017-10-25T14:18:17Z</time>
      </trkpt>
      <trkpt lat="45.16818" lon="5.81842">
        <ele>561</ele>
        <time>2017-10-25T14:18:18Z</time>
      </trkpt>
      <trkpt lat="45.1681" lon="5.81835">
        <ele>561</ele>
        <time>2017-10-25T14:18:19Z</time>
      </trkpt>
      <trkpt lat="45.16811" lon="5.81816">
        <ele>555</ele>
        <time>2017-10-25T14:18:21Z</time>
      </trkpt>
      <trkpt lat="45.16811" lon="5.81806">
        <ele>552</ele>
        <time>2017-10-25T14:18:22Z</time>
      </trkpt>
      <trkpt lat="45.16809" lon="5.818">
        <ele>551</ele>
        <time>2017-10-25T14:18:23Z</time>
      </trkpt>
      <trkpt lat="45.16811" lon="5.81784">
        <ele>546</ele>
        <time>2017-10-25T14:18:25Z</time>
      </trkpt>
      <trkpt lat="45.16809" lon="5.81772">
        <ele>544</ele>
        <time>2017-10-25T14:18:26Z</time>
      </trkpt>
      <trkpt lat="45.16808" lon="5.81759">
        <ele>540</ele>
        <time>2017-10-25T14:18:27Z</time>
      </trkpt>
      <trkpt lat="45.16808" lon="5.81747">
        <ele>537</ele>
        <time>2017-10-25T14:18:28Z</time>
      </trkpt>
      <trkpt lat="45.16808" lon="5.81738">
        <ele>534</ele>
        <time>2017-10-25T14:18:29Z</time>
      </trkpt>
      <trkpt lat="45.16813" lon="5.81723">
        <ele>530</ele>
        <time>2017-10-25T14:18:30Z</time>
      </trkpt>
      <trkpt lat="45.16815" lon="5.817">
        <ele>524</ele>
        <time>2017-10-25T14:18:32Z</time>
      </trkpt>
      <trkpt lat="45.16819" lon="5.81688">
        <ele>522</ele>
        <time>2017-10-25T14:18:33Z</time>
      </trkpt>
      <trkpt lat="45.1682" lon="5.81675">
        <ele>519</ele>
        <time>2017-10-25T14:18:34Z</time>
      </trkpt>
      <trkpt lat="45.16824" lon="5.81665">
        <ele>518</ele>
        <time>2017-10-25T14:18:35Z</time>
      </trkpt>
      <trkpt lat="45.16824" lon="5.81656">
        <ele>516</ele>
        <time>2017-10-25T14:18:36Z</time>
      </trkpt>
      <trkpt lat="45.16827" lon="5.8164">
        <ele>514</ele>
        <time>2017-10-25T14:18:38Z</time>
      </trkpt>
      <trkpt lat="45.16829" lon="5.81633">
        <ele>513</ele>
        <time>2017-10-25T14:18:39Z</time>
      </trkpt>
      <trkpt lat="45.16833" lon="5.81625">
        <ele>513</ele>
        <time>2017-10-25T14:18:40Z</time>
      </trkpt>
      <trkpt lat="45.16837" lon="5.81617">
        <ele>513</ele>
        <time>2017-10-25T14:18:41Z</time>
      </trkpt>
      <trkpt lat="45.16844" lon="5.81606">
        <ele>514</ele>
        <time>2017-10-25T14:18:43Z</time>
      </trkpt>
      <trkpt lat="45.1685" lon="5.81601">
        <ele>515</ele>
        <time>2017-10-25T14:18:44Z</time>
      </trkpt>
      <trkpt lat="45.16857" lon="5.81596">
        <ele>517</ele>
        <time>2017-10-25T14:18:45Z</time>
      </trkpt>
      <trkpt lat="45.16867" lon="5.81588">
        <ele>520</ele>
        <time>2017-10-25T14:18:47Z</time>
      </trkpt>
      <trkpt lat="45.16873" lon="5.81584">
        <ele>523</ele>
        <time>2017-10-25T14:18:48Z</time>
      </trkpt>
      <trkpt lat="45.16887" lon="5.81582">
        <ele>528</ele>
        <time>2017-10-25T14:18:50Z</time>
      </trkpt>
      <trkpt lat="45.16898" lon="5.81576">
        <ele>533</ele>
        <time>2017-10-25T14:18:52Z</time>
      </trkpt>
      <trkpt lat="45.16902" lon="5.81572">
        <ele>535</ele>
        <time>2017-10-25T14:18:53Z</time>
      </trkpt>
      <trkpt lat="45.16887" lon="5.81571">
        <ele>529</ele>
        <time>2017-10-25T14:18:54Z</time>
      </trkpt>
      <trkpt lat="45.16888" lon="5.81564">
        <ele>530</ele>
        <time>2017-10-25T14:18:57Z</time>
      </trkpt>
      <trkpt lat="45.16883" lon="5.81564">
        <ele>529</ele>
        <time>2017-10-25T14:19:00Z</time>
      </trkpt>
      <trkpt lat="45.16874" lon="5.81563">
        <ele>525</ele>
        <time>2017-10-25T14:19:02Z</time>
      </trkpt>
      <trkpt lat="45.16868" lon="5.81561">
        <ele>524</ele>
        <time>2017-10-25T14:19:04Z</time>
      </trkpt>
      <trkpt lat="45.16862" lon="5.81559">
        <ele>522</ele>
        <time>2017-10-25T14:19:06Z</time>
      </trkpt>
      <trkpt lat="45.16855" lon="5.81558">
        <ele>519</ele>
        <time>2017-10-25T14:19:08Z</time>
      </trkpt>
      <trkpt lat="45.16847" lon="5.81559">
        <ele>516</ele>
        <time>2017-10-25T14:19:10Z</time>
      </trkpt>
      <trkpt lat="45.16839" lon="5.81561">
        <ele>513</ele>
        <time>2017-10-25T14:19:12Z</time>
      </trkpt>
      <trkpt lat="45.16833" lon="5.8156">
        <ele>511</ele>
        <time>2017-10-25T14:19:14Z</time>
      </trkpt>
      <trkpt lat="45.16829" lon="5.81558">
        <ele>510</ele>
        <time>2017-10-25T14:19:16Z</time>
      </trkpt>
      <trkpt lat="45.16824" lon="5.81552">
        <ele>510</ele>
        <time>2017-10-25T14:19:18Z</time>
      </trkpt>
      <trkpt lat="45.16819" lon="5.81545">
        <ele>510</ele>
        <time>2017-10-25T14:19:20Z</time>
      </trkpt>
      <trkpt lat="45.16814" lon="5.81543">
        <ele>509</ele>
        <time>2017-10-25T14:19:21Z</time>
      </trkpt>
      <trkpt lat="45.16808" lon="5.81541">
        <ele>508</ele>
        <time>2017-10-25T14:19:23Z</time>
      </trkpt>
      <trkpt lat="45.16788" lon="5.81544">
        <ele>503</ele>
        <time>2017-10-25T14:19:32Z</time>
      </trkpt>
      <trkpt lat="45.16781" lon="5.8154">
        <ele>502</ele>
        <time>2017-10-25T14:19:35Z</time>
      </trkpt>
      <trkpt lat="45.16774" lon="5.81537">
        <ele>502</ele>
        <time>2017-10-25T14:19:37Z</time>
      </trkpt>
      <trkpt lat="45.16768" lon="5.81534">
        <ele>501</ele>
        <time>2017-10-25T14:19:39Z</time>
      </trkpt>
      <trkpt lat="45.16762" lon="5.81531">
        <ele>500</ele>
        <time>2017-10-25T14:19:41Z</time>
      </trkpt>
      <trkpt lat="45.16757" lon="5.81527">
        <ele>500</ele>
        <time>2017-10-25T14:19:43Z</time>
      </trkpt>
      <trkpt lat="45.16753" lon="5.81522">
        <ele>501</ele>
        <time>2017-10-25T14:19:45Z</time>
      </trkpt>
      <trkpt lat="45.16739" lon="5.81511">
        <ele>499</ele>
        <time>2017-10-25T14:19:54Z</time>
      </trkpt>
      <trkpt lat="45.16733" lon="5.81507">
        <ele>498</ele>
        <time>2017-10-25T14:19:56Z</time>
      </trkpt>
      <trkpt lat="45.16729" lon="5.81502">
        <ele>498</ele>
        <time>2017-10-25T14:19:58Z</time>
      </trkpt>
      <trkpt lat="45.16723" lon="5.81499">
        <ele>497</ele>
        <time>2017-10-25T14:20:00Z</time>
      </trkpt>
      <trkpt lat="45.16718" lon="5.81499">
        <ele>495</ele>
        <time>2017-10-25T14:20:02Z</time>
      </trkpt>
      <trkpt lat="45.16714" lon="5.81495">
        <ele>494</ele>
        <time>2017-10-25T14:20:04Z</time>
      </trkpt>
      <trkpt lat="45.16712" lon="5.81488">
        <ele>496</ele>
        <time>2017-10-25T14:20:06Z</time>
      </trkpt>
      <trkpt lat="45.1671" lon="5.8148">
        <ele>497</ele>
        <time>2017-10-25T14:20:08Z</time>
      </trkpt>
      <trkpt lat="45.1671" lon="5.81473">
        <ele>500</ele>
        <time>2017-10-25T14:20:10Z</time>
      </trkpt>
      <trkpt lat="45.16707" lon="5.81465">
        <ele>501</ele>
        <time>2017-10-25T14:20:13Z</time>
      </trkpt>
      <trkpt lat="45.16704" lon="5.8146">
        <ele>501</ele>
        <time>2017-10-25T14:20:15Z</time>
      </trkpt>
      <trkpt lat="45.16701" lon="5.81454">
        <ele>501</ele>
        <time>2017-10-25T14:20:17Z</time>
      </trkpt>
      <trkpt lat="45.16697" lon="5.8145">
        <ele>500</ele>
        <time>2017-10-25T14:20:19Z</time>
      </trkpt>
      <trkpt lat="45.16692" lon="5.81444">
        <ele>500</ele>
        <time>2017-10-25T14:20:22Z</time>
      </trkpt>
      <trkpt lat="45.16686" lon="5.81438">
        <ele>499</ele>
        <time>2017-10-25T14:20:24Z</time>
      </trkpt>
      <trkpt lat="45.16678" lon="5.8143">
        <ele>497</ele>
        <time>2017-10-25T14:20:26Z</time>
      </trkpt>
      <trkpt lat="45.16675" lon="5.81425">
        <ele>496</ele>
        <time>2017-10-25T14:20:27Z</time>
      </trkpt>
      <trkpt lat="45.16673" lon="5.8142">
        <ele>496</ele>
        <time>2017-10-25T14:20:28Z</time>
      </trkpt>
      <trkpt lat="45.16667" lon="5.81408">
        <ele>496</ele>
        <time>2017-10-25T14:20:30Z</time>
      </trkpt>
      <trkpt lat="45.16665" lon="5.81398">
        <ele>497</ele>
        <time>2017-10-25T14:20:32Z</time>
      </trkpt>
      <trkpt lat="45.16662" lon="5.81388">
        <ele>497</ele>
        <time>2017-10-25T14:20:34Z</time>
      </trkpt>
      <trkpt lat="45.16658" lon="5.81379">
        <ele>496</ele>
        <time>2017-10-25T14:20:36Z</time>
      </trkpt>
      <trkpt lat="45.16654" lon="5.81369">
        <ele>494</ele>
        <time>2017-10-25T14:20:38Z</time>
      </trkpt>
      <trkpt lat="45.1665" lon="5.81357">
        <ele>493</ele>
        <time>2017-10-25T14:20:40Z</time>
      </trkpt>
      <trkpt lat="45.16649" lon="5.81349">
        <ele>493</ele>
        <time>2017-10-25T14:20:41Z</time>
      </trkpt>
      <trkpt lat="45.16647" lon="5.8133">
        <ele>494</ele>
        <time>2017-10-25T14:20:43Z</time>
      </trkpt>
      <trkpt lat="45.16642" lon="5.81322">
        <ele>491</ele>
        <time>2017-10-25T14:20:45Z</time>
      </trkpt>
      <trkpt lat="45.1664" lon="5.81308">
        <ele>490</ele>
        <time>2017-10-25T14:20:47Z</time>
      </trkpt>
      <trkpt lat="45.16636" lon="5.81297">
        <ele>487</ele>
        <time>2017-10-25T14:20:49Z</time>
      </trkpt>
      <trkpt lat="45.16636" lon="5.81286">
        <ele>486</ele>
        <time>2017-10-25T14:20:51Z</time>
      </trkpt>
      <trkpt lat="45.16638" lon="5.81277">
        <ele>487</ele>
        <time>2017-10-25T14:20:52Z</time>
      </trkpt>
      <trkpt lat="45.16637" lon="5.81269">
        <ele>486</ele>
        <time>2017-10-25T14:20:54Z</time>
      </trkpt>
      <trkpt lat="45.1664" lon="5.81259">
        <ele>488</ele>
        <time>2017-10-25T14:20:56Z</time>
      </trkpt>
      <trkpt lat="45.16645" lon="5.81248">
        <ele>491</ele>
        <time>2017-10-25T14:20:58Z</time>
      </trkpt>
      <trkpt lat="45.16649" lon="5.81243">
        <ele>493</ele>
        <time>2017-10-25T14:20:59Z</time>
      </trkpt>
      <trkpt lat="45.16653" lon="5.81235">
        <ele>495</ele>
        <time>2017-10-25T14:21:01Z</time>
      </trkpt>
      <trkpt lat="45.16655" lon="5.81228">
        <ele>495</ele>
        <time>2017-10-25T14:21:03Z</time>
      </trkpt>
      <trkpt lat="45.16658" lon="5.81221">
        <ele>496</ele>
        <time>2017-10-25T14:21:06Z</time>
      </trkpt>
      <trkpt lat="45.16662" lon="5.81216">
        <ele>498</ele>
        <time>2017-10-25T14:21:08Z</time>
      </trkpt>
      <trkpt lat="45.16668" lon="5.81208">
        <ele>501</ele>
        <time>2017-10-25T14:21:10Z</time>
      </trkpt>
      <trkpt lat="45.16674" lon="5.81201">
        <ele>505</ele>
        <time>2017-10-25T14:21:12Z</time>
      </trkpt>
      <trkpt lat="45.16678" lon="5.81196">
        <ele>506</ele>
        <time>2017-10-25T14:21:14Z</time>
      </trkpt>
      <trkpt lat="45.16681" lon="5.81192">
        <ele>508</ele>
        <time>2017-10-25T14:21:17Z</time>
      </trkpt>
      <trkpt lat="45.16684" lon="5.81187">
        <ele>509</ele>
        <time>2017-10-25T14:21:19Z</time>
      </trkpt>
      <trkpt lat="45.16688" lon="5.81182">
        <ele>511</ele>
        <time>2017-10-25T14:21:22Z</time>
      </trkpt>
      <trkpt lat="45.16694" lon="5.81176">
        <ele>513</ele>
        <time>2017-10-25T14:21:25Z</time>
      </trkpt>
      <trkpt lat="45.16699" lon="5.81173">
        <ele>515</ele>
        <time>2017-10-25T14:21:27Z</time>
      </trkpt>
      <trkpt lat="45.16703" lon="5.81169">
        <ele>517</ele>
        <time>2017-10-25T14:21:30Z</time>
      </trkpt>
      <trkpt lat="45.16708" lon="5.81164">
        <ele>518</ele>
        <time>2017-10-25T14:21:33Z</time>
      </trkpt>
      <trkpt lat="45.16713" lon="5.81159">
        <ele>520</ele>
        <time>2017-10-25T14:21:36Z</time>
      </trkpt>
      <trkpt lat="45.16716" lon="5.81152">
        <ele>520</ele>
        <time>2017-10-25T14:21:39Z</time>
      </trkpt>
      <trkpt lat="45.16719" lon="5.81144">
        <ele>519</ele>
        <time>2017-10-25T14:21:42Z</time>
      </trkpt>
      <trkpt lat="45.16723" lon="5.81139">
        <ele>520</ele>
        <time>2017-10-25T14:21:44Z</time>
      </trkpt>
      <trkpt lat="45.16727" lon="5.81132">
        <ele>520</ele>
        <time>2017-10-25T14:21:46Z</time>
      </trkpt>
      <trkpt lat="45.16731" lon="5.81126">
        <ele>521</ele>
        <time>2017-10-25T14:21:47Z</time>
      </trkpt>
      <trkpt lat="45.16739" lon="5.81116">
        <ele>523</ele>
        <time>2017-10-25T14:21:48Z</time>
      </trkpt>
      <trkpt lat="45.16744" lon="5.81105">
        <ele>523</ele>
        <time>2017-10-25T14:21:50Z</time>
      </trkpt>
      <trkpt lat="45.16747" lon="5.81095">
        <ele>523</ele>
        <time>2017-10-25T14:21:52Z</time>
      </trkpt>
      <trkpt lat="45.16754" lon="5.81084">
        <ele>526</ele>
        <time>2017-10-25T14:21:54Z</time>
      </trkpt>
      <trkpt lat="45.1676" lon="5.8107">
        <ele>526</ele>
        <time>2017-10-25T14:21:56Z</time>
      </trkpt>
      <trkpt lat="45.16765" lon="5.81061">
        <ele>528</ele>
        <time>2017-10-25T14:21:57Z</time>
      </trkpt>
      <trkpt lat="45.16758" lon="5.81057">
        <ele>523</ele>
        <time>2017-10-25T14:22:00Z</time>
      </trkpt>
      <trkpt lat="45.16759" lon="5.8105">
        <ele>523</ele>
        <time>2017-10-25T14:22:02Z</time>
      </trkpt>
      <trkpt lat="45.1676" lon="5.81043">
        <ele>522</ele>
        <time>2017-10-25T14:22:05Z</time>
      </trkpt>
      <trkpt lat="45.16755" lon="5.81037">
        <ele>519</ele>
        <time>2017-10-25T14:22:08Z</time>
      </trkpt>
      <trkpt lat="45.16752" lon="5.81031">
        <ele>517</ele>
        <time>2017-10-25T14:22:11Z</time>
      </trkpt>
      <trkpt lat="45.16749" lon="5.81022">
        <ele>516</ele>
        <time>2017-10-25T14:22:14Z</time>
      </trkpt>
      <trkpt lat="45.16747" lon="5.81014">
        <ele>514</ele>
        <time>2017-10-25T14:22:17Z</time>
      </trkpt>
      <trkpt lat="45.16745" lon="5.81006">
        <ele>513</ele>
        <time>2017-10-25T14:22:20Z</time>
      </trkpt>
      <trkpt lat="45.16742" lon="5.80998">
        <ele>511</ele>
        <time>2017-10-25T14:22:23Z</time>
      </trkpt>
      <trkpt lat="45.1674" lon="5.80992">
        <ele>510</ele>
        <time>2017-10-25T14:22:25Z</time>
      </trkpt>
      <trkpt lat="45.16739" lon="5.80985">
        <ele>509</ele>
        <time>2017-10-25T14:22:27Z</time>
      </trkpt>
      <trkpt lat="45.16737" lon="5.80979">
        <ele>508</ele>
        <time>2017-10-25T14:22:29Z</time>
      </trkpt>
      <trkpt lat="45.16733" lon="5.80975">
        <ele>505</ele>
        <time>2017-10-25T14:22:31Z</time>
      </trkpt>
      <trkpt lat="45.1673" lon="5.80968">
        <ele>503</ele>
        <time>2017-10-25T14:22:33Z</time>
      </trkpt>
      <trkpt lat="45.16727" lon="5.80961">
        <ele>501</ele>
        <time>2017-10-25T14:22:35Z</time>
      </trkpt>
      <trkpt lat="45.16724" lon="5.80953">
        <ele>500</ele>
        <time>2017-10-25T14:22:37Z</time>
      </trkpt>
      <trkpt lat="45.16722" lon="5.80945">
        <ele>499</ele>
        <time>2017-10-25T14:22:39Z</time>
      </trkpt>
      <trkpt lat="45.16721" lon="5.80936">
        <ele>499</ele>
        <time>2017-10-25T14:22:41Z</time>
      </trkpt>
      <trkpt lat="45.16719" lon="5.80925">
        <ele>498</ele>
        <time>2017-10-25T14:22:43Z</time>
      </trkpt>
      <trkpt lat="45.16715" lon="5.80916">
        <ele>495</ele>
        <time>2017-10-25T14:22:45Z</time>
      </trkpt>
      <trkpt lat="45.1671" lon="5.80906">
        <ele>492</ele>
        <time>2017-10-25T14:22:47Z</time>
      </trkpt>
      <trkpt lat="45.16707" lon="5.80896">
        <ele>490</ele>
        <time>2017-10-25T14:22:49Z</time>
      </trkpt>
      <trkpt lat="45.16705" lon="5.80884">
        <ele>488</ele>
        <time>2017-10-25T14:22:51Z</time>
      </trkpt>
      <trkpt lat="45.16706" lon="5.80871">
        <ele>489</ele>
        <time>2017-10-25T14:22:53Z</time>
      </trkpt>
      <trkpt lat="45.16707" lon="5.80864">
        <ele>489</ele>
        <time>2017-10-25T14:22:54Z</time>
      </trkpt>
      <trkpt lat="45.16708" lon="5.80857">
        <ele>490</ele>
        <time>2017-10-25T14:22:55Z</time>
      </trkpt>
      <trkpt lat="45.16709" lon="5.8085">
        <ele>491</ele>
        <time>2017-10-25T14:22:56Z</time>
      </trkpt>
      <trkpt lat="45.16712" lon="5.80842">
        <ele>494</ele>
        <time>2017-10-25T14:22:57Z</time>
      </trkpt>
      <trkpt lat="45.16714" lon="5.80832">
        <ele>495</ele>
        <time>2017-10-25T14:22:59Z</time>
      </trkpt>
      <trkpt lat="45.16715" lon="5.80822">
        <ele>494</ele>
        <time>2017-10-25T14:23:01Z</time>
      </trkpt>
      <trkpt lat="45.16718" lon="5.80813">
        <ele>497</ele>
        <time>2017-10-25T14:23:03Z</time>
      </trkpt>
      <trkpt lat="45.1672" lon="5.80804">
        <ele>497</ele>
        <time>2017-10-25T14:23:05Z</time>
      </trkpt>
      <trkpt lat="45.16723" lon="5.80796">
        <ele>499</ele>
        <time>2017-10-25T14:23:06Z</time>
      </trkpt>
      <trkpt lat="45.16723" lon="5.80785">
        <ele>497</ele>
        <time>2017-10-25T14:23:08Z</time>
      </trkpt>
      <trkpt lat="45.16723" lon="5.80773">
        <ele>495</ele>
        <time>2017-10-25T14:23:10Z</time>
      </trkpt>
      <trkpt lat="45.16723" lon="5.80765">
        <ele>494</ele>
        <time>2017-10-25T14:23:11Z</time>
      </trkpt>
      <trkpt lat="45.16722" lon="5.80752">
        <ele>493</ele>
        <time>2017-10-25T14:23:13Z</time>
      </trkpt>
      <trkpt lat="45.16726" lon="5.8074">
        <ele>494</ele>
        <time>2017-10-25T14:23:15Z</time>
      </trkpt>
      <trkpt lat="45.16729" lon="5.80733">
        <ele>496</ele>
        <time>2017-10-25T14:23:16Z</time>
      </trkpt>
      <trkpt lat="45.16734" lon="5.80725">
        <ele>499</ele>
        <time>2017-10-25T14:23:17Z</time>
      </trkpt>
      <trkpt lat="45.16741" lon="5.80717">
        <ele>503</ele>
        <time>2017-10-25T14:23:18Z</time>
      </trkpt>
      <trkpt lat="45.16748" lon="5.8071">
        <ele>507</ele>
        <time>2017-10-25T14:23:19Z</time>
      </trkpt>
      <trkpt lat="45.16752" lon="5.80703">
        <ele>508</ele>
        <time>2017-10-25T14:23:20Z</time>
      </trkpt>
      <trkpt lat="45.1676" lon="5.80697">
        <ele>512</ele>
        <time>2017-10-25T14:23:22Z</time>
      </trkpt>
      <trkpt lat="45.1677" lon="5.80694">
        <ele>515</ele>
        <time>2017-10-25T14:23:24Z</time>
      </trkpt>
      <trkpt lat="45.16775" lon="5.80694">
        <ele>517</ele>
        <time>2017-10-25T14:23:25Z</time>
      </trkpt>
      <trkpt lat="45.1678" lon="5.80696">
        <ele>519</ele>
        <time>2017-10-25T14:23:26Z</time>
      </trkpt>
      <trkpt lat="45.16786" lon="5.80696">
        <ele>522</ele>
        <time>2017-10-25T14:23:27Z</time>
      </trkpt>
      <trkpt lat="45.16791" lon="5.80697">
        <ele>524</ele>
        <time>2017-10-25T14:23:28Z</time>
      </trkpt>
      <trkpt lat="45.168" lon="5.80694">
        <ele>526</ele>
        <time>2017-10-25T14:23:29Z</time>
      </trkpt>
      <trkpt lat="45.1681" lon="5.80697">
        <ele>531</ele>
        <time>2017-10-25T14:23:30Z</time>
      </trkpt>
      <trkpt lat="45.16826" lon="5.80693">
        <ele>535</ele>
        <time>2017-10-25T14:23:32Z</time>
      </trkpt>
      <trkpt lat="45.16839" lon="5.80689">
        <ele>535</ele>
        <time>2017-10-25T14:23:34Z</time>
      </trkpt>
      <trkpt lat="45.16848" lon="5.80677">
        <ele>533</ele>
        <time>2017-10-25T14:23:36Z</time>
      </trkpt>
      <trkpt lat="45.16856" lon="5.80666">
        <ele>530</ele>
        <time>2017-10-25T14:23:38Z</time>
      </trkpt>
      <trkpt lat="45.16861" lon="5.80662">
        <ele>530</ele>
        <time>2017-10-25T14:23:39Z</time>
      </trkpt>
      <trkpt lat="45.16865" lon="5.80659">
        <ele>530</ele>
        <time>2017-10-25T14:23:40Z</time>
      </trkpt>
      <trkpt lat="45.16872" lon="5.80659">
        <ele>531</ele>
        <time>2017-10-25T14:23:42Z</time>
      </trkpt>
      <trkpt lat="45.16878" lon="5.80658">
        <ele>531</ele>
        <time>2017-10-25T14:23:43Z</time>
      </trkpt>
      <trkpt lat="45.16886" lon="5.80657">
        <ele>532</ele>
        <time>2017-10-25T14:23:45Z</time>
      </trkpt>
      <trkpt lat="45.16891" lon="5.80655">
        <ele>532</ele>
        <time>2017-10-25T14:23:46Z</time>
      </trkpt>
      <trkpt lat="45.16898" lon="5.80656">
        <ele>533</ele>
        <time>2017-10-25T14:23:48Z</time>
      </trkpt>
      <trkpt lat="45.16903" lon="5.80655">
        <ele>533</ele>
        <time>2017-10-25T14:23:49Z</time>
      </trkpt>
      <trkpt lat="45.16914" lon="5.80654">
        <ele>533</ele>
        <time>2017-10-25T14:23:51Z</time>
      </trkpt>
      <trkpt lat="45.16921" lon="5.80653">
        <ele>533</ele>
        <time>2017-10-25T14:23:52Z</time>
      </trkpt>
      <trkpt lat="45.16927" lon="5.80653">
        <ele>533</ele>
        <time>2017-10-25T14:23:53Z</time>
      </trkpt>
      <trkpt lat="45.16934" lon="5.80652">
        <ele>534</ele>
        <time>2017-10-25T14:23:54Z</time>
      </trkpt>
      <trkpt lat="45.16941" lon="5.80651">
        <ele>534</ele>
        <time>2017-10-25T14:23:55Z</time>
      </trkpt>
      <trkpt lat="45.16947" lon="5.80649">
        <ele>533</ele>
        <time>2017-10-25T14:23:56Z</time>
      </trkpt>
      <trkpt lat="45.1696" lon="5.80644">
        <ele>533</ele>
        <time>2017-10-25T14:23:58Z</time>
      </trkpt>
      <trkpt lat="45.1697" lon="5.8064">
        <ele>532</ele>
        <time>2017-10-25T14:24:00Z</time>
      </trkpt>
      <trkpt lat="45.16981" lon="5.8063">
        <ele>530</ele>
        <time>2017-10-25T14:24:02Z</time>
      </trkpt>
      <trkpt lat="45.16988" lon="5.80625">
        <ele>529</ele>
        <time>2017-10-25T14:24:03Z</time>
      </trkpt>
      <trkpt lat="45.16993" lon="5.8062">
        <ele>528</ele>
        <time>2017-10-25T14:24:04Z</time>
      </trkpt>
      <trkpt lat="45.17007" lon="5.80608">
        <ele>525</ele>
        <time>2017-10-25T14:24:06Z</time>
      </trkpt>
      <trkpt lat="45.17022" lon="5.806">
        <ele>523</ele>
        <time>2017-10-25T14:24:08Z</time>
      </trkpt>
      <trkpt lat="45.1703" lon="5.80597">
        <ele>523</ele>
        <time>2017-10-25T14:24:09Z</time>
      </trkpt>
      <trkpt lat="45.17035" lon="5.80593">
        <ele>522</ele>
        <time>2017-10-25T14:24:10Z</time>
      </trkpt>
      <trkpt lat="45.17041" lon="5.80595">
        <ele>523</ele>
        <time>2017-10-25T14:24:11Z</time>
      </trkpt>
      <trkpt lat="45.17052" lon="5.806">
        <ele>525</ele>
        <time>2017-10-25T14:24:13Z</time>
      </trkpt>
      <trkpt lat="45.17057" lon="5.80602">
        <ele>526</ele>
        <time>2017-10-25T14:24:14Z</time>
      </trkpt>
      <trkpt lat="45.17062" lon="5.80606">
        <ele>527</ele>
        <time>2017-10-25T14:24:15Z</time>
      </trkpt>
      <trkpt lat="45.17067" lon="5.8061">
        <ele>529</ele>
        <time>2017-10-25T14:24:16Z</time>
      </trkpt>
      <trkpt lat="45.17077" lon="5.80614">
        <ele>530</ele>
        <time>2017-10-25T14:24:18Z</time>
      </trkpt>
      <trkpt lat="45.17079" lon="5.80605">
        <ele>528</ele>
        <time>2017-10-25T14:24:19Z</time>
      </trkpt>
      <trkpt lat="45.17082" lon="5.80599">
        <ele>527</ele>
        <time>2017-10-25T14:24:21Z</time>
      </trkpt>
      <trkpt lat="45.17085" lon="5.80592">
        <ele>526</ele>
        <time>2017-10-25T14:24:23Z</time>
      </trkpt>
      <trkpt lat="45.17085" lon="5.80586">
        <ele>525</ele>
        <time>2017-10-25T14:24:24Z</time>
      </trkpt>
      <trkpt lat="45.17089" lon="5.80576">
        <ele>523</ele>
        <time>2017-10-25T14:24:25Z</time>
      </trkpt>
      <trkpt lat="45.17082" lon="5.80572">
        <ele>521</ele>
        <time>2017-10-25T14:24:27Z</time>
      </trkpt>
      <trkpt lat="45.17075" lon="5.8057">
        <ele>520</ele>
        <time>2017-10-25T14:24:28Z</time>
      </trkpt>
      <trkpt lat="45.1708" lon="5.80563">
        <ele>519</ele>
        <time>2017-10-25T14:24:29Z</time>
      </trkpt>
      <trkpt lat="45.17077" lon="5.80555">
        <ele>517</ele>
        <time>2017-10-25T14:24:31Z</time>
      </trkpt>
      <trkpt lat="45.17075" lon="5.80548">
        <ele>516</ele>
        <time>2017-10-25T14:24:33Z</time>
      </trkpt>
      <trkpt lat="45.17079" lon="5.8054">
        <ele>514</ele>
        <time>2017-10-25T14:24:35Z</time>
      </trkpt>
      <trkpt lat="45.17083" lon="5.80535">
        <ele>514</ele>
        <time>2017-10-25T14:24:36Z</time>
      </trkpt>
      <trkpt lat="45.17087" lon="5.80532">
        <ele>514</ele>
        <time>2017-10-25T14:24:37Z</time>
      </trkpt>
      <trkpt lat="45.17094" lon="5.80526">
        <ele>514</ele>
        <time>2017-10-25T14:24:39Z</time>
      </trkpt>
      <trkpt lat="45.171" lon="5.80521">
        <ele>514</ele>
        <time>2017-10-25T14:24:41Z</time>
      </trkpt>
      <trkpt lat="45.17107" lon="5.80515">
        <ele>515</ele>
        <time>2017-10-25T14:24:43Z</time>
      </trkpt>
      <trkpt lat="45.17114" lon="5.80509">
        <ele>515</ele>
        <time>2017-10-25T14:24:45Z</time>
      </trkpt>
      <trkpt lat="45.1712" lon="5.80502">
        <ele>515</ele>
        <time>2017-10-25T14:24:47Z</time>
      </trkpt>
      <trkpt lat="45.17126" lon="5.80495">
        <ele>515</ele>
        <time>2017-10-25T14:24:49Z</time>
      </trkpt>
      <trkpt lat="45.17133" lon="5.80492">
        <ele>516</ele>
        <time>2017-10-25T14:24:51Z</time>
      </trkpt>
      <trkpt lat="45.17139" lon="5.80488">
        <ele>517</ele>
        <time>2017-10-25T14:24:53Z</time>
      </trkpt>
      <trkpt lat="45.17144" lon="5.80485">
        <ele>518</ele>
        <time>2017-10-25T14:24:55Z</time>
      </trkpt>
      <trkpt lat="45.17149" lon="5.80483">
        <ele>519</ele>
        <time>2017-10-25T14:24:57Z</time>
      </trkpt>
      <trkpt lat="45.17154" lon="5.80482">
        <ele>520</ele>
        <time>2017-10-25T14:24:59Z</time>
      </trkpt>
      <trkpt lat="45.17159" lon="5.8048">
        <ele>520</ele>
        <time>2017-10-25T14:25:03Z</time>
      </trkpt>
      <trkpt lat="45.17164" lon="5.80475">
        <ele>521</ele>
        <time>2017-10-25T14:25:06Z</time>
      </trkpt>
      <trkpt lat="45.17168" lon="5.8047">
        <ele>521</ele>
        <time>2017-10-25T14:25:08Z</time>
      </trkpt>
      <trkpt lat="45.17173" lon="5.80468">
        <ele>522</ele>
        <time>2017-10-25T14:25:10Z</time>
      </trkpt>
      <trkpt lat="45.17178" lon="5.80471">
        <ele>523</ele>
        <time>2017-10-25T14:25:13Z</time>
      </trkpt>
      <trkpt lat="45.17178" lon="5.80478">
        <ele>524</ele>
        <time>2017-10-25T14:25:16Z</time>
      </trkpt>
      <trkpt lat="45.17175" lon="5.80484">
        <ele>524</ele>
        <time>2017-10-25T14:25:19Z</time>
      </trkpt>
      <trkpt lat="45.17168" lon="5.80488">
        <ele>524</ele>
        <time>2017-10-25T14:27:10Z</time>
      </trkpt>
      <trkpt lat="45.17162" lon="5.8049">
        <ele>523</ele>
        <time>2017-10-25T14:27:13Z</time>
      </trkpt>
      <trkpt lat="45.17157" lon="5.8049">
        <ele>521</ele>
        <time>2017-10-25T14:27:15Z</time>
      </trkpt>
      <trkpt lat="45.17152" lon="5.80493">
        <ele>521</ele>
        <time>2017-10-25T14:27:17Z</time>
      </trkpt>
      <trkpt lat="45.17146" lon="5.80496">
        <ele>520</ele>
        <time>2017-10-25T14:27:19Z</time>
      </trkpt>
      <trkpt lat="45.17141" lon="5.805">
        <ele>520</ele>
        <time>2017-10-25T14:27:21Z</time>
      </trkpt>
      <trkpt lat="45.17135" lon="5.80505">
        <ele>519</ele>
        <time>2017-10-25T14:27:24Z</time>
      </trkpt>
      <trkpt lat="45.17131" lon="5.8051">
        <ele>519</ele>
        <time>2017-10-25T14:27:26Z</time>
      </trkpt>
      <trkpt lat="45.17127" lon="5.80516">
        <ele>519</ele>
        <time>2017-10-25T14:27:28Z</time>
      </trkpt>
      <trkpt lat="45.17123" lon="5.80522">
        <ele>519</ele>
        <time>2017-10-25T14:27:30Z</time>
      </trkpt>
      <trkpt lat="45.17119" lon="5.80527">
        <ele>519</ele>
        <time>2017-10-25T14:27:32Z</time>
      </trkpt>
      <trkpt lat="45.17115" lon="5.80533">
        <ele>519</ele>
        <time>2017-10-25T14:27:34Z</time>
      </trkpt>
      <trkpt lat="45.17114" lon="5.80543">
        <ele>520</ele>
        <time>2017-10-25T14:27:36Z</time>
      </trkpt>
      <trkpt lat="45.17112" lon="5.80553">
        <ele>522</ele>
        <time>2017-10-25T14:27:38Z</time>
      </trkpt>
      <trkpt lat="45.1711" lon="5.80562">
        <ele>523</ele>
        <time>2017-10-25T14:27:40Z</time>
      </trkpt>
      <trkpt lat="45.17109" lon="5.8057">
        <ele>524</ele>
        <time>2017-10-25T14:27:42Z</time>
      </trkpt>
      <trkpt lat="45.17109" lon="5.80578">
        <ele>526</ele>
        <time>2017-10-25T14:27:44Z</time>
      </trkpt>
      <trkpt lat="45.1711" lon="5.80585">
        <ele>527</ele>
        <time>2017-10-25T14:27:46Z</time>
      </trkpt>
      <trkpt lat="45.17111" lon="5.80594">
        <ele>529</ele>
        <time>2017-10-25T14:27:49Z</time>
      </trkpt>
      <trkpt lat="45.17113" lon="5.80602">
        <ele>531</ele>
        <time>2017-10-25T14:27:52Z</time>
      </trkpt>
      <trkpt lat="45.17114" lon="5.80611">
        <ele>533</ele>
        <time>2017-10-25T14:27:55Z</time>
      </trkpt>
      <trkpt lat="45.17115" lon="5.8062">
        <ele>535</ele>
        <time>2017-10-25T14:27:58Z</time>
      </trkpt>
      <trkpt lat="45.17115" lon="5.80628">
        <ele>537</ele>
        <time>2017-10-25T14:28:01Z</time>
      </trkpt>
      <trkpt lat="45.17117" lon="5.80635">
        <ele>539</ele>
        <time>2017-10-25T14:28:04Z</time>
      </trkpt>
      <trkpt lat="45.17121" lon="5.8064">
        <ele>540</ele>
        <time>2017-10-25T14:28:08Z</time>
      </trkpt>
      <trkpt lat="45.17124" lon="5.80646">
        <ele>541</ele>
        <time>2017-10-25T14:28:12Z</time>
      </trkpt>
      <trkpt lat="45.17127" lon="5.80653">
        <ele>543</ele>
        <time>2017-10-25T14:28:16Z</time>
      </trkpt>
      <trkpt lat="45.17131" lon="5.80656">
        <ele>544</ele>
        <time>2017-10-25T14:28:19Z</time>
      </trkpt>
      <trkpt lat="45.17134" lon="5.80662">
        <ele>545</ele>
        <time>2017-10-25T14:28:23Z</time>
      </trkpt>
      <trkpt lat="45.17136" lon="5.8067">
        <ele>547</ele>
        <time>2017-10-25T14:28:27Z</time>
      </trkpt>
      <trkpt lat="45.17136" lon="5.80677">
        <ele>548</ele>
        <time>2017-10-25T14:28:31Z</time>
      </trkpt>
      <trkpt lat="45.17137" lon="5.80683">
        <ele>549</ele>
        <time>2017-10-25T14:28:35Z</time>
      </trkpt>
      <trkpt lat="45.17136" lon="5.8069">
        <ele>550</ele>
        <time>2017-10-25T14:28:39Z</time>
      </trkpt>
      <trkpt lat="45.17138" lon="5.80695">
        <ele>551</ele>
        <time>2017-10-25T14:28:43Z</time>
      </trkpt>
      <trkpt lat="45.17139" lon="5.80703">
        <ele>552</ele>
        <time>2017-10-25T14:28:48Z</time>
      </trkpt>
      <trkpt lat="45.1714" lon="5.8071">
        <ele>554</ele>
        <time>2017-10-25T14:28:52Z</time>
      </trkpt>
      <trkpt lat="45.17139" lon="5.80717">
        <ele>555</ele>
        <time>2017-10-25T14:28:56Z</time>
      </trkpt>
      <trkpt lat="45.17138" lon="5.80724">
        <ele>556</ele>
        <time>2017-10-25T14:29:00Z</time>
      </trkpt>
      <trkpt lat="45.17141" lon="5.80731">
        <ele>557</ele>
        <time>2017-10-25T14:29:04Z</time>
      </trkpt>
      <trkpt lat="45.17141" lon="5.80739">
        <ele>559</ele>
        <time>2017-10-25T14:29:08Z</time>
      </trkpt>
      <trkpt lat="45.1714" lon="5.80747">
        <ele>560</ele>
        <time>2017-10-25T14:29:12Z</time>
      </trkpt>
      <trkpt lat="45.17139" lon="5.80754">
        <ele>561</ele>
        <time>2017-10-25T14:29:16Z</time>
      </trkpt>
      <trkpt lat="45.17138" lon="5.8076">
        <ele>562</ele>
        <time>2017-10-25T14:29:19Z</time>
      </trkpt>
      <trkpt lat="45.17136" lon="5.80767">
        <ele>563</ele>
        <time>2017-10-25T14:29:22Z</time>
      </trkpt>
      <trkpt lat="45.17134" lon="5.80775">
        <ele>565</ele>
        <time>2017-10-25T14:29:26Z</time>
      </trkpt>
      <trkpt lat="45.17131" lon="5.80781">
        <ele>566</ele>
        <time>2017-10-25T14:29:30Z</time>
      </trkpt>
      <trkpt lat="45.17123" lon="5.80787">
        <ele>568</ele>
        <time>2017-10-25T14:29:37Z</time>
      </trkpt>
      <trkpt lat="45.17118" lon="5.80788">
        <ele>568</ele>
        <time>2017-10-25T14:29:40Z</time>
      </trkpt>
      <trkpt lat="45.17113" lon="5.8079">
        <ele>569</ele>
        <time>2017-10-25T14:29:46Z</time>
      </trkpt>
      <trkpt lat="45.17109" lon="5.80791">
        <ele>569</ele>
        <time>2017-10-25T14:29:50Z</time>
      </trkpt>
      <trkpt lat="45.17103" lon="5.80792">
        <ele>569</ele>
        <time>2017-10-25T14:29:55Z</time>
      </trkpt>
      <trkpt lat="45.17097" lon="5.80796">
        <ele>570</ele>
        <time>2017-10-25T14:29:58Z</time>
      </trkpt>
      <trkpt lat="45.17091" lon="5.80798">
        <ele>571</ele>
        <time>2017-10-25T14:30:01Z</time>
      </trkpt>
      <trkpt lat="45.17085" lon="5.80799">
        <ele>571</ele>
        <time>2017-10-25T14:30:05Z</time>
      </trkpt>
      <trkpt lat="45.1708" lon="5.80801">
        <ele>571</ele>
        <time>2017-10-25T14:30:09Z</time>
      </trkpt>
      <trkpt lat="45.17075" lon="5.80803">
        <ele>572</ele>
        <time>2017-10-25T14:30:13Z</time>
      </trkpt>
      <trkpt lat="45.1707" lon="5.80802">
        <ele>571</ele>
        <time>2017-10-25T14:30:17Z</time>
      </trkpt>
      <trkpt lat="45.17064" lon="5.80805">
        <ele>572</ele>
        <time>2017-10-25T14:30:21Z</time>
      </trkpt>
      <trkpt lat="45.17059" lon="5.80809">
        <ele>573</ele>
        <time>2017-10-25T14:30:23Z</time>
      </trkpt>
      <trkpt lat="45.17059" lon="5.80815">
        <ele>574</ele>
        <time>2017-10-25T14:30:25Z</time>
      </trkpt>
      <trkpt lat="45.17059" lon="5.80823">
        <ele>576</ele>
        <time>2017-10-25T14:30:28Z</time>
      </trkpt>
      <trkpt lat="45.1706" lon="5.80829">
        <ele>577</ele>
        <time>2017-10-25T14:30:32Z</time>
      </trkpt>
      <trkpt lat="45.17056" lon="5.80833">
        <ele>578</ele>
        <time>2017-10-25T14:30:37Z</time>
      </trkpt>
      <trkpt lat="45.17051" lon="5.80838">
        <ele>580</ele>
        <time>2017-10-25T14:30:41Z</time>
      </trkpt>
      <trkpt lat="45.17048" lon="5.80844">
        <ele>581</ele>
        <time>2017-10-25T14:30:45Z</time>
      </trkpt>
      <trkpt lat="45.17044" lon="5.80843">
        <ele>581</ele>
        <time>2017-10-25T14:30:49Z</time>
      </trkpt>
      <trkpt lat="45.1704" lon="5.80847">
        <ele>582</ele>
        <time>2017-10-25T14:30:52Z</time>
      </trkpt>
      <trkpt lat="45.17035" lon="5.80852">
        <ele>583</ele>
        <time>2017-10-25T14:30:55Z</time>
      </trkpt>
      <trkpt lat="45.17032" lon="5.80858">
        <ele>585</ele>
        <time>2017-10-25T14:31:03Z</time>
      </trkpt>
      <trkpt lat="45.17027" lon="5.80861">
        <ele>586</ele>
        <time>2017-10-25T14:31:09Z</time>
      </trkpt>
      <trkpt lat="45.17022" lon="5.80858">
        <ele>585</ele>
        <time>2017-10-25T14:31:12Z</time>
      </trkpt>
      <trkpt lat="45.17017" lon="5.80857">
        <ele>585</ele>
        <time>2017-10-25T14:31:15Z</time>
      </trkpt>
      <trkpt lat="45.17012" lon="5.80854">
        <ele>584</ele>
        <time>2017-10-25T14:31:18Z</time>
      </trkpt>
      <trkpt lat="45.17007" lon="5.80853">
        <ele>583</ele>
        <time>2017-10-25T14:31:25Z</time>
      </trkpt>
      <trkpt lat="45.17009" lon="5.80859">
        <ele>585</ele>
        <time>2017-10-25T14:40:48Z</time>
      </trkpt>
      <trkpt lat="45.17015" lon="5.80865">
        <ele>587</ele>
        <time>2017-10-25T14:40:51Z</time>
      </trkpt>
      <trkpt lat="45.17019" lon="5.80869">
        <ele>588</ele>
        <time>2017-10-25T14:40:53Z</time>
      </trkpt>
      <trkpt lat="45.17023" lon="5.80874">
        <ele>589</ele>
        <time>2017-10-25T14:40:55Z</time>
      </trkpt>
      <trkpt lat="45.1703" lon="5.80879">
        <ele>590</ele>
        <time>2017-10-25T14:40:57Z</time>
      </trkpt>
      <trkpt lat="45.17035" lon="5.80881">
        <ele>591</ele>
        <time>2017-10-25T14:40:58Z</time>
      </trkpt>
      <trkpt lat="45.17042" lon="5.80884">
        <ele>591</ele>
        <time>2017-10-25T14:41:00Z</time>
      </trkpt>
      <trkpt lat="45.17046" lon="5.80889">
        <ele>593</ele>
        <time>2017-10-25T14:41:02Z</time>
      </trkpt>
      <trkpt lat="45.17049" lon="5.80895">
        <ele>594</ele>
        <time>2017-10-25T14:41:04Z</time>
      </trkpt>
      <trkpt lat="45.17052" lon="5.809">
        <ele>595</ele>
        <time>2017-10-25T14:41:06Z</time>
      </trkpt>
      <trkpt lat="45.17058" lon="5.80904">
        <ele>596</ele>
        <time>2017-10-25T14:41:09Z</time>
      </trkpt>
      <trkpt lat="45.17063" lon="5.80907">
        <ele>597</ele>
        <time>2017-10-25T14:41:11Z</time>
      </trkpt>
      <trkpt lat="45.17068" lon="5.80909">
        <ele>597</ele>
        <time>2017-10-25T14:41:13Z</time>
      </trkpt>
      <trkpt lat="45.17073" lon="5.80909">
        <ele>597</ele>
        <time>2017-10-25T14:41:15Z</time>
      </trkpt>
      <trkpt lat="45.17079" lon="5.80909">
        <ele>597</ele>
        <time>2017-10-25T14:41:18Z</time>
      </trkpt>
      <trkpt lat="45.17085" lon="5.80911">
        <ele>597</ele>
        <time>2017-10-25T14:41:21Z</time>
      </trkpt>
      <trkpt lat="45.1709" lon="5.80914">
        <ele>597</ele>
        <time>2017-10-25T14:41:24Z</time>
      </trkpt>
      <trkpt lat="45.17096" lon="5.80917">
        <ele>598</ele>
        <time>2017-10-25T14:41:27Z</time>
      </trkpt>
      <trkpt lat="45.17102" lon="5.80919">
        <ele>598</ele>
        <time>2017-10-25T14:41:29Z</time>
      </trkpt>
      <trkpt lat="45.17107" lon="5.80922">
        <ele>598</ele>
        <time>2017-10-25T14:41:31Z</time>
      </trkpt>
      <trkpt lat="45.17112" lon="5.80924">
        <ele>599</ele>
        <time>2017-10-25T14:41:33Z</time>
      </trkpt>
      <trkpt lat="45.17117" lon="5.80926">
        <ele>599</ele>
        <time>2017-10-25T14:41:35Z</time>
      </trkpt>
      <trkpt lat="45.17123" lon="5.80928">
        <ele>599</ele>
        <time>2017-10-25T14:41:38Z</time>
      </trkpt>
      <trkpt lat="45.1713" lon="5.80931">
        <ele>599</ele>
        <time>2017-10-25T14:41:41Z</time>
      </trkpt>
      <trkpt lat="45.17135" lon="5.80936">
        <ele>600</ele>
        <time>2017-10-25T14:41:44Z</time>
      </trkpt>
      <trkpt lat="45.17138" lon="5.8094">
        <ele>601</ele>
        <time>2017-10-25T14:41:47Z</time>
      </trkpt>
      <trkpt lat="45.17141" lon="5.80945">
        <ele>602</ele>
        <time>2017-10-25T14:41:50Z</time>
      </trkpt>
      <trkpt lat="45.17145" lon="5.80949">
        <ele>602</ele>
        <time>2017-10-25T14:41:53Z</time>
      </trkpt>
      <trkpt lat="45.17149" lon="5.80953">
        <ele>603</ele>
        <time>2017-10-25T14:41:56Z</time>
      </trkpt>
      <trkpt lat="45.17155" lon="5.80957">
        <ele>604</ele>
        <time>2017-10-25T14:41:59Z</time>
      </trkpt>
      <trkpt lat="45.17159" lon="5.8096">
        <ele>604</ele>
        <time>2017-10-25T14:42:01Z</time>
      </trkpt>
      <trkpt lat="45.17164" lon="5.80966">
        <ele>605</ele>
        <time>2017-10-25T14:42:04Z</time>
      </trkpt>
      <trkpt lat="45.17169" lon="5.80971">
        <ele>606</ele>
        <time>2017-10-25T14:42:07Z</time>
      </trkpt>
      <trkpt lat="45.17175" lon="5.80975">
        <ele>607</ele>
        <time>2017-10-25T14:42:10Z</time>
      </trkpt>
      <trkpt lat="45.17181" lon="5.80976">
        <ele>607</ele>
        <time>2017-10-25T14:42:13Z</time>
      </trkpt>
      <trkpt lat="45.17186" lon="5.80976">
        <ele>607</ele>
        <time>2017-10-25T14:42:15Z</time>
      </trkpt>
      <trkpt lat="45.17191" lon="5.8098">
        <ele>607</ele>
        <time>2017-10-25T14:42:17Z</time>
      </trkpt>
      <trkpt lat="45.17195" lon="5.80984">
        <ele>608</ele>
        <time>2017-10-25T14:42:19Z</time>
      </trkpt>
      <trkpt lat="45.172" lon="5.80989">
        <ele>609</ele>
        <time>2017-10-25T14:42:22Z</time>
      </trkpt>
      <trkpt lat="45.17204" lon="5.80993">
        <ele>609</ele>
        <time>2017-10-25T14:42:25Z</time>
      </trkpt>
      <trkpt lat="45.17209" lon="5.80998">
        <ele>610</ele>
        <time>2017-10-25T14:42:28Z</time>
      </trkpt>
      <trkpt lat="45.17214" lon="5.81002">
        <ele>611</ele>
        <time>2017-10-25T14:42:31Z</time>
      </trkpt>
      <trkpt lat="45.17218" lon="5.81007">
        <ele>611</ele>
        <time>2017-10-25T14:42:35Z</time>
      </trkpt>
      <trkpt lat="45.17223" lon="5.81012">
        <ele>612</ele>
        <time>2017-10-25T14:42:39Z</time>
      </trkpt>
      <trkpt lat="45.17228" lon="5.81017">
        <ele>613</ele>
        <time>2017-10-25T14:42:43Z</time>
      </trkpt>
      <trkpt lat="45.17232" lon="5.81025">
        <ele>614</ele>
        <time>2017-10-25T14:42:46Z</time>
      </trkpt>
      <trkpt lat="45.17235" lon="5.8103">
        <ele>615</ele>
        <time>2017-10-25T14:42:48Z</time>
      </trkpt>
      <trkpt lat="45.17241" lon="5.81035">
        <ele>616</ele>
        <time>2017-10-25T14:42:51Z</time>
      </trkpt>
      <trkpt lat="45.17247" lon="5.81037">
        <ele>616</ele>
        <time>2017-10-25T14:42:54Z</time>
      </trkpt>
      <trkpt lat="45.17252" lon="5.81041">
        <ele>617</ele>
        <time>2017-10-25T14:42:57Z</time>
      </trkpt>
      <trkpt lat="45.17257" lon="5.81045">
        <ele>618</ele>
        <time>2017-10-25T14:43:00Z</time>
      </trkpt>
      <trkpt lat="45.1726" lon="5.81049">
        <ele>618</ele>
        <time>2017-10-25T14:43:03Z</time>
      </trkpt>
      <trkpt lat="45.17264" lon="5.81052">
        <ele>619</ele>
        <time>2017-10-25T14:43:06Z</time>
      </trkpt>
      <trkpt lat="45.17268" lon="5.81056">
        <ele>620</ele>
        <time>2017-10-25T14:43:09Z</time>
      </trkpt>
      <trkpt lat="45.17273" lon="5.81057">
        <ele>620</ele>
        <time>2017-10-25T14:43:12Z</time>
      </trkpt>
      <trkpt lat="45.17278" lon="5.81061">
        <ele>620</ele>
        <time>2017-10-25T14:43:16Z</time>
      </trkpt>
      <trkpt lat="45.17283" lon="5.81062">
        <ele>620</ele>
        <time>2017-10-25T14:43:19Z</time>
      </trkpt>
      <trkpt lat="45.17288" lon="5.81061">
        <ele>620</ele>
        <time>2017-10-25T14:43:23Z</time>
      </trkpt>
      <trkpt lat="45.17292" lon="5.81066">
        <ele>621</ele>
        <time>2017-10-25T14:43:27Z</time>
      </trkpt>
      <trkpt lat="45.17297" lon="5.81068">
        <ele>621</ele>
        <time>2017-10-25T14:43:30Z</time>
      </trkpt>
      <trkpt lat="45.17308" lon="5.8107">
        <ele>621</ele>
        <time>2017-10-25T14:43:35Z</time>
      </trkpt>
      <trkpt lat="45.17312" lon="5.81074">
        <ele>622</ele>
        <time>2017-10-25T14:43:39Z</time>
      </trkpt>
      <trkpt lat="45.17316" lon="5.81079">
        <ele>623</ele>
        <time>2017-10-25T14:43:43Z</time>
      </trkpt>
      <trkpt lat="45.17314" lon="5.81085">
        <ele>624</ele>
        <time>2017-10-25T14:43:47Z</time>
      </trkpt>
      <trkpt lat="45.17318" lon="5.81092">
        <ele>625</ele>
        <time>2017-10-25T14:43:50Z</time>
      </trkpt>
      <trkpt lat="45.17319" lon="5.81098">
        <ele>626</ele>
        <time>2017-10-25T14:43:53Z</time>
      </trkpt>
      <trkpt lat="45.17324" lon="5.81099">
        <ele>626</ele>
        <time>2017-10-25T14:43:57Z</time>
      </trkpt>
      <trkpt lat="45.17329" lon="5.81098">
        <ele>626</ele>
        <time>2017-10-25T14:44:00Z</time>
      </trkpt>
      <trkpt lat="45.17334" lon="5.81097">
        <ele>627</ele>
        <time>2017-10-25T14:44:03Z</time>
      </trkpt>
      <trkpt lat="45.17339" lon="5.81099">
        <ele>627</ele>
        <time>2017-10-25T14:44:07Z</time>
      </trkpt>
      <trkpt lat="45.17342" lon="5.81105">
        <ele>628</ele>
        <time>2017-10-25T14:44:12Z</time>
      </trkpt>
      <trkpt lat="45.17346" lon="5.8111">
        <ele>629</ele>
        <time>2017-10-25T14:44:16Z</time>
      </trkpt>
      <trkpt lat="45.1735" lon="5.8111">
        <ele>629</ele>
        <time>2017-10-25T14:44:19Z</time>
      </trkpt>
      <trkpt lat="45.17355" lon="5.81116">
        <ele>630</ele>
        <time>2017-10-25T14:44:24Z</time>
      </trkpt>
      <trkpt lat="45.17359" lon="5.8112">
        <ele>630</ele>
        <time>2017-10-25T14:44:30Z</time>
      </trkpt>
      <trkpt lat="45.17366" lon="5.81128">
        <ele>632</ele>
        <time>2017-10-25T14:44:40Z</time>
      </trkpt>
      <trkpt lat="45.17369" lon="5.81134">
        <ele>632</ele>
        <time>2017-10-25T14:44:44Z</time>
      </trkpt>
      <trkpt lat="45.17372" lon="5.8114">
        <ele>633</ele>
        <time>2017-10-25T14:44:49Z</time>
      </trkpt>
      <trkpt lat="45.17376" lon="5.81144">
        <ele>634</ele>
        <time>2017-10-25T14:44:56Z</time>
      </trkpt>
      <trkpt lat="45.17381" lon="5.81144">
        <ele>634</ele>
        <time>2017-10-25T14:45:01Z</time>
      </trkpt>
      <trkpt lat="45.17386" lon="5.81144">
        <ele>634</ele>
        <time>2017-10-25T14:45:05Z</time>
      </trkpt>
      <trkpt lat="45.17392" lon="5.81144">
        <ele>635</ele>
        <time>2017-10-25T14:45:09Z</time>
      </trkpt>
      <trkpt lat="45.17396" lon="5.81148">
        <ele>635</ele>
        <time>2017-10-25T14:45:13Z</time>
      </trkpt>
      <trkpt lat="45.174" lon="5.81151">
        <ele>636</ele>
        <time>2017-10-25T14:45:17Z</time>
      </trkpt>
      <trkpt lat="45.17404" lon="5.81163">
        <ele>637</ele>
        <time>2017-10-25T14:45:25Z</time>
      </trkpt>
      <trkpt lat="45.17397" lon="5.81155">
        <ele>636</ele>
        <time>2017-10-25T14:45:41Z</time>
      </trkpt>
      <trkpt lat="45.17393" lon="5.81149">
        <ele>635</ele>
        <time>2017-10-25T14:45:46Z</time>
      </trkpt>
      <trkpt lat="45.17398" lon="5.81155">
        <ele>636</ele>
        <time>2017-10-25T14:47:16Z</time>
      </trkpt>
      <trkpt lat="45.17403" lon="5.81164">
        <ele>638</ele>
        <time>2017-10-25T14:47:51Z</time>
      </trkpt>
      <trkpt lat="45.17408" lon="5.81171">
        <ele>638</ele>
        <time>2017-10-25T14:47:53Z</time>
      </trkpt>
      <trkpt lat="45.17415" lon="5.81178">
        <ele>640</ele>
        <time>2017-10-25T14:47:55Z</time>
      </trkpt>
      <trkpt lat="45.17422" lon="5.81186">
        <ele>641</ele>
        <time>2017-10-25T14:47:57Z</time>
      </trkpt>
      <trkpt lat="45.17426" lon="5.81193">
        <ele>642</ele>
        <time>2017-10-25T14:47:59Z</time>
      </trkpt>
      <trkpt lat="45.1743" lon="5.812">
        <ele>643</ele>
        <time>2017-10-25T14:48:01Z</time>
      </trkpt>
      <trkpt lat="45.17431" lon="5.81206">
        <ele>644</ele>
        <time>2017-10-25T14:48:03Z</time>
      </trkpt>
      <trkpt lat="45.17433" lon="5.81214">
        <ele>645</ele>
        <time>2017-10-25T14:48:06Z</time>
      </trkpt>
      <trkpt lat="45.17434" lon="5.81223">
        <ele>646</ele>
        <time>2017-10-25T14:48:09Z</time>
      </trkpt>
      <trkpt lat="45.17435" lon="5.81231">
        <ele>647</ele>
        <time>2017-10-25T14:48:12Z</time>
      </trkpt>
      <trkpt lat="45.17436" lon="5.81238">
        <ele>648</ele>
        <time>2017-10-25T14:48:15Z</time>
      </trkpt>
      <trkpt lat="45.17435" lon="5.81244">
        <ele>648</ele>
        <time>2017-10-25T14:48:18Z</time>
      </trkpt>
      <trkpt lat="45.17435" lon="5.81253">
        <ele>650</ele>
        <time>2017-10-25T14:48:22Z</time>
      </trkpt>
      <trkpt lat="45.17436" lon="5.8126">
        <ele>651</ele>
        <time>2017-10-25T14:48:26Z</time>
      </trkpt>
      <trkpt lat="45.17437" lon="5.81268">
        <ele>652</ele>
        <time>2017-10-25T14:48:30Z</time>
      </trkpt>
      <trkpt lat="45.17434" lon="5.81275">
        <ele>653</ele>
        <time>2017-10-25T14:48:34Z</time>
      </trkpt>
      <trkpt lat="45.17431" lon="5.81283">
        <ele>654</ele>
        <time>2017-10-25T14:48:38Z</time>
      </trkpt>
      <trkpt lat="45.17431" lon="5.81291">
        <ele>655</ele>
        <time>2017-10-25T14:48:42Z</time>
      </trkpt>
      <trkpt lat="45.17429" lon="5.81299">
        <ele>656</ele>
        <time>2017-10-25T14:48:46Z</time>
      </trkpt>
      <trkpt lat="45.17427" lon="5.81305">
        <ele>657</ele>
        <time>2017-10-25T14:48:50Z</time>
      </trkpt>
      <trkpt lat="45.17425" lon="5.81312">
        <ele>658</ele>
        <time>2017-10-25T14:48:54Z</time>
      </trkpt>
      <trkpt lat="45.17422" lon="5.81318">
        <ele>659</ele>
        <time>2017-10-25T14:48:58Z</time>
      </trkpt>
      <trkpt lat="45.17417" lon="5.81323">
        <ele>660</ele>
        <time>2017-10-25T14:49:02Z</time>
      </trkpt>
      <trkpt lat="45.17413" lon="5.81327">
        <ele>661</ele>
        <time>2017-10-25T14:49:05Z</time>
      </trkpt>
      <trkpt lat="45.1741" lon="5.81332">
        <ele>662</ele>
        <time>2017-10-25T14:49:08Z</time>
      </trkpt>
      <trkpt lat="45.17407" lon="5.81338">
        <ele>663</ele>
        <time>2017-10-25T14:49:11Z</time>
      </trkpt>
      <trkpt lat="45.17404" lon="5.81345">
        <ele>664</ele>
        <time>2017-10-25T14:49:15Z</time>
      </trkpt>
      <trkpt lat="45.17403" lon="5.81351">
        <ele>665</ele>
        <time>2017-10-25T14:49:19Z</time>
      </trkpt>
      <trkpt lat="45.17403" lon="5.81358">
        <ele>666</ele>
        <time>2017-10-25T14:49:23Z</time>
      </trkpt>
      <trkpt lat="45.17403" lon="5.81366">
        <ele>667</ele>
        <time>2017-10-25T14:49:27Z</time>
      </trkpt>
      <trkpt lat="45.17402" lon="5.81373">
        <ele>669</ele>
        <time>2017-10-25T14:49:31Z</time>
      </trkpt>
      <trkpt lat="45.17399" lon="5.8138">
        <ele>670</ele>
        <time>2017-10-25T14:49:35Z</time>
      </trkpt>
      <trkpt lat="45.17397" lon="5.81387">
        <ele>671</ele>
        <time>2017-10-25T14:49:39Z</time>
      </trkpt>
      <trkpt lat="45.17393" lon="5.81392">
        <ele>671</ele>
        <time>2017-10-25T14:49:43Z</time>
      </trkpt>
      <trkpt lat="45.17391" lon="5.81398">
        <ele>672</ele>
        <time>2017-10-25T14:49:47Z</time>
      </trkpt>
      <trkpt lat="45.17387" lon="5.81403">
        <ele>673</ele>
        <time>2017-10-25T14:49:51Z</time>
      </trkpt>
      <trkpt lat="45.17383" lon="5.81408">
        <ele>673</ele>
        <time>2017-10-25T14:49:55Z</time>
      </trkpt>
      <trkpt lat="45.17378" lon="5.81412">
        <ele>674</ele>
        <time>2017-10-25T14:49:59Z</time>
      </trkpt>
      <trkpt lat="45.17373" lon="5.81416">
        <ele>674</ele>
        <time>2017-10-25T14:50:03Z</time>
      </trkpt>
      <trkpt lat="45.1737" lon="5.81422">
        <ele>675</ele>
        <time>2017-10-25T14:50:07Z</time>
      </trkpt>
      <trkpt lat="45.17364" lon="5.81427">
        <ele>675</ele>
        <time>2017-10-25T14:50:13Z</time>
      </trkpt>
      <trkpt lat="45.17361" lon="5.81432">
        <ele>676</ele>
        <time>2017-10-25T14:50:16Z</time>
      </trkpt>
      <trkpt lat="45.17361" lon="5.81439">
        <ele>677</ele>
        <time>2017-10-25T14:50:20Z</time>
      </trkpt>
      <trkpt lat="45.17358" lon="5.81444">
        <ele>677</ele>
        <time>2017-10-25T14:50:23Z</time>
      </trkpt>
      <trkpt lat="45.17355" lon="5.8145">
        <ele>678</ele>
        <time>2017-10-25T14:50:27Z</time>
      </trkpt>
      <trkpt lat="45.17351" lon="5.81456">
        <ele>678</ele>
        <time>2017-10-25T14:50:31Z</time>
      </trkpt>
      <trkpt lat="45.17348" lon="5.81462">
        <ele>677</ele>
        <time>2017-10-25T14:50:35Z</time>
      </trkpt>
      <trkpt lat="45.17345" lon="5.81467">
        <ele>677</ele>
        <time>2017-10-25T14:50:39Z</time>
      </trkpt>
      <trkpt lat="45.17342" lon="5.81472">
        <ele>677</ele>
        <time>2017-10-25T14:50:43Z</time>
      </trkpt>
      <trkpt lat="45.1734" lon="5.81478">
        <ele>677</ele>
        <time>2017-10-25T14:50:47Z</time>
      </trkpt>
      <trkpt lat="45.17337" lon="5.81484">
        <ele>677</ele>
        <time>2017-10-25T14:50:51Z</time>
      </trkpt>
      <trkpt lat="45.17334" lon="5.81488">
        <ele>676</ele>
        <time>2017-10-25T14:50:55Z</time>
      </trkpt>
      <trkpt lat="45.17328" lon="5.815">
        <ele>676</ele>
        <time>2017-10-25T14:51:04Z</time>
      </trkpt>
      <trkpt lat="45.17326" lon="5.81507">
        <ele>675</ele>
        <time>2017-10-25T14:51:09Z</time>
      </trkpt>
      <trkpt lat="45.17329" lon="5.81511">
        <ele>676</ele>
        <time>2017-10-25T14:51:13Z</time>
      </trkpt>
      <trkpt lat="45.17334" lon="5.81515">
        <ele>676</ele>
        <time>2017-10-25T14:51:18Z</time>
      </trkpt>
      <trkpt lat="45.17339" lon="5.81516">
        <ele>677</ele>
        <time>2017-10-25T14:51:22Z</time>
      </trkpt>
      <trkpt lat="45.17343" lon="5.81515">
        <ele>677</ele>
        <time>2017-10-25T14:51:26Z</time>
      </trkpt>
      <trkpt lat="45.17348" lon="5.81516">
        <ele>678</ele>
        <time>2017-10-25T14:51:30Z</time>
      </trkpt>
      <trkpt lat="45.17351" lon="5.81523">
        <ele>678</ele>
        <time>2017-10-25T14:51:34Z</time>
      </trkpt>
      <trkpt lat="45.17353" lon="5.81528">
        <ele>677</ele>
        <time>2017-10-25T14:51:38Z</time>
      </trkpt>
      <trkpt lat="45.17357" lon="5.81533">
        <ele>677</ele>
        <time>2017-10-25T14:51:43Z</time>
      </trkpt>
      <trkpt lat="45.17362" lon="5.81533">
        <ele>678</ele>
        <time>2017-10-25T14:51:47Z</time>
      </trkpt>
      <trkpt lat="45.17367" lon="5.81535">
        <ele>678</ele>
        <time>2017-10-25T14:51:51Z</time>
      </trkpt>
      <trkpt lat="45.17373" lon="5.81538">
        <ele>679</ele>
        <time>2017-10-25T14:51:54Z</time>
      </trkpt>
      <trkpt lat="45.17377" lon="5.81541">
        <ele>679</ele>
        <time>2017-10-25T14:51:57Z</time>
      </trkpt>
      <trkpt lat="45.17382" lon="5.81544">
        <ele>680</ele>
        <time>2017-10-25T14:52:00Z</time>
      </trkpt>
      <trkpt lat="45.17386" lon="5.81548">
        <ele>680</ele>
        <time>2017-10-25T14:52:03Z</time>
      </trkpt>
      <trkpt lat="45.1739" lon="5.81552">
        <ele>680</ele>
        <time>2017-10-25T14:52:06Z</time>
      </trkpt>
      <trkpt lat="45.17394" lon="5.81556">
        <ele>680</ele>
        <time>2017-10-25T14:52:10Z</time>
      </trkpt>
      <trkpt lat="45.17398" lon="5.81561">
        <ele>680</ele>
        <time>2017-10-25T14:52:13Z</time>
      </trkpt>
      <trkpt lat="45.17402" lon="5.81565">
        <ele>681</ele>
        <time>2017-10-25T14:52:16Z</time>
      </trkpt>
      <trkpt lat="45.17405" lon="5.81571">
        <ele>681</ele>
        <time>2017-10-25T14:52:19Z</time>
      </trkpt>
      <trkpt lat="45.17408" lon="5.81576">
        <ele>681</ele>
        <time>2017-10-25T14:52:22Z</time>
      </trkpt>
      <trkpt lat="45.17411" lon="5.81581">
        <ele>681</ele>
        <time>2017-10-25T14:52:25Z</time>
      </trkpt>
      <trkpt lat="45.17414" lon="5.81588">
        <ele>681</ele>
        <time>2017-10-25T14:52:28Z</time>
      </trkpt>
      <trkpt lat="45.17417" lon="5.81594">
        <ele>681</ele>
        <time>2017-10-25T14:52:31Z</time>
      </trkpt>
      <trkpt lat="45.1742" lon="5.816">
        <ele>681</ele>
        <time>2017-10-25T14:52:34Z</time>
      </trkpt>
      <trkpt lat="45.17424" lon="5.81606">
        <ele>681</ele>
        <time>2017-10-25T14:52:37Z</time>
      </trkpt>
      <trkpt lat="45.17427" lon="5.81613">
        <ele>682</ele>
        <time>2017-10-25T14:52:40Z</time>
      </trkpt>
      <trkpt lat="45.17429" lon="5.8162">
        <ele>681</ele>
        <time>2017-10-25T14:52:43Z</time>
      </trkpt>
      <trkpt lat="45.17433" lon="5.81626">
        <ele>682</ele>
        <time>2017-10-25T14:52:46Z</time>
      </trkpt>
      <trkpt lat="45.17437" lon="5.81632">
        <ele>682</ele>
        <time>2017-10-25T14:52:49Z</time>
      </trkpt>
      <trkpt lat="45.17439" lon="5.81639">
        <ele>682</ele>
        <time>2017-10-25T14:52:52Z</time>
      </trkpt>
      <trkpt lat="45.17442" lon="5.81646">
        <ele>682</ele>
        <time>2017-10-25T14:52:55Z</time>
      </trkpt>
      <trkpt lat="45.17445" lon="5.81652">
        <ele>683</ele>
        <time>2017-10-25T14:52:58Z</time>
      </trkpt>
      <trkpt lat="45.17448" lon="5.81659">
        <ele>683</ele>
        <time>2017-10-25T14:53:01Z</time>
      </trkpt>
      <trkpt lat="45.17451" lon="5.81665">
        <ele>684</ele>
        <time>2017-10-25T14:53:04Z</time>
      </trkpt>
      <trkpt lat="45.17454" lon="5.81672">
        <ele>684</ele>
        <time>2017-10-25T14:53:07Z</time>
      </trkpt>
      <trkpt lat="45.17457" lon="5.81677">
        <ele>685</ele>
        <time>2017-10-25T14:53:09Z</time>
      </trkpt>
      <trkpt lat="45.17461" lon="5.81682">
        <ele>686</ele>
        <time>2017-10-25T14:53:11Z</time>
      </trkpt>
      <trkpt lat="45.17466" lon="5.81688">
        <ele>686</ele>
        <time>2017-10-25T14:53:14Z</time>
      </trkpt>
      <trkpt lat="45.17469" lon="5.81692">
        <ele>687</ele>
        <time>2017-10-25T14:53:16Z</time>
      </trkpt>
      <trkpt lat="45.17472" lon="5.817">
        <ele>687</ele>
        <time>2017-10-25T14:53:19Z</time>
      </trkpt>
      <trkpt lat="45.17475" lon="5.81708">
        <ele>688</ele>
        <time>2017-10-25T14:53:22Z</time>
      </trkpt>
      <trkpt lat="45.17478" lon="5.81715">
        <ele>688</ele>
        <time>2017-10-25T14:53:25Z</time>
      </trkpt>
      <trkpt lat="45.17482" lon="5.81722">
        <ele>688</ele>
        <time>2017-10-25T14:53:28Z</time>
      </trkpt>
      <trkpt lat="45.17485" lon="5.81729">
        <ele>689</ele>
        <time>2017-10-25T14:53:31Z</time>
      </trkpt>
      <trkpt lat="45.1749" lon="5.81737">
        <ele>689</ele>
        <time>2017-10-25T14:53:34Z</time>
      </trkpt>
      <trkpt lat="45.17492" lon="5.81743">
        <ele>690</ele>
        <time>2017-10-25T14:53:36Z</time>
      </trkpt>
      <trkpt lat="45.17494" lon="5.8175">
        <ele>690</ele>
        <time>2017-10-25T14:53:38Z</time>
      </trkpt>
      <trkpt lat="45.17496" lon="5.81756">
        <ele>690</ele>
        <time>2017-10-25T14:53:40Z</time>
      </trkpt>
      <trkpt lat="45.17498" lon="5.81762">
        <ele>690</ele>
        <time>2017-10-25T14:53:42Z</time>
      </trkpt>
      <trkpt lat="45.17505" lon="5.81773">
        <ele>691</ele>
        <time>2017-10-25T14:53:46Z</time>
      </trkpt>
      <trkpt lat="45.17509" lon="5.81779">
        <ele>691</ele>
        <time>2017-10-25T14:53:48Z</time>
      </trkpt>
      <trkpt lat="45.17513" lon="5.81786">
        <ele>692</ele>
        <time>2017-10-25T14:53:50Z</time>
      </trkpt>
      <trkpt lat="45.17517" lon="5.81793">
        <ele>692</ele>
        <time>2017-10-25T14:53:52Z</time>
      </trkpt>
      <trkpt lat="45.17521" lon="5.81801">
        <ele>693</ele>
        <time>2017-10-25T14:53:54Z</time>
      </trkpt>
      <trkpt lat="45.17524" lon="5.81807">
        <ele>693</ele>
        <time>2017-10-25T14:53:56Z</time>
      </trkpt>
      <trkpt lat="45.17527" lon="5.81813">
        <ele>694</ele>
        <time>2017-10-25T14:53:58Z</time>
      </trkpt>
      <trkpt lat="45.1753" lon="5.81819">
        <ele>694</ele>
        <time>2017-10-25T14:54:00Z</time>
      </trkpt>
      <trkpt lat="45.17534" lon="5.81824">
        <ele>695</ele>
        <time>2017-10-25T14:54:02Z</time>
      </trkpt>
      <trkpt lat="45.17537" lon="5.8183">
        <ele>696</ele>
        <time>2017-10-25T14:54:04Z</time>
      </trkpt>
      <trkpt lat="45.1754" lon="5.81836">
        <ele>696</ele>
        <time>2017-10-25T14:54:06Z</time>
      </trkpt>
      <trkpt lat="45.17543" lon="5.81842">
        <ele>697</ele>
        <time>2017-10-25T14:54:08Z</time>
      </trkpt>
      <trkpt lat="45.17545" lon="5.81849">
        <ele>697</ele>
        <time>2017-10-25T14:54:10Z</time>
      </trkpt>
      <trkpt lat="45.17547" lon="5.81857">
        <ele>697</ele>
        <time>2017-10-25T14:55:31Z</time>
      </trkpt>
      <trkpt lat="45.17548" lon="5.81869">
        <ele>698</ele>
        <time>2017-10-25T14:55:33Z</time>
      </trkpt>
      <trkpt lat="45.1755" lon="5.81877">
        <ele>699</ele>
        <time>2017-10-25T14:55:34Z</time>
      </trkpt>
      <trkpt lat="45.17553" lon="5.81898">
        <ele>701</ele>
        <time>2017-10-25T14:55:36Z</time>
      </trkpt>
      <trkpt lat="45.17558" lon="5.81907">
        <ele>703</ele>
        <time>2017-10-25T14:55:37Z</time>
      </trkpt>
      <trkpt lat="45.17561" lon="5.81914">
        <ele>704</ele>
        <time>2017-10-25T14:55:38Z</time>
      </trkpt>
      <trkpt lat="45.1757" lon="5.81929">
        <ele>707</ele>
        <time>2017-10-25T14:55:40Z</time>
      </trkpt>
      <trkpt lat="45.17575" lon="5.81935">
        <ele>708</ele>
        <time>2017-10-25T14:55:41Z</time>
      </trkpt>
      <trkpt lat="45.17582" lon="5.81942">
        <ele>710</ele>
        <time>2017-10-25T14:55:42Z</time>
      </trkpt>
      <trkpt lat="45.17592" lon="5.81957">
        <ele>711</ele>
        <time>2017-10-25T14:55:44Z</time>
      </trkpt>
      <trkpt lat="45.17592" lon="5.81965">
        <ele>712</ele>
        <time>2017-10-25T14:55:45Z</time>
      </trkpt>
      <trkpt lat="45.176" lon="5.81977">
        <ele>714</ele>
        <time>2017-10-25T14:55:47Z</time>
      </trkpt>
      <trkpt lat="45.17604" lon="5.81981">
        <ele>714</ele>
        <time>2017-10-25T14:55:48Z</time>
      </trkpt>
      <trkpt lat="45.17612" lon="5.81986">
        <ele>714</ele>
        <time>2017-10-25T14:55:50Z</time>
      </trkpt>
      <trkpt lat="45.17618" lon="5.81992">
        <ele>714</ele>
        <time>2017-10-25T14:55:52Z</time>
      </trkpt>
      <trkpt lat="45.17626" lon="5.81998">
        <ele>715</ele>
        <time>2017-10-25T14:55:54Z</time>
      </trkpt>
      <trkpt lat="45.17631" lon="5.82001">
        <ele>715</ele>
        <time>2017-10-25T14:55:56Z</time>
      </trkpt>
      <trkpt lat="45.17637" lon="5.82007">
        <ele>716</ele>
        <time>2017-10-25T14:55:58Z</time>
      </trkpt>
      <trkpt lat="45.17643" lon="5.82013">
        <ele>717</ele>
        <time>2017-10-25T14:56:00Z</time>
      </trkpt>
      <trkpt lat="45.1765" lon="5.82019">
        <ele>717</ele>
        <time>2017-10-25T14:56:02Z</time>
      </trkpt>
      <trkpt lat="45.17656" lon="5.82026">
        <ele>717</ele>
        <time>2017-10-25T14:56:04Z</time>
      </trkpt>
      <trkpt lat="45.17662" lon="5.82038">
        <ele>718</ele>
        <time>2017-10-25T14:56:06Z</time>
      </trkpt>
      <trkpt lat="45.17668" lon="5.82048">
        <ele>718</ele>
        <time>2017-10-25T14:56:08Z</time>
      </trkpt>
      <trkpt lat="45.17671" lon="5.82054">
        <ele>718</ele>
        <time>2017-10-25T14:56:09Z</time>
      </trkpt>
      <trkpt lat="45.17677" lon="5.82066">
        <ele>719</ele>
        <time>2017-10-25T14:56:11Z</time>
      </trkpt>
      <trkpt lat="45.1768" lon="5.82071">
        <ele>719</ele>
        <time>2017-10-25T14:56:12Z</time>
      </trkpt>
      <trkpt lat="45.17685" lon="5.8208">
        <ele>720</ele>
        <time>2017-10-25T14:56:13Z</time>
      </trkpt>
      <trkpt lat="45.17695" lon="5.82088">
        <ele>718</ele>
        <time>2017-10-25T14:56:14Z</time>
      </trkpt>
      <trkpt lat="45.17702" lon="5.82098">
        <ele>718</ele>
        <time>2017-10-25T14:56:16Z</time>
      </trkpt>
      <trkpt lat="45.17705" lon="5.82121">
        <ele>722</ele>
        <time>2017-10-25T14:56:18Z</time>
      </trkpt>
      <trkpt lat="45.17709" lon="5.82132">
        <ele>723</ele>
        <time>2017-10-25T14:56:19Z</time>
      </trkpt>
      <trkpt lat="45.17711" lon="5.8214">
        <ele>724</ele>
        <time>2017-10-25T14:56:20Z</time>
      </trkpt>
      <trkpt lat="45.17716" lon="5.82156">
        <ele>726</ele>
        <time>2017-10-25T14:56:22Z</time>
      </trkpt>
      <trkpt lat="45.17719" lon="5.82162">
        <ele>726</ele>
        <time>2017-10-25T14:56:23Z</time>
      </trkpt>
      <trkpt lat="45.17721" lon="5.82171">
        <ele>728</ele>
        <time>2017-10-25T14:56:25Z</time>
      </trkpt>
      <trkpt lat="45.17729" lon="5.82176">
        <ele>726</ele>
        <time>2017-10-25T14:56:27Z</time>
      </trkpt>
      <trkpt lat="45.17736" lon="5.82183">
        <ele>725</ele>
        <time>2017-10-25T14:56:29Z</time>
      </trkpt>
      <trkpt lat="45.17744" lon="5.82188">
        <ele>724</ele>
        <time>2017-10-25T14:56:31Z</time>
      </trkpt>
      <trkpt lat="45.17753" lon="5.82188">
        <ele>720</ele>
        <time>2017-10-25T14:56:33Z</time>
      </trkpt>
      <trkpt lat="45.17757" lon="5.82192">
        <ele>720</ele>
        <time>2017-10-25T14:56:35Z</time>
      </trkpt>
      <trkpt lat="45.1776" lon="5.82196">
        <ele>720</ele>
        <time>2017-10-25T14:56:37Z</time>
      </trkpt>
      <trkpt lat="45.17763" lon="5.82202">
        <ele>720</ele>
        <time>2017-10-25T14:56:39Z</time>
      </trkpt>
      <trkpt lat="45.17769" lon="5.82206">
        <ele>720</ele>
        <time>2017-10-25T14:56:42Z</time>
      </trkpt>
      <trkpt lat="45.17775" lon="5.8221">
        <ele>718</ele>
        <time>2017-10-25T14:56:45Z</time>
      </trkpt>
      <trkpt lat="45.17779" lon="5.82213">
        <ele>717</ele>
        <time>2017-10-25T14:56:47Z</time>
      </trkpt>
      <trkpt lat="45.17784" lon="5.82219">
        <ele>717</ele>
        <time>2017-10-25T14:56:50Z</time>
      </trkpt>
      <trkpt lat="45.1779" lon="5.82223">
        <ele>716</ele>
        <time>2017-10-25T14:56:53Z</time>
      </trkpt>
      <trkpt lat="45.17794" lon="5.82227">
        <ele>715</ele>
        <time>2017-10-25T14:56:56Z</time>
      </trkpt>
      <trkpt lat="45.17799" lon="5.82227">
        <ele>714</ele>
        <time>2017-10-25T14:56:59Z</time>
      </trkpt>
      <trkpt lat="45.17805" lon="5.82226">
        <ele>712</ele>
        <time>2017-10-25T14:57:01Z</time>
      </trkpt>
      <trkpt lat="45.1781" lon="5.82223">
        <ele>710</ele>
        <time>2017-10-25T14:57:03Z</time>
      </trkpt>
      <trkpt lat="45.17815" lon="5.82221">
        <ele>709</ele>
        <time>2017-10-25T14:57:05Z</time>
      </trkpt>
      <trkpt lat="45.1782" lon="5.82222">
        <ele>708</ele>
        <time>2017-10-25T14:57:24Z</time>
      </trkpt>
      <trkpt lat="45.17826" lon="5.82222">
        <ele>706</ele>
        <time>2017-10-25T14:57:26Z</time>
      </trkpt>
      <trkpt lat="45.17834" lon="5.82223">
        <ele>704</ele>
        <time>2017-10-25T14:57:28Z</time>
      </trkpt>
      <trkpt lat="45.17842" lon="5.82227">
        <ele>702</ele>
        <time>2017-10-25T14:57:30Z</time>
      </trkpt>
      <trkpt lat="45.1785" lon="5.82233">
        <ele>701</ele>
        <time>2017-10-25T14:57:32Z</time>
      </trkpt>
      <trkpt lat="45.17859" lon="5.82248">
        <ele>701</ele>
        <time>2017-10-25T14:57:35Z</time>
      </trkpt>
      <trkpt lat="45.1786" lon="5.82254">
        <ele>701</ele>
        <time>2017-10-25T14:57:36Z</time>
      </trkpt>
      <trkpt lat="45.1786" lon="5.8226">
        <ele>702</ele>
        <time>2017-10-25T14:57:37Z</time>
      </trkpt>
      <trkpt lat="45.1786" lon="5.82267">
        <ele>703</ele>
        <time>2017-10-25T14:57:38Z</time>
      </trkpt>
      <trkpt lat="45.17859" lon="5.82274">
        <ele>704</ele>
        <time>2017-10-25T14:57:39Z</time>
      </trkpt>
      <trkpt lat="45.17855" lon="5.82288">
        <ele>705</ele>
        <time>2017-10-25T14:57:41Z</time>
      </trkpt>
      <trkpt lat="45.17852" lon="5.82295">
        <ele>705</ele>
        <time>2017-10-25T14:57:42Z</time>
      </trkpt>
      <trkpt lat="45.17849" lon="5.82301">
        <ele>705</ele>
        <time>2017-10-25T14:57:43Z</time>
      </trkpt>
      <trkpt lat="45.17847" lon="5.82307">
        <ele>705</ele>
        <time>2017-10-25T14:57:44Z</time>
      </trkpt>
      <trkpt lat="45.17844" lon="5.82313">
        <ele>706</ele>
        <time>2017-10-25T14:57:45Z</time>
      </trkpt>
      <trkpt lat="45.17842" lon="5.8232">
        <ele>706</ele>
        <time>2017-10-25T14:57:46Z</time>
      </trkpt>
      <trkpt lat="45.17838" lon="5.82326">
        <ele>707</ele>
        <time>2017-10-25T14:57:47Z</time>
      </trkpt>
      <trkpt lat="45.17837" lon="5.82334">
        <ele>706</ele>
        <time>2017-10-25T14:57:48Z</time>
      </trkpt>
      <trkpt lat="45.17833" lon="5.82341">
        <ele>707</ele>
        <time>2017-10-25T14:57:49Z</time>
      </trkpt>
      <trkpt lat="45.17828" lon="5.82349">
        <ele>708</ele>
        <time>2017-10-25T14:57:50Z</time>
      </trkpt>
      <trkpt lat="45.17819" lon="5.82365">
        <ele>710</ele>
        <time>2017-10-25T14:57:52Z</time>
      </trkpt>
      <trkpt lat="45.17807" lon="5.82382">
        <ele>712</ele>
        <time>2017-10-25T14:57:54Z</time>
      </trkpt>
      <trkpt lat="45.17803" lon="5.82391">
        <ele>713</ele>
        <time>2017-10-25T14:57:55Z</time>
      </trkpt>
      <trkpt lat="45.17791" lon="5.82421">
        <ele>716</ele>
        <time>2017-10-25T14:57:58Z</time>
      </trkpt>
      <trkpt lat="45.17791" lon="5.82435">
        <ele>717</ele>
        <time>2017-10-25T14:57:59Z</time>
      </trkpt>
      <trkpt lat="45.17798" lon="5.82455">
        <ele>715</ele>
        <time>2017-10-25T14:58:01Z</time>
      </trkpt>
      <trkpt lat="45.17801" lon="5.82465">
        <ele>713</ele>
        <time>2017-10-25T14:58:02Z</time>
      </trkpt>
      <trkpt lat="45.17806" lon="5.82472">
        <ele>711</ele>
        <time>2017-10-25T14:58:03Z</time>
      </trkpt>
      <trkpt lat="45.17814" lon="5.82488">
        <ele>707</ele>
        <time>2017-10-25T14:58:05Z</time>
      </trkpt>
      <trkpt lat="45.17818" lon="5.82498">
        <ele>704</ele>
        <time>2017-10-25T14:58:06Z</time>
      </trkpt>
      <trkpt lat="45.17821" lon="5.82506">
        <ele>702</ele>
        <time>2017-10-25T14:58:07Z</time>
      </trkpt>
      <trkpt lat="45.17824" lon="5.82522">
        <ele>700</ele>
        <time>2017-10-25T14:58:09Z</time>
      </trkpt>
      <trkpt lat="45.17825" lon="5.8253">
        <ele>699</ele>
        <time>2017-10-25T14:58:10Z</time>
      </trkpt>
      <trkpt lat="45.17826" lon="5.82538">
        <ele>698</ele>
        <time>2017-10-25T14:58:11Z</time>
      </trkpt>
      <trkpt lat="45.17825" lon="5.8255">
        <ele>698</ele>
        <time>2017-10-25T14:58:13Z</time>
      </trkpt>
      <trkpt lat="45.17825" lon="5.8256">
        <ele>696</ele>
        <time>2017-10-25T14:58:15Z</time>
      </trkpt>
      <trkpt lat="45.17823" lon="5.82568">
        <ele>696</ele>
        <time>2017-10-25T14:58:17Z</time>
      </trkpt>
      <trkpt lat="45.17818" lon="5.82575">
        <ele>697</ele>
        <time>2017-10-25T14:58:22Z</time>
      </trkpt>
      <trkpt lat="45.17814" lon="5.82581">
        <ele>698</ele>
        <time>2017-10-25T14:58:24Z</time>
      </trkpt>
      <trkpt lat="45.1781" lon="5.8259">
        <ele>698</ele>
        <time>2017-10-25T14:58:26Z</time>
      </trkpt>
      <trkpt lat="45.17807" lon="5.82596">
        <ele>699</ele>
        <time>2017-10-25T14:58:27Z</time>
      </trkpt>
      <trkpt lat="45.17796" lon="5.82604">
        <ele>703</ele>
        <time>2017-10-25T14:58:28Z</time>
      </trkpt>
      <trkpt lat="45.1779" lon="5.82616">
        <ele>704</ele>
        <time>2017-10-25T14:58:30Z</time>
      </trkpt>
      <trkpt lat="45.17786" lon="5.82622">
        <ele>705</ele>
        <time>2017-10-25T14:58:31Z</time>
      </trkpt>
      <trkpt lat="45.17783" lon="5.82628">
        <ele>705</ele>
        <time>2017-10-25T14:58:32Z</time>
      </trkpt>
      <trkpt lat="45.17778" lon="5.82631">
        <ele>707</ele>
        <time>2017-10-25T14:58:33Z</time>
      </trkpt>
      <trkpt lat="45.17776" lon="5.82638">
        <ele>706</ele>
        <time>2017-10-25T14:58:34Z</time>
      </trkpt>
      <trkpt lat="45.17773" lon="5.82645">
        <ele>706</ele>
        <time>2017-10-25T14:58:35Z</time>
      </trkpt>
      <trkpt lat="45.17768" lon="5.8265">
        <ele>708</ele>
        <time>2017-10-25T14:58:36Z</time>
      </trkpt>
      <trkpt lat="45.17762" lon="5.82662">
        <ele>708</ele>
        <time>2017-10-25T14:58:38Z</time>
      </trkpt>
      <trkpt lat="45.17754" lon="5.82676">
        <ele>709</ele>
        <time>2017-10-25T14:58:40Z</time>
      </trkpt>
      <trkpt lat="45.1775" lon="5.82683">
        <ele>710</ele>
        <time>2017-10-25T14:58:41Z</time>
      </trkpt>
      <trkpt lat="45.17749" lon="5.82694">
        <ele>708</ele>
        <time>2017-10-25T14:58:43Z</time>
      </trkpt>
      <trkpt lat="45.17753" lon="5.827">
        <ele>704</ele>
        <time>2017-10-25T14:58:44Z</time>
      </trkpt>
      <trkpt lat="45.17754" lon="5.82711">
        <ele>701</ele>
        <time>2017-10-25T14:58:46Z</time>
      </trkpt>
      <trkpt lat="45.17754" lon="5.82718">
        <ele>699</ele>
        <time>2017-10-25T14:58:47Z</time>
      </trkpt>
      <trkpt lat="45.17747" lon="5.82723">
        <ele>702</ele>
        <time>2017-10-25T14:58:48Z</time>
      </trkpt>
      <trkpt lat="45.17744" lon="5.8273">
        <ele>703</ele>
        <time>2017-10-25T14:58:49Z</time>
      </trkpt>
      <trkpt lat="45.17736" lon="5.8274">
        <ele>705</ele>
        <time>2017-10-25T14:58:51Z</time>
      </trkpt>
      <trkpt lat="45.17737" lon="5.82749">
        <ele>703</ele>
        <time>2017-10-25T14:58:53Z</time>
      </trkpt>
      <trkpt lat="45.1774" lon="5.8276">
        <ele>699</ele>
        <time>2017-10-25T14:58:55Z</time>
      </trkpt>
      <trkpt lat="45.1774" lon="5.82771">
        <ele>697</ele>
        <time>2017-10-25T14:58:57Z</time>
      </trkpt>
      <trkpt lat="45.17732" lon="5.82778">
        <ele>700</ele>
        <time>2017-10-25T14:58:59Z</time>
      </trkpt>
      <trkpt lat="45.17735" lon="5.82785">
        <ele>698</ele>
        <time>2017-10-25T14:59:00Z</time>
      </trkpt>
      <trkpt lat="45.17732" lon="5.82795">
        <ele>698</ele>
        <time>2017-10-25T14:59:02Z</time>
      </trkpt>
      <trkpt lat="45.17728" lon="5.82804">
        <ele>699</ele>
        <time>2017-10-25T14:59:04Z</time>
      </trkpt>
      <trkpt lat="45.17722" lon="5.82816">
        <ele>700</ele>
        <time>2017-10-25T14:59:06Z</time>
      </trkpt>
      <trkpt lat="45.17714" lon="5.82824">
        <ele>704</ele>
        <time>2017-10-25T14:59:07Z</time>
      </trkpt>
      <trkpt lat="45.1771" lon="5.82835">
        <ele>704</ele>
        <time>2017-10-25T14:59:09Z</time>
      </trkpt>
      <trkpt lat="45.1771" lon="5.82846">
        <ele>702</ele>
        <time>2017-10-25T14:59:11Z</time>
      </trkpt>
      <trkpt lat="45.17708" lon="5.82854">
        <ele>701</ele>
        <time>2017-10-25T14:59:13Z</time>
      </trkpt>
      <trkpt lat="45.17703" lon="5.82856">
        <ele>704</ele>
        <time>2017-10-25T14:59:15Z</time>
      </trkpt>
      <trkpt lat="45.17703" lon="5.82866">
        <ele>702</ele>
        <time>2017-10-25T14:59:18Z</time>
      </trkpt>
      <trkpt lat="45.17703" lon="5.82875">
        <ele>700</ele>
        <time>2017-10-25T14:59:20Z</time>
      </trkpt>
      <trkpt lat="45.17703" lon="5.82883">
        <ele>699</ele>
        <time>2017-10-25T14:59:22Z</time>
      </trkpt>
      <trkpt lat="45.17706" lon="5.82889">
        <ele>696</ele>
        <time>2017-10-25T14:59:24Z</time>
      </trkpt>
      <trkpt lat="45.17711" lon="5.82893">
        <ele>693</ele>
        <time>2017-10-25T14:59:26Z</time>
      </trkpt>
      <trkpt lat="45.17717" lon="5.82897">
        <ele>688</ele>
        <time>2017-10-25T14:59:28Z</time>
      </trkpt>
      <trkpt lat="45.17722" lon="5.82902">
        <ele>684</ele>
        <time>2017-10-25T14:59:30Z</time>
      </trkpt>
      <trkpt lat="45.17725" lon="5.8291">
        <ele>681</ele>
        <time>2017-10-25T14:59:32Z</time>
      </trkpt>
      <trkpt lat="45.17725" lon="5.82919">
        <ele>679</ele>
        <time>2017-10-25T14:59:34Z</time>
      </trkpt>
      <trkpt lat="45.17723" lon="5.82931">
        <ele>677</ele>
        <time>2017-10-25T14:59:36Z</time>
      </trkpt>
      <trkpt lat="45.17721" lon="5.82937">
        <ele>677</ele>
        <time>2017-10-25T14:59:37Z</time>
      </trkpt>
      <trkpt lat="45.17719" lon="5.82944">
        <ele>676</ele>
        <time>2017-10-25T14:59:38Z</time>
      </trkpt>
      <trkpt lat="45.17716" lon="5.8295">
        <ele>676</ele>
        <time>2017-10-25T14:59:39Z</time>
      </trkpt>
      <trkpt lat="45.1771" lon="5.82958">
        <ele>677</ele>
        <time>2017-10-25T14:59:40Z</time>
      </trkpt>
      <trkpt lat="45.17706" lon="5.82968">
        <ele>677</ele>
        <time>2017-10-25T14:59:42Z</time>
      </trkpt>
      <trkpt lat="45.17702" lon="5.82976">
        <ele>677</ele>
        <time>2017-10-25T14:59:43Z</time>
      </trkpt>
      <trkpt lat="45.17688" lon="5.83002">
        <ele>677</ele>
        <time>2017-10-25T14:59:48Z</time>
      </trkpt>
      <trkpt lat="45.17688" lon="5.83016">
        <ele>673</ele>
        <time>2017-10-25T14:59:50Z</time>
      </trkpt>
      <trkpt lat="45.17683" lon="5.83022">
        <ele>673</ele>
        <time>2017-10-25T14:59:51Z</time>
      </trkpt>
      <trkpt lat="45.17682" lon="5.83032">
        <ele>671</ele>
        <time>2017-10-25T14:59:53Z</time>
      </trkpt>
      <trkpt lat="45.17669" lon="5.83043">
        <ele>676</ele>
        <time>2017-10-25T14:59:55Z</time>
      </trkpt>
      <trkpt lat="45.17666" lon="5.83051">
        <ele>676</ele>
        <time>2017-10-25T14:59:56Z</time>
      </trkpt>
      <trkpt lat="45.17657" lon="5.83059">
        <ele>679</ele>
        <time>2017-10-25T14:59:57Z</time>
      </trkpt>
      <trkpt lat="45.1765" lon="5.83063">
        <ele>681</ele>
        <time>2017-10-25T14:59:58Z</time>
      </trkpt>
      <trkpt lat="45.17649" lon="5.83076">
        <ele>680</ele>
        <time>2017-10-25T15:00:01Z</time>
      </trkpt>
      <trkpt lat="45.17643" lon="5.83081">
        <ele>683</ele>
        <time>2017-10-25T15:00:03Z</time>
      </trkpt>
      <trkpt lat="45.17639" lon="5.83085">
        <ele>685</ele>
        <time>2017-10-25T15:00:05Z</time>
      </trkpt>
      <trkpt lat="45.17637" lon="5.83092">
        <ele>685</ele>
        <time>2017-10-25T15:00:10Z</time>
      </trkpt>
      <trkpt lat="45.17633" lon="5.83097">
        <ele>687</ele>
        <time>2017-10-25T15:00:13Z</time>
      </trkpt>
      <trkpt lat="45.1763" lon="5.83106">
        <ele>689</ele>
        <time>2017-10-25T15:00:16Z</time>
      </trkpt>
      <trkpt lat="45.17629" lon="5.83114">
        <ele>691</ele>
        <time>2017-10-25T15:00:18Z</time>
      </trkpt>
      <trkpt lat="45.17629" lon="5.83122">
        <ele>692</ele>
        <time>2017-10-25T15:00:20Z</time>
      </trkpt>
      <trkpt lat="45.17629" lon="5.8313">
        <ele>693</ele>
        <time>2017-10-25T15:00:22Z</time>
      </trkpt>
      <trkpt lat="45.1763" lon="5.83137">
        <ele>693</ele>
        <time>2017-10-25T15:00:24Z</time>
      </trkpt>
      <trkpt lat="45.17633" lon="5.83144">
        <ele>692</ele>
        <time>2017-10-25T15:00:26Z</time>
      </trkpt>
      <trkpt lat="45.17635" lon="5.83152">
        <ele>691</ele>
        <time>2017-10-25T15:00:28Z</time>
      </trkpt>
      <trkpt lat="45.17638" lon="5.8316">
        <ele>690</ele>
        <time>2017-10-25T15:00:30Z</time>
      </trkpt>
      <trkpt lat="45.17642" lon="5.83165">
        <ele>688</ele>
        <time>2017-10-25T15:00:32Z</time>
      </trkpt>
      <trkpt lat="45.17647" lon="5.83168">
        <ele>684</ele>
        <time>2017-10-25T15:00:35Z</time>
      </trkpt>
      <trkpt lat="45.17651" lon="5.83171">
        <ele>684</ele>
        <time>2017-10-25T15:00:38Z</time>
      </trkpt>
      <trkpt lat="45.17657" lon="5.83174">
        <ele>682</ele>
        <time>2017-10-25T15:00:41Z</time>
      </trkpt>
      <trkpt lat="45.17663" lon="5.83176">
        <ele>680</ele>
        <time>2017-10-25T15:00:44Z</time>
      </trkpt>
      <trkpt lat="45.17664" lon="5.83185">
        <ele>683</ele>
        <time>2017-10-25T15:00:47Z</time>
      </trkpt>
      <trkpt lat="45.17667" lon="5.83193">
        <ele>685</ele>
        <time>2017-10-25T15:00:50Z</time>
      </trkpt>
      <trkpt lat="45.17671" lon="5.83198">
        <ele>684</ele>
        <time>2017-10-25T15:00:52Z</time>
      </trkpt>
      <trkpt lat="45.17677" lon="5.83206">
        <ele>684</ele>
        <time>2017-10-25T15:00:54Z</time>
      </trkpt>
      <trkpt lat="45.17681" lon="5.83212">
        <ele>684</ele>
        <time>2017-10-25T15:00:56Z</time>
      </trkpt>
      <trkpt lat="45.17681" lon="5.8322">
        <ele>687</ele>
        <time>2017-10-25T15:00:58Z</time>
      </trkpt>
      <trkpt lat="45.17682" lon="5.83227">
        <ele>688</ele>
        <time>2017-10-25T15:01:00Z</time>
      </trkpt>
      <trkpt lat="45.17683" lon="5.83235">
        <ele>690</ele>
        <time>2017-10-25T15:01:02Z</time>
      </trkpt>
      <trkpt lat="45.17688" lon="5.83241">
        <ele>690</ele>
        <time>2017-10-25T15:01:05Z</time>
      </trkpt>
      <trkpt lat="45.17695" lon="5.83245">
        <ele>688</ele>
        <time>2017-10-25T15:01:07Z</time>
      </trkpt>
      <trkpt lat="45.17702" lon="5.8325">
        <ele>685</ele>
        <time>2017-10-25T15:01:09Z</time>
      </trkpt>
      <trkpt lat="45.17709" lon="5.83258">
        <ele>683</ele>
        <time>2017-10-25T15:01:11Z</time>
      </trkpt>
      <trkpt lat="45.17712" lon="5.83264">
        <ele>683</ele>
        <time>2017-10-25T15:01:12Z</time>
      </trkpt>
      <trkpt lat="45.1772" lon="5.8327">
        <ele>681</ele>
        <time>2017-10-25T15:01:14Z</time>
      </trkpt>
      <trkpt lat="45.17725" lon="5.83276">
        <ele>680</ele>
        <time>2017-10-25T15:01:16Z</time>
      </trkpt>
      <trkpt lat="45.17729" lon="5.8328">
        <ele>679</ele>
        <time>2017-10-25T15:01:17Z</time>
      </trkpt>
      <trkpt lat="45.1774" lon="5.83285">
        <ele>676</ele>
        <time>2017-10-25T15:01:19Z</time>
      </trkpt>
      <trkpt lat="45.1774" lon="5.83293">
        <ele>678</ele>
        <time>2017-10-25T15:01:21Z</time>
      </trkpt>
      <trkpt lat="45.17744" lon="5.833">
        <ele>677</ele>
        <time>2017-10-25T15:01:23Z</time>
      </trkpt>
      <trkpt lat="45.17748" lon="5.83307">
        <ele>678</ele>
        <time>2017-10-25T15:01:25Z</time>
      </trkpt>
      <trkpt lat="45.1775" lon="5.83314">
        <ele>679</ele>
        <time>2017-10-25T15:01:27Z</time>
      </trkpt>
      <trkpt lat="45.17751" lon="5.83321">
        <ele>681</ele>
        <time>2017-10-25T15:01:29Z</time>
      </trkpt>
      <trkpt lat="45.17751" lon="5.83328">
        <ele>683</ele>
        <time>2017-10-25T15:01:31Z</time>
      </trkpt>
      <trkpt lat="45.17752" lon="5.83335">
        <ele>685</ele>
        <time>2017-10-25T15:01:33Z</time>
      </trkpt>
      <trkpt lat="45.17754" lon="5.83342">
        <ele>686</ele>
        <time>2017-10-25T15:01:35Z</time>
      </trkpt>
      <trkpt lat="45.17758" lon="5.83346">
        <ele>685</ele>
        <time>2017-10-25T15:01:39Z</time>
      </trkpt>
      <trkpt lat="45.17764" lon="5.83345">
        <ele>682</ele>
        <time>2017-10-25T15:01:42Z</time>
      </trkpt>
      <trkpt lat="45.17775" lon="5.83339">
        <ele>674</ele>
        <time>2017-10-25T15:01:47Z</time>
      </trkpt>
      <trkpt lat="45.17781" lon="5.83336">
        <ele>670</ele>
        <time>2017-10-25T15:01:49Z</time>
      </trkpt>
      <trkpt lat="45.17799" lon="5.83335">
        <ele>661</ele>
        <time>2017-10-25T15:01:53Z</time>
      </trkpt>
      <trkpt lat="45.17809" lon="5.83337">
        <ele>657</ele>
        <time>2017-10-25T15:01:54Z</time>
      </trkpt>
      <trkpt lat="45.17815" lon="5.83344">
        <ele>656</ele>
        <time>2017-10-25T15:01:56Z</time>
      </trkpt>
      <trkpt lat="45.17815" lon="5.83354">
        <ele>659</ele>
        <time>2017-10-25T15:01:58Z</time>
      </trkpt>
      <trkpt lat="45.17824" lon="5.83357">
        <ele>655</ele>
        <time>2017-10-25T15:02:00Z</time>
      </trkpt>
      <trkpt lat="45.17828" lon="5.8336">
        <ele>654</ele>
        <time>2017-10-25T15:02:01Z</time>
      </trkpt>
      <trkpt lat="45.17829" lon="5.8337">
        <ele>657</ele>
        <time>2017-10-25T15:02:03Z</time>
      </trkpt>
      <trkpt lat="45.17833" lon="5.83374">
        <ele>656</ele>
        <time>2017-10-25T15:02:04Z</time>
      </trkpt>
      <trkpt lat="45.17838" lon="5.83381">
        <ele>655</ele>
        <time>2017-10-25T15:02:06Z</time>
      </trkpt>
      <trkpt lat="45.17841" lon="5.83389">
        <ele>655</ele>
        <time>2017-10-25T15:02:08Z</time>
      </trkpt>
      <trkpt lat="45.17845" lon="5.83397">
        <ele>654</ele>
        <time>2017-10-25T15:02:10Z</time>
      </trkpt>
      <trkpt lat="45.17849" lon="5.83405">
        <ele>654</ele>
        <time>2017-10-25T15:02:12Z</time>
      </trkpt>
      <trkpt lat="45.17852" lon="5.83413">
        <ele>654</ele>
        <time>2017-10-25T15:02:14Z</time>
      </trkpt>
      <trkpt lat="45.17854" lon="5.83422">
        <ele>655</ele>
        <time>2017-10-25T15:02:16Z</time>
      </trkpt>
      <trkpt lat="45.17854" lon="5.83433">
        <ele>657</ele>
        <time>2017-10-25T15:02:18Z</time>
      </trkpt>
      <trkpt lat="45.17853" lon="5.83444">
        <ele>660</ele>
        <time>2017-10-25T15:02:20Z</time>
      </trkpt>
      <trkpt lat="45.17853" lon="5.83452">
        <ele>661</ele>
        <time>2017-10-25T15:02:22Z</time>
      </trkpt>
      <trkpt lat="45.17854" lon="5.83459">
        <ele>662</ele>
        <time>2017-10-25T15:02:25Z</time>
      </trkpt>
      <trkpt lat="45.17857" lon="5.83467">
        <ele>662</ele>
        <time>2017-10-25T15:02:28Z</time>
      </trkpt>
      <trkpt lat="45.17861" lon="5.83479">
        <ele>663</ele>
        <time>2017-10-25T15:02:30Z</time>
      </trkpt>
      <trkpt lat="45.17865" lon="5.83488">
        <ele>663</ele>
        <time>2017-10-25T15:02:32Z</time>
      </trkpt>
      <trkpt lat="45.1787" lon="5.83493">
        <ele>662</ele>
        <time>2017-10-25T15:02:34Z</time>
      </trkpt>
      <trkpt lat="45.17875" lon="5.83493">
        <ele>660</ele>
        <time>2017-10-25T15:02:36Z</time>
      </trkpt>
      <trkpt lat="45.1788" lon="5.83489">
        <ele>657</ele>
        <time>2017-10-25T15:02:38Z</time>
      </trkpt>
      <trkpt lat="45.17884" lon="5.83477">
        <ele>653</ele>
        <time>2017-10-25T15:02:40Z</time>
      </trkpt>
      <trkpt lat="45.17887" lon="5.83468">
        <ele>650</ele>
        <time>2017-10-25T15:02:42Z</time>
      </trkpt>
      <trkpt lat="45.17888" lon="5.83459">
        <ele>648</ele>
        <time>2017-10-25T15:02:45Z</time>
      </trkpt>
      <trkpt lat="45.17887" lon="5.83452">
        <ele>647</ele>
        <time>2017-10-25T15:02:48Z</time>
      </trkpt>
      <trkpt lat="45.17887" lon="5.83444">
        <ele>645</ele>
        <time>2017-10-25T15:02:51Z</time>
      </trkpt>
      <trkpt lat="45.17888" lon="5.83436">
        <ele>643</ele>
        <time>2017-10-25T15:02:54Z</time>
      </trkpt>
      <trkpt lat="45.17887" lon="5.8343">
        <ele>642</ele>
        <time>2017-10-25T15:02:57Z</time>
      </trkpt>
      <trkpt lat="45.17893" lon="5.83429">
        <ele>640</ele>
        <time>2017-10-25T15:03:04Z</time>
      </trkpt>
      <trkpt lat="45.17898" lon="5.83429">
        <ele>637</ele>
        <time>2017-10-25T15:03:06Z</time>
      </trkpt>
      <trkpt lat="45.17903" lon="5.83427">
        <ele>634</ele>
        <time>2017-10-25T15:03:09Z</time>
      </trkpt>
      <trkpt lat="45.17903" lon="5.83421">
        <ele>633</ele>
        <time>2017-10-25T15:03:13Z</time>
      </trkpt>
      <trkpt lat="45.17903" lon="5.83414">
        <ele>632</ele>
        <time>2017-10-25T15:03:18Z</time>
      </trkpt>
      <trkpt lat="45.17909" lon="5.83413">
        <ele>629</ele>
        <time>2017-10-25T15:03:23Z</time>
      </trkpt>
      <trkpt lat="45.17913" lon="5.83413">
        <ele>627</ele>
        <time>2017-10-25T15:03:26Z</time>
      </trkpt>
      <trkpt lat="45.17918" lon="5.8341">
        <ele>624</ele>
        <time>2017-10-25T15:03:33Z</time>
      </trkpt>
      <trkpt lat="45.17917" lon="5.83403">
        <ele>624</ele>
        <time>2017-10-25T15:03:44Z</time>
      </trkpt>
      <trkpt lat="45.1792" lon="5.83398">
        <ele>621</ele>
        <time>2017-10-25T15:03:50Z</time>
      </trkpt>
      <trkpt lat="45.17916" lon="5.83395">
        <ele>622</ele>
        <time>2017-10-25T15:03:55Z</time>
      </trkpt>
      <trkpt lat="45.17918" lon="5.83389">
        <ele>620</ele>
        <time>2017-10-25T15:04:05Z</time>
      </trkpt>
      <trkpt lat="45.17921" lon="5.83385">
        <ele>618</ele>
        <time>2017-10-25T15:04:11Z</time>
      </trkpt>
      <trkpt lat="45.17925" lon="5.83382">
        <ele>618</ele>
        <time>2017-10-25T15:04:16Z</time>
      </trkpt>
      <trkpt lat="45.17932" lon="5.8338">
        <ele>619</ele>
        <time>2017-10-25T15:04:49Z</time>
      </trkpt>
      <trkpt lat="45.181" lon="5.83212">
        <ele>569</ele>
        <time>2017-10-25T15:06:59Z</time>
      </trkpt>
      <trkpt lat="45.18123" lon="5.83204">
        <ele>567</ele>
        <time>2017-10-25T15:07:03Z</time>
      </trkpt>
      <trkpt lat="45.18131" lon="5.832">
        <ele>567</ele>
        <time>2017-10-25T15:07:05Z</time>
      </trkpt>
      <trkpt lat="45.18139" lon="5.83196">
        <ele>567</ele>
        <time>2017-10-25T15:07:07Z</time>
      </trkpt>
      <trkpt lat="45.18147" lon="5.83192">
        <ele>568</ele>
        <time>2017-10-25T15:07:09Z</time>
      </trkpt>
      <trkpt lat="45.18153" lon="5.83192">
        <ele>569</ele>
        <time>2017-10-25T15:07:11Z</time>
      </trkpt>
      <trkpt lat="45.18158" lon="5.83191">
        <ele>570</ele>
        <time>2017-10-25T15:07:13Z</time>
      </trkpt>
      <trkpt lat="45.18165" lon="5.83186">
        <ele>570</ele>
        <time>2017-10-25T15:07:15Z</time>
      </trkpt>
      <trkpt lat="45.18197" lon="5.83173">
        <ele>571</ele>
        <time>2017-10-25T15:07:22Z</time>
      </trkpt>
      <trkpt lat="45.18202" lon="5.8317">
        <ele>571</ele>
        <time>2017-10-25T15:07:23Z</time>
      </trkpt>
      <trkpt lat="45.18208" lon="5.83167">
        <ele>572</ele>
        <time>2017-10-25T15:07:24Z</time>
      </trkpt>
      <trkpt lat="45.18229" lon="5.83154">
        <ele>572</ele>
        <time>2017-10-25T15:07:25Z</time>
      </trkpt>
      <trkpt lat="45.18235" lon="5.8315">
        <ele>571</ele>
        <time>2017-10-25T15:07:26Z</time>
      </trkpt>
      <trkpt lat="45.1824" lon="5.83147">
        <ele>571</ele>
        <time>2017-10-25T15:07:27Z</time>
      </trkpt>
      <trkpt lat="45.18245" lon="5.83144">
        <ele>571</ele>
        <time>2017-10-25T15:07:28Z</time>
      </trkpt>
      <trkpt lat="45.18249" lon="5.83141">
        <ele>571</ele>
        <time>2017-10-25T15:07:29Z</time>
      </trkpt>
      <trkpt lat="45.18257" lon="5.83133">
        <ele>570</ele>
        <time>2017-10-25T15:07:31Z</time>
      </trkpt>
      <trkpt lat="45.18262" lon="5.8313">
        <ele>570</ele>
        <time>2017-10-25T15:07:32Z</time>
      </trkpt>
      <trkpt lat="45.18268" lon="5.83129">
        <ele>571</ele>
        <time>2017-10-25T15:07:33Z</time>
      </trkpt>
      <trkpt lat="45.18273" lon="5.83127">
        <ele>571</ele>
        <time>2017-10-25T15:07:34Z</time>
      </trkpt>
      <trkpt lat="45.18277" lon="5.83124">
        <ele>570</ele>
        <time>2017-10-25T15:07:35Z</time>
      </trkpt>
      <trkpt lat="45.18285" lon="5.83121">
        <ele>570</ele>
        <time>2017-10-25T15:07:37Z</time>
      </trkpt>
      <trkpt lat="45.18293" lon="5.8312">
        <ele>570</ele>
        <time>2017-10-25T15:07:39Z</time>
      </trkpt>
      <trkpt lat="45.183" lon="5.83116">
        <ele>570</ele>
        <time>2017-10-25T15:07:41Z</time>
      </trkpt>
      <trkpt lat="45.18307" lon="5.83109">
        <ele>568</ele>
        <time>2017-10-25T15:07:43Z</time>
      </trkpt>
      <trkpt lat="45.18314" lon="5.831">
        <ele>566</ele>
        <time>2017-10-25T15:07:45Z</time>
      </trkpt>
      <trkpt lat="45.18321" lon="5.83092">
        <ele>564</ele>
        <time>2017-10-25T15:07:47Z</time>
      </trkpt>
      <trkpt lat="45.18328" lon="5.83088">
        <ele>563</ele>
        <time>2017-10-25T15:07:49Z</time>
      </trkpt>
      <trkpt lat="45.18335" lon="5.83085">
        <ele>563</ele>
        <time>2017-10-25T15:07:51Z</time>
      </trkpt>
      <trkpt lat="45.18341" lon="5.83082">
        <ele>562</ele>
        <time>2017-10-25T15:07:53Z</time>
      </trkpt>
      <trkpt lat="45.18348" lon="5.83078">
        <ele>562</ele>
        <time>2017-10-25T15:07:55Z</time>
      </trkpt>
      <trkpt lat="45.18356" lon="5.83073">
        <ele>561</ele>
        <time>2017-10-25T15:07:57Z</time>
      </trkpt>
      <trkpt lat="45.18361" lon="5.83072">
        <ele>561</ele>
        <time>2017-10-25T15:07:58Z</time>
      </trkpt>
      <trkpt lat="45.18365" lon="5.8307">
        <ele>561</ele>
        <time>2017-10-25T15:07:59Z</time>
      </trkpt>
      <trkpt lat="45.18373" lon="5.83067">
        <ele>561</ele>
        <time>2017-10-25T15:08:01Z</time>
      </trkpt>
      <trkpt lat="45.1838" lon="5.83065">
        <ele>561</ele>
        <time>2017-10-25T15:08:03Z</time>
      </trkpt>
      <trkpt lat="45.1839" lon="5.83068">
        <ele>562</ele>
        <time>2017-10-25T15:08:05Z</time>
      </trkpt>
      <trkpt lat="45.18398" lon="5.83068">
        <ele>563</ele>
        <time>2017-10-25T15:08:07Z</time>
      </trkpt>
      <trkpt lat="45.18405" lon="5.83063">
        <ele>562</ele>
        <time>2017-10-25T15:08:09Z</time>
      </trkpt>
      <trkpt lat="45.1841" lon="5.83055">
        <ele>561</ele>
        <time>2017-10-25T15:08:10Z</time>
      </trkpt>
      <trkpt lat="45.18416" lon="5.83051">
        <ele>560</ele>
        <time>2017-10-25T15:08:11Z</time>
      </trkpt>
      <trkpt lat="45.18422" lon="5.83045">
        <ele>559</ele>
        <time>2017-10-25T15:08:12Z</time>
      </trkpt>
      <trkpt lat="45.18425" lon="5.83038">
        <ele>557</ele>
        <time>2017-10-25T15:08:13Z</time>
      </trkpt>
      <trkpt lat="45.18431" lon="5.83028">
        <ele>555</ele>
        <time>2017-10-25T15:08:14Z</time>
      </trkpt>
      <trkpt lat="45.18437" lon="5.83022">
        <ele>554</ele>
        <time>2017-10-25T15:08:15Z</time>
      </trkpt>
      <trkpt lat="45.18441" lon="5.83015">
        <ele>553</ele>
        <time>2017-10-25T15:08:16Z</time>
      </trkpt>
      <trkpt lat="45.18449" lon="5.83011">
        <ele>553</ele>
        <time>2017-10-25T15:08:17Z</time>
      </trkpt>
      <trkpt lat="45.18456" lon="5.83007">
        <ele>553</ele>
        <time>2017-10-25T15:08:18Z</time>
      </trkpt>
      <trkpt lat="45.18462" lon="5.83003">
        <ele>553</ele>
        <time>2017-10-25T15:08:19Z</time>
      </trkpt>
      <trkpt lat="45.18469" lon="5.83001">
        <ele>553</ele>
        <time>2017-10-25T15:08:20Z</time>
      </trkpt>
      <trkpt lat="45.18474" lon="5.83003">
        <ele>553</ele>
        <time>2017-10-25T15:08:21Z</time>
      </trkpt>
      <trkpt lat="45.1848" lon="5.83004">
        <ele>554</ele>
        <time>2017-10-25T15:08:22Z</time>
      </trkpt>
      <trkpt lat="45.18486" lon="5.83006">
        <ele>554</ele>
        <time>2017-10-25T15:08:24Z</time>
      </trkpt>
      <trkpt lat="45.18493" lon="5.83005">
        <ele>554</ele>
        <time>2017-10-25T15:08:26Z</time>
      </trkpt>
      <trkpt lat="45.18499" lon="5.8301">
        <ele>555</ele>
        <time>2017-10-25T15:08:29Z</time>
      </trkpt>
      <trkpt lat="45.18505" lon="5.83011">
        <ele>555</ele>
        <time>2017-10-25T15:08:31Z</time>
      </trkpt>
      <trkpt lat="45.18511" lon="5.83012">
        <ele>555</ele>
        <time>2017-10-25T15:08:33Z</time>
      </trkpt>
      <trkpt lat="45.18518" lon="5.83015">
        <ele>556</ele>
        <time>2017-10-25T15:08:35Z</time>
      </trkpt>
      <trkpt lat="45.18524" lon="5.83017">
        <ele>557</ele>
        <time>2017-10-25T15:08:37Z</time>
      </trkpt>
      <trkpt lat="45.1853" lon="5.8302">
        <ele>557</ele>
        <time>2017-10-25T15:08:39Z</time>
      </trkpt>
      <trkpt lat="45.18535" lon="5.83022">
        <ele>558</ele>
        <time>2017-10-25T15:08:41Z</time>
      </trkpt>
      <trkpt lat="45.18541" lon="5.83026">
        <ele>558</ele>
        <time>2017-10-25T15:08:43Z</time>
      </trkpt>
      <trkpt lat="45.18545" lon="5.8303">
        <ele>559</ele>
        <time>2017-10-25T15:08:45Z</time>
      </trkpt>
      <trkpt lat="45.1855" lon="5.83034">
        <ele>560</ele>
        <time>2017-10-25T15:08:47Z</time>
      </trkpt>
      <trkpt lat="45.18553" lon="5.83039">
        <ele>561</ele>
        <time>2017-10-25T15:08:49Z</time>
      </trkpt>
      <trkpt lat="45.18558" lon="5.83044">
        <ele>562</ele>
        <time>2017-10-25T15:08:51Z</time>
      </trkpt>
      <trkpt lat="45.18562" lon="5.8305">
        <ele>563</ele>
        <time>2017-10-25T15:08:53Z</time>
      </trkpt>
      <trkpt lat="45.18565" lon="5.83056">
        <ele>565</ele>
        <time>2017-10-25T15:08:55Z</time>
      </trkpt>
      <trkpt lat="45.18563" lon="5.8305">
        <ele>563</ele>
        <time>2017-10-25T15:09:10Z</time>
      </trkpt>
      <trkpt lat="45.18568" lon="5.83057">
        <ele>565</ele>
        <time>2017-10-25T15:09:25Z</time>
      </trkpt>
      <trkpt lat="45.18574" lon="5.83063">
        <ele>566</ele>
        <time>2017-10-25T15:09:27Z</time>
      </trkpt>
      <trkpt lat="45.18579" lon="5.83071">
        <ele>567</ele>
        <time>2017-10-25T15:09:29Z</time>
      </trkpt>
      <trkpt lat="45.18585" lon="5.83079">
        <ele>568</ele>
        <time>2017-10-25T15:09:31Z</time>
      </trkpt>
      <trkpt lat="45.18591" lon="5.83085">
        <ele>569</ele>
        <time>2017-10-25T15:09:33Z</time>
      </trkpt>
      <trkpt lat="45.18597" lon="5.83091">
        <ele>570</ele>
        <time>2017-10-25T15:09:35Z</time>
      </trkpt>
      <trkpt lat="45.18602" lon="5.83099">
        <ele>571</ele>
        <time>2017-10-25T15:09:37Z</time>
      </trkpt>
      <trkpt lat="45.18608" lon="5.83105">
        <ele>572</ele>
        <time>2017-10-25T15:09:39Z</time>
      </trkpt>
      <trkpt lat="45.18614" lon="5.83111">
        <ele>572</ele>
        <time>2017-10-25T15:09:41Z</time>
      </trkpt>
      <trkpt lat="45.18619" lon="5.83115">
        <ele>572</ele>
        <time>2017-10-25T15:09:43Z</time>
      </trkpt>
      <trkpt lat="45.18624" lon="5.83122">
        <ele>573</ele>
        <time>2017-10-25T15:09:45Z</time>
      </trkpt>
      <trkpt lat="45.1863" lon="5.83128">
        <ele>573</ele>
        <time>2017-10-25T15:09:47Z</time>
      </trkpt>
      <trkpt lat="45.18635" lon="5.83133">
        <ele>572</ele>
        <time>2017-10-25T15:09:49Z</time>
      </trkpt>
      <trkpt lat="45.18641" lon="5.8314">
        <ele>572</ele>
        <time>2017-10-25T15:09:51Z</time>
      </trkpt>
      <trkpt lat="45.18646" lon="5.83146">
        <ele>572</ele>
        <time>2017-10-25T15:09:53Z</time>
      </trkpt>
      <trkpt lat="45.18653" lon="5.83153">
        <ele>571</ele>
        <time>2017-10-25T15:09:55Z</time>
      </trkpt>
      <trkpt lat="45.18657" lon="5.83156">
        <ele>570</ele>
        <time>2017-10-25T15:09:56Z</time>
      </trkpt>
      <trkpt lat="45.18661" lon="5.83161">
        <ele>569</ele>
        <time>2017-10-25T15:09:57Z</time>
      </trkpt>
      <trkpt lat="45.18669" lon="5.8317">
        <ele>568</ele>
        <time>2017-10-25T15:09:58Z</time>
      </trkpt>
      <trkpt lat="45.18673" lon="5.83178">
        <ele>567</ele>
        <time>2017-10-25T15:09:59Z</time>
      </trkpt>
      <trkpt lat="45.18678" lon="5.83184">
        <ele>566</ele>
        <time>2017-10-25T15:10:00Z</time>
      </trkpt>
      <trkpt lat="45.18683" lon="5.83189">
        <ele>565</ele>
        <time>2017-10-25T15:10:01Z</time>
      </trkpt>
      <trkpt lat="45.18687" lon="5.83196">
        <ele>565</ele>
        <time>2017-10-25T15:10:02Z</time>
      </trkpt>
      <trkpt lat="45.18693" lon="5.83204">
        <ele>564</ele>
        <time>2017-10-25T15:10:03Z</time>
      </trkpt>
      <trkpt lat="45.18699" lon="5.83211">
        <ele>563</ele>
        <time>2017-10-25T15:10:04Z</time>
      </trkpt>
      <trkpt lat="45.18706" lon="5.83218">
        <ele>561</ele>
        <time>2017-10-25T15:10:05Z</time>
      </trkpt>
      <trkpt lat="45.18711" lon="5.83226">
        <ele>560</ele>
        <time>2017-10-25T15:10:06Z</time>
      </trkpt>
      <trkpt lat="45.18716" lon="5.83231">
        <ele>558</ele>
        <time>2017-10-25T15:10:07Z</time>
      </trkpt>
      <trkpt lat="45.18723" lon="5.83238">
        <ele>556</ele>
        <time>2017-10-25T15:10:08Z</time>
      </trkpt>
      <trkpt lat="45.18728" lon="5.83244">
        <ele>554</ele>
        <time>2017-10-25T15:10:09Z</time>
      </trkpt>
      <trkpt lat="45.18734" lon="5.83251">
        <ele>552</ele>
        <time>2017-10-25T15:10:10Z</time>
      </trkpt>
      <trkpt lat="45.1874" lon="5.83257">
        <ele>550</ele>
        <time>2017-10-25T15:10:11Z</time>
      </trkpt>
      <trkpt lat="45.18745" lon="5.83262">
        <ele>548</ele>
        <time>2017-10-25T15:10:12Z</time>
      </trkpt>
      <trkpt lat="45.18752" lon="5.83267">
        <ele>547</ele>
        <time>2017-10-25T15:10:13Z</time>
      </trkpt>
      <trkpt lat="45.18758" lon="5.83271">
        <ele>545</ele>
        <time>2017-10-25T15:10:14Z</time>
      </trkpt>
      <trkpt lat="45.1877" lon="5.83274">
        <ele>542</ele>
        <time>2017-10-25T15:10:15Z</time>
      </trkpt>
      <trkpt lat="45.18778" lon="5.83291">
        <ele>540</ele>
        <time>2017-10-25T15:10:17Z</time>
      </trkpt>
      <trkpt lat="45.18784" lon="5.83298">
        <ele>538</ele>
        <time>2017-10-25T15:10:18Z</time>
      </trkpt>
      <trkpt lat="45.18785" lon="5.83319">
        <ele>537</ele>
        <time>2017-10-25T15:10:19Z</time>
      </trkpt>
      <trkpt lat="45.18781" lon="5.83334">
        <ele>537</ele>
        <time>2017-10-25T15:10:20Z</time>
      </trkpt>
      <trkpt lat="45.18787" lon="5.83342">
        <ele>535</ele>
        <time>2017-10-25T15:10:21Z</time>
      </trkpt>
      <trkpt lat="45.18791" lon="5.83357">
        <ele>532</ele>
        <time>2017-10-25T15:10:22Z</time>
      </trkpt>
      <trkpt lat="45.18798" lon="5.83378">
        <ele>528</ele>
        <time>2017-10-25T15:10:23Z</time>
      </trkpt>
      <trkpt lat="45.18802" lon="5.83387">
        <ele>526</ele>
        <time>2017-10-25T15:10:24Z</time>
      </trkpt>
      <trkpt lat="45.18802" lon="5.83395">
        <ele>525</ele>
        <time>2017-10-25T15:10:25Z</time>
      </trkpt>
      <trkpt lat="45.18805" lon="5.83406">
        <ele>523</ele>
        <time>2017-10-25T15:10:26Z</time>
      </trkpt>
      <trkpt lat="45.18807" lon="5.83415">
        <ele>522</ele>
        <time>2017-10-25T15:10:27Z</time>
      </trkpt>
      <trkpt lat="45.18786" lon="5.83436">
        <ele>528</ele>
        <time>2017-10-25T15:10:29Z</time>
      </trkpt>
      <trkpt lat="45.18782" lon="5.83449">
        <ele>528</ele>
        <time>2017-10-25T15:10:30Z</time>
      </trkpt>
      <trkpt lat="45.18776" lon="5.8345">
        <ele>531</ele>
        <time>2017-10-25T15:10:31Z</time>
      </trkpt>
      <trkpt lat="45.18766" lon="5.83454">
        <ele>535</ele>
        <time>2017-10-25T15:10:33Z</time>
      </trkpt>
      <trkpt lat="45.18763" lon="5.83463">
        <ele>535</ele>
        <time>2017-10-25T15:10:35Z</time>
      </trkpt>
      <trkpt lat="45.18758" lon="5.83466">
        <ele>537</ele>
        <time>2017-10-25T15:10:36Z</time>
      </trkpt>
      <trkpt lat="45.18752" lon="5.83462">
        <ele>540</ele>
        <time>2017-10-25T15:10:41Z</time>
      </trkpt>
      <trkpt lat="45.18747" lon="5.8346">
        <ele>542</ele>
        <time>2017-10-25T15:10:44Z</time>
      </trkpt>
      <trkpt lat="45.18741" lon="5.8346">
        <ele>545</ele>
        <time>2017-10-25T15:10:48Z</time>
      </trkpt>
      <trkpt lat="45.18738" lon="5.83452">
        <ele>547</ele>
        <time>2017-10-25T15:10:54Z</time>
      </trkpt>
      <trkpt lat="45.18742" lon="5.8345">
        <ele>545</ele>
        <time>2017-10-25T15:12:02Z</time>
      </trkpt>
      <trkpt lat="45.18748" lon="5.83447">
        <ele>543</ele>
        <time>2017-10-25T15:12:04Z</time>
      </trkpt>
      <trkpt lat="45.18753" lon="5.8344">
        <ele>541</ele>
        <time>2017-10-25T15:12:06Z</time>
      </trkpt>
      <trkpt lat="45.18757" lon="5.83435">
        <ele>541</ele>
        <time>2017-10-25T15:12:08Z</time>
      </trkpt>
      <trkpt lat="45.1876" lon="5.83429">
        <ele>539</ele>
        <time>2017-10-25T15:12:11Z</time>
      </trkpt>
      <trkpt lat="45.18763" lon="5.83423">
        <ele>538</ele>
        <time>2017-10-25T15:12:13Z</time>
      </trkpt>
      <trkpt lat="45.18777" lon="5.83416">
        <ele>533</ele>
        <time>2017-10-25T15:12:48Z</time>
      </trkpt>
      <trkpt lat="45.18773" lon="5.8342">
        <ele>535</ele>
        <time>2017-10-25T15:13:13Z</time>
      </trkpt>
      <trkpt lat="45.18768" lon="5.83425">
        <ele>536</ele>
        <time>2017-10-25T15:13:15Z</time>
      </trkpt>
      <trkpt lat="45.18762" lon="5.83432">
        <ele>538</ele>
        <time>2017-10-25T15:13:17Z</time>
      </trkpt>
      <trkpt lat="45.18758" lon="5.83436">
        <ele>540</ele>
        <time>2017-10-25T15:13:18Z</time>
      </trkpt>
      <trkpt lat="45.18753" lon="5.83439">
        <ele>542</ele>
        <time>2017-10-25T15:13:19Z</time>
      </trkpt>
      <trkpt lat="45.18748" lon="5.83442">
        <ele>543</ele>
        <time>2017-10-25T15:13:20Z</time>
      </trkpt>
      <trkpt lat="45.18743" lon="5.83445">
        <ele>545</ele>
        <time>2017-10-25T15:13:21Z</time>
      </trkpt>
      <trkpt lat="45.18736" lon="5.83452">
        <ele>548</ele>
        <time>2017-10-25T15:13:23Z</time>
      </trkpt>
      <trkpt lat="45.18733" lon="5.83461">
        <ele>549</ele>
        <time>2017-10-25T15:13:25Z</time>
      </trkpt>
      <trkpt lat="45.18731" lon="5.83472">
        <ele>548</ele>
        <time>2017-10-25T15:13:27Z</time>
      </trkpt>
      <trkpt lat="45.18732" lon="5.83482">
        <ele>547</ele>
        <time>2017-10-25T15:13:29Z</time>
      </trkpt>
      <trkpt lat="45.18733" lon="5.83493">
        <ele>546</ele>
        <time>2017-10-25T15:13:31Z</time>
      </trkpt>
      <trkpt lat="45.18734" lon="5.83503">
        <ele>544</ele>
        <time>2017-10-25T15:13:33Z</time>
      </trkpt>
      <trkpt lat="45.18733" lon="5.83515">
        <ele>544</ele>
        <time>2017-10-25T15:13:35Z</time>
      </trkpt>
      <trkpt lat="45.18731" lon="5.83525">
        <ele>545</ele>
        <time>2017-10-25T15:13:37Z</time>
      </trkpt>
      <trkpt lat="45.18728" lon="5.83533">
        <ele>547</ele>
        <time>2017-10-25T15:13:39Z</time>
      </trkpt>
      <trkpt lat="45.18726" lon="5.83541">
        <ele>548</ele>
        <time>2017-10-25T15:13:41Z</time>
      </trkpt>
      <trkpt lat="45.18722" lon="5.83549">
        <ele>550</ele>
        <time>2017-10-25T15:13:43Z</time>
      </trkpt>
      <trkpt lat="45.18716" lon="5.83555">
        <ele>553</ele>
        <time>2017-10-25T15:13:45Z</time>
      </trkpt>
      <trkpt lat="45.18712" lon="5.83561">
        <ele>555</ele>
        <time>2017-10-25T15:13:47Z</time>
      </trkpt>
      <trkpt lat="45.18707" lon="5.83567">
        <ele>557</ele>
        <time>2017-10-25T15:13:49Z</time>
      </trkpt>
      <trkpt lat="45.18702" lon="5.83573">
        <ele>559</ele>
        <time>2017-10-25T15:13:51Z</time>
      </trkpt>
      <trkpt lat="45.18697" lon="5.83579">
        <ele>562</ele>
        <time>2017-10-25T15:13:53Z</time>
      </trkpt>
      <trkpt lat="45.18693" lon="5.83588">
        <ele>564</ele>
        <time>2017-10-25T15:13:55Z</time>
      </trkpt>
      <trkpt lat="45.18689" lon="5.83597">
        <ele>567</ele>
        <time>2017-10-25T15:13:57Z</time>
      </trkpt>
      <trkpt lat="45.18733" lon="5.83632">
        <ele>555</ele>
        <time>2017-10-25T15:14:25Z</time>
      </trkpt>
      <trkpt lat="45.18739" lon="5.8363">
        <ele>553</ele>
        <time>2017-10-25T15:14:27Z</time>
      </trkpt>
      <trkpt lat="45.18744" lon="5.8363">
        <ele>551</ele>
        <time>2017-10-25T15:14:36Z</time>
      </trkpt>
      <trkpt lat="45.18752" lon="5.83636">
        <ele>551</ele>
        <time>2017-10-25T15:14:38Z</time>
      </trkpt>
      <trkpt lat="45.18757" lon="5.83639">
        <ele>551</ele>
        <time>2017-10-25T15:14:39Z</time>
      </trkpt>
      <trkpt lat="45.18762" lon="5.83643">
        <ele>551</ele>
        <time>2017-10-25T15:14:40Z</time>
      </trkpt>
      <trkpt lat="45.18767" lon="5.83646">
        <ele>550</ele>
        <time>2017-10-25T15:14:41Z</time>
      </trkpt>
      <trkpt lat="45.18778" lon="5.83653">
        <ele>550</ele>
        <time>2017-10-25T15:14:43Z</time>
      </trkpt>
      <trkpt lat="45.18783" lon="5.83655">
        <ele>550</ele>
        <time>2017-10-25T15:14:44Z</time>
      </trkpt>
      <trkpt lat="45.18792" lon="5.8366">
        <ele>550</ele>
        <time>2017-10-25T15:14:46Z</time>
      </trkpt>
      <trkpt lat="45.18797" lon="5.83663">
        <ele>550</ele>
        <time>2017-10-25T15:14:47Z</time>
      </trkpt>
      <trkpt lat="45.18802" lon="5.83665">
        <ele>550</ele>
        <time>2017-10-25T15:14:48Z</time>
      </trkpt>
      <trkpt lat="45.18807" lon="5.83667">
        <ele>550</ele>
        <time>2017-10-25T15:14:49Z</time>
      </trkpt>
      <trkpt lat="45.18812" lon="5.83669">
        <ele>549</ele>
        <time>2017-10-25T15:14:50Z</time>
      </trkpt>
      <trkpt lat="45.18819" lon="5.83673">
        <ele>550</ele>
        <time>2017-10-25T15:14:52Z</time>
      </trkpt>
      <trkpt lat="45.18828" lon="5.83673">
        <ele>549</ele>
        <time>2017-10-25T15:14:54Z</time>
      </trkpt>
      <trkpt lat="45.18836" lon="5.83672">
        <ele>547</ele>
        <time>2017-10-25T15:14:56Z</time>
      </trkpt>
      <trkpt lat="45.18844" lon="5.83673">
        <ele>546</ele>
        <time>2017-10-25T15:14:58Z</time>
      </trkpt>
      <trkpt lat="45.18849" lon="5.83672">
        <ele>545</ele>
        <time>2017-10-25T15:15:00Z</time>
      </trkpt>
      <trkpt lat="45.18855" lon="5.8367">
        <ele>544</ele>
        <time>2017-10-25T15:15:02Z</time>
      </trkpt>
      <trkpt lat="45.1886" lon="5.83669">
        <ele>543</ele>
        <time>2017-10-25T15:15:04Z</time>
      </trkpt>
      <trkpt lat="45.18865" lon="5.83667">
        <ele>541</ele>
        <time>2017-10-25T15:15:06Z</time>
      </trkpt>
      <trkpt lat="45.18871" lon="5.83667">
        <ele>541</ele>
        <time>2017-10-25T15:15:08Z</time>
      </trkpt>
      <trkpt lat="45.18877" lon="5.83668">
        <ele>540</ele>
        <time>2017-10-25T15:15:10Z</time>
      </trkpt>
      <trkpt lat="45.18884" lon="5.83667">
        <ele>539</ele>
        <time>2017-10-25T15:15:12Z</time>
      </trkpt>
      <trkpt lat="45.1889" lon="5.83665">
        <ele>538</ele>
        <time>2017-10-25T15:15:14Z</time>
      </trkpt>
      <trkpt lat="45.18897" lon="5.83665">
        <ele>537</ele>
        <time>2017-10-25T15:15:16Z</time>
      </trkpt>
      <trkpt lat="45.18904" lon="5.83665">
        <ele>536</ele>
        <time>2017-10-25T15:15:18Z</time>
      </trkpt>
      <trkpt lat="45.1891" lon="5.83666">
        <ele>536</ele>
        <time>2017-10-25T15:15:20Z</time>
      </trkpt>
      <trkpt lat="45.18916" lon="5.83667">
        <ele>535</ele>
        <time>2017-10-25T15:15:22Z</time>
      </trkpt>
      <trkpt lat="45.18922" lon="5.83669">
        <ele>535</ele>
        <time>2017-10-25T15:15:24Z</time>
      </trkpt>
      <trkpt lat="45.18926" lon="5.83673">
        <ele>536</ele>
        <time>2017-10-25T15:15:26Z</time>
      </trkpt>
      <trkpt lat="45.1893" lon="5.83679">
        <ele>538</ele>
        <time>2017-10-25T15:15:28Z</time>
      </trkpt>
      <trkpt lat="45.18934" lon="5.83688">
        <ele>540</ele>
        <time>2017-10-25T15:15:30Z</time>
      </trkpt>
      <trkpt lat="45.18937" lon="5.83696">
        <ele>542</ele>
        <time>2017-10-25T15:15:32Z</time>
      </trkpt>
      <trkpt lat="45.1894" lon="5.83705">
        <ele>544</ele>
        <time>2017-10-25T15:15:34Z</time>
      </trkpt>
      <trkpt lat="45.18943" lon="5.83713">
        <ele>546</ele>
        <time>2017-10-25T15:15:36Z</time>
      </trkpt>
      <trkpt lat="45.18947" lon="5.83721">
        <ele>547</ele>
        <time>2017-10-25T15:15:38Z</time>
      </trkpt>
      <trkpt lat="45.1895" lon="5.83728">
        <ele>548</ele>
        <time>2017-10-25T15:15:40Z</time>
      </trkpt>
      <trkpt lat="45.18955" lon="5.83736">
        <ele>549</ele>
        <time>2017-10-25T15:15:42Z</time>
      </trkpt>
      <trkpt lat="45.18958" lon="5.83744">
        <ele>551</ele>
        <time>2017-10-25T15:15:44Z</time>
      </trkpt>
      <trkpt lat="45.1896" lon="5.83753">
        <ele>553</ele>
        <time>2017-10-25T15:15:46Z</time>
      </trkpt>
      <trkpt lat="45.18962" lon="5.83761">
        <ele>554</ele>
        <time>2017-10-25T15:15:48Z</time>
      </trkpt>
      <trkpt lat="45.18967" lon="5.83769">
        <ele>555</ele>
        <time>2017-10-25T15:15:50Z</time>
      </trkpt>
      <trkpt lat="45.18971" lon="5.83775">
        <ele>556</ele>
        <time>2017-10-25T15:15:52Z</time>
      </trkpt>
      <trkpt lat="45.18977" lon="5.83782">
        <ele>556</ele>
        <time>2017-10-25T15:15:54Z</time>
      </trkpt>
      <trkpt lat="45.18979" lon="5.83788">
        <ele>557</ele>
        <time>2017-10-25T15:15:56Z</time>
      </trkpt>
      <trkpt lat="45.1898" lon="5.83796">
        <ele>558</ele>
        <time>2017-10-25T15:15:59Z</time>
      </trkpt>
      <trkpt lat="45.18984" lon="5.83794">
        <ele>557</ele>
        <time>2017-10-25T15:16:03Z</time>
      </trkpt>
      <trkpt lat="45.18988" lon="5.83789">
        <ele>556</ele>
        <time>2017-10-25T15:16:07Z</time>
      </trkpt>
      <trkpt lat="45.18985" lon="5.8378">
        <ele>554</ele>
        <time>2017-10-25T15:16:11Z</time>
      </trkpt>
      <trkpt lat="45.18979" lon="5.83771">
        <ele>554</ele>
        <time>2017-10-25T15:16:13Z</time>
      </trkpt>
      <trkpt lat="45.1897" lon="5.83764">
        <ele>553</ele>
        <time>2017-10-25T15:16:15Z</time>
      </trkpt>
      <trkpt lat="45.18966" lon="5.83761">
        <ele>553</ele>
        <time>2017-10-25T15:16:16Z</time>
      </trkpt>
      <trkpt lat="45.18962" lon="5.83757">
        <ele>553</ele>
        <time>2017-10-25T15:16:17Z</time>
      </trkpt>
      <trkpt lat="45.18956" lon="5.83748">
        <ele>552</ele>
        <time>2017-10-25T15:16:19Z</time>
      </trkpt>
      <trkpt lat="45.18954" lon="5.83738">
        <ele>550</ele>
        <time>2017-10-25T15:16:21Z</time>
      </trkpt>
      <trkpt lat="45.18952" lon="5.83732">
        <ele>549</ele>
        <time>2017-10-25T15:16:23Z</time>
      </trkpt>
      <trkpt lat="45.18948" lon="5.83728">
        <ele>549</ele>
        <time>2017-10-25T15:16:26Z</time>
      </trkpt>
      <trkpt lat="45.18953" lon="5.83727">
        <ele>548</ele>
        <time>2017-10-25T15:16:34Z</time>
      </trkpt>
      <trkpt lat="45.18956" lon="5.83721">
        <ele>546</ele>
        <time>2017-10-25T15:16:40Z</time>
      </trkpt>
      <trkpt lat="45.18951" lon="5.83722">
        <ele>547</ele>
        <time>2017-10-25T15:17:34Z</time>
      </trkpt>
      <trkpt lat="45.18949" lon="5.83713">
        <ele>545</ele>
        <time>2017-10-25T15:17:52Z</time>
      </trkpt>
      <trkpt lat="45.18947" lon="5.83706">
        <ele>543</ele>
        <time>2017-10-25T15:17:54Z</time>
      </trkpt>
      <trkpt lat="45.18945" lon="5.83699">
        <ele>541</ele>
        <time>2017-10-25T15:17:56Z</time>
      </trkpt>
      <trkpt lat="45.18942" lon="5.8369">
        <ele>539</ele>
        <time>2017-10-25T15:17:58Z</time>
      </trkpt>
      <trkpt lat="45.18938" lon="5.83682">
        <ele>537</ele>
        <time>2017-10-25T15:18:00Z</time>
      </trkpt>
      <trkpt lat="45.18934" lon="5.83678">
        <ele>537</ele>
        <time>2017-10-25T15:18:02Z</time>
      </trkpt>
      <trkpt lat="45.1893" lon="5.83673">
        <ele>536</ele>
        <time>2017-10-25T15:18:04Z</time>
      </trkpt>
      <trkpt lat="45.18929" lon="5.83663">
        <ele>533</ele>
        <time>2017-10-25T15:18:06Z</time>
      </trkpt>
      <trkpt lat="45.18927" lon="5.83654">
        <ele>530</ele>
        <time>2017-10-25T15:18:08Z</time>
      </trkpt>
      <trkpt lat="45.18929" lon="5.83646">
        <ele>528</ele>
        <time>2017-10-25T15:18:10Z</time>
      </trkpt>
      <trkpt lat="45.18932" lon="5.83639">
        <ele>526</ele>
        <time>2017-10-25T15:18:13Z</time>
      </trkpt>
      <trkpt lat="45.18932" lon="5.83633">
        <ele>524</ele>
        <time>2017-10-25T15:18:17Z</time>
      </trkpt>
      <trkpt lat="45.1893" lon="5.83627">
        <ele>522</ele>
        <time>2017-10-25T15:18:21Z</time>
      </trkpt>
      <trkpt lat="45.18926" lon="5.83621">
        <ele>521</ele>
        <time>2017-10-25T15:18:24Z</time>
      </trkpt>
      <trkpt lat="45.18925" lon="5.83614">
        <ele>519</ele>
        <time>2017-10-25T15:18:27Z</time>
      </trkpt>
      <trkpt lat="45.18922" lon="5.83607">
        <ele>518</ele>
        <time>2017-10-25T15:18:31Z</time>
      </trkpt>
      <trkpt lat="45.18916" lon="5.83603">
        <ele>517</ele>
        <time>2017-10-25T15:18:34Z</time>
      </trkpt>
      <trkpt lat="45.18911" lon="5.836">
        <ele>516</ele>
        <time>2017-10-25T15:18:36Z</time>
      </trkpt>
      <trkpt lat="45.18905" lon="5.83598">
        <ele>516</ele>
        <time>2017-10-25T15:18:39Z</time>
      </trkpt>
      <trkpt lat="45.189" lon="5.83598">
        <ele>517</ele>
        <time>2017-10-25T15:18:41Z</time>
      </trkpt>
      <trkpt lat="45.18896" lon="5.83592">
        <ele>515</ele>
        <time>2017-10-25T15:18:44Z</time>
      </trkpt>
      <trkpt lat="45.18898" lon="5.83585">
        <ele>513</ele>
        <time>2017-10-25T15:18:46Z</time>
      </trkpt>
      <trkpt lat="45.189" lon="5.83577">
        <ele>511</ele>
        <time>2017-10-25T15:18:49Z</time>
      </trkpt>
      <trkpt lat="45.18904" lon="5.83571">
        <ele>508</ele>
        <time>2017-10-25T15:18:52Z</time>
      </trkpt>
      <trkpt lat="45.18909" lon="5.83569">
        <ele>508</ele>
        <time>2017-10-25T15:18:54Z</time>
      </trkpt>
      <trkpt lat="45.18916" lon="5.83565">
        <ele>506</ele>
        <time>2017-10-25T15:18:56Z</time>
      </trkpt>
      <trkpt lat="45.1892" lon="5.83562">
        <ele>505</ele>
        <time>2017-10-25T15:18:57Z</time>
      </trkpt>
      <trkpt lat="45.18929" lon="5.83555">
        <ele>502</ele>
        <time>2017-10-25T15:18:59Z</time>
      </trkpt>
      <trkpt lat="45.18935" lon="5.8355">
        <ele>500</ele>
        <time>2017-10-25T15:19:01Z</time>
      </trkpt>
      <trkpt lat="45.1894" lon="5.83548">
        <ele>499</ele>
        <time>2017-10-25T15:19:03Z</time>
      </trkpt>
      <trkpt lat="45.18944" lon="5.83544">
        <ele>497</ele>
        <time>2017-10-25T15:19:05Z</time>
      </trkpt>
      <trkpt lat="45.18949" lon="5.83539">
        <ele>496</ele>
        <time>2017-10-25T15:19:08Z</time>
      </trkpt>
      <trkpt lat="45.18953" lon="5.83534">
        <ele>494</ele>
        <time>2017-10-25T15:19:15Z</time>
      </trkpt>
      <trkpt lat="45.18956" lon="5.83529">
        <ele>492</ele>
        <time>2017-10-25T15:19:18Z</time>
      </trkpt>
      <trkpt lat="45.1896" lon="5.83523">
        <ele>490</ele>
        <time>2017-10-25T15:19:21Z</time>
      </trkpt>
      <trkpt lat="45.18965" lon="5.8352">
        <ele>490</ele>
        <time>2017-10-25T15:19:23Z</time>
      </trkpt>
      <trkpt lat="45.1897" lon="5.83517">
        <ele>489</ele>
        <time>2017-10-25T15:19:25Z</time>
      </trkpt>
      <trkpt lat="45.18975" lon="5.83516">
        <ele>489</ele>
        <time>2017-10-25T15:19:27Z</time>
      </trkpt>
      <trkpt lat="45.18983" lon="5.83516">
        <ele>489</ele>
        <time>2017-10-25T15:19:29Z</time>
      </trkpt>
      <trkpt lat="45.18987" lon="5.8352">
        <ele>490</ele>
        <time>2017-10-25T15:19:31Z</time>
      </trkpt>
      <trkpt lat="45.18992" lon="5.83514">
        <ele>488</ele>
        <time>2017-10-25T15:19:33Z</time>
      </trkpt>
      <trkpt lat="45.18996" lon="5.83506">
        <ele>487</ele>
        <time>2017-10-25T15:19:34Z</time>
      </trkpt>
      <trkpt lat="45.19014" lon="5.83476">
        <ele>480</ele>
        <time>2017-10-25T15:19:35Z</time>
      </trkpt>
      <trkpt lat="45.19022" lon="5.83473">
        <ele>480</ele>
        <time>2017-10-25T15:19:37Z</time>
      </trkpt>
      <trkpt lat="45.19017" lon="5.83466">
        <ele>478</ele>
        <time>2017-10-25T15:19:39Z</time>
      </trkpt>
      <trkpt lat="45.19009" lon="5.83465">
        <ele>478</ele>
        <time>2017-10-25T15:19:41Z</time>
      </trkpt>
      <trkpt lat="45.19005" lon="5.83458">
        <ele>476</ele>
        <time>2017-10-25T15:19:44Z</time>
      </trkpt>
      <trkpt lat="45.19002" lon="5.83451">
        <ele>474</ele>
        <time>2017-10-25T15:19:48Z</time>
      </trkpt>
      <trkpt lat="45.18997" lon="5.83449">
        <ele>474</ele>
        <time>2017-10-25T15:19:50Z</time>
      </trkpt>
      <trkpt lat="45.1899" lon="5.83449">
        <ele>474</ele>
        <time>2017-10-25T15:19:52Z</time>
      </trkpt>
      <trkpt lat="45.18984" lon="5.83447">
        <ele>473</ele>
        <time>2017-10-25T15:19:54Z</time>
      </trkpt>
      <trkpt lat="45.18978" lon="5.83443">
        <ele>473</ele>
        <time>2017-10-25T15:19:56Z</time>
      </trkpt>
      <trkpt lat="45.18973" lon="5.83441">
        <ele>472</ele>
        <time>2017-10-25T15:19:58Z</time>
      </trkpt>
      <trkpt lat="45.18967" lon="5.8344">
        <ele>472</ele>
        <time>2017-10-25T15:20:00Z</time>
      </trkpt>
      <trkpt lat="45.18962" lon="5.83438">
        <ele>472</ele>
        <time>2017-10-25T15:20:02Z</time>
      </trkpt>
      <trkpt lat="45.18957" lon="5.83435">
        <ele>472</ele>
        <time>2017-10-25T15:20:04Z</time>
      </trkpt>
      <trkpt lat="45.18951" lon="5.83436">
        <ele>472</ele>
        <time>2017-10-25T15:20:08Z</time>
      </trkpt>
      <trkpt lat="45.18947" lon="5.8344">
        <ele>473</ele>
        <time>2017-10-25T15:20:10Z</time>
      </trkpt>
      <trkpt lat="45.1894" lon="5.83448">
        <ele>476</ele>
        <time>2017-10-25T15:20:12Z</time>
      </trkpt>
      <trkpt lat="45.18932" lon="5.83455">
        <ele>479</ele>
        <time>2017-10-25T15:20:14Z</time>
      </trkpt>
      <trkpt lat="45.18926" lon="5.83463">
        <ele>481</ele>
        <time>2017-10-25T15:20:16Z</time>
      </trkpt>
      <trkpt lat="45.18919" lon="5.83465">
        <ele>482</ele>
        <time>2017-10-25T15:20:18Z</time>
      </trkpt>
      <trkpt lat="45.18914" lon="5.83464">
        <ele>483</ele>
        <time>2017-10-25T15:20:20Z</time>
      </trkpt>
      <trkpt lat="45.18909" lon="5.83461">
        <ele>483</ele>
        <time>2017-10-25T15:20:23Z</time>
      </trkpt>
      <trkpt lat="45.18905" lon="5.83456">
        <ele>483</ele>
        <time>2017-10-25T15:20:25Z</time>
      </trkpt>
      <trkpt lat="45.189" lon="5.83451">
        <ele>484</ele>
        <time>2017-10-25T15:20:27Z</time>
      </trkpt>
      <trkpt lat="45.18897" lon="5.83445">
        <ele>484</ele>
        <time>2017-10-25T15:20:29Z</time>
      </trkpt>
      <trkpt lat="45.18901" lon="5.83437">
        <ele>483</ele>
        <time>2017-10-25T15:20:31Z</time>
      </trkpt>
      <trkpt lat="45.18907" lon="5.83429">
        <ele>481</ele>
        <time>2017-10-25T15:20:33Z</time>
      </trkpt>
      <trkpt lat="45.1891" lon="5.83423">
        <ele>481</ele>
        <time>2017-10-25T15:20:34Z</time>
      </trkpt>
      <trkpt lat="45.18921" lon="5.8341">
        <ele>477</ele>
        <time>2017-10-25T15:20:36Z</time>
      </trkpt>
      <trkpt lat="45.18934" lon="5.83398">
        <ele>473</ele>
        <time>2017-10-25T15:20:38Z</time>
      </trkpt>
      <trkpt lat="45.1893" lon="5.8339">
        <ele>474</ele>
        <time>2017-10-25T15:20:41Z</time>
      </trkpt>
      <trkpt lat="45.18936" lon="5.8339">
        <ele>472</ele>
        <time>2017-10-25T15:20:42Z</time>
      </trkpt>
      <trkpt lat="45.18948" lon="5.83381">
        <ele>467</ele>
        <time>2017-10-25T15:20:44Z</time>
      </trkpt>
      <trkpt lat="45.18953" lon="5.83372">
        <ele>465</ele>
        <time>2017-10-25T15:20:46Z</time>
      </trkpt>
      <trkpt lat="45.1895" lon="5.83365">
        <ele>466</ele>
        <time>2017-10-25T15:20:48Z</time>
      </trkpt>
      <trkpt lat="45.18945" lon="5.83364">
        <ele>468</ele>
        <time>2017-10-25T15:20:51Z</time>
      </trkpt>
      <trkpt lat="45.18951" lon="5.83356">
        <ele>465</ele>
        <time>2017-10-25T15:20:57Z</time>
      </trkpt>
      <trkpt lat="45.18956" lon="5.83352">
        <ele>464</ele>
        <time>2017-10-25T15:20:58Z</time>
      </trkpt>
      <trkpt lat="45.18965" lon="5.83342">
        <ele>462</ele>
        <time>2017-10-25T15:21:00Z</time>
      </trkpt>
      <trkpt lat="45.18971" lon="5.83336">
        <ele>460</ele>
        <time>2017-10-25T15:21:02Z</time>
      </trkpt>
      <trkpt lat="45.18974" lon="5.83332">
        <ele>459</ele>
        <time>2017-10-25T15:21:04Z</time>
      </trkpt>
      <trkpt lat="45.18978" lon="5.83327">
        <ele>457</ele>
        <time>2017-10-25T15:21:06Z</time>
      </trkpt>
      <trkpt lat="45.18981" lon="5.83323">
        <ele>456</ele>
        <time>2017-10-25T15:21:08Z</time>
      </trkpt>
      <trkpt lat="45.18982" lon="5.83314">
        <ele>455</ele>
        <time>2017-10-25T15:21:11Z</time>
      </trkpt>
      <trkpt lat="45.18986" lon="5.83306">
        <ele>453</ele>
        <time>2017-10-25T15:21:14Z</time>
      </trkpt>
      <trkpt lat="45.1899" lon="5.83302">
        <ele>452</ele>
        <time>2017-10-25T15:21:16Z</time>
      </trkpt>
      <trkpt lat="45.18995" lon="5.83297">
        <ele>450</ele>
        <time>2017-10-25T15:21:18Z</time>
      </trkpt>
      <trkpt lat="45.19002" lon="5.83286">
        <ele>447</ele>
        <time>2017-10-25T15:21:26Z</time>
      </trkpt>
      <trkpt lat="45.19006" lon="5.8328">
        <ele>446</ele>
        <time>2017-10-25T15:21:29Z</time>
      </trkpt>
      <trkpt lat="45.19009" lon="5.83273">
        <ele>444</ele>
        <time>2017-10-25T15:21:33Z</time>
      </trkpt>
      <trkpt lat="45.19018" lon="5.83267">
        <ele>441</ele>
        <time>2017-10-25T15:21:40Z</time>
      </trkpt>
      <trkpt lat="45.19022" lon="5.83262">
        <ele>439</ele>
        <time>2017-10-25T15:21:42Z</time>
      </trkpt>
      <trkpt lat="45.19026" lon="5.83256">
        <ele>438</ele>
        <time>2017-10-25T15:21:45Z</time>
      </trkpt>
      <trkpt lat="45.19028" lon="5.8325">
        <ele>437</ele>
        <time>2017-10-25T15:21:47Z</time>
      </trkpt>
      <trkpt lat="45.19029" lon="5.83243">
        <ele>436</ele>
        <time>2017-10-25T15:21:50Z</time>
      </trkpt>
      <trkpt lat="45.19032" lon="5.83237">
        <ele>435</ele>
        <time>2017-10-25T15:21:53Z</time>
      </trkpt>
      <trkpt lat="45.19037" lon="5.8323">
        <ele>433</ele>
        <time>2017-10-25T15:21:55Z</time>
      </trkpt>
      <trkpt lat="45.19043" lon="5.83225">
        <ele>431</ele>
        <time>2017-10-25T15:21:56Z</time>
      </trkpt>
      <trkpt lat="45.19051" lon="5.83215">
        <ele>429</ele>
        <time>2017-10-25T15:21:58Z</time>
      </trkpt>
      <trkpt lat="45.19053" lon="5.83209">
        <ele>428</ele>
        <time>2017-10-25T15:21:59Z</time>
      </trkpt>
      <trkpt lat="45.19057" lon="5.83199">
        <ele>427</ele>
        <time>2017-10-25T15:22:01Z</time>
      </trkpt>
      <trkpt lat="45.19061" lon="5.83194">
        <ele>426</ele>
        <time>2017-10-25T15:22:02Z</time>
      </trkpt>
      <trkpt lat="45.19065" lon="5.83191">
        <ele>424</ele>
        <time>2017-10-25T15:22:03Z</time>
      </trkpt>
      <trkpt lat="45.19074" lon="5.83187">
        <ele>421</ele>
        <time>2017-10-25T15:22:05Z</time>
      </trkpt>
      <trkpt lat="45.19081" lon="5.83181">
        <ele>417</ele>
        <time>2017-10-25T15:22:07Z</time>
      </trkpt>
      <trkpt lat="45.19086" lon="5.83176">
        <ele>415</ele>
        <time>2017-10-25T15:22:09Z</time>
      </trkpt>
      <trkpt lat="45.1909" lon="5.83169">
        <ele>413</ele>
        <time>2017-10-25T15:22:12Z</time>
      </trkpt>
      <trkpt lat="45.19092" lon="5.83164">
        <ele>413</ele>
        <time>2017-10-25T15:22:14Z</time>
      </trkpt>
      <trkpt lat="45.19093" lon="5.83155">
        <ele>412</ele>
        <time>2017-10-25T15:22:16Z</time>
      </trkpt>
      <trkpt lat="45.19095" lon="5.83143">
        <ele>411</ele>
        <time>2017-10-25T15:22:18Z</time>
      </trkpt>
      <trkpt lat="45.19097" lon="5.8313">
        <ele>409</ele>
        <time>2017-10-25T15:22:20Z</time>
      </trkpt>
      <trkpt lat="45.19098" lon="5.83123">
        <ele>408</ele>
        <time>2017-10-25T15:22:21Z</time>
      </trkpt>
      <trkpt lat="45.19098" lon="5.8311">
        <ele>408</ele>
        <time>2017-10-25T15:22:23Z</time>
      </trkpt>
      <trkpt lat="45.19098" lon="5.83097">
        <ele>407</ele>
        <time>2017-10-25T15:22:25Z</time>
      </trkpt>
      <trkpt lat="45.19095" lon="5.83084">
        <ele>409</ele>
        <time>2017-10-25T15:22:27Z</time>
      </trkpt>
      <trkpt lat="45.19094" lon="5.83078">
        <ele>410</ele>
        <time>2017-10-25T15:22:28Z</time>
      </trkpt>
      <trkpt lat="45.19095" lon="5.83071">
        <ele>411</ele>
        <time>2017-10-25T15:22:29Z</time>
      </trkpt>
      <trkpt lat="45.19099" lon="5.83059">
        <ele>410</ele>
        <time>2017-10-25T15:22:31Z</time>
      </trkpt>
      <trkpt lat="45.19105" lon="5.8304">
        <ele>408</ele>
        <time>2017-10-25T15:22:33Z</time>
      </trkpt>
      <trkpt lat="45.19115" lon="5.83041">
        <ele>403</ele>
        <time>2017-10-25T15:22:35Z</time>
      </trkpt>
      <trkpt lat="45.19126" lon="5.83038">
        <ele>397</ele>
        <time>2017-10-25T15:22:37Z</time>
      </trkpt>
      <trkpt lat="45.19131" lon="5.83031">
        <ele>394</ele>
        <time>2017-10-25T15:22:39Z</time>
      </trkpt>
      <trkpt lat="45.19137" lon="5.83026">
        <ele>390</ele>
        <time>2017-10-25T15:22:40Z</time>
      </trkpt>
      <trkpt lat="45.19144" lon="5.83031">
        <ele>387</ele>
        <time>2017-10-25T15:22:41Z</time>
      </trkpt>
      <trkpt lat="45.19148" lon="5.83024">
        <ele>384</ele>
        <time>2017-10-25T15:22:43Z</time>
      </trkpt>
      <trkpt lat="45.1916" lon="5.83006">
        <ele>375</ele>
        <time>2017-10-25T15:22:45Z</time>
      </trkpt>
      <trkpt lat="45.19163" lon="5.82998">
        <ele>372</ele>
        <time>2017-10-25T15:22:46Z</time>
      </trkpt>
      <trkpt lat="45.19173" lon="5.8299">
        <ele>365</ele>
        <time>2017-10-25T15:22:49Z</time>
      </trkpt>
      <trkpt lat="45.19158" lon="5.8297">
        <ele>370</ele>
        <time>2017-10-25T15:22:51Z</time>
      </trkpt>
      <trkpt lat="45.19148" lon="5.82956">
        <ele>374</ele>
        <time>2017-10-25T15:22:53Z</time>
      </trkpt>
      <trkpt lat="45.19144" lon="5.82945">
        <ele>374</ele>
        <time>2017-10-25T15:22:55Z</time>
      </trkpt>
      <trkpt lat="45.1914" lon="5.82936">
        <ele>374</ele>
        <time>2017-10-25T15:22:57Z</time>
      </trkpt>
      <trkpt lat="45.19131" lon="5.82931">
        <ele>379</ele>
        <time>2017-10-25T15:22:59Z</time>
      </trkpt>
      <trkpt lat="45.19126" lon="5.82918">
        <ele>379</ele>
        <time>2017-10-25T15:23:01Z</time>
      </trkpt>
      <trkpt lat="45.1913" lon="5.82898">
        <ele>372</ele>
        <time>2017-10-25T15:23:03Z</time>
      </trkpt>
      <trkpt lat="45.19128" lon="5.82891">
        <ele>371</ele>
        <time>2017-10-25T15:23:04Z</time>
      </trkpt>
      <trkpt lat="45.19123" lon="5.82882">
        <ele>372</ele>
        <time>2017-10-25T15:23:06Z</time>
      </trkpt>
      <trkpt lat="45.19119" lon="5.82876">
        <ele>372</ele>
        <time>2017-10-25T15:23:07Z</time>
      </trkpt>
      <trkpt lat="45.19111" lon="5.82862">
        <ele>373</ele>
        <time>2017-10-25T15:23:09Z</time>
      </trkpt>
      <trkpt lat="45.19089" lon="5.82771">
        <ele>364</ele>
        <time>2017-10-25T15:23:24Z</time>
      </trkpt>
      <trkpt lat="45.19091" lon="5.82765">
        <ele>361</ele>
        <time>2017-10-25T15:23:25Z</time>
      </trkpt>
      <trkpt lat="45.19096" lon="5.82758">
        <ele>356</ele>
        <time>2017-10-25T15:23:26Z</time>
      </trkpt>
      <trkpt lat="45.19097" lon="5.8275">
        <ele>354</ele>
        <time>2017-10-25T15:23:28Z</time>
      </trkpt>
      <trkpt lat="45.1908" lon="5.82548">
        <ele>313</ele>
        <time>2017-10-25T15:24:15Z</time>
      </trkpt>
      <trkpt lat="45.19075" lon="5.82549">
        <ele>316</ele>
        <time>2017-10-25T15:24:20Z</time>
      </trkpt>
      <trkpt lat="45.19072" lon="5.82541">
        <ele>316</ele>
        <time>2017-10-25T15:24:22Z</time>
      </trkpt>
      <trkpt lat="45.1907" lon="5.82531">
        <ele>315</ele>
        <time>2017-10-25T15:24:24Z</time>
      </trkpt>
      <trkpt lat="45.19071" lon="5.82522">
        <ele>312</ele>
        <time>2017-10-25T15:24:26Z</time>
      </trkpt>
      <trkpt lat="45.19068" lon="5.82512">
        <ele>311</ele>
        <time>2017-10-25T15:24:28Z</time>
      </trkpt>
      <trkpt lat="45.19063" lon="5.82503">
        <ele>312</ele>
        <time>2017-10-25T15:24:30Z</time>
      </trkpt>
      <trkpt lat="45.19057" lon="5.82497">
        <ele>313</ele>
        <time>2017-10-25T15:24:32Z</time>
      </trkpt>
      <trkpt lat="45.19056" lon="5.82485">
        <ele>311</ele>
        <time>2017-10-25T15:24:34Z</time>
      </trkpt>
      <trkpt lat="45.19057" lon="5.82474">
        <ele>308</ele>
        <time>2017-10-25T15:24:36Z</time>
      </trkpt>
      <trkpt lat="45.19058" lon="5.82468">
        <ele>306</ele>
        <time>2017-10-25T15:24:37Z</time>
      </trkpt>
      <trkpt lat="45.19058" lon="5.82456">
        <ele>304</ele>
        <time>2017-10-25T15:24:39Z</time>
      </trkpt>
      <trkpt lat="45.19055" lon="5.82445">
        <ele>303</ele>
        <time>2017-10-25T15:24:41Z</time>
      </trkpt>
      <trkpt lat="45.19051" lon="5.82434">
        <ele>303</ele>
        <time>2017-10-25T15:24:43Z</time>
      </trkpt>
      <trkpt lat="45.1904" lon="5.82413">
        <ele>304</ele>
        <time>2017-10-25T15:24:48Z</time>
      </trkpt>
      <trkpt lat="45.19035" lon="5.82411">
        <ele>306</ele>
        <time>2017-10-25T15:24:50Z</time>
      </trkpt>
      <trkpt lat="45.19039" lon="5.82402">
        <ele>303</ele>
        <time>2017-10-25T15:24:58Z</time>
      </trkpt>
      <trkpt lat="45.19041" lon="5.82388">
        <ele>299</ele>
        <time>2017-10-25T15:25:00Z</time>
      </trkpt>
      <trkpt lat="45.19042" lon="5.82381">
        <ele>297</ele>
        <time>2017-10-25T15:25:01Z</time>
      </trkpt>
      <trkpt lat="45.19044" lon="5.82373">
        <ele>295</ele>
        <time>2017-10-25T15:25:02Z</time>
      </trkpt>
      <trkpt lat="45.19048" lon="5.82359">
        <ele>291</ele>
        <time>2017-10-25T15:25:04Z</time>
      </trkpt>
      <trkpt lat="45.19051" lon="5.82353">
        <ele>289</ele>
        <time>2017-10-25T15:25:05Z</time>
      </trkpt>
      <trkpt lat="45.19053" lon="5.8233">
        <ele>284</ele>
        <time>2017-10-25T15:25:07Z</time>
      </trkpt>
      <trkpt lat="45.1905" lon="5.82314">
        <ele>284</ele>
        <time>2017-10-25T15:25:09Z</time>
      </trkpt>
      <trkpt lat="45.19049" lon="5.82307">
        <ele>283</ele>
        <time>2017-10-25T15:25:10Z</time>
      </trkpt>
      <trkpt lat="45.19049" lon="5.823">
        <ele>282</ele>
        <time>2017-10-25T15:25:11Z</time>
      </trkpt>
      <trkpt lat="45.19045" lon="5.82284">
        <ele>282</ele>
        <time>2017-10-25T15:25:13Z</time>
      </trkpt>
      <trkpt lat="45.19045" lon="5.82273">
        <ele>281</ele>
        <time>2017-10-25T15:25:14Z</time>
      </trkpt>
      <trkpt lat="45.19047" lon="5.82256">
        <ele>277</ele>
        <time>2017-10-25T15:25:16Z</time>
      </trkpt>
      <trkpt lat="45.19052" lon="5.82235">
        <ele>272</ele>
        <time>2017-10-25T15:25:18Z</time>
      </trkpt>
      <trkpt lat="45.19051" lon="5.82224">
        <ele>272</ele>
        <time>2017-10-25T15:25:19Z</time>
      </trkpt>
      <trkpt lat="45.19045" lon="5.82216">
        <ele>273</ele>
        <time>2017-10-25T15:25:20Z</time>
      </trkpt>
      <trkpt lat="45.19047" lon="5.822">
        <ele>270</ele>
        <time>2017-10-25T15:25:21Z</time>
      </trkpt>
      <trkpt lat="45.19046" lon="5.82191">
        <ele>269</ele>
        <time>2017-10-25T15:25:22Z</time>
      </trkpt>
      <trkpt lat="45.19047" lon="5.82183">
        <ele>268</ele>
        <time>2017-10-25T15:25:23Z</time>
      </trkpt>
      <trkpt lat="45.19048" lon="5.82169">
        <ele>266</ele>
        <time>2017-10-25T15:25:25Z</time>
      </trkpt>
      <trkpt lat="45.19046" lon="5.82162">
        <ele>265</ele>
        <time>2017-10-25T15:25:26Z</time>
      </trkpt>
      <trkpt lat="45.19053" lon="5.82154">
        <ele>262</ele>
        <time>2017-10-25T15:25:28Z</time>
      </trkpt>
      <trkpt lat="45.19054" lon="5.82147">
        <ele>261</ele>
        <time>2017-10-25T15:25:29Z</time>
      </trkpt>
      <trkpt lat="45.19037" lon="5.82151">
        <ele>267</ele>
        <time>2017-10-25T15:25:31Z</time>
      </trkpt>
      <trkpt lat="45.19038" lon="5.82159">
        <ele>268</ele>
        <time>2017-10-25T15:26:37Z</time>
      </trkpt>
      <trkpt lat="45.19042" lon="5.82167">
        <ele>267</ele>
        <time>2017-10-25T15:26:39Z</time>
      </trkpt>
      <trkpt lat="45.19051" lon="5.82176">
        <ele>265</ele>
        <time>2017-10-25T15:26:41Z</time>
      </trkpt>
      <trkpt lat="45.19062" lon="5.82186">
        <ele>263</ele>
        <time>2017-10-25T15:26:42Z</time>
      </trkpt>
      <trkpt lat="45.19067" lon="5.82195">
        <ele>262</ele>
        <time>2017-10-25T15:26:43Z</time>
      </trkpt>
      <trkpt lat="45.19075" lon="5.82204">
        <ele>260</ele>
        <time>2017-10-25T15:26:44Z</time>
      </trkpt>
      <trkpt lat="45.19081" lon="5.82216">
        <ele>259</ele>
        <time>2017-10-25T15:26:45Z</time>
      </trkpt>
      <trkpt lat="45.19087" lon="5.8223">
        <ele>258</ele>
        <time>2017-10-25T15:26:46Z</time>
      </trkpt>
      <trkpt lat="45.19091" lon="5.82241">
        <ele>257</ele>
        <time>2017-10-25T15:26:47Z</time>
      </trkpt>
      <trkpt lat="45.19105" lon="5.82258">
        <ele>254</ele>
        <time>2017-10-25T15:26:48Z</time>
      </trkpt>
      <trkpt lat="45.19117" lon="5.82271">
        <ele>251</ele>
        <time>2017-10-25T15:26:49Z</time>
      </trkpt>
      <trkpt lat="45.1912" lon="5.8228">
        <ele>250</ele>
        <time>2017-10-25T15:26:50Z</time>
      </trkpt>
      <trkpt lat="45.19121" lon="5.82289">
        <ele>251</ele>
        <time>2017-10-25T15:26:51Z</time>
      </trkpt>
      <trkpt lat="45.19129" lon="5.82295">
        <ele>248</ele>
        <time>2017-10-25T15:26:52Z</time>
      </trkpt>
      <trkpt lat="45.1914" lon="5.82305">
        <ele>245</ele>
        <time>2017-10-25T15:26:54Z</time>
      </trkpt>
      <trkpt lat="45.19148" lon="5.82315">
        <ele>243</ele>
        <time>2017-10-25T15:26:56Z</time>
      </trkpt>
      <trkpt lat="45.19156" lon="5.82324">
        <ele>240</ele>
        <time>2017-10-25T15:26:58Z</time>
      </trkpt>
      <trkpt lat="45.19161" lon="5.8233">
        <ele>239</ele>
        <time>2017-10-25T15:26:59Z</time>
      </trkpt>
      <trkpt lat="45.19165" lon="5.82334">
        <ele>238</ele>
        <time>2017-10-25T15:27:00Z</time>
      </trkpt>
      <trkpt lat="45.19169" lon="5.82343">
        <ele>238</ele>
        <time>2017-10-25T15:27:02Z</time>
      </trkpt>
      <trkpt lat="45.19172" lon="5.82351">
        <ele>238</ele>
        <time>2017-10-25T15:27:05Z</time>
      </trkpt>
      <trkpt lat="45.19175" lon="5.82356">
        <ele>238</ele>
        <time>2017-10-25T15:27:07Z</time>
      </trkpt>
      <trkpt lat="45.19179" lon="5.82362">
        <ele>237</ele>
        <time>2017-10-25T15:27:10Z</time>
      </trkpt>
      <trkpt lat="45.1918" lon="5.82355">
        <ele>236</ele>
        <time>2017-10-25T15:27:14Z</time>
      </trkpt>
      <trkpt lat="45.19176" lon="5.82346">
        <ele>236</ele>
        <time>2017-10-25T15:27:17Z</time>
      </trkpt>
      <trkpt lat="45.19174" lon="5.82339">
        <ele>236</ele>
        <time>2017-10-25T15:27:19Z</time>
      </trkpt>
      <trkpt lat="45.19175" lon="5.82327">
        <ele>236</ele>
        <time>2017-10-25T15:27:21Z</time>
      </trkpt>
      <trkpt lat="45.19175" lon="5.8232">
        <ele>235</ele>
        <time>2017-10-25T15:27:22Z</time>
      </trkpt>
      <trkpt lat="45.19175" lon="5.82312">
        <ele>235</ele>
        <time>2017-10-25T15:27:23Z</time>
      </trkpt>
      <trkpt lat="45.19173" lon="5.82303">
        <ele>235</ele>
        <time>2017-10-25T15:27:24Z</time>
      </trkpt>
      <trkpt lat="45.19174" lon="5.82291">
        <ele>234</ele>
        <time>2017-10-25T15:27:26Z</time>
      </trkpt>
      <trkpt lat="45.19175" lon="5.82277">
        <ele>233</ele>
        <time>2017-10-25T15:27:28Z</time>
      </trkpt>
      <trkpt lat="45.19177" lon="5.82267">
        <ele>232</ele>
        <time>2017-10-25T15:27:30Z</time>
      </trkpt>
      <trkpt lat="45.19184" lon="5.8225">
        <ele>230</ele>
        <time>2017-10-25T15:27:33Z</time>
      </trkpt>
      <trkpt lat="45.19187" lon="5.82244">
        <ele>230</ele>
        <time>2017-10-25T15:27:34Z</time>
      </trkpt>
      <trkpt lat="45.19187" lon="5.82237">
        <ele>230</ele>
        <time>2017-10-25T15:27:36Z</time>
      </trkpt>
      <trkpt lat="45.19191" lon="5.82232">
        <ele>229</ele>
        <time>2017-10-25T15:28:10Z</time>
      </trkpt>
      <trkpt lat="45.19194" lon="5.82226">
        <ele>228</ele>
        <time>2017-10-25T15:28:12Z</time>
      </trkpt>
      <trkpt lat="45.19197" lon="5.82217">
        <ele>227</ele>
        <time>2017-10-25T15:28:14Z</time>
      </trkpt>
      <trkpt lat="45.19199" lon="5.82208">
        <ele>227</ele>
        <time>2017-10-25T15:28:16Z</time>
      </trkpt>
      <trkpt lat="45.19202" lon="5.82196">
        <ele>226</ele>
        <time>2017-10-25T15:28:18Z</time>
      </trkpt>
      <trkpt lat="45.19205" lon="5.82185">
        <ele>226</ele>
        <time>2017-10-25T15:28:20Z</time>
      </trkpt>
      <trkpt lat="45.19211" lon="5.82172">
        <ele>225</ele>
        <time>2017-10-25T15:28:22Z</time>
      </trkpt>
      <trkpt lat="45.19217" lon="5.82162">
        <ele>224</ele>
        <time>2017-10-25T15:28:24Z</time>
      </trkpt>
      <trkpt lat="45.1922" lon="5.82154">
        <ele>223</ele>
        <time>2017-10-25T15:28:25Z</time>
      </trkpt>
      <trkpt lat="45.19228" lon="5.82142">
        <ele>222</ele>
        <time>2017-10-25T15:28:27Z</time>
      </trkpt>
      <trkpt lat="45.19235" lon="5.82129">
        <ele>222</ele>
        <time>2017-10-25T15:28:29Z</time>
      </trkpt>
      <trkpt lat="45.19238" lon="5.82121">
        <ele>222</ele>
        <time>2017-10-25T15:28:30Z</time>
      </trkpt>
      <trkpt lat="45.19251" lon="5.82104">
        <ele>222</ele>
        <time>2017-10-25T15:28:32Z</time>
      </trkpt>
      <trkpt lat="45.19265" lon="5.82085">
        <ele>221</ele>
        <time>2017-10-25T15:28:34Z</time>
      </trkpt>
      <trkpt lat="45.1927" lon="5.82075">
        <ele>221</ele>
        <time>2017-10-25T15:28:35Z</time>
      </trkpt>
      <trkpt lat="45.19276" lon="5.82067">
        <ele>221</ele>
        <time>2017-10-25T15:28:36Z</time>
      </trkpt>
      <trkpt lat="45.19281" lon="5.82059">
        <ele>220</ele>
        <time>2017-10-25T15:28:37Z</time>
      </trkpt>
      <trkpt lat="45.19286" lon="5.82051">
        <ele>220</ele>
        <time>2017-10-25T15:28:38Z</time>
      </trkpt>
      <trkpt lat="45.19292" lon="5.82043">
        <ele>220</ele>
        <time>2017-10-25T15:28:39Z</time>
      </trkpt>
      <trkpt lat="45.19296" lon="5.82036">
        <ele>220</ele>
        <time>2017-10-25T15:28:40Z</time>
      </trkpt>
      <trkpt lat="45.19301" lon="5.82023">
        <ele>220</ele>
        <time>2017-10-25T15:28:42Z</time>
      </trkpt>
      <trkpt lat="45.19305" lon="5.82017">
        <ele>220</ele>
        <time>2017-10-25T15:28:44Z</time>
      </trkpt>
      <trkpt lat="45.1931" lon="5.82013">
        <ele>220</ele>
        <time>2017-10-25T15:28:49Z</time>
      </trkpt>
      <trkpt lat="45.19315" lon="5.82009">
        <ele>220</ele>
        <time>2017-10-25T15:29:11Z</time>
      </trkpt>
      <trkpt lat="45.19318" lon="5.82002">
        <ele>220</ele>
        <time>2017-10-25T15:29:14Z</time>
      </trkpt>
      <trkpt lat="45.19322" lon="5.81996">
        <ele>220</ele>
        <time>2017-10-25T15:29:16Z</time>
      </trkpt>
      <trkpt lat="45.19326" lon="5.8199">
        <ele>220</ele>
        <time>2017-10-25T15:29:18Z</time>
      </trkpt>
      <trkpt lat="45.19332" lon="5.81985">
        <ele>220</ele>
        <time>2017-10-25T15:29:20Z</time>
      </trkpt>
      <trkpt lat="45.19339" lon="5.81983">
        <ele>220</ele>
        <time>2017-10-25T15:29:22Z</time>
      </trkpt>
      <trkpt lat="45.19345" lon="5.81983">
        <ele>220</ele>
        <time>2017-10-25T15:29:24Z</time>
      </trkpt>
      <trkpt lat="45.19352" lon="5.81986">
        <ele>220</ele>
        <time>2017-10-25T15:29:26Z</time>
      </trkpt>
      <trkpt lat="45.19359" lon="5.81992">
        <ele>220</ele>
        <time>2017-10-25T15:29:28Z</time>
      </trkpt>
      <trkpt lat="45.19366" lon="5.82">
        <ele>220</ele>
        <time>2017-10-25T15:29:30Z</time>
      </trkpt>
      <trkpt lat="45.19372" lon="5.82008">
        <ele>219</ele>
        <time>2017-10-25T15:29:32Z</time>
      </trkpt>
      <trkpt lat="45.19379" lon="5.82015">
        <ele>219</ele>
        <time>2017-10-25T15:29:34Z</time>
      </trkpt>
      <trkpt lat="45.19386" lon="5.82022">
        <ele>219</ele>
        <time>2017-10-25T15:29:36Z</time>
      </trkpt>
      <trkpt lat="45.19394" lon="5.8203">
        <ele>219</ele>
        <time>2017-10-25T15:29:38Z</time>
      </trkpt>
      <trkpt lat="45.19401" lon="5.82036">
        <ele>219</ele>
        <time>2017-10-25T15:29:40Z</time>
      </trkpt>
      <trkpt lat="45.19408" lon="5.82045">
        <ele>219</ele>
        <time>2017-10-25T15:29:42Z</time>
      </trkpt>
      <trkpt lat="45.19412" lon="5.82049">
        <ele>219</ele>
        <time>2017-10-25T15:29:43Z</time>
      </trkpt>
      <trkpt lat="45.1942" lon="5.82057">
        <ele>219</ele>
        <time>2017-10-25T15:29:45Z</time>
      </trkpt>
      <trkpt lat="45.19424" lon="5.82062">
        <ele>219</ele>
        <time>2017-10-25T15:29:46Z</time>
      </trkpt>
      <trkpt lat="45.19428" lon="5.82066">
        <ele>219</ele>
        <time>2017-10-25T15:29:47Z</time>
      </trkpt>
      <trkpt lat="45.19432" lon="5.8207">
        <ele>219</ele>
        <time>2017-10-25T15:29:48Z</time>
      </trkpt>
      <trkpt lat="45.19436" lon="5.82074">
        <ele>219</ele>
        <time>2017-10-25T15:29:49Z</time>
      </trkpt>
      <trkpt lat="45.19439" lon="5.8208">
        <ele>219</ele>
        <time>2017-10-25T15:29:50Z</time>
      </trkpt>
      <trkpt lat="45.19447" lon="5.82088">
        <ele>219</ele>
        <time>2017-10-25T15:29:52Z</time>
      </trkpt>
      <trkpt lat="45.19456" lon="5.82095">
        <ele>219</ele>
        <time>2017-10-25T15:29:54Z</time>
      </trkpt>
      <trkpt lat="45.1946" lon="5.82099">
        <ele>219</ele>
        <time>2017-10-25T15:29:55Z</time>
      </trkpt>
      <trkpt lat="45.19472" lon="5.82111">
        <ele>219</ele>
        <time>2017-10-25T15:29:58Z</time>
      </trkpt>
      <trkpt lat="45.19476" lon="5.82115">
        <ele>219</ele>
        <time>2017-10-25T15:29:59Z</time>
      </trkpt>
      <trkpt lat="45.19479" lon="5.82119">
        <ele>219</ele>
        <time>2017-10-25T15:30:00Z</time>
      </trkpt>
      <trkpt lat="45.19484" lon="5.82124">
        <ele>219</ele>
        <time>2017-10-25T15:30:01Z</time>
      </trkpt>
      <trkpt lat="45.19488" lon="5.82128">
        <ele>219</ele>
        <time>2017-10-25T15:30:02Z</time>
      </trkpt>
      <trkpt lat="45.19491" lon="5.82133">
        <ele>219</ele>
        <time>2017-10-25T15:30:03Z</time>
      </trkpt>
      <trkpt lat="45.19495" lon="5.82137">
        <ele>219</ele>
        <time>2017-10-25T15:30:04Z</time>
      </trkpt>
      <trkpt lat="45.19499" lon="5.8214">
        <ele>219</ele>
        <time>2017-10-25T15:30:05Z</time>
      </trkpt>
      <trkpt lat="45.19503" lon="5.82146">
        <ele>218</ele>
        <time>2017-10-25T15:30:06Z</time>
      </trkpt>
      <trkpt lat="45.19511" lon="5.82154">
        <ele>218</ele>
        <time>2017-10-25T15:30:08Z</time>
      </trkpt>
      <trkpt lat="45.19516" lon="5.82158">
        <ele>218</ele>
        <time>2017-10-25T15:30:09Z</time>
      </trkpt>
      <trkpt lat="45.1952" lon="5.82164">
        <ele>218</ele>
        <time>2017-10-25T15:30:10Z</time>
      </trkpt>
      <trkpt lat="45.19524" lon="5.82168">
        <ele>218</ele>
        <time>2017-10-25T15:30:11Z</time>
      </trkpt>
      <trkpt lat="45.19531" lon="5.82174">
        <ele>218</ele>
        <time>2017-10-25T15:30:13Z</time>
      </trkpt>
      <trkpt lat="45.19539" lon="5.82182">
        <ele>218</ele>
        <time>2017-10-25T15:30:15Z</time>
      </trkpt>
      <trkpt lat="45.19542" lon="5.82186">
        <ele>218</ele>
        <time>2017-10-25T15:30:16Z</time>
      </trkpt>
      <trkpt lat="45.1955" lon="5.82195">
        <ele>218</ele>
        <time>2017-10-25T15:30:18Z</time>
      </trkpt>
      <trkpt lat="45.19559" lon="5.82203">
        <ele>218</ele>
        <time>2017-10-25T15:30:20Z</time>
      </trkpt>
      <trkpt lat="45.19563" lon="5.82208">
        <ele>218</ele>
        <time>2017-10-25T15:30:21Z</time>
      </trkpt>
      <trkpt lat="45.19567" lon="5.82213">
        <ele>218</ele>
        <time>2017-10-25T15:30:22Z</time>
      </trkpt>
      <trkpt lat="45.19575" lon="5.82221">
        <ele>218</ele>
        <time>2017-10-25T15:30:24Z</time>
      </trkpt>
      <trkpt lat="45.19583" lon="5.82229">
        <ele>218</ele>
        <time>2017-10-25T15:30:26Z</time>
      </trkpt>
      <trkpt lat="45.19587" lon="5.82233">
        <ele>218</ele>
        <time>2017-10-25T15:30:27Z</time>
      </trkpt>
      <trkpt lat="45.19594" lon="5.82242">
        <ele>218</ele>
        <time>2017-10-25T15:30:29Z</time>
      </trkpt>
      <trkpt lat="45.19602" lon="5.82249">
        <ele>218</ele>
        <time>2017-10-25T15:30:31Z</time>
      </trkpt>
      <trkpt lat="45.19613" lon="5.82261">
        <ele>218</ele>
        <time>2017-10-25T15:30:34Z</time>
      </trkpt>
      <trkpt lat="45.19621" lon="5.8227">
        <ele>218</ele>
        <time>2017-10-25T15:30:36Z</time>
      </trkpt>
      <trkpt lat="45.19626" lon="5.82274">
        <ele>218</ele>
        <time>2017-10-25T15:30:37Z</time>
      </trkpt>
      <trkpt lat="45.19634" lon="5.82283">
        <ele>218</ele>
        <time>2017-10-25T15:30:39Z</time>
      </trkpt>
      <trkpt lat="45.19641" lon="5.82292">
        <ele>218</ele>
        <time>2017-10-25T15:30:41Z</time>
      </trkpt>
      <trkpt lat="45.19645" lon="5.82297">
        <ele>218</ele>
        <time>2017-10-25T15:30:42Z</time>
      </trkpt>
      <trkpt lat="45.1965" lon="5.82302">
        <ele>218</ele>
        <time>2017-10-25T15:30:43Z</time>
      </trkpt>
      <trkpt lat="45.19658" lon="5.8231">
        <ele>218</ele>
        <time>2017-10-25T15:30:45Z</time>
      </trkpt>
      <trkpt lat="45.19665" lon="5.82318">
        <ele>218</ele>
        <time>2017-10-25T15:30:47Z</time>
      </trkpt>
      <trkpt lat="45.19669" lon="5.82322">
        <ele>218</ele>
        <time>2017-10-25T15:30:48Z</time>
      </trkpt>
      <trkpt lat="45.19677" lon="5.82329">
        <ele>218</ele>
        <time>2017-10-25T15:30:50Z</time>
      </trkpt>
      <trkpt lat="45.19685" lon="5.82339">
        <ele>218</ele>
        <time>2017-10-25T15:30:52Z</time>
      </trkpt>
      <trkpt lat="45.19693" lon="5.82347">
        <ele>218</ele>
        <time>2017-10-25T15:30:54Z</time>
      </trkpt>
      <trkpt lat="45.197" lon="5.82355">
        <ele>218</ele>
        <time>2017-10-25T15:30:56Z</time>
      </trkpt>
      <trkpt lat="45.19708" lon="5.82363">
        <ele>218</ele>
        <time>2017-10-25T15:30:58Z</time>
      </trkpt>
      <trkpt lat="45.19719" lon="5.82375">
        <ele>218</ele>
        <time>2017-10-25T15:31:01Z</time>
      </trkpt>
      <trkpt lat="45.19723" lon="5.82379">
        <ele>218</ele>
        <time>2017-10-25T15:31:02Z</time>
      </trkpt>
      <trkpt lat="45.1973" lon="5.82387">
        <ele>218</ele>
        <time>2017-10-25T15:31:04Z</time>
      </trkpt>
      <trkpt lat="45.19738" lon="5.82395">
        <ele>218</ele>
        <time>2017-10-25T15:31:06Z</time>
      </trkpt>
      <trkpt lat="45.19745" lon="5.82403">
        <ele>218</ele>
        <time>2017-10-25T15:31:08Z</time>
      </trkpt>
      <trkpt lat="45.19749" lon="5.82407">
        <ele>218</ele>
        <time>2017-10-25T15:31:09Z</time>
      </trkpt>
      <trkpt lat="45.19753" lon="5.82411">
        <ele>218</ele>
        <time>2017-10-25T15:31:10Z</time>
      </trkpt>
      <trkpt lat="45.19761" lon="5.82419">
        <ele>218</ele>
        <time>2017-10-25T15:31:12Z</time>
      </trkpt>
      <trkpt lat="45.19769" lon="5.82427">
        <ele>218</ele>
        <time>2017-10-25T15:31:14Z</time>
      </trkpt>
      <trkpt lat="45.19776" lon="5.82433">
        <ele>218</ele>
        <time>2017-10-25T15:31:16Z</time>
      </trkpt>
      <trkpt lat="45.19784" lon="5.82442">
        <ele>218</ele>
        <time>2017-10-25T15:31:18Z</time>
      </trkpt>
      <trkpt lat="45.19791" lon="5.82449">
        <ele>218</ele>
        <time>2017-10-25T15:31:20Z</time>
      </trkpt>
      <trkpt lat="45.19795" lon="5.82454">
        <ele>218</ele>
        <time>2017-10-25T15:31:21Z</time>
      </trkpt>
      <trkpt lat="45.19798" lon="5.82458">
        <ele>218</ele>
        <time>2017-10-25T15:31:22Z</time>
      </trkpt>
      <trkpt lat="45.19806" lon="5.82464">
        <ele>218</ele>
        <time>2017-10-25T15:31:24Z</time>
      </trkpt>
      <trkpt lat="45.19813" lon="5.82473">
        <ele>218</ele>
        <time>2017-10-25T15:31:26Z</time>
      </trkpt>
      <trkpt lat="45.19817" lon="5.82478">
        <ele>218</ele>
        <time>2017-10-25T15:31:27Z</time>
      </trkpt>
      <trkpt lat="45.19825" lon="5.82485">
        <ele>218</ele>
        <time>2017-10-25T15:31:29Z</time>
      </trkpt>
      <trkpt lat="45.19836" lon="5.82497">
        <ele>218</ele>
        <time>2017-10-25T15:31:32Z</time>
      </trkpt>
      <trkpt lat="45.19843" lon="5.82506">
        <ele>218</ele>
        <time>2017-10-25T15:31:34Z</time>
      </trkpt>
      <trkpt lat="45.19851" lon="5.82514">
        <ele>218</ele>
        <time>2017-10-25T15:31:36Z</time>
      </trkpt>
      <trkpt lat="45.19858" lon="5.82521">
        <ele>218</ele>
        <time>2017-10-25T15:31:38Z</time>
      </trkpt>
      <trkpt lat="45.19865" lon="5.82527">
        <ele>218</ele>
        <time>2017-10-25T15:31:40Z</time>
      </trkpt>
      <trkpt lat="45.1987" lon="5.82531">
        <ele>218</ele>
        <time>2017-10-25T15:31:41Z</time>
      </trkpt>
      <trkpt lat="45.19874" lon="5.82536">
        <ele>218</ele>
        <time>2017-10-25T15:31:42Z</time>
      </trkpt>
      <trkpt lat="45.19878" lon="5.82541">
        <ele>218</ele>
        <time>2017-10-25T15:31:43Z</time>
      </trkpt>
      <trkpt lat="45.19885" lon="5.82548">
        <ele>218</ele>
        <time>2017-10-25T15:31:45Z</time>
      </trkpt>
      <trkpt lat="45.19889" lon="5.82552">
        <ele>219</ele>
        <time>2017-10-25T15:31:46Z</time>
      </trkpt>
      <trkpt lat="45.19896" lon="5.8256">
        <ele>219</ele>
        <time>2017-10-25T15:31:48Z</time>
      </trkpt>
      <trkpt lat="45.19904" lon="5.82569">
        <ele>219</ele>
        <time>2017-10-25T15:31:50Z</time>
      </trkpt>
      <trkpt lat="45.19908" lon="5.82573">
        <ele>219</ele>
        <time>2017-10-25T15:31:51Z</time>
      </trkpt>
      <trkpt lat="45.19915" lon="5.8258">
        <ele>219</ele>
        <time>2017-10-25T15:31:53Z</time>
      </trkpt>
      <trkpt lat="45.19923" lon="5.82588">
        <ele>219</ele>
        <time>2017-10-25T15:31:55Z</time>
      </trkpt>
      <trkpt lat="45.19927" lon="5.82592">
        <ele>219</ele>
        <time>2017-10-25T15:31:56Z</time>
      </trkpt>
      <trkpt lat="45.19931" lon="5.82597">
        <ele>219</ele>
        <time>2017-10-25T15:31:57Z</time>
      </trkpt>
      <trkpt lat="45.19935" lon="5.82601">
        <ele>219</ele>
        <time>2017-10-25T15:31:58Z</time>
      </trkpt>
      <trkpt lat="45.19943" lon="5.82609">
        <ele>219</ele>
        <time>2017-10-25T15:32:00Z</time>
      </trkpt>
      <trkpt lat="45.19951" lon="5.82616">
        <ele>219</ele>
        <time>2017-10-25T15:32:02Z</time>
      </trkpt>
      <trkpt lat="45.19954" lon="5.82622">
        <ele>219</ele>
        <time>2017-10-25T15:32:03Z</time>
      </trkpt>
      <trkpt lat="45.19962" lon="5.8263">
        <ele>219</ele>
        <time>2017-10-25T15:32:05Z</time>
      </trkpt>
      <trkpt lat="45.19966" lon="5.82634">
        <ele>219</ele>
        <time>2017-10-25T15:32:06Z</time>
      </trkpt>
      <trkpt lat="45.19972" lon="5.82642">
        <ele>219</ele>
        <time>2017-10-25T15:32:08Z</time>
      </trkpt>
      <trkpt lat="45.1998" lon="5.8265">
        <ele>219</ele>
        <time>2017-10-25T15:32:10Z</time>
      </trkpt>
      <trkpt lat="45.19986" lon="5.82659">
        <ele>219</ele>
        <time>2017-10-25T15:32:12Z</time>
      </trkpt>
      <trkpt lat="45.19991" lon="5.82666">
        <ele>219</ele>
        <time>2017-10-25T15:32:14Z</time>
      </trkpt>
      <trkpt lat="45.19997" lon="5.82675">
        <ele>219</ele>
        <time>2017-10-25T15:32:16Z</time>
      </trkpt>
      <trkpt lat="45.20002" lon="5.82684">
        <ele>219</ele>
        <time>2017-10-25T15:32:18Z</time>
      </trkpt>
      <trkpt lat="45.20007" lon="5.82694">
        <ele>219</ele>
        <time>2017-10-25T15:32:20Z</time>
      </trkpt>
      <trkpt lat="45.20011" lon="5.82704">
        <ele>219</ele>
        <time>2017-10-25T15:32:22Z</time>
      </trkpt>
      <trkpt lat="45.20014" lon="5.82715">
        <ele>219</ele>
        <time>2017-10-25T15:32:24Z</time>
      </trkpt>
      <trkpt lat="45.20017" lon="5.82726">
        <ele>219</ele>
        <time>2017-10-25T15:32:26Z</time>
      </trkpt>
      <trkpt lat="45.20021" lon="5.82737">
        <ele>219</ele>
        <time>2017-10-25T15:32:28Z</time>
      </trkpt>
      <trkpt lat="45.20025" lon="5.82747">
        <ele>219</ele>
        <time>2017-10-25T15:32:30Z</time>
      </trkpt>
      <trkpt lat="45.2003" lon="5.82756">
        <ele>219</ele>
        <time>2017-10-25T15:32:32Z</time>
      </trkpt>
      <trkpt lat="45.20033" lon="5.82761">
        <ele>220</ele>
        <time>2017-10-25T15:32:33Z</time>
      </trkpt>
      <trkpt lat="45.20038" lon="5.82769">
        <ele>220</ele>
        <time>2017-10-25T15:32:34Z</time>
      </trkpt>
      <trkpt lat="45.2004" lon="5.82775">
        <ele>220</ele>
        <time>2017-10-25T15:32:35Z</time>
      </trkpt>
      <trkpt lat="45.20041" lon="5.82782">
        <ele>220</ele>
        <time>2017-10-25T15:32:36Z</time>
      </trkpt>
      <trkpt lat="45.20042" lon="5.82788">
        <ele>220</ele>
        <time>2017-10-25T15:32:37Z</time>
      </trkpt>
      <trkpt lat="45.20043" lon="5.82795">
        <ele>220</ele>
        <time>2017-10-25T15:32:38Z</time>
      </trkpt>
      <trkpt lat="45.20046" lon="5.82807">
        <ele>220</ele>
        <time>2017-10-25T15:32:40Z</time>
      </trkpt>
      <trkpt lat="45.20051" lon="5.82819">
        <ele>220</ele>
        <time>2017-10-25T15:32:42Z</time>
      </trkpt>
      <trkpt lat="45.20054" lon="5.82824">
        <ele>220</ele>
        <time>2017-10-25T15:32:43Z</time>
      </trkpt>
      <trkpt lat="45.20058" lon="5.82834">
        <ele>221</ele>
        <time>2017-10-25T15:32:45Z</time>
      </trkpt>
      <trkpt lat="45.20062" lon="5.82839">
        <ele>221</ele>
        <time>2017-10-25T15:32:46Z</time>
      </trkpt>
      <trkpt lat="45.20067" lon="5.82848">
        <ele>221</ele>
        <time>2017-10-25T15:32:48Z</time>
      </trkpt>
      <trkpt lat="45.20072" lon="5.82858">
        <ele>221</ele>
        <time>2017-10-25T15:32:50Z</time>
      </trkpt>
      <trkpt lat="45.20078" lon="5.82867">
        <ele>221</ele>
        <time>2017-10-25T15:32:52Z</time>
      </trkpt>
      <trkpt lat="45.20084" lon="5.82876">
        <ele>221</ele>
        <time>2017-10-25T15:32:54Z</time>
      </trkpt>
      <trkpt lat="45.2009" lon="5.82884">
        <ele>221</ele>
        <time>2017-10-25T15:32:56Z</time>
      </trkpt>
      <trkpt lat="45.20093" lon="5.82889">
        <ele>221</ele>
        <time>2017-10-25T15:32:57Z</time>
      </trkpt>
      <trkpt lat="45.20096" lon="5.82894">
        <ele>222</ele>
        <time>2017-10-25T15:32:58Z</time>
      </trkpt>
      <trkpt lat="45.20102" lon="5.82905">
        <ele>222</ele>
        <time>2017-10-25T15:33:00Z</time>
      </trkpt>
      <trkpt lat="45.20105" lon="5.8291">
        <ele>222</ele>
        <time>2017-10-25T15:33:01Z</time>
      </trkpt>
      <trkpt lat="45.20112" lon="5.82921">
        <ele>222</ele>
        <time>2017-10-25T15:33:03Z</time>
      </trkpt>
      <trkpt lat="45.20115" lon="5.82926">
        <ele>222</ele>
        <time>2017-10-25T15:33:04Z</time>
      </trkpt>
      <trkpt lat="45.2012" lon="5.82935">
        <ele>222</ele>
        <time>2017-10-25T15:33:06Z</time>
      </trkpt>
      <trkpt lat="45.20123" lon="5.8294">
        <ele>222</ele>
        <time>2017-10-25T15:33:07Z</time>
      </trkpt>
      <trkpt lat="45.20129" lon="5.82951">
        <ele>222</ele>
        <time>2017-10-25T15:33:09Z</time>
      </trkpt>
      <trkpt lat="45.20133" lon="5.82963">
        <ele>222</ele>
        <time>2017-10-25T15:33:11Z</time>
      </trkpt>
      <trkpt lat="45.20137" lon="5.82975">
        <ele>222</ele>
        <time>2017-10-25T15:33:13Z</time>
      </trkpt>
      <trkpt lat="45.20138" lon="5.82982">
        <ele>223</ele>
        <time>2017-10-25T15:33:14Z</time>
      </trkpt>
      <trkpt lat="45.20139" lon="5.82989">
        <ele>223</ele>
        <time>2017-10-25T15:33:15Z</time>
      </trkpt>
      <trkpt lat="45.2014" lon="5.83002">
        <ele>223</ele>
        <time>2017-10-25T15:33:17Z</time>
      </trkpt>
      <trkpt lat="45.2014" lon="5.83009">
        <ele>223</ele>
        <time>2017-10-25T15:33:18Z</time>
      </trkpt>
      <trkpt lat="45.2014" lon="5.83016">
        <ele>223</ele>
        <time>2017-10-25T15:33:19Z</time>
      </trkpt>
      <trkpt lat="45.20141" lon="5.83023">
        <ele>223</ele>
        <time>2017-10-25T15:33:20Z</time>
      </trkpt>
      <trkpt lat="45.20141" lon="5.83029">
        <ele>223</ele>
        <time>2017-10-25T15:33:21Z</time>
      </trkpt>
      <trkpt lat="45.20141" lon="5.8304">
        <ele>223</ele>
        <time>2017-10-25T15:33:23Z</time>
      </trkpt>
      <trkpt lat="45.20143" lon="5.83052">
        <ele>224</ele>
        <time>2017-10-25T15:33:25Z</time>
      </trkpt>
      <trkpt lat="45.20145" lon="5.83058">
        <ele>224</ele>
        <time>2017-10-25T15:33:26Z</time>
      </trkpt>
      <trkpt lat="45.20148" lon="5.83067">
        <ele>224</ele>
        <time>2017-10-25T15:33:28Z</time>
      </trkpt>
      <trkpt lat="45.20152" lon="5.83077">
        <ele>224</ele>
        <time>2017-10-25T15:33:30Z</time>
      </trkpt>
      <trkpt lat="45.20157" lon="5.83086">
        <ele>225</ele>
        <time>2017-10-25T15:33:32Z</time>
      </trkpt>
      <trkpt lat="45.20162" lon="5.83094">
        <ele>225</ele>
        <time>2017-10-25T15:33:34Z</time>
      </trkpt>
      <trkpt lat="45.20168" lon="5.83102">
        <ele>225</ele>
        <time>2017-10-25T15:33:36Z</time>
      </trkpt>
      <trkpt lat="45.20174" lon="5.83109">
        <ele>225</ele>
        <time>2017-10-25T15:33:38Z</time>
      </trkpt>
      <trkpt lat="45.20179" lon="5.83118">
        <ele>225</ele>
        <time>2017-10-25T15:33:40Z</time>
      </trkpt>
      <trkpt lat="45.20185" lon="5.83127">
        <ele>225</ele>
        <time>2017-10-25T15:33:42Z</time>
      </trkpt>
      <trkpt lat="45.20191" lon="5.83136">
        <ele>225</ele>
        <time>2017-10-25T15:33:44Z</time>
      </trkpt>
      <trkpt lat="45.20198" lon="5.83145">
        <ele>225</ele>
        <time>2017-10-25T15:33:46Z</time>
      </trkpt>
      <trkpt lat="45.20204" lon="5.83153">
        <ele>225</ele>
        <time>2017-10-25T15:33:48Z</time>
      </trkpt>
      <trkpt lat="45.2021" lon="5.8316">
        <ele>225</ele>
        <time>2017-10-25T15:33:50Z</time>
      </trkpt>
      <trkpt lat="45.20216" lon="5.83166">
        <ele>225</ele>
        <time>2017-10-25T15:33:52Z</time>
      </trkpt>
      <trkpt lat="45.20221" lon="5.83172">
        <ele>225</ele>
        <time>2017-10-25T15:33:54Z</time>
      </trkpt>
      <trkpt lat="45.20225" lon="5.83176">
        <ele>224</ele>
        <time>2017-10-25T15:33:56Z</time>
      </trkpt>
      <trkpt lat="45.20231" lon="5.83178">
        <ele>224</ele>
        <time>2017-10-25T15:33:58Z</time>
      </trkpt>
      <trkpt lat="45.20236" lon="5.83174">
        <ele>224</ele>
        <time>2017-10-25T15:34:00Z</time>
      </trkpt>
      <trkpt lat="45.20241" lon="5.83165">
        <ele>224</ele>
        <time>2017-10-25T15:34:02Z</time>
      </trkpt>
      <trkpt lat="45.20245" lon="5.83155">
        <ele>224</ele>
        <time>2017-10-25T15:34:04Z</time>
      </trkpt>
      <trkpt lat="45.20248" lon="5.83144">
        <ele>223</ele>
        <time>2017-10-25T15:34:06Z</time>
      </trkpt>
      <trkpt lat="45.20252" lon="5.83133">
        <ele>223</ele>
        <time>2017-10-25T15:34:08Z</time>
      </trkpt>
      <trkpt lat="45.20256" lon="5.83123">
        <ele>223</ele>
        <time>2017-10-25T15:34:10Z</time>
      </trkpt>
      <trkpt lat="45.2026" lon="5.83114">
        <ele>223</ele>
        <time>2017-10-25T15:34:12Z</time>
      </trkpt>
      <trkpt lat="45.20265" lon="5.83107">
        <ele>222</ele>
        <time>2017-10-25T15:34:14Z</time>
      </trkpt>
      <trkpt lat="45.2027" lon="5.831">
        <ele>222</ele>
        <time>2017-10-25T15:34:16Z</time>
      </trkpt>
      <trkpt lat="45.20275" lon="5.83094">
        <ele>222</ele>
        <time>2017-10-25T15:34:18Z</time>
      </trkpt>
      <trkpt lat="45.20281" lon="5.83088">
        <ele>222</ele>
        <time>2017-10-25T15:34:20Z</time>
      </trkpt>
      <trkpt lat="45.20285" lon="5.83081">
        <ele>222</ele>
        <time>2017-10-25T15:34:22Z</time>
      </trkpt>
      <trkpt lat="45.2029" lon="5.83074">
        <ele>222</ele>
        <time>2017-10-25T15:34:24Z</time>
      </trkpt>
      <trkpt lat="45.20295" lon="5.83066">
        <ele>221</ele>
        <time>2017-10-25T15:34:26Z</time>
      </trkpt>
      <trkpt lat="45.20299" lon="5.83056">
        <ele>221</ele>
        <time>2017-10-25T15:34:28Z</time>
      </trkpt>
      <trkpt lat="45.20303" lon="5.83046">
        <ele>221</ele>
        <time>2017-10-25T15:34:30Z</time>
      </trkpt>
      <trkpt lat="45.20309" lon="5.83036">
        <ele>221</ele>
        <time>2017-10-25T15:34:32Z</time>
      </trkpt>
      <trkpt lat="45.20314" lon="5.83026">
        <ele>221</ele>
        <time>2017-10-25T15:34:34Z</time>
      </trkpt>
      <trkpt lat="45.20319" lon="5.8302">
        <ele>221</ele>
        <time>2017-10-25T15:34:35Z</time>
      </trkpt>
      <trkpt lat="45.20323" lon="5.83015">
        <ele>221</ele>
        <time>2017-10-25T15:34:36Z</time>
      </trkpt>
      <trkpt lat="45.20331" lon="5.83005">
        <ele>220</ele>
        <time>2017-10-25T15:34:38Z</time>
      </trkpt>
      <trkpt lat="45.20337" lon="5.82995">
        <ele>220</ele>
        <time>2017-10-25T15:34:40Z</time>
      </trkpt>
      <trkpt lat="45.20344" lon="5.82986">
        <ele>220</ele>
        <time>2017-10-25T15:34:42Z</time>
      </trkpt>
      <trkpt lat="45.20349" lon="5.82976">
        <ele>220</ele>
        <time>2017-10-25T15:34:44Z</time>
      </trkpt>
      <trkpt lat="45.20354" lon="5.82969">
        <ele>220</ele>
        <time>2017-10-25T15:34:46Z</time>
      </trkpt>
      <trkpt lat="45.20358" lon="5.82962">
        <ele>220</ele>
        <time>2017-10-25T15:34:48Z</time>
      </trkpt>
      <trkpt lat="45.20363" lon="5.82954">
        <ele>220</ele>
        <time>2017-10-25T15:34:50Z</time>
      </trkpt>
      <trkpt lat="45.20368" lon="5.82946">
        <ele>220</ele>
        <time>2017-10-25T15:34:52Z</time>
      </trkpt>
      <trkpt lat="45.20374" lon="5.82937">
        <ele>220</ele>
        <time>2017-10-25T15:34:54Z</time>
      </trkpt>
      <trkpt lat="45.20381" lon="5.8293">
        <ele>220</ele>
        <time>2017-10-25T15:34:56Z</time>
      </trkpt>
      <trkpt lat="45.20387" lon="5.82924">
        <ele>220</ele>
        <time>2017-10-25T15:34:58Z</time>
      </trkpt>
      <trkpt lat="45.20393" lon="5.82925">
        <ele>220</ele>
        <time>2017-10-25T15:35:01Z</time>
      </trkpt>
      <trkpt lat="45.20398" lon="5.8293">
        <ele>219</ele>
        <time>2017-10-25T15:35:03Z</time>
      </trkpt>
      <trkpt lat="45.20404" lon="5.82934">
        <ele>219</ele>
        <time>2017-10-25T15:35:05Z</time>
      </trkpt>
      <trkpt lat="45.20411" lon="5.82937">
        <ele>219</ele>
        <time>2017-10-25T15:35:07Z</time>
      </trkpt>
      <trkpt lat="45.20418" lon="5.82939">
        <ele>219</ele>
        <time>2017-10-25T15:35:09Z</time>
      </trkpt>
      <trkpt lat="45.20425" lon="5.82942">
        <ele>219</ele>
        <time>2017-10-25T15:35:11Z</time>
      </trkpt>
      <trkpt lat="45.20433" lon="5.82944">
        <ele>219</ele>
        <time>2017-10-25T15:35:13Z</time>
      </trkpt>
      <trkpt lat="45.20438" lon="5.82946">
        <ele>219</ele>
        <time>2017-10-25T15:35:14Z</time>
      </trkpt>
      <trkpt lat="45.20443" lon="5.82948">
        <ele>219</ele>
        <time>2017-10-25T15:35:15Z</time>
      </trkpt>
      <trkpt lat="45.20447" lon="5.8295">
        <ele>219</ele>
        <time>2017-10-25T15:35:16Z</time>
      </trkpt>
      <trkpt lat="45.20451" lon="5.82953">
        <ele>219</ele>
        <time>2017-10-25T15:35:17Z</time>
      </trkpt>
      <trkpt lat="45.20456" lon="5.82955">
        <ele>219</ele>
        <time>2017-10-25T15:35:18Z</time>
      </trkpt>
      <trkpt lat="45.20463" lon="5.82961">
        <ele>219</ele>
        <time>2017-10-25T15:35:20Z</time>
      </trkpt>
      <trkpt lat="45.20471" lon="5.82966">
        <ele>219</ele>
        <time>2017-10-25T15:35:22Z</time>
      </trkpt>
      <trkpt lat="45.20479" lon="5.82968">
        <ele>219</ele>
        <time>2017-10-25T15:35:24Z</time>
      </trkpt>
      <trkpt lat="45.20487" lon="5.82969">
        <ele>219</ele>
        <time>2017-10-25T15:35:26Z</time>
      </trkpt>
      <trkpt lat="45.20494" lon="5.82972">
        <ele>219</ele>
        <time>2017-10-25T15:35:28Z</time>
      </trkpt>
      <trkpt lat="45.20501" lon="5.82974">
        <ele>219</ele>
        <time>2017-10-25T15:35:30Z</time>
      </trkpt>
      <trkpt lat="45.20507" lon="5.82975">
        <ele>219</ele>
        <time>2017-10-25T15:35:32Z</time>
      </trkpt>
      <trkpt lat="45.20514" lon="5.82978">
        <ele>219</ele>
        <time>2017-10-25T15:35:34Z</time>
      </trkpt>
      <trkpt lat="45.20521" lon="5.82981">
        <ele>219</ele>
        <time>2017-10-25T15:35:36Z</time>
      </trkpt>
      <trkpt lat="45.20529" lon="5.82983">
        <ele>219</ele>
        <time>2017-10-25T15:35:38Z</time>
      </trkpt>
      <trkpt lat="45.20537" lon="5.82982">
        <ele>219</ele>
        <time>2017-10-25T15:35:40Z</time>
      </trkpt>
      <trkpt lat="45.20545" lon="5.82979">
        <ele>219</ele>
        <time>2017-10-25T15:35:42Z</time>
      </trkpt>
      <trkpt lat="45.20552" lon="5.82976">
        <ele>219</ele>
        <time>2017-10-25T15:35:44Z</time>
      </trkpt>
      <trkpt lat="45.20561" lon="5.82978">
        <ele>219</ele>
        <time>2017-10-25T15:35:46Z</time>
      </trkpt>
      <trkpt lat="45.20568" lon="5.82981">
        <ele>219</ele>
        <time>2017-10-25T15:35:48Z</time>
      </trkpt>
      <trkpt lat="45.20573" lon="5.82985">
        <ele>219</ele>
        <time>2017-10-25T15:35:50Z</time>
      </trkpt>
      <trkpt lat="45.20577" lon="5.82988">
        <ele>219</ele>
        <time>2017-10-25T15:35:53Z</time>
      </trkpt>
      <trkpt lat="45.20576" lon="5.82982">
        <ele>219</ele>
        <time>2017-10-25T15:36:42Z</time>
      </trkpt>
      <trkpt lat="45.20569" lon="5.8298">
        <ele>219</ele>
        <time>2017-10-25T15:36:46Z</time>
      </trkpt>
      <trkpt lat="45.20561" lon="5.82976">
        <ele>219</ele>
        <time>2017-10-25T15:36:48Z</time>
      </trkpt>
      <trkpt lat="45.20556" lon="5.82972">
        <ele>219</ele>
        <time>2017-10-25T15:36:49Z</time>
      </trkpt>
      <trkpt lat="45.20552" lon="5.82967">
        <ele>219</ele>
        <time>2017-10-25T15:36:50Z</time>
      </trkpt>
      <trkpt lat="45.20551" lon="5.82956">
        <ele>219</ele>
        <time>2017-10-25T15:36:52Z</time>
      </trkpt>
      <trkpt lat="45.20551" lon="5.82949">
        <ele>219</ele>
        <time>2017-10-25T15:36:53Z</time>
      </trkpt>
      <trkpt lat="45.20552" lon="5.82943">
        <ele>219</ele>
        <time>2017-10-25T15:36:54Z</time>
      </trkpt>
      <trkpt lat="45.20554" lon="5.82936">
        <ele>219</ele>
        <time>2017-10-25T15:36:55Z</time>
      </trkpt>
      <trkpt lat="45.20555" lon="5.82929">
        <ele>219</ele>
        <time>2017-10-25T15:36:56Z</time>
      </trkpt>
      <trkpt lat="45.20557" lon="5.82919">
        <ele>219</ele>
        <time>2017-10-25T15:36:57Z</time>
      </trkpt>
      <trkpt lat="45.20563" lon="5.82911">
        <ele>219</ele>
        <time>2017-10-25T15:36:59Z</time>
      </trkpt>
      <trkpt lat="45.2057" lon="5.82903">
        <ele>219</ele>
        <time>2017-10-25T15:37:01Z</time>
      </trkpt>
      <trkpt lat="45.20578" lon="5.82897">
        <ele>219</ele>
        <time>2017-10-25T15:37:03Z</time>
      </trkpt>
      <trkpt lat="45.20585" lon="5.82881">
        <ele>219</ele>
        <time>2017-10-25T15:37:05Z</time>
      </trkpt>
      <trkpt lat="45.20589" lon="5.82871">
        <ele>219</ele>
        <time>2017-10-25T15:37:08Z</time>
      </trkpt>
      <trkpt lat="45.20594" lon="5.82864">
        <ele>219</ele>
        <time>2017-10-25T15:37:10Z</time>
      </trkpt>
      <trkpt lat="45.20598" lon="5.82861">
        <ele>219</ele>
        <time>2017-10-25T15:37:12Z</time>
      </trkpt>
      <trkpt lat="45.20605" lon="5.82858">
        <ele>219</ele>
        <time>2017-10-25T15:37:14Z</time>
      </trkpt>
      <trkpt lat="45.2061" lon="5.82855">
        <ele>219</ele>
        <time>2017-10-25T15:37:16Z</time>
      </trkpt>
      <trkpt lat="45.20615" lon="5.82854">
        <ele>219</ele>
        <time>2017-10-25T15:37:18Z</time>
      </trkpt>
      <trkpt lat="45.20618" lon="5.82861">
        <ele>219</ele>
        <time>2017-10-25T15:37:20Z</time>
      </trkpt>
      <trkpt lat="45.20618" lon="5.82872">
        <ele>219</ele>
        <time>2017-10-25T15:37:22Z</time>
      </trkpt>
      <trkpt lat="45.20622" lon="5.82883">
        <ele>219</ele>
        <time>2017-10-25T15:37:25Z</time>
      </trkpt>
      <trkpt lat="45.20628" lon="5.82886">
        <ele>219</ele>
        <time>2017-10-25T15:37:27Z</time>
      </trkpt>
      <trkpt lat="45.20637" lon="5.82889">
        <ele>219</ele>
        <time>2017-10-25T15:37:29Z</time>
      </trkpt>
      <trkpt lat="45.20645" lon="5.82894">
        <ele>219</ele>
        <time>2017-10-25T15:37:31Z</time>
      </trkpt>
      <trkpt lat="45.20648" lon="5.82902">
        <ele>219</ele>
        <time>2017-10-25T15:37:33Z</time>
      </trkpt>
      <trkpt lat="45.2065" lon="5.82911">
        <ele>219</ele>
        <time>2017-10-25T15:37:35Z</time>
      </trkpt>
      <trkpt lat="45.20654" lon="5.82917">
        <ele>219</ele>
        <time>2017-10-25T15:37:37Z</time>
      </trkpt>
      <trkpt lat="45.2065" lon="5.82909">
        <ele>219</ele>
        <time>2017-10-25T15:37:43Z</time>
      </trkpt>
      <trkpt lat="45.20649" lon="5.82901">
        <ele>219</ele>
        <time>2017-10-25T15:37:45Z</time>
      </trkpt>
      <trkpt lat="45.20648" lon="5.82893">
        <ele>219</ele>
        <time>2017-10-25T15:37:47Z</time>
      </trkpt>
      <trkpt lat="45.20649" lon="5.82885">
        <ele>219</ele>
        <time>2017-10-25T15:37:49Z</time>
      </trkpt>
      <trkpt lat="45.2065" lon="5.82876">
        <ele>219</ele>
        <time>2017-10-25T15:37:51Z</time>
      </trkpt>
      <trkpt lat="45.20649" lon="5.82868">
        <ele>219</ele>
        <time>2017-10-25T15:37:53Z</time>
      </trkpt>
      <trkpt lat="45.20648" lon="5.82859">
        <ele>219</ele>
        <time>2017-10-25T15:37:55Z</time>
      </trkpt>
      <trkpt lat="45.20646" lon="5.82851">
        <ele>219</ele>
        <time>2017-10-25T15:37:57Z</time>
      </trkpt>
      <trkpt lat="45.20643" lon="5.82843">
        <ele>219</ele>
        <time>2017-10-25T15:37:59Z</time>
      </trkpt>
      <trkpt lat="45.20639" lon="5.82836">
        <ele>219</ele>
        <time>2017-10-25T15:38:01Z</time>
      </trkpt>
      <trkpt lat="45.20636" lon="5.8283">
        <ele>219</ele>
        <time>2017-10-25T15:38:03Z</time>
      </trkpt>
      <trkpt lat="45.20637" lon="5.82823">
        <ele>218</ele>
        <time>2017-10-25T15:38:05Z</time>
      </trkpt>
      <trkpt lat="45.20639" lon="5.82816">
        <ele>218</ele>
        <time>2017-10-25T15:38:08Z</time>
      </trkpt>
      <trkpt lat="45.20645" lon="5.82812">
        <ele>218</ele>
        <time>2017-10-25T15:38:11Z</time>
      </trkpt>
      <trkpt lat="45.2065" lon="5.82807">
        <ele>218</ele>
        <time>2017-10-25T15:38:14Z</time>
      </trkpt>
      <trkpt lat="45.20654" lon="5.82799">
        <ele>218</ele>
        <time>2017-10-25T15:38:16Z</time>
      </trkpt>
      <trkpt lat="45.20659" lon="5.8279">
        <ele>218</ele>
        <time>2017-10-25T15:38:18Z</time>
      </trkpt>
      <trkpt lat="45.20665" lon="5.82782">
        <ele>218</ele>
        <time>2017-10-25T15:38:20Z</time>
      </trkpt>
      <trkpt lat="45.2067" lon="5.82773">
        <ele>218</ele>
        <time>2017-10-25T15:38:22Z</time>
      </trkpt>
      <trkpt lat="45.20676" lon="5.82765">
        <ele>218</ele>
        <time>2017-10-25T15:38:24Z</time>
      </trkpt>
      <trkpt lat="45.2068" lon="5.82761">
        <ele>217</ele>
        <time>2017-10-25T15:38:26Z</time>
      </trkpt>
    </trkseg>
  </trk>
</gpx>